<?xml version='1.0' encoding='UTF-8'?><gpx version="1.1" creator="JPX - https://github.com/jenetics/jpx" xmlns="http://www.topografix.com/GPX/1/1"><trk><trkseg><trkpt lat="43.344287" lon="11.9200158"><ele>302.0</ele><time>2026-04-24T14:47:55.065Z</time></trkpt><trkpt lat="43.3443574" lon="11.9199365"><ele>302.0</ele><time>2026-04-24T14:48:03.082Z</time></trkpt><trkpt lat="43.3443985" lon="11.9198286"><ele>302.0</ele><time>2026-04-24T14:48:04.077Z</time></trkpt><trkpt lat="43.3444367" lon="11.9196902"><ele>302.0</ele><time>2026-04-24T14:48:05.075Z</time></trkpt><trkpt lat="43.3444902" lon="11.9195406"><ele>302.0</ele><time>2026-04-24T14:48:06.092Z</time></trkpt><trkpt lat="43.3445465" lon="11.9193688"><ele>303.25</ele><time>2026-04-24T14:48:07.081Z</time></trkpt><trkpt lat="43.3446001" lon="11.919199"><ele>304.5</ele><time>2026-04-24T14:48:08.081Z</time></trkpt><trkpt lat="43.3446645" lon="11.9190322"><ele>305.75</ele><time>2026-04-24T14:48:09.084Z</time></trkpt><trkpt lat="43.3447297" lon="11.9188542"><ele>307.0</ele><time>2026-04-24T14:48:10.1Z</time></trkpt><trkpt lat="43.3447998" lon="11.9186735"><ele>307.0</ele><time>2026-04-24T14:48:11.085Z</time></trkpt><trkpt lat="43.3448778" lon="11.9185089"><ele>307.0</ele><time>2026-04-24T14:48:12.079Z</time></trkpt><trkpt lat="43.3449589" lon="11.9183515"><ele>307.0</ele><time>2026-04-24T14:48:13.087Z</time></trkpt><trkpt lat="43.3450388" lon="11.9182028"><ele>307.0</ele><time>2026-04-24T14:48:14.089Z</time></trkpt><trkpt lat="43.3451276" lon="11.9180839"><ele>304.2</ele><time>2026-04-24T14:48:15.082Z</time></trkpt><trkpt lat="43.3452053" lon="11.9179684"><ele>301.4</ele><time>2026-04-24T14:48:16.089Z</time></trkpt><trkpt lat="43.3452847" lon="11.9178636"><ele>298.6</ele><time>2026-04-24T14:48:17.09Z</time></trkpt><trkpt lat="43.3453599" lon="11.9177638"><ele>295.8</ele><time>2026-04-24T14:48:18.095Z</time></trkpt><trkpt lat="43.3454453" lon="11.9176685"><ele>293.0</ele><time>2026-04-24T14:48:19.089Z</time></trkpt><trkpt lat="43.3455379" lon="11.9175617"><ele>293.0</ele><time>2026-04-24T14:48:20.083Z</time></trkpt><trkpt lat="43.3456209" lon="11.9174603"><ele>293.0</ele><time>2026-04-24T14:48:21.09Z</time></trkpt><trkpt lat="43.3456844" lon="11.9173575"><ele>293.0</ele><time>2026-04-24T14:48:22.089Z</time></trkpt><trkpt lat="43.3457226" lon="11.9172796"><ele>293.0</ele><time>2026-04-24T14:48:23.087Z</time></trkpt><trkpt lat="43.3457243" lon="11.9171686"><ele>293.0</ele><time>2026-04-24T14:48:24.12Z</time></trkpt><trkpt lat="43.345708" lon="11.9170837"><ele>293.0</ele><time>2026-04-24T14:48:25.096Z</time></trkpt><trkpt lat="43.3456577" lon="11.9169927"><ele>293.0</ele><time>2026-04-24T14:48:26.096Z</time></trkpt><trkpt lat="43.3455911" lon="11.9169041"><ele>293.0</ele><time>2026-04-24T14:48:27.1Z</time></trkpt><trkpt lat="43.3455017" lon="11.9168238"><ele>293.0</ele><time>2026-04-24T14:48:28.093Z</time></trkpt><trkpt lat="43.3453976" lon="11.9167346"><ele>293.0</ele><time>2026-04-24T14:48:29.086Z</time></trkpt><trkpt lat="43.3452835" lon="11.9166444"><ele>291.25</ele><time>2026-04-24T14:48:30.098Z</time></trkpt><trkpt lat="43.3451722" lon="11.9165494"><ele>289.5</ele><time>2026-04-24T14:48:31.104Z</time></trkpt><trkpt lat="43.3450472" lon="11.9164517"><ele>287.75</ele><time>2026-04-24T14:48:32.091Z</time></trkpt><trkpt lat="43.3449235" lon="11.9163419"><ele>286.0</ele><time>2026-04-24T14:48:33.114Z</time></trkpt><trkpt lat="43.3447833" lon="11.9162349"><ele>284.0</ele><time>2026-04-24T14:48:34.096Z</time></trkpt><trkpt lat="43.3446511" lon="11.9161315"><ele>282.0</ele><time>2026-04-24T14:48:35.098Z</time></trkpt><trkpt lat="43.3445122" lon="11.916028"><ele>280.0</ele><time>2026-04-24T14:48:36.104Z</time></trkpt><trkpt lat="43.3443721" lon="11.9159172"><ele>279.25</ele><time>2026-04-24T14:48:37.102Z</time></trkpt><trkpt lat="43.3442404" lon="11.9158193"><ele>278.5</ele><time>2026-04-24T14:48:38.1Z</time></trkpt><trkpt lat="43.344112" lon="11.9157314"><ele>277.75</ele><time>2026-04-24T14:48:39.093Z</time></trkpt><trkpt lat="43.3439764" lon="11.9156318"><ele>277.0</ele><time>2026-04-24T14:48:40.104Z</time></trkpt><trkpt lat="43.3438378" lon="11.9155301"><ele>276.25</ele><time>2026-04-24T14:48:41.089Z</time></trkpt><trkpt lat="43.343704" lon="11.9154542"><ele>275.5</ele><time>2026-04-24T14:48:42.09Z</time></trkpt><trkpt lat="43.3435796" lon="11.9153844"><ele>274.75</ele><time>2026-04-24T14:48:43.1Z</time></trkpt><trkpt lat="43.34345" lon="11.9153058"><ele>274.0</ele><time>2026-04-24T14:48:44.095Z</time></trkpt><trkpt lat="43.343336" lon="11.9152389"><ele>274.0</ele><time>2026-04-24T14:48:45.099Z</time></trkpt><trkpt lat="43.3432312" lon="11.9151517"><ele>274.0</ele><time>2026-04-24T14:48:46.105Z</time></trkpt><trkpt lat="43.3431341" lon="11.915047"><ele>274.0</ele><time>2026-04-24T14:48:47.096Z</time></trkpt><trkpt lat="43.3430478" lon="11.9149283"><ele>274.0</ele><time>2026-04-24T14:48:48.113Z</time></trkpt><trkpt lat="43.3429863" lon="11.9148344"><ele>272.8571428571429</ele><time>2026-04-24T14:48:49.108Z</time></trkpt><trkpt lat="43.342951" lon="11.9147527"><ele>271.7142857142857</ele><time>2026-04-24T14:48:50.094Z</time></trkpt><trkpt lat="43.3429098" lon="11.9146764"><ele>270.57142857142856</ele><time>2026-04-24T14:48:52.103Z</time></trkpt><trkpt lat="43.3428899" lon="11.9145829"><ele>269.42857142857144</ele><time>2026-04-24T14:48:55.084Z</time></trkpt><trkpt lat="43.342797" lon="11.9145695"><ele>268.2857142857143</ele><time>2026-04-24T14:48:57.081Z</time></trkpt><trkpt lat="43.3427513" lon="11.9146306"><ele>267.14285714285717</ele><time>2026-04-24T14:48:58.078Z</time></trkpt><trkpt lat="43.3427103" lon="11.9147279"><ele>266.0</ele><time>2026-04-24T14:48:59.091Z</time></trkpt><trkpt lat="43.3426581" lon="11.9148439"><ele>266.0</ele><time>2026-04-24T14:49:00.085Z</time></trkpt><trkpt lat="43.3425836" lon="11.9149749"><ele>266.0</ele><time>2026-04-24T14:49:01.089Z</time></trkpt><trkpt lat="43.3425263" lon="11.9150765"><ele>266.0</ele><time>2026-04-24T14:49:02.09Z</time></trkpt><trkpt lat="43.3424861" lon="11.9151472"><ele>266.0</ele><time>2026-04-24T14:49:03.075Z</time></trkpt><trkpt lat="43.3424215" lon="11.9152383"><ele>266.0</ele><time>2026-04-24T14:49:05.092Z</time></trkpt><trkpt lat="43.3423362" lon="11.9152962"><ele>265.6</ele><time>2026-04-24T14:49:08.091Z</time></trkpt><trkpt lat="43.3422537" lon="11.9153271"><ele>265.20000000000005</ele><time>2026-04-24T14:49:10.099Z</time></trkpt><trkpt lat="43.3421881" lon="11.9154875"><ele>264.79999999999995</ele><time>2026-04-24T14:49:12.096Z</time></trkpt><trkpt lat="43.3421511" lon="11.9156031"><ele>264.4</ele><time>2026-04-24T14:49:13.1Z</time></trkpt><trkpt lat="43.3420953" lon="11.9157227"><ele>264.0</ele><time>2026-04-24T14:49:14.093Z</time></trkpt><trkpt lat="43.3420173" lon="11.9158566"><ele>264.25</ele><time>2026-04-24T14:49:15.092Z</time></trkpt><trkpt lat="43.3419284" lon="11.9159969"><ele>264.5</ele><time>2026-04-24T14:49:16.117Z</time></trkpt><trkpt lat="43.34184" lon="11.9161269"><ele>264.75</ele><time>2026-04-24T14:49:17.082Z</time></trkpt><trkpt lat="43.3417555" lon="11.9162475"><ele>265.0</ele><time>2026-04-24T14:49:18.091Z</time></trkpt><trkpt lat="43.3416751" lon="11.9163493"><ele>265.0</ele><time>2026-04-24T14:49:19.091Z</time></trkpt><trkpt lat="43.3416045" lon="11.9164243"><ele>265.0</ele><time>2026-04-24T14:49:20.086Z</time></trkpt><trkpt lat="43.3415485" lon="11.9164804"><ele>265.0</ele><time>2026-04-24T14:49:21.086Z</time></trkpt><trkpt lat="43.3414513" lon="11.9165174"><ele>265.0</ele><time>2026-04-24T14:49:23.082Z</time></trkpt><trkpt lat="43.3413676" lon="11.9165622"><ele>265.0</ele><time>2026-04-24T14:49:25.082Z</time></trkpt><trkpt lat="43.3413404" lon="11.9166629"><ele>265.0</ele><time>2026-04-24T14:51:14.085Z</time></trkpt><trkpt lat="43.3413631" lon="11.9167755"><ele>264.3333333333333</ele><time>2026-04-24T14:51:16.079Z</time></trkpt><trkpt lat="43.3413485" lon="11.9169058"><ele>263.66666666666663</ele><time>2026-04-24T14:51:19.084Z</time></trkpt><trkpt lat="43.3412976" lon="11.9170034"><ele>263.0</ele><time>2026-04-24T14:51:20.083Z</time></trkpt><trkpt lat="43.3412466" lon="11.9170895"><ele>262.3333333333333</ele><time>2026-04-24T14:51:21.089Z</time></trkpt><trkpt lat="43.3411885" lon="11.9171748"><ele>261.6666666666667</ele><time>2026-04-24T14:51:22.075Z</time></trkpt><trkpt lat="43.3411346" lon="11.9172548"><ele>261.0</ele><time>2026-04-24T14:51:23.091Z</time></trkpt><trkpt lat="43.3410818" lon="11.9173357"><ele>261.0</ele><time>2026-04-24T14:51:24.108Z</time></trkpt><trkpt lat="43.3410175" lon="11.9174219"><ele>261.0</ele><time>2026-04-24T14:51:25.086Z</time></trkpt><trkpt lat="43.3409554" lon="11.9175199"><ele>261.0</ele><time>2026-04-24T14:51:26.104Z</time></trkpt><trkpt lat="43.340892" lon="11.917617"><ele>261.0</ele><time>2026-04-24T14:51:27.087Z</time></trkpt><trkpt lat="43.3408253" lon="11.9177124"><ele>261.0</ele><time>2026-04-24T14:51:28.094Z</time></trkpt><trkpt lat="43.3407539" lon="11.9178107"><ele>261.0</ele><time>2026-04-24T14:51:29.087Z</time></trkpt><trkpt lat="43.3406869" lon="11.9179174"><ele>261.0</ele><time>2026-04-24T14:51:30.091Z</time></trkpt><trkpt lat="43.34061" lon="11.9180314"><ele>261.0</ele><time>2026-04-24T14:51:31.099Z</time></trkpt><trkpt lat="43.3405336" lon="11.9181482"><ele>261.0</ele><time>2026-04-24T14:51:32.095Z</time></trkpt><trkpt lat="43.3404571" lon="11.9182623"><ele>261.0</ele><time>2026-04-24T14:51:33.086Z</time></trkpt><trkpt lat="43.3403821" lon="11.9183765"><ele>261.5</ele><time>2026-04-24T14:51:34.097Z</time></trkpt><trkpt lat="43.340309" lon="11.9184922"><ele>262.0</ele><time>2026-04-24T14:51:35.084Z</time></trkpt><trkpt lat="43.3402324" lon="11.9186149"><ele>262.5</ele><time>2026-04-24T14:51:36.087Z</time></trkpt><trkpt lat="43.3401567" lon="11.9187377"><ele>263.0</ele><time>2026-04-24T14:51:37.093Z</time></trkpt><trkpt lat="43.3400794" lon="11.9188595"><ele>263.0</ele><time>2026-04-24T14:51:38.09Z</time></trkpt><trkpt lat="43.3400034" lon="11.9189806"><ele>263.0</ele><time>2026-04-24T14:51:39.087Z</time></trkpt><trkpt lat="43.3399216" lon="11.9191065"><ele>263.0</ele><time>2026-04-24T14:51:40.093Z</time></trkpt><trkpt lat="43.3398342" lon="11.9192313"><ele>263.0</ele><time>2026-04-24T14:51:41.102Z</time></trkpt><trkpt lat="43.339742" lon="11.9193722"><ele>262.75</ele><time>2026-04-24T14:51:42.089Z</time></trkpt><trkpt lat="43.3396522" lon="11.9195115"><ele>262.5</ele><time>2026-04-24T14:51:43.095Z</time></trkpt><trkpt lat="43.3395637" lon="11.9196426"><ele>262.25</ele><time>2026-04-24T14:51:44.091Z</time></trkpt><trkpt lat="43.3394758" lon="11.9197761"><ele>262.0</ele><time>2026-04-24T14:51:45.092Z</time></trkpt><trkpt lat="43.3393888" lon="11.9199091"><ele>262.0</ele><time>2026-04-24T14:51:46.089Z</time></trkpt><trkpt lat="43.3393027" lon="11.920038"><ele>262.0</ele><time>2026-04-24T14:51:47.091Z</time></trkpt><trkpt lat="43.3392165" lon="11.9201584"><ele>262.0</ele><time>2026-04-24T14:51:48.096Z</time></trkpt><trkpt lat="43.3391419" lon="11.9202706"><ele>262.0</ele><time>2026-04-24T14:51:49.093Z</time></trkpt><trkpt lat="43.3390674" lon="11.9203832"><ele>262.0</ele><time>2026-04-24T14:51:50.079Z</time></trkpt><trkpt lat="43.3389911" lon="11.9205005"><ele>262.0</ele><time>2026-04-24T14:51:51.096Z</time></trkpt><trkpt lat="43.3389159" lon="11.9206237"><ele>262.0</ele><time>2026-04-24T14:51:52.083Z</time></trkpt><trkpt lat="43.3388397" lon="11.9207436"><ele>262.0</ele><time>2026-04-24T14:51:53.081Z</time></trkpt><trkpt lat="43.3387666" lon="11.9208567"><ele>262.8</ele><time>2026-04-24T14:51:54.108Z</time></trkpt><trkpt lat="43.3387015" lon="11.920962"><ele>263.6</ele><time>2026-04-24T14:51:55.089Z</time></trkpt><trkpt lat="43.3386421" lon="11.9210626"><ele>264.40000000000003</ele><time>2026-04-24T14:51:56.091Z</time></trkpt><trkpt lat="43.3385783" lon="11.9211584"><ele>265.2</ele><time>2026-04-24T14:51:57.084Z</time></trkpt><trkpt lat="43.3385069" lon="11.9212621"><ele>266.0</ele><time>2026-04-24T14:51:58.091Z</time></trkpt><trkpt lat="43.3384336" lon="11.9213664"><ele>266.0</ele><time>2026-04-24T14:51:59.082Z</time></trkpt><trkpt lat="43.3383606" lon="11.9214777"><ele>266.0</ele><time>2026-04-24T14:52:00.093Z</time></trkpt><trkpt lat="43.3382862" lon="11.9215945"><ele>266.0</ele><time>2026-04-24T14:52:01.085Z</time></trkpt><trkpt lat="43.3382116" lon="11.9217137"><ele>266.0</ele><time>2026-04-24T14:52:02.093Z</time></trkpt><trkpt lat="43.3381358" lon="11.9218305"><ele>267.0</ele><time>2026-04-24T14:52:03.099Z</time></trkpt><trkpt lat="43.3380585" lon="11.9219644"><ele>268.0</ele><time>2026-04-24T14:52:04.093Z</time></trkpt><trkpt lat="43.3379784" lon="11.9220891"><ele>269.0</ele><time>2026-04-24T14:52:05.081Z</time></trkpt><trkpt lat="43.3378913" lon="11.9222115"><ele>270.0</ele><time>2026-04-24T14:52:06.093Z</time></trkpt><trkpt lat="43.3378056" lon="11.9223431"><ele>267.25</ele><time>2026-04-24T14:52:07.088Z</time></trkpt><trkpt lat="43.3377194" lon="11.9224785"><ele>264.5</ele><time>2026-04-24T14:52:08.088Z</time></trkpt><trkpt lat="43.3376251" lon="11.9226197"><ele>261.75</ele><time>2026-04-24T14:52:09.09Z</time></trkpt><trkpt lat="43.3375235" lon="11.9227766"><ele>259.0</ele><time>2026-04-24T14:52:10.1Z</time></trkpt><trkpt lat="43.337407" lon="11.9229435"><ele>259.0</ele><time>2026-04-24T14:52:11.095Z</time></trkpt><trkpt lat="43.3372789" lon="11.9231167"><ele>259.0</ele><time>2026-04-24T14:52:12.097Z</time></trkpt><trkpt lat="43.3371325" lon="11.9232693"><ele>259.0</ele><time>2026-04-24T14:52:13.104Z</time></trkpt><trkpt lat="43.3369825" lon="11.9234053"><ele>257.3333333333333</ele><time>2026-04-24T14:52:14.103Z</time></trkpt><trkpt lat="43.3368225" lon="11.9235033"><ele>255.66666666666669</ele><time>2026-04-24T14:52:15.11Z</time></trkpt><trkpt lat="43.3366604" lon="11.9235604"><ele>254.0</ele><time>2026-04-24T14:52:16.099Z</time></trkpt><trkpt lat="43.336492" lon="11.923598"><ele>253.66666666666669</ele><time>2026-04-24T14:52:17.098Z</time></trkpt><trkpt lat="43.3363267" lon="11.9236088"><ele>253.33333333333331</ele><time>2026-04-24T14:52:18.091Z</time></trkpt><trkpt lat="43.3361713" lon="11.9236178"><ele>253.0</ele><time>2026-04-24T14:52:19.104Z</time></trkpt><trkpt lat="43.336019" lon="11.923604"><ele>253.0</ele><time>2026-04-24T14:52:20.109Z</time></trkpt><trkpt lat="43.3358814" lon="11.923577"><ele>253.0</ele><time>2026-04-24T14:52:21.088Z</time></trkpt><trkpt lat="43.3357655" lon="11.9235519"><ele>253.0</ele><time>2026-04-24T14:52:22.092Z</time></trkpt><trkpt lat="43.3356697" lon="11.9235288"><ele>253.0</ele><time>2026-04-24T14:52:23.099Z</time></trkpt><trkpt lat="43.3356033" lon="11.9235101"><ele>253.0</ele><time>2026-04-24T14:52:24.096Z</time></trkpt><trkpt lat="43.3355337" lon="11.9234795"><ele>253.33333333333331</ele><time>2026-04-24T14:52:26.102Z</time></trkpt><trkpt lat="43.3354696" lon="11.9234555"><ele>253.66666666666666</ele><time>2026-04-24T14:52:29.091Z</time></trkpt><trkpt lat="43.3353847" lon="11.9234291"><ele>254.0</ele><time>2026-04-24T14:52:31.093Z</time></trkpt><trkpt lat="43.3352679" lon="11.9234031"><ele>254.33333333333331</ele><time>2026-04-24T14:52:33.09Z</time></trkpt><trkpt lat="43.335197" lon="11.9233846"><ele>254.66666666666666</ele><time>2026-04-24T14:52:34.087Z</time></trkpt><trkpt lat="43.3351182" lon="11.9233657"><ele>255.0</ele><time>2026-04-24T14:52:35.095Z</time></trkpt><trkpt lat="43.3350299" lon="11.923354"><ele>255.0</ele><time>2026-04-24T14:52:36.1Z</time></trkpt><trkpt lat="43.3349479" lon="11.923358"><ele>255.0</ele><time>2026-04-24T14:52:37.089Z</time></trkpt><trkpt lat="43.3348675" lon="11.9233949"><ele>255.0</ele><time>2026-04-24T14:52:38.097Z</time></trkpt><trkpt lat="43.3347911" lon="11.9234768"><ele>255.0</ele><time>2026-04-24T14:52:39.099Z</time></trkpt><trkpt lat="43.3347339" lon="11.9235696"><ele>255.0</ele><time>2026-04-24T14:52:40.093Z</time></trkpt><trkpt lat="43.3346973" lon="11.9236784"><ele>255.0</ele><time>2026-04-24T14:52:41.112Z</time></trkpt><trkpt lat="43.334693" lon="11.9238069"><ele>255.25</ele><time>2026-04-24T14:52:42.092Z</time></trkpt><trkpt lat="43.3347282" lon="11.9239291"><ele>255.5</ele><time>2026-04-24T14:52:43.089Z</time></trkpt><trkpt lat="43.3347961" lon="11.9240566"><ele>255.75</ele><time>2026-04-24T14:52:44.08Z</time></trkpt><trkpt lat="43.3348947" lon="11.9242047"><ele>256.0</ele><time>2026-04-24T14:52:45.105Z</time></trkpt><trkpt lat="43.3349847" lon="11.9243793"><ele>256.0</ele><time>2026-04-24T14:52:46.089Z</time></trkpt><trkpt lat="43.3350605" lon="11.9245709"><ele>256.0</ele><time>2026-04-24T14:52:47.08Z</time></trkpt><trkpt lat="43.3351295" lon="11.9247715"><ele>256.0</ele><time>2026-04-24T14:52:48.103Z</time></trkpt><trkpt lat="43.3351956" lon="11.9249865"><ele>256.0</ele><time>2026-04-24T14:52:49.082Z</time></trkpt><trkpt lat="43.3352532" lon="11.9252135"><ele>256.0</ele><time>2026-04-24T14:52:50.087Z</time></trkpt><trkpt lat="43.3353032" lon="11.9254439"><ele>256.0</ele><time>2026-04-24T14:52:51.086Z</time></trkpt><trkpt lat="43.3353405" lon="11.9256764"><ele>256.3333333333333</ele><time>2026-04-24T14:52:52.1Z</time></trkpt><trkpt lat="43.33536" lon="11.9259064"><ele>256.6666666666667</ele><time>2026-04-24T14:52:53.098Z</time></trkpt><trkpt lat="43.3353757" lon="11.9261417"><ele>257.0</ele><time>2026-04-24T14:52:54.097Z</time></trkpt><trkpt lat="43.3353891" lon="11.9263694"><ele>257.0</ele><time>2026-04-24T14:52:55.101Z</time></trkpt><trkpt lat="43.3354088" lon="11.9265931"><ele>257.0</ele><time>2026-04-24T14:52:56.088Z</time></trkpt><trkpt lat="43.3354479" lon="11.9268187"><ele>257.0</ele><time>2026-04-24T14:52:57.086Z</time></trkpt><trkpt lat="43.3355122" lon="11.927048"><ele>257.0</ele><time>2026-04-24T14:52:58.089Z</time></trkpt><trkpt lat="43.3355994" lon="11.9272591"><ele>257.0</ele><time>2026-04-24T14:52:59.099Z</time></trkpt><trkpt lat="43.3356883" lon="11.9274581"><ele>257.0</ele><time>2026-04-24T14:53:00.089Z</time></trkpt><trkpt lat="43.3357839" lon="11.9276578"><ele>257.0</ele><time>2026-04-24T14:53:01.089Z</time></trkpt><trkpt lat="43.3358862" lon="11.9278475"><ele>257.0</ele><time>2026-04-24T14:53:02.094Z</time></trkpt><trkpt lat="43.33601" lon="11.9280214"><ele>257.0</ele><time>2026-04-24T14:53:03.086Z</time></trkpt><trkpt lat="43.3361423" lon="11.9282074"><ele>257.0</ele><time>2026-04-24T14:53:04.109Z</time></trkpt><trkpt lat="43.3362835" lon="11.9283877"><ele>257.0</ele><time>2026-04-24T14:53:05.094Z</time></trkpt><trkpt lat="43.3364304" lon="11.9285288"><ele>257.0</ele><time>2026-04-24T14:53:06.104Z</time></trkpt><trkpt lat="43.3365737" lon="11.9286186"><ele>257.0</ele><time>2026-04-24T14:53:07.091Z</time></trkpt><trkpt lat="43.3367118" lon="11.9286845"><ele>257.0</ele><time>2026-04-24T14:53:08.108Z</time></trkpt><trkpt lat="43.3368579" lon="11.9287139"><ele>257.0</ele><time>2026-04-24T14:53:09.102Z</time></trkpt><trkpt lat="43.3370211" lon="11.92871"><ele>257.0</ele><time>2026-04-24T14:53:10.09Z</time></trkpt><trkpt lat="43.3372033" lon="11.9287026"><ele>257.0</ele><time>2026-04-24T14:53:11.091Z</time></trkpt><trkpt lat="43.3373968" lon="11.9287035"><ele>257.0</ele><time>2026-04-24T14:53:12.094Z</time></trkpt><trkpt lat="43.3375912" lon="11.9287048"><ele>257.33333333333337</ele><time>2026-04-24T14:53:13.094Z</time></trkpt><trkpt lat="43.3377837" lon="11.9287131"><ele>257.6666666666667</ele><time>2026-04-24T14:53:14.088Z</time></trkpt><trkpt lat="43.3379807" lon="11.9287557"><ele>258.0</ele><time>2026-04-24T14:53:15.098Z</time></trkpt><trkpt lat="43.3381734" lon="11.9288158"><ele>258.0</ele><time>2026-04-24T14:53:16.095Z</time></trkpt><trkpt lat="43.338363" lon="11.9288983"><ele>258.0</ele><time>2026-04-24T14:53:17.089Z</time></trkpt><trkpt lat="43.3385452" lon="11.9290074"><ele>258.0</ele><time>2026-04-24T14:53:18.118Z</time></trkpt><trkpt lat="43.3387376" lon="11.9291428"><ele>258.6666666666667</ele><time>2026-04-24T14:53:19.097Z</time></trkpt><trkpt lat="43.3389194" lon="11.929289"><ele>259.33333333333337</ele><time>2026-04-24T14:53:20.091Z</time></trkpt><trkpt lat="43.3390892" lon="11.9294237"><ele>260.0</ele><time>2026-04-24T14:53:21.096Z</time></trkpt><trkpt lat="43.3392367" lon="11.929541"><ele>260.0</ele><time>2026-04-24T14:53:22.091Z</time></trkpt><trkpt lat="43.3393755" lon="11.9296377"><ele>260.0</ele><time>2026-04-24T14:53:23.1Z</time></trkpt><trkpt lat="43.3395211" lon="11.9297383"><ele>260.0</ele><time>2026-04-24T14:53:24.095Z</time></trkpt><trkpt lat="43.3396815" lon="11.9298461"><ele>260.6666666666667</ele><time>2026-04-24T14:53:25.099Z</time></trkpt><trkpt lat="43.3398518" lon="11.9299428"><ele>261.3333333333333</ele><time>2026-04-24T14:53:26.083Z</time></trkpt><trkpt lat="43.3400293" lon="11.9300466"><ele>262.0</ele><time>2026-04-24T14:53:27.087Z</time></trkpt><trkpt lat="43.3401973" lon="11.9301581"><ele>262.66666666666663</ele><time>2026-04-24T14:53:28.09Z</time></trkpt><trkpt lat="43.3403584" lon="11.9302865"><ele>263.3333333333333</ele><time>2026-04-24T14:53:29.089Z</time></trkpt><trkpt lat="43.3405019" lon="11.930436"><ele>264.0</ele><time>2026-04-24T14:53:30.098Z</time></trkpt><trkpt lat="43.3406177" lon="11.9306033"><ele>264.0</ele><time>2026-04-24T14:53:31.093Z</time></trkpt><trkpt lat="43.3407213" lon="11.9307845"><ele>264.0</ele><time>2026-04-24T14:53:32.089Z</time></trkpt><trkpt lat="43.340802" lon="11.9309906"><ele>264.0</ele><time>2026-04-24T14:53:33.092Z</time></trkpt><trkpt lat="43.3408647" lon="11.9312291"><ele>264.0</ele><time>2026-04-24T14:53:34.106Z</time></trkpt><trkpt lat="43.3409334" lon="11.9314996"><ele>264.0</ele><time>2026-04-24T14:53:35.092Z</time></trkpt><trkpt lat="43.3410029" lon="11.9318006"><ele>264.0</ele><time>2026-04-24T14:53:36.093Z</time></trkpt><trkpt lat="43.3410692" lon="11.9320915"><ele>263.3333333333333</ele><time>2026-04-24T14:53:37.084Z</time></trkpt><trkpt lat="43.3411088" lon="11.9323825"><ele>262.66666666666663</ele><time>2026-04-24T14:53:38.084Z</time></trkpt><trkpt lat="43.3411505" lon="11.9326431"><ele>262.0</ele><time>2026-04-24T14:53:39.1Z</time></trkpt><trkpt lat="43.3412368" lon="11.9328829"><ele>262.0</ele><time>2026-04-24T14:53:40.082Z</time></trkpt><trkpt lat="43.3413468" lon="11.9331156"><ele>262.0</ele><time>2026-04-24T14:53:41.093Z</time></trkpt><trkpt lat="43.3414739" lon="11.9333402"><ele>262.0</ele><time>2026-04-24T14:53:42.1Z</time></trkpt><trkpt lat="43.3416022" lon="11.9335717"><ele>262.0</ele><time>2026-04-24T14:53:43.091Z</time></trkpt><trkpt lat="43.3417301" lon="11.9338031"><ele>262.0</ele><time>2026-04-24T14:53:44.103Z</time></trkpt><trkpt lat="43.3418612" lon="11.9340335"><ele>262.0</ele><time>2026-04-24T14:53:45.094Z</time></trkpt><trkpt lat="43.3420018" lon="11.9342563"><ele>262.0</ele><time>2026-04-24T14:53:46.089Z</time></trkpt><trkpt lat="43.3421532" lon="11.9344594"><ele>262.0</ele><time>2026-04-24T14:53:47.09Z</time></trkpt><trkpt lat="43.3422976" lon="11.9346545"><ele>262.0</ele><time>2026-04-24T14:53:48.089Z</time></trkpt><trkpt lat="43.3424404" lon="11.9348274"><ele>262.5</ele><time>2026-04-24T14:53:49.095Z</time></trkpt><trkpt lat="43.3425652" lon="11.9349873"><ele>263.0</ele><time>2026-04-24T14:53:50.091Z</time></trkpt><trkpt lat="43.3426516" lon="11.9351375"><ele>263.5</ele><time>2026-04-24T14:53:51.084Z</time></trkpt><trkpt lat="43.3427151" lon="11.9353026"><ele>264.0</ele><time>2026-04-24T14:53:52.103Z</time></trkpt><trkpt lat="43.3427459" lon="11.9354603"><ele>264.4</ele><time>2026-04-24T14:53:53.095Z</time></trkpt><trkpt lat="43.3427681" lon="11.9356145"><ele>264.79999999999995</ele><time>2026-04-24T14:53:54.114Z</time></trkpt><trkpt lat="43.3427536" lon="11.9357595"><ele>265.20000000000005</ele><time>2026-04-24T14:53:55.098Z</time></trkpt><trkpt lat="43.3427162" lon="11.9358873"><ele>265.6</ele><time>2026-04-24T14:53:56.084Z</time></trkpt><trkpt lat="43.3426757" lon="11.9360297"><ele>266.0</ele><time>2026-04-24T14:53:57.089Z</time></trkpt><trkpt lat="43.3426513" lon="11.9362004"><ele>266.0</ele><time>2026-04-24T14:53:58.091Z</time></trkpt><trkpt lat="43.3426256" lon="11.9363827"><ele>266.0</ele><time>2026-04-24T14:53:59.086Z</time></trkpt><trkpt lat="43.3426063" lon="11.9365769"><ele>266.0</ele><time>2026-04-24T14:54:00.102Z</time></trkpt><trkpt lat="43.3425753" lon="11.9367854"><ele>266.0</ele><time>2026-04-24T14:54:01.097Z</time></trkpt><trkpt lat="43.3425178" lon="11.9370131"><ele>265.6666666666667</ele><time>2026-04-24T14:54:02.095Z</time></trkpt><trkpt lat="43.3424455" lon="11.9372475"><ele>265.3333333333333</ele><time>2026-04-24T14:54:03.097Z</time></trkpt><trkpt lat="43.3423662" lon="11.9374866"><ele>265.0</ele><time>2026-04-24T14:54:04.09Z</time></trkpt><trkpt lat="43.3422951" lon="11.9377423"><ele>264.66666666666663</ele><time>2026-04-24T14:54:05.108Z</time></trkpt><trkpt lat="43.3422399" lon="11.9380127"><ele>264.3333333333333</ele><time>2026-04-24T14:54:06.097Z</time></trkpt><trkpt lat="43.3422036" lon="11.9382921"><ele>264.0</ele><time>2026-04-24T14:54:07.104Z</time></trkpt><trkpt lat="43.3421656" lon="11.9385576"><ele>263.6666666666667</ele><time>2026-04-24T14:54:08.096Z</time></trkpt><trkpt lat="43.3421167" lon="11.9388208"><ele>263.33333333333337</ele><time>2026-04-24T14:54:09.099Z</time></trkpt><trkpt lat="43.34205" lon="11.9390608"><ele>263.0</ele><time>2026-04-24T14:54:10.101Z</time></trkpt><trkpt lat="43.3419594" lon="11.9392959"><ele>263.6666666666667</ele><time>2026-04-24T14:54:11.09Z</time></trkpt><trkpt lat="43.3418557" lon="11.9394969"><ele>264.3333333333333</ele><time>2026-04-24T14:54:12.099Z</time></trkpt><trkpt lat="43.3417533" lon="11.9396802"><ele>265.0</ele><time>2026-04-24T14:54:13.105Z</time></trkpt><trkpt lat="43.3416533" lon="11.9398649"><ele>265.0</ele><time>2026-04-24T14:54:14.084Z</time></trkpt><trkpt lat="43.3415756" lon="11.9400541"><ele>265.0</ele><time>2026-04-24T14:54:15.109Z</time></trkpt><trkpt lat="43.3415139" lon="11.9402767"><ele>265.0</ele><time>2026-04-24T14:54:16.108Z</time></trkpt><trkpt lat="43.3414579" lon="11.9405066"><ele>265.0</ele><time>2026-04-24T14:54:17.089Z</time></trkpt><trkpt lat="43.3414269" lon="11.9407469"><ele>265.0</ele><time>2026-04-24T14:54:18.095Z</time></trkpt><trkpt lat="43.3414153" lon="11.9410002"><ele>265.0</ele><time>2026-04-24T14:54:19.095Z</time></trkpt><trkpt lat="43.3414133" lon="11.9412498"><ele>264.66666666666663</ele><time>2026-04-24T14:54:20.102Z</time></trkpt><trkpt lat="43.3413981" lon="11.9414958"><ele>264.3333333333333</ele><time>2026-04-24T14:54:21.093Z</time></trkpt><trkpt lat="43.3413698" lon="11.9417214"><ele>264.0</ele><time>2026-04-24T14:54:22.091Z</time></trkpt><trkpt lat="43.3413287" lon="11.9419155"><ele>263.6666666666667</ele><time>2026-04-24T14:54:23.1Z</time></trkpt><trkpt lat="43.3412662" lon="11.9421153"><ele>263.33333333333337</ele><time>2026-04-24T14:54:24.095Z</time></trkpt><trkpt lat="43.3411932" lon="11.9423384"><ele>263.0</ele><time>2026-04-24T14:54:25.096Z</time></trkpt><trkpt lat="43.3411192" lon="11.9425693"><ele>263.0</ele><time>2026-04-24T14:54:26.097Z</time></trkpt><trkpt lat="43.3410414" lon="11.9428119"><ele>263.0</ele><time>2026-04-24T14:54:27.088Z</time></trkpt><trkpt lat="43.3409693" lon="11.9430324"><ele>263.0</ele><time>2026-04-24T14:54:28.083Z</time></trkpt><trkpt lat="43.3408879" lon="11.9432174"><ele>263.0</ele><time>2026-04-24T14:54:29.102Z</time></trkpt><trkpt lat="43.3407786" lon="11.9433395"><ele>263.0</ele><time>2026-04-24T14:54:30.099Z</time></trkpt><trkpt lat="43.3406547" lon="11.9434484"><ele>263.0</ele><time>2026-04-24T14:54:31.096Z</time></trkpt><trkpt lat="43.3405328" lon="11.9435659"><ele>263.0</ele><time>2026-04-24T14:54:32.108Z</time></trkpt><trkpt lat="43.3404264" lon="11.943695"><ele>262.75</ele><time>2026-04-24T14:54:33.099Z</time></trkpt><trkpt lat="43.340342" lon="11.9438581"><ele>262.5</ele><time>2026-04-24T14:54:34.09Z</time></trkpt><trkpt lat="43.3402894" lon="11.9440403"><ele>262.25</ele><time>2026-04-24T14:54:35.077Z</time></trkpt><trkpt lat="43.3402508" lon="11.9442438"><ele>262.0</ele><time>2026-04-24T14:54:36.096Z</time></trkpt><trkpt lat="43.3402122" lon="11.944461"><ele>262.3333333333333</ele><time>2026-04-24T14:54:37.094Z</time></trkpt><trkpt lat="43.3401712" lon="11.9446802"><ele>262.6666666666667</ele><time>2026-04-24T14:54:38.079Z</time></trkpt><trkpt lat="43.3401197" lon="11.9449063"><ele>263.0</ele><time>2026-04-24T14:54:39.113Z</time></trkpt><trkpt lat="43.3400661" lon="11.9451377"><ele>263.0</ele><time>2026-04-24T14:54:40.087Z</time></trkpt><trkpt lat="43.3399988" lon="11.9453644"><ele>263.0</ele><time>2026-04-24T14:54:41.083Z</time></trkpt><trkpt lat="43.3399288" lon="11.9455908"><ele>263.0</ele><time>2026-04-24T14:54:42.101Z</time></trkpt><trkpt lat="43.3398587" lon="11.9458174"><ele>263.0</ele><time>2026-04-24T14:54:43.085Z</time></trkpt><trkpt lat="43.3397833" lon="11.9460522"><ele>263.0</ele><time>2026-04-24T14:54:44.096Z</time></trkpt><trkpt lat="43.339709" lon="11.9462836"><ele>263.0</ele><time>2026-04-24T14:54:45.096Z</time></trkpt><trkpt lat="43.3396346" lon="11.9465162"><ele>263.33333333333337</ele><time>2026-04-24T14:54:46.109Z</time></trkpt><trkpt lat="43.3395577" lon="11.9467563"><ele>263.6666666666667</ele><time>2026-04-24T14:54:47.089Z</time></trkpt><trkpt lat="43.3394855" lon="11.9469889"><ele>264.0</ele><time>2026-04-24T14:54:48.087Z</time></trkpt><trkpt lat="43.3394172" lon="11.9471972"><ele>264.0</ele><time>2026-04-24T14:54:49.095Z</time></trkpt><trkpt lat="43.3393504" lon="11.9473664"><ele>264.0</ele><time>2026-04-24T14:54:50.091Z</time></trkpt><trkpt lat="43.3393037" lon="11.9475125"><ele>264.0</ele><time>2026-04-24T14:54:51.088Z</time></trkpt><trkpt lat="43.3392677" lon="11.9476201"><ele>264.0</ele><time>2026-04-24T14:54:52.081Z</time></trkpt><trkpt lat="43.3392435" lon="11.9477505"><ele>264.0</ele><time>2026-04-24T14:54:54.086Z</time></trkpt><trkpt lat="43.3393529" lon="11.9478086"><ele>263.75</ele><time>2026-04-24T14:54:56.08Z</time></trkpt><trkpt lat="43.3394439" lon="11.9478788"><ele>263.5</ele><time>2026-04-24T14:54:57.078Z</time></trkpt><trkpt lat="43.3395426" lon="11.9479783"><ele>263.25</ele><time>2026-04-24T14:54:58.091Z</time></trkpt><trkpt lat="43.3396568" lon="11.9480971"><ele>263.0</ele><time>2026-04-24T14:54:59.085Z</time></trkpt><trkpt lat="43.3397847" lon="11.948236"><ele>263.6666666666667</ele><time>2026-04-24T14:55:00.084Z</time></trkpt><trkpt lat="43.3399277" lon="11.9483927"><ele>264.3333333333333</ele><time>2026-04-24T14:55:01.088Z</time></trkpt><trkpt lat="43.3400666" lon="11.9485504"><ele>265.0</ele><time>2026-04-24T14:55:02.091Z</time></trkpt><trkpt lat="43.3402065" lon="11.9487238"><ele>265.0</ele><time>2026-04-24T14:55:03.083Z</time></trkpt><trkpt lat="43.3403428" lon="11.9489037"><ele>265.0</ele><time>2026-04-24T14:55:04.093Z</time></trkpt><trkpt lat="43.340481" lon="11.9490951"><ele>265.0</ele><time>2026-04-24T14:55:05.085Z</time></trkpt><trkpt lat="43.3406196" lon="11.9492956"><ele>265.66666666666663</ele><time>2026-04-24T14:55:06.089Z</time></trkpt><trkpt lat="43.3407528" lon="11.9494998"><ele>266.3333333333333</ele><time>2026-04-24T14:55:07.088Z</time></trkpt><trkpt lat="43.3408839" lon="11.9497103"><ele>267.0</ele><time>2026-04-24T14:55:08.096Z</time></trkpt><trkpt lat="43.3410116" lon="11.9499203"><ele>267.0</ele><time>2026-04-24T14:55:09.084Z</time></trkpt><trkpt lat="43.3411408" lon="11.9501306"><ele>267.0</ele><time>2026-04-24T14:55:10.094Z</time></trkpt><trkpt lat="43.3412726" lon="11.9503379"><ele>267.0</ele><time>2026-04-24T14:55:11.09Z</time></trkpt><trkpt lat="43.3414015" lon="11.9505492"><ele>267.0</ele><time>2026-04-24T14:55:12.087Z</time></trkpt><trkpt lat="43.3415277" lon="11.9507569"><ele>267.0</ele><time>2026-04-24T14:55:13.088Z</time></trkpt><trkpt lat="43.3416515" lon="11.9509685"><ele>267.0</ele><time>2026-04-24T14:55:14.092Z</time></trkpt><trkpt lat="43.3417714" lon="11.9511837"><ele>267.0</ele><time>2026-04-24T14:55:15.079Z</time></trkpt><trkpt lat="43.3418803" lon="11.9514078"><ele>267.0</ele><time>2026-04-24T14:55:16.103Z</time></trkpt><trkpt lat="43.3419798" lon="11.9516415"><ele>267.0</ele><time>2026-04-24T14:55:17.094Z</time></trkpt><trkpt lat="43.3420825" lon="11.9518729"><ele>267.0</ele><time>2026-04-24T14:55:18.086Z</time></trkpt><trkpt lat="43.3421897" lon="11.9521028"><ele>267.0</ele><time>2026-04-24T14:55:19.086Z</time></trkpt><trkpt lat="43.3422855" lon="11.9523229"><ele>267.0</ele><time>2026-04-24T14:55:20.081Z</time></trkpt><trkpt lat="43.3423636" lon="11.9525092"><ele>267.4</ele><time>2026-04-24T14:55:21.08Z</time></trkpt><trkpt lat="43.3424252" lon="11.9526657"><ele>267.79999999999995</ele><time>2026-04-24T14:55:22.102Z</time></trkpt><trkpt lat="43.3424722" lon="11.9527829"><ele>268.2</ele><time>2026-04-24T14:55:23.086Z</time></trkpt><trkpt lat="43.342525" lon="11.9528857"><ele>268.59999999999997</ele><time>2026-04-24T14:55:25.082Z</time></trkpt><trkpt lat="43.3425897" lon="11.9528098"><ele>269.0</ele><time>2026-04-24T14:55:28.079Z</time></trkpt><trkpt lat="43.3426203" lon="11.9526741"><ele>269.0</ele><time>2026-04-24T14:55:30.087Z</time></trkpt><trkpt lat="43.3426805" lon="11.9527048"><ele>269.0</ele><time>2026-04-24T14:55:34.086Z</time></trkpt><trkpt lat="43.3427415" lon="11.9528735"><ele>269.0</ele><time>2026-04-24T14:55:36.087Z</time></trkpt><trkpt lat="43.3427778" lon="11.9529795"><ele>269.0</ele><time>2026-04-24T14:55:37.088Z</time></trkpt><trkpt lat="43.3428084" lon="11.9530952"><ele>269.0</ele><time>2026-04-24T14:55:38.082Z</time></trkpt><trkpt lat="43.3428475" lon="11.9532366"><ele>269.0</ele><time>2026-04-24T14:55:39.088Z</time></trkpt><trkpt lat="43.3428864" lon="11.9533901"><ele>269.0</ele><time>2026-04-24T14:55:40.077Z</time></trkpt><trkpt lat="43.3429281" lon="11.9535552"><ele>269.0</ele><time>2026-04-24T14:55:41.09Z</time></trkpt><trkpt lat="43.3429617" lon="11.9537249"><ele>269.0</ele><time>2026-04-24T14:55:42.09Z</time></trkpt><trkpt lat="43.3429936" lon="11.9539093"><ele>269.0</ele><time>2026-04-24T14:55:43.086Z</time></trkpt><trkpt lat="43.3430158" lon="11.9541026"><ele>269.0</ele><time>2026-04-24T14:55:44.082Z</time></trkpt><trkpt lat="43.3430347" lon="11.9542971"><ele>269.0</ele><time>2026-04-24T14:55:45.081Z</time></trkpt><trkpt lat="43.3430533" lon="11.954503"><ele>269.0</ele><time>2026-04-24T14:55:46.083Z</time></trkpt><trkpt lat="43.343079" lon="11.9547067"><ele>269.0</ele><time>2026-04-24T14:55:47.086Z</time></trkpt><trkpt lat="43.3431003" lon="11.954912"><ele>269.0</ele><time>2026-04-24T14:55:48.108Z</time></trkpt><trkpt lat="43.3431251" lon="11.9551092"><ele>269.0</ele><time>2026-04-24T14:55:49.088Z</time></trkpt><trkpt lat="43.3431518" lon="11.955293"><ele>269.0</ele><time>2026-04-24T14:55:50.083Z</time></trkpt><trkpt lat="43.343189" lon="11.9554505"><ele>269.0</ele><time>2026-04-24T14:55:51.079Z</time></trkpt><trkpt lat="43.3432335" lon="11.9555955"><ele>269.0</ele><time>2026-04-24T14:55:52.08Z</time></trkpt><trkpt lat="43.3432922" lon="11.9557344"><ele>269.0</ele><time>2026-04-24T14:55:53.094Z</time></trkpt><trkpt lat="43.3433636" lon="11.9558628"><ele>269.0</ele><time>2026-04-24T14:55:54.086Z</time></trkpt><trkpt lat="43.3434421" lon="11.955989"><ele>269.25</ele><time>2026-04-24T14:55:55.089Z</time></trkpt><trkpt lat="43.3435336" lon="11.9561122"><ele>269.5</ele><time>2026-04-24T14:55:56.089Z</time></trkpt><trkpt lat="43.3436304" lon="11.9562417"><ele>269.75</ele><time>2026-04-24T14:55:57.089Z</time></trkpt><trkpt lat="43.3437308" lon="11.9563843"><ele>270.0</ele><time>2026-04-24T14:55:58.102Z</time></trkpt><trkpt lat="43.3438374" lon="11.9565474"><ele>270.3333333333333</ele><time>2026-04-24T14:55:59.087Z</time></trkpt><trkpt lat="43.3439539" lon="11.9567196"><ele>270.66666666666663</ele><time>2026-04-24T14:56:00.079Z</time></trkpt><trkpt lat="43.3440618" lon="11.9568969"><ele>271.0</ele><time>2026-04-24T14:56:01.085Z</time></trkpt><trkpt lat="43.3441673" lon="11.9570656"><ele>271.0</ele><time>2026-04-24T14:56:02.085Z</time></trkpt><trkpt lat="43.344274" lon="11.9572251"><ele>271.0</ele><time>2026-04-24T14:56:03.092Z</time></trkpt><trkpt lat="43.3443764" lon="11.9573846"><ele>271.0</ele><time>2026-04-24T14:56:04.082Z</time></trkpt><trkpt lat="43.3444648" lon="11.9575515"><ele>271.0</ele><time>2026-04-24T14:56:05.087Z</time></trkpt><trkpt lat="43.344544" lon="11.9577334"><ele>271.0</ele><time>2026-04-24T14:56:06.089Z</time></trkpt><trkpt lat="43.344621" lon="11.9579175"><ele>271.0</ele><time>2026-04-24T14:56:07.094Z</time></trkpt><trkpt lat="43.3446981" lon="11.9581003"><ele>271.0</ele><time>2026-04-24T14:56:08.092Z</time></trkpt><trkpt lat="43.3447708" lon="11.9582929"><ele>271.0</ele><time>2026-04-24T14:56:09.093Z</time></trkpt><trkpt lat="43.3448523" lon="11.9584773"><ele>271.0</ele><time>2026-04-24T14:56:10.089Z</time></trkpt><trkpt lat="43.3449431" lon="11.9586555"><ele>271.0</ele><time>2026-04-24T14:56:11.089Z</time></trkpt><trkpt lat="43.3450346" lon="11.9588305"><ele>271.0</ele><time>2026-04-24T14:56:12.097Z</time></trkpt><trkpt lat="43.3451329" lon="11.9590097"><ele>271.0</ele><time>2026-04-24T14:56:13.087Z</time></trkpt><trkpt lat="43.3452307" lon="11.9591809"><ele>271.3333333333333</ele><time>2026-04-24T14:56:14.092Z</time></trkpt><trkpt lat="43.3453256" lon="11.959362"><ele>271.6666666666667</ele><time>2026-04-24T14:56:15.085Z</time></trkpt><trkpt lat="43.3454205" lon="11.9595561"><ele>272.0</ele><time>2026-04-24T14:56:16.106Z</time></trkpt><trkpt lat="43.3455257" lon="11.9597545"><ele>271.8</ele><time>2026-04-24T14:56:17.085Z</time></trkpt><trkpt lat="43.3456186" lon="11.9599345"><ele>271.6</ele><time>2026-04-24T14:56:18.081Z</time></trkpt><trkpt lat="43.3456749" lon="11.9600719"><ele>271.40000000000003</ele><time>2026-04-24T14:56:19.113Z</time></trkpt><trkpt lat="43.3457284" lon="11.9601604"><ele>271.2</ele><time>2026-04-24T14:56:20.087Z</time></trkpt><trkpt lat="43.3457873" lon="11.960193"><ele>271.0</ele><time>2026-04-24T14:56:21.093Z</time></trkpt><trkpt lat="43.3459068" lon="11.9601587"><ele>271.3333333333333</ele><time>2026-04-24T14:56:23.085Z</time></trkpt><trkpt lat="43.3460195" lon="11.9601023"><ele>271.66666666666663</ele><time>2026-04-24T14:56:25.091Z</time></trkpt><trkpt lat="43.3460694" lon="11.960043"><ele>272.0</ele><time>2026-04-24T14:56:27.082Z</time></trkpt><trkpt lat="43.3461034" lon="11.9601435"><ele>272.3333333333333</ele><time>2026-04-24T14:56:32.086Z</time></trkpt><trkpt lat="43.3461131" lon="11.9602362"><ele>272.6666666666667</ele><time>2026-04-24T14:56:34.086Z</time></trkpt><trkpt lat="43.3460413" lon="11.9603308"><ele>273.0</ele><time>2026-04-24T14:56:37.094Z</time></trkpt><trkpt lat="43.3459361" lon="11.9603502"><ele>273.0</ele><time>2026-04-24T14:56:39.082Z</time></trkpt><trkpt lat="43.3458558" lon="11.9603879"><ele>273.0</ele><time>2026-04-24T14:56:41.078Z</time></trkpt><trkpt lat="43.3457497" lon="11.9603641"><ele>273.0</ele><time>2026-04-24T14:56:44.085Z</time></trkpt><trkpt lat="43.3456765" lon="11.9603502"><ele>273.0</ele><time>2026-04-24T14:56:46.073Z</time></trkpt><trkpt lat="43.3456861" lon="11.9604913"><ele>273.0</ele><time>2026-04-24T14:56:49.085Z</time></trkpt><trkpt lat="43.3457206" lon="11.9605714"><ele>273.0</ele><time>2026-04-24T14:56:50.074Z</time></trkpt><trkpt lat="43.3457587" lon="11.9606705"><ele>273.0</ele><time>2026-04-24T14:56:51.08Z</time></trkpt><trkpt lat="43.3457963" lon="11.9607659"><ele>273.0</ele><time>2026-04-24T14:56:52.087Z</time></trkpt><trkpt lat="43.3458508" lon="11.9608722"><ele>273.0</ele><time>2026-04-24T14:56:53.085Z</time></trkpt><trkpt lat="43.3459258" lon="11.9610016"><ele>273.0</ele><time>2026-04-24T14:56:54.094Z</time></trkpt><trkpt lat="43.3460104" lon="11.9611475"><ele>273.0</ele><time>2026-04-24T14:56:55.08Z</time></trkpt><trkpt lat="43.3460944" lon="11.9612978"><ele>273.0</ele><time>2026-04-24T14:56:56.086Z</time></trkpt><trkpt lat="43.3461827" lon="11.9614642"><ele>273.0</ele><time>2026-04-24T14:56:57.086Z</time></trkpt><trkpt lat="43.3462724" lon="11.9616304"><ele>273.0</ele><time>2026-04-24T14:56:58.098Z</time></trkpt><trkpt lat="43.3463645" lon="11.9618021"><ele>272.6666666666667</ele><time>2026-04-24T14:56:59.07Z</time></trkpt><trkpt lat="43.3464614" lon="11.9619834"><ele>272.33333333333337</ele><time>2026-04-24T14:57:00.09Z</time></trkpt><trkpt lat="43.3465574" lon="11.9621705"><ele>272.0</ele><time>2026-04-24T14:57:01.076Z</time></trkpt><trkpt lat="43.3466528" lon="11.9623624"><ele>271.6666666666667</ele><time>2026-04-24T14:57:02.084Z</time></trkpt><trkpt lat="43.3467459" lon="11.9625621"><ele>271.3333333333333</ele><time>2026-04-24T14:57:03.08Z</time></trkpt><trkpt lat="43.3468378" lon="11.9627669"><ele>271.0</ele><time>2026-04-24T14:57:04.087Z</time></trkpt><trkpt lat="43.3469266" lon="11.9629674"><ele>271.0</ele><time>2026-04-24T14:57:05.088Z</time></trkpt><trkpt lat="43.3470205" lon="11.9631698"><ele>271.0</ele><time>2026-04-24T14:57:06.084Z</time></trkpt><trkpt lat="43.347116" lon="11.9633725"><ele>271.0</ele><time>2026-04-24T14:57:07.082Z</time></trkpt><trkpt lat="43.3472092" lon="11.9635696"><ele>272.0</ele><time>2026-04-24T14:57:08.08Z</time></trkpt><trkpt lat="43.3473017" lon="11.9637623"><ele>273.0</ele><time>2026-04-24T14:57:09.08Z</time></trkpt><trkpt lat="43.3473953" lon="11.9639625"><ele>274.0</ele><time>2026-04-24T14:57:10.078Z</time></trkpt><trkpt lat="43.3474915" lon="11.9641615"><ele>274.0</ele><time>2026-04-24T14:57:11.089Z</time></trkpt><trkpt lat="43.3475847" lon="11.9643616"><ele>274.0</ele><time>2026-04-24T14:57:12.091Z</time></trkpt><trkpt lat="43.3476807" lon="11.964556"><ele>274.0</ele><time>2026-04-24T14:57:13.084Z</time></trkpt><trkpt lat="43.3477741" lon="11.9647489"><ele>274.0</ele><time>2026-04-24T14:57:14.083Z</time></trkpt><trkpt lat="43.347868" lon="11.9649196"><ele>274.0</ele><time>2026-04-24T14:57:15.08Z</time></trkpt><trkpt lat="43.3479569" lon="11.9650693"><ele>274.0</ele><time>2026-04-24T14:57:16.079Z</time></trkpt><trkpt lat="43.3480486" lon="11.9652159"><ele>274.0</ele><time>2026-04-24T14:57:17.08Z</time></trkpt><trkpt lat="43.3481349" lon="11.9653685"><ele>274.66666666666663</ele><time>2026-04-24T14:57:18.107Z</time></trkpt><trkpt lat="43.3482194" lon="11.965534"><ele>275.3333333333333</ele><time>2026-04-24T14:57:19.081Z</time></trkpt><trkpt lat="43.3483017" lon="11.9657065"><ele>276.0</ele><time>2026-04-24T14:57:20.079Z</time></trkpt><trkpt lat="43.348377" lon="11.9658907"><ele>276.0</ele><time>2026-04-24T14:57:21.099Z</time></trkpt><trkpt lat="43.3484553" lon="11.9660703"><ele>276.0</ele><time>2026-04-24T14:57:22.087Z</time></trkpt><trkpt lat="43.3485351" lon="11.9662511"><ele>276.0</ele><time>2026-04-24T14:57:23.078Z</time></trkpt><trkpt lat="43.3486113" lon="11.9664298"><ele>276.0</ele><time>2026-04-24T14:57:24.083Z</time></trkpt><trkpt lat="43.3486915" lon="11.9666075"><ele>276.0</ele><time>2026-04-24T14:57:25.087Z</time></trkpt><trkpt lat="43.3487738" lon="11.9667924"><ele>276.0</ele><time>2026-04-24T14:57:26.084Z</time></trkpt><trkpt lat="43.3488459" lon="11.9669637"><ele>276.6</ele><time>2026-04-24T14:57:27.085Z</time></trkpt><trkpt lat="43.3489146" lon="11.9671162"><ele>277.20000000000005</ele><time>2026-04-24T14:57:28.089Z</time></trkpt><trkpt lat="43.3489676" lon="11.9672421"><ele>277.79999999999995</ele><time>2026-04-24T14:57:29.083Z</time></trkpt><trkpt lat="43.3490061" lon="11.9673358"><ele>278.4</ele><time>2026-04-24T14:57:30.092Z</time></trkpt><trkpt lat="43.3490343" lon="11.9674181"><ele>279.0</ele><time>2026-04-24T14:57:32.094Z</time></trkpt><trkpt lat="43.3490676" lon="11.9675068"><ele>278.8</ele><time>2026-04-24T14:57:35.094Z</time></trkpt><trkpt lat="43.3491444" lon="11.9676029"><ele>278.59999999999997</ele><time>2026-04-24T14:57:37.101Z</time></trkpt><trkpt lat="43.34918" lon="11.9677073"><ele>278.4</ele><time>2026-04-24T14:57:38.088Z</time></trkpt><trkpt lat="43.349215" lon="11.9678373"><ele>278.2</ele><time>2026-04-24T14:57:39.087Z</time></trkpt><trkpt lat="43.3492389" lon="11.9680003"><ele>278.0</ele><time>2026-04-24T14:57:40.081Z</time></trkpt><trkpt lat="43.3492644" lon="11.9681828"><ele>277.75</ele><time>2026-04-24T14:57:41.082Z</time></trkpt><trkpt lat="43.3492861" lon="11.9683754"><ele>277.5</ele><time>2026-04-24T14:57:42.09Z</time></trkpt><trkpt lat="43.3493112" lon="11.9685847"><ele>277.25</ele><time>2026-04-24T14:57:43.085Z</time></trkpt><trkpt lat="43.3493328" lon="11.9687924"><ele>277.0</ele><time>2026-04-24T14:57:44.098Z</time></trkpt><trkpt lat="43.3493612" lon="11.9690077"><ele>277.3333333333333</ele><time>2026-04-24T14:57:45.082Z</time></trkpt><trkpt lat="43.3493906" lon="11.9692158"><ele>277.6666666666667</ele><time>2026-04-24T14:57:46.084Z</time></trkpt><trkpt lat="43.3494197" lon="11.9694271"><ele>278.0</ele><time>2026-04-24T14:57:47.082Z</time></trkpt><trkpt lat="43.3494508" lon="11.9696464"><ele>278.0</ele><time>2026-04-24T14:57:48.091Z</time></trkpt><trkpt lat="43.3494852" lon="11.9698782"><ele>278.0</ele><time>2026-04-24T14:57:49.083Z</time></trkpt><trkpt lat="43.349513" lon="11.9701161"><ele>278.0</ele><time>2026-04-24T14:57:50.08Z</time></trkpt><trkpt lat="43.3495236" lon="11.9703549"><ele>277.6666666666667</ele><time>2026-04-24T14:57:51.086Z</time></trkpt><trkpt lat="43.3495292" lon="11.9705957"><ele>277.3333333333333</ele><time>2026-04-24T14:57:52.089Z</time></trkpt><trkpt lat="43.3495355" lon="11.970835"><ele>277.0</ele><time>2026-04-24T14:57:53.08Z</time></trkpt><trkpt lat="43.3495443" lon="11.9710784"><ele>277.66666666666663</ele><time>2026-04-24T14:57:54.1Z</time></trkpt><trkpt lat="43.3495496" lon="11.971325"><ele>278.3333333333333</ele><time>2026-04-24T14:57:55.086Z</time></trkpt><trkpt lat="43.3495507" lon="11.9715657"><ele>279.0</ele><time>2026-04-24T14:57:56.087Z</time></trkpt><trkpt lat="43.3495574" lon="11.9718008"><ele>279.6666666666667</ele><time>2026-04-24T14:57:57.098Z</time></trkpt><trkpt lat="43.3495632" lon="11.9720286"><ele>280.33333333333337</ele><time>2026-04-24T14:57:58.084Z</time></trkpt><trkpt lat="43.3495737" lon="11.9722554"><ele>281.0</ele><time>2026-04-24T14:57:59.083Z</time></trkpt><trkpt lat="43.3495787" lon="11.9724925"><ele>280.6666666666667</ele><time>2026-04-24T14:58:00.083Z</time></trkpt><trkpt lat="43.3495785" lon="11.9727252"><ele>280.3333333333333</ele><time>2026-04-24T14:58:01.091Z</time></trkpt><trkpt lat="43.3495733" lon="11.972949"><ele>280.0</ele><time>2026-04-24T14:58:02.088Z</time></trkpt><trkpt lat="43.3495748" lon="11.9731416"><ele>280.0</ele><time>2026-04-24T14:58:03.082Z</time></trkpt><trkpt lat="43.3495706" lon="11.9732988"><ele>280.0</ele><time>2026-04-24T14:58:04.084Z</time></trkpt><trkpt lat="43.3495694" lon="11.9734216"><ele>280.0</ele><time>2026-04-24T14:58:05.091Z</time></trkpt><trkpt lat="43.3495533" lon="11.9735293"><ele>280.0</ele><time>2026-04-24T14:58:06.091Z</time></trkpt><trkpt lat="43.3495204" lon="11.9736427"><ele>280.0</ele><time>2026-04-24T14:58:07.091Z</time></trkpt><trkpt lat="43.3494747" lon="11.9737584"><ele>280.2</ele><time>2026-04-24T14:58:08.107Z</time></trkpt><trkpt lat="43.3494302" lon="11.9738628"><ele>280.4</ele><time>2026-04-24T14:58:09.084Z</time></trkpt><trkpt lat="43.3493914" lon="11.9739487"><ele>280.6</ele><time>2026-04-24T14:58:10.085Z</time></trkpt><trkpt lat="43.3494173" lon="11.9740957"><ele>280.8</ele><time>2026-04-24T14:58:12.087Z</time></trkpt><trkpt lat="43.3494853" lon="11.9741835"><ele>281.0</ele><time>2026-04-24T14:58:13.085Z</time></trkpt><trkpt lat="43.3495559" lon="11.9742775"><ele>281.2</ele><time>2026-04-24T14:58:14.096Z</time></trkpt><trkpt lat="43.3496048" lon="11.9743947"><ele>281.40000000000003</ele><time>2026-04-24T14:58:15.091Z</time></trkpt><trkpt lat="43.3496347" lon="11.9745176"><ele>281.6</ele><time>2026-04-24T14:58:16.089Z</time></trkpt><trkpt lat="43.3496335" lon="11.9746726"><ele>281.8</ele><time>2026-04-24T14:58:17.093Z</time></trkpt><trkpt lat="43.3496111" lon="11.9748439"><ele>282.0</ele><time>2026-04-24T14:58:18.098Z</time></trkpt><trkpt lat="43.3495927" lon="11.9750201"><ele>282.0</ele><time>2026-04-24T14:58:19.077Z</time></trkpt><trkpt lat="43.3495766" lon="11.9751952"><ele>282.0</ele><time>2026-04-24T14:58:20.086Z</time></trkpt><trkpt lat="43.3495697" lon="11.9753639"><ele>282.0</ele><time>2026-04-24T14:58:21.076Z</time></trkpt><trkpt lat="43.349588" lon="11.9755477"><ele>282.0</ele><time>2026-04-24T14:58:22.077Z</time></trkpt><trkpt lat="43.3496274" lon="11.9757535"><ele>281.6666666666667</ele><time>2026-04-24T14:58:23.081Z</time></trkpt><trkpt lat="43.3496658" lon="11.9759672"><ele>281.33333333333337</ele><time>2026-04-24T14:58:24.089Z</time></trkpt><trkpt lat="43.3497205" lon="11.9761933"><ele>281.0</ele><time>2026-04-24T14:58:25.079Z</time></trkpt><trkpt lat="43.3497712" lon="11.9764296"><ele>281.33333333333337</ele><time>2026-04-24T14:58:26.094Z</time></trkpt><trkpt lat="43.34983" lon="11.9766706"><ele>281.6666666666667</ele><time>2026-04-24T14:58:27.08Z</time></trkpt><trkpt lat="43.3498833" lon="11.9769153"><ele>282.0</ele><time>2026-04-24T14:58:28.083Z</time></trkpt><trkpt lat="43.3499386" lon="11.9771656"><ele>282.0</ele><time>2026-04-24T14:58:29.08Z</time></trkpt><trkpt lat="43.3499878" lon="11.9774131"><ele>282.0</ele><time>2026-04-24T14:58:30.078Z</time></trkpt><trkpt lat="43.3500417" lon="11.9776727"><ele>282.0</ele><time>2026-04-24T14:58:31.082Z</time></trkpt><trkpt lat="43.350094" lon="11.9779312"><ele>282.3333333333333</ele><time>2026-04-24T14:58:32.081Z</time></trkpt><trkpt lat="43.3501427" lon="11.978183"><ele>282.66666666666663</ele><time>2026-04-24T14:58:33.081Z</time></trkpt><trkpt lat="43.3501729" lon="11.9784318"><ele>283.0</ele><time>2026-04-24T14:58:34.085Z</time></trkpt><trkpt lat="43.3501958" lon="11.9786628"><ele>283.4</ele><time>2026-04-24T14:58:35.077Z</time></trkpt><trkpt lat="43.3502053" lon="11.9788587"><ele>283.8</ele><time>2026-04-24T14:58:36.084Z</time></trkpt><trkpt lat="43.3502114" lon="11.9790093"><ele>284.2</ele><time>2026-04-24T14:58:37.08Z</time></trkpt><trkpt lat="43.3502178" lon="11.9791273"><ele>284.6</ele><time>2026-04-24T14:58:38.079Z</time></trkpt><trkpt lat="43.3502248" lon="11.9792488"><ele>285.0</ele><time>2026-04-24T14:58:39.088Z</time></trkpt><trkpt lat="43.3502287" lon="11.9793533"><ele>285.0</ele><time>2026-04-24T14:58:40.081Z</time></trkpt><trkpt lat="43.350237" lon="11.9794708"><ele>285.0</ele><time>2026-04-24T14:58:41.077Z</time></trkpt><trkpt lat="43.350251" lon="11.9795882"><ele>285.0</ele><time>2026-04-24T14:58:42.08Z</time></trkpt><trkpt lat="43.3502595" lon="11.9797028"><ele>285.0</ele><time>2026-04-24T14:58:43.089Z</time></trkpt><trkpt lat="43.3502692" lon="11.9798212"><ele>285.0</ele><time>2026-04-24T14:58:44.08Z</time></trkpt><trkpt lat="43.3502765" lon="11.9799453"><ele>285.0</ele><time>2026-04-24T14:58:45.093Z</time></trkpt><trkpt lat="43.3502885" lon="11.9800746"><ele>285.0</ele><time>2026-04-24T14:58:46.083Z</time></trkpt><trkpt lat="43.3503031" lon="11.9802061"><ele>285.0</ele><time>2026-04-24T14:58:47.085Z</time></trkpt><trkpt lat="43.350323" lon="11.9803192"><ele>285.0</ele><time>2026-04-24T14:58:48.083Z</time></trkpt><trkpt lat="43.3503405" lon="11.9804311"><ele>285.0</ele><time>2026-04-24T14:58:49.086Z</time></trkpt><trkpt lat="43.3503614" lon="11.9805373"><ele>285.0</ele><time>2026-04-24T14:58:50.094Z</time></trkpt><trkpt lat="43.3503846" lon="11.9806431"><ele>285.0</ele><time>2026-04-24T14:58:51.073Z</time></trkpt><trkpt lat="43.3504105" lon="11.9807415"><ele>285.0</ele><time>2026-04-24T14:58:52.078Z</time></trkpt><trkpt lat="43.3504429" lon="11.9808451"><ele>285.0</ele><time>2026-04-24T14:58:53.088Z</time></trkpt><trkpt lat="43.3504708" lon="11.980945"><ele>285.0</ele><time>2026-04-24T14:58:54.091Z</time></trkpt><trkpt lat="43.3504986" lon="11.9810446"><ele>285.0</ele><time>2026-04-24T14:58:55.089Z</time></trkpt><trkpt lat="43.3505245" lon="11.981148"><ele>285.0</ele><time>2026-04-24T14:58:56.085Z</time></trkpt><trkpt lat="43.3505493" lon="11.9812555"><ele>285.0</ele><time>2026-04-24T14:58:57.088Z</time></trkpt><trkpt lat="43.3505738" lon="11.981366"><ele>285.3333333333333</ele><time>2026-04-24T14:58:58.082Z</time></trkpt><trkpt lat="43.350602" lon="11.9814668"><ele>285.6666666666667</ele><time>2026-04-24T14:58:59.078Z</time></trkpt><trkpt lat="43.3506347" lon="11.9815673"><ele>286.0</ele><time>2026-04-24T14:59:00.088Z</time></trkpt><trkpt lat="43.3506702" lon="11.9816601"><ele>286.33333333333337</ele><time>2026-04-24T14:59:01.093Z</time></trkpt><trkpt lat="43.3507031" lon="11.9817562"><ele>286.6666666666667</ele><time>2026-04-24T14:59:02.083Z</time></trkpt><trkpt lat="43.3507428" lon="11.9818485"><ele>287.0</ele><time>2026-04-24T14:59:03.084Z</time></trkpt><trkpt lat="43.3507817" lon="11.9819486"><ele>287.2</ele><time>2026-04-24T14:59:04.086Z</time></trkpt><trkpt lat="43.3508245" lon="11.9820605"><ele>287.4</ele><time>2026-04-24T14:59:05.1Z</time></trkpt><trkpt lat="43.3508667" lon="11.9821796"><ele>287.6</ele><time>2026-04-24T14:59:06.095Z</time></trkpt><trkpt lat="43.3509113" lon="11.9823115"><ele>287.8</ele><time>2026-04-24T14:59:07.08Z</time></trkpt><trkpt lat="43.3509616" lon="11.9824428"><ele>288.0</ele><time>2026-04-24T14:59:08.083Z</time></trkpt><trkpt lat="43.3510109" lon="11.9825751"><ele>288.25</ele><time>2026-04-24T14:59:09.09Z</time></trkpt><trkpt lat="43.3510613" lon="11.9827118"><ele>288.5</ele><time>2026-04-24T14:59:10.085Z</time></trkpt><trkpt lat="43.3511146" lon="11.982859"><ele>288.75</ele><time>2026-04-24T14:59:11.081Z</time></trkpt><trkpt lat="43.351172" lon="11.9830136"><ele>289.0</ele><time>2026-04-24T14:59:12.089Z</time></trkpt><trkpt lat="43.3512259" lon="11.983167"><ele>289.0</ele><time>2026-04-24T14:59:13.089Z</time></trkpt><trkpt lat="43.3512823" lon="11.9833305"><ele>289.0</ele><time>2026-04-24T14:59:14.095Z</time></trkpt><trkpt lat="43.3513379" lon="11.9834985"><ele>289.0</ele><time>2026-04-24T14:59:15.08Z</time></trkpt><trkpt lat="43.3513963" lon="11.9836687"><ele>289.0</ele><time>2026-04-24T14:59:16.089Z</time></trkpt><trkpt lat="43.3514565" lon="11.983838"><ele>289.25</ele><time>2026-04-24T14:59:17.088Z</time></trkpt><trkpt lat="43.3515254" lon="11.9840078"><ele>289.5</ele><time>2026-04-24T14:59:18.084Z</time></trkpt><trkpt lat="43.3516006" lon="11.9841843"><ele>289.75</ele><time>2026-04-24T14:59:19.083Z</time></trkpt><trkpt lat="43.3516753" lon="11.9843579"><ele>290.0</ele><time>2026-04-24T14:59:20.086Z</time></trkpt><trkpt lat="43.3517469" lon="11.9845389"><ele>290.25</ele><time>2026-04-24T14:59:21.082Z</time></trkpt><trkpt lat="43.3518129" lon="11.9847192"><ele>290.5</ele><time>2026-04-24T14:59:22.093Z</time></trkpt><trkpt lat="43.3518775" lon="11.9848836"><ele>290.75</ele><time>2026-04-24T14:59:23.085Z</time></trkpt><trkpt lat="43.3519398" lon="11.9850364"><ele>291.0</ele><time>2026-04-24T14:59:24.089Z</time></trkpt><trkpt lat="43.3520034" lon="11.9851758"><ele>291.25</ele><time>2026-04-24T14:59:25.085Z</time></trkpt><trkpt lat="43.3520678" lon="11.985304"><ele>291.5</ele><time>2026-04-24T14:59:26.081Z</time></trkpt><trkpt lat="43.352135" lon="11.9854357"><ele>291.75</ele><time>2026-04-24T14:59:27.09Z</time></trkpt><trkpt lat="43.3522015" lon="11.9855693"><ele>292.0</ele><time>2026-04-24T14:59:28.082Z</time></trkpt><trkpt lat="43.3522812" lon="11.9857164"><ele>292.0</ele><time>2026-04-24T14:59:29.101Z</time></trkpt><trkpt lat="43.3523617" lon="11.9858666"><ele>292.0</ele><time>2026-04-24T14:59:30.086Z</time></trkpt><trkpt lat="43.3524439" lon="11.9860406"><ele>292.0</ele><time>2026-04-24T14:59:31.087Z</time></trkpt><trkpt lat="43.3525253" lon="11.9862156"><ele>292.0</ele><time>2026-04-24T14:59:32.081Z</time></trkpt><trkpt lat="43.3526081" lon="11.9863981"><ele>292.0</ele><time>2026-04-24T14:59:33.081Z</time></trkpt><trkpt lat="43.3526892" lon="11.986571"><ele>292.0</ele><time>2026-04-24T14:59:34.082Z</time></trkpt><trkpt lat="43.3527513" lon="11.9867286"><ele>292.0</ele><time>2026-04-24T14:59:35.084Z</time></trkpt><trkpt lat="43.3528016" lon="11.9868524"><ele>292.0</ele><time>2026-04-24T14:59:36.081Z</time></trkpt><trkpt lat="43.3528395" lon="11.9869504"><ele>292.2</ele><time>2026-04-24T14:59:37.086Z</time></trkpt><trkpt lat="43.3528883" lon="11.9870688"><ele>292.4</ele><time>2026-04-24T14:59:39.1Z</time></trkpt><trkpt lat="43.3529614" lon="11.9870053"><ele>292.6</ele><time>2026-04-24T14:59:42.081Z</time></trkpt><trkpt lat="43.3530058" lon="11.9869275"><ele>292.8</ele><time>2026-04-24T14:59:44.088Z</time></trkpt><trkpt lat="43.3530644" lon="11.9869819"><ele>293.0</ele><time>2026-04-24T14:59:46.082Z</time></trkpt><trkpt lat="43.3531305" lon="11.9871253"><ele>293.2</ele><time>2026-04-24T14:59:48.087Z</time></trkpt><trkpt lat="43.3531728" lon="11.9872267"><ele>293.4</ele><time>2026-04-24T14:59:49.084Z</time></trkpt><trkpt lat="43.3532242" lon="11.987336"><ele>293.59999999999997</ele><time>2026-04-24T14:59:50.084Z</time></trkpt><trkpt lat="43.3532797" lon="11.987453"><ele>293.8</ele><time>2026-04-24T14:59:51.088Z</time></trkpt><trkpt lat="43.3533423" lon="11.9875895"><ele>294.0</ele><time>2026-04-24T14:59:52.09Z</time></trkpt><trkpt lat="43.3534053" lon="11.9877435"><ele>294.0</ele><time>2026-04-24T14:59:53.096Z</time></trkpt><trkpt lat="43.3534726" lon="11.9879046"><ele>294.0</ele><time>2026-04-24T14:59:54.08Z</time></trkpt><trkpt lat="43.3535377" lon="11.9880726"><ele>294.0</ele><time>2026-04-24T14:59:55.1Z</time></trkpt><trkpt lat="43.3536028" lon="11.9882505"><ele>294.0</ele><time>2026-04-24T14:59:56.078Z</time></trkpt><trkpt lat="43.3536689" lon="11.9884365"><ele>293.6666666666667</ele><time>2026-04-24T14:59:57.078Z</time></trkpt><trkpt lat="43.3537414" lon="11.9886329"><ele>293.33333333333337</ele><time>2026-04-24T14:59:58.102Z</time></trkpt><trkpt lat="43.3538209" lon="11.9888346"><ele>293.0</ele><time>2026-04-24T14:59:59.087Z</time></trkpt><trkpt lat="43.3539109" lon="11.9890466"><ele>294.0</ele><time>2026-04-24T15:00:00.087Z</time></trkpt><trkpt lat="43.353997" lon="11.9892622"><ele>295.0</ele><time>2026-04-24T15:00:01.086Z</time></trkpt><trkpt lat="43.3540837" lon="11.9894802"><ele>296.0</ele><time>2026-04-24T15:00:02.1Z</time></trkpt><trkpt lat="43.3541742" lon="11.9896974"><ele>296.0</ele><time>2026-04-24T15:00:03.082Z</time></trkpt><trkpt lat="43.3542643" lon="11.9899097"><ele>296.0</ele><time>2026-04-24T15:00:04.09Z</time></trkpt><trkpt lat="43.3543556" lon="11.9901409"><ele>296.0</ele><time>2026-04-24T15:00:05.087Z</time></trkpt><trkpt lat="43.3544488" lon="11.9903704"><ele>297.0</ele><time>2026-04-24T15:00:06.073Z</time></trkpt><trkpt lat="43.3545468" lon="11.9905997"><ele>298.0</ele><time>2026-04-24T15:00:07.087Z</time></trkpt><trkpt lat="43.3546433" lon="11.9908246"><ele>299.0</ele><time>2026-04-24T15:00:08.092Z</time></trkpt><trkpt lat="43.3547365" lon="11.9910482"><ele>299.0</ele><time>2026-04-24T15:00:09.1Z</time></trkpt><trkpt lat="43.3548287" lon="11.991262"><ele>299.0</ele><time>2026-04-24T15:00:10.087Z</time></trkpt><trkpt lat="43.3549132" lon="11.9914789"><ele>299.0</ele><time>2026-04-24T15:00:11.083Z</time></trkpt><trkpt lat="43.3549914" lon="11.9916682"><ele>299.75</ele><time>2026-04-24T15:00:12.083Z</time></trkpt><trkpt lat="43.3550644" lon="11.9918469"><ele>300.5</ele><time>2026-04-24T15:00:13.088Z</time></trkpt><trkpt lat="43.3551286" lon="11.9920018"><ele>301.25</ele><time>2026-04-24T15:00:14.075Z</time></trkpt><trkpt lat="43.3551852" lon="11.9921345"><ele>302.0</ele><time>2026-04-24T15:00:15.095Z</time></trkpt><trkpt lat="43.3552354" lon="11.9922449"><ele>302.0</ele><time>2026-04-24T15:00:16.105Z</time></trkpt><trkpt lat="43.3552779" lon="11.9923365"><ele>302.0</ele><time>2026-04-24T15:00:17.086Z</time></trkpt><trkpt lat="43.3552907" lon="11.9924829"><ele>302.0</ele><time>2026-04-24T15:00:19.083Z</time></trkpt><trkpt lat="43.3552605" lon="11.9925877"><ele>302.0</ele><time>2026-04-24T15:00:20.077Z</time></trkpt><trkpt lat="43.3552225" lon="11.9927163"><ele>302.0</ele><time>2026-04-24T15:00:21.092Z</time></trkpt><trkpt lat="43.3551929" lon="11.9928784"><ele>302.5</ele><time>2026-04-24T15:00:22.087Z</time></trkpt><trkpt lat="43.3551711" lon="11.9930587"><ele>303.0</ele><time>2026-04-24T15:00:23.083Z</time></trkpt><trkpt lat="43.3551512" lon="11.9932286"><ele>303.5</ele><time>2026-04-24T15:00:24.085Z</time></trkpt><trkpt lat="43.3551179" lon="11.9933775"><ele>304.0</ele><time>2026-04-24T15:00:25.085Z</time></trkpt><trkpt lat="43.355077" lon="11.9934882"><ele>304.59999999999997</ele><time>2026-04-24T15:00:26.11Z</time></trkpt><trkpt lat="43.3550332" lon="11.9936001"><ele>305.2</ele><time>2026-04-24T15:00:27.085Z</time></trkpt><trkpt lat="43.3549919" lon="11.9937315"><ele>305.79999999999995</ele><time>2026-04-24T15:00:28.089Z</time></trkpt><trkpt lat="43.3549726" lon="11.9938843"><ele>306.4</ele><time>2026-04-24T15:00:29.084Z</time></trkpt><trkpt lat="43.3549621" lon="11.9940381"><ele>307.0</ele><time>2026-04-24T15:00:30.106Z</time></trkpt><trkpt lat="43.3549536" lon="11.9942045"><ele>308.25</ele><time>2026-04-24T15:00:31.086Z</time></trkpt><trkpt lat="43.3549428" lon="11.9943754"><ele>309.5</ele><time>2026-04-24T15:00:32.082Z</time></trkpt><trkpt lat="43.3549438" lon="11.9945546"><ele>310.75</ele><time>2026-04-24T15:00:33.093Z</time></trkpt><trkpt lat="43.3549596" lon="11.9947312"><ele>312.0</ele><time>2026-04-24T15:00:34.089Z</time></trkpt><trkpt lat="43.3549845" lon="11.9949111"><ele>313.8</ele><time>2026-04-24T15:00:35.086Z</time></trkpt><trkpt lat="43.3550209" lon="11.9950814"><ele>315.6</ele><time>2026-04-24T15:00:36.091Z</time></trkpt><trkpt lat="43.3550325" lon="11.9952197"><ele>317.40000000000003</ele><time>2026-04-24T15:00:37.085Z</time></trkpt><trkpt lat="43.3550267" lon="11.9953163"><ele>319.2</ele><time>2026-04-24T15:00:38.088Z</time></trkpt><trkpt lat="43.3550589" lon="11.9954083"><ele>321.0</ele><time>2026-04-24T15:00:39.082Z</time></trkpt><trkpt lat="43.3551309" lon="11.9954995"><ele>321.0</ele><time>2026-04-24T15:00:40.098Z</time></trkpt><trkpt lat="43.3552302" lon="11.995585"><ele>321.0</ele><time>2026-04-24T15:00:41.084Z</time></trkpt><trkpt lat="43.3553298" lon="11.9956772"><ele>321.0</ele><time>2026-04-24T15:00:42.079Z</time></trkpt><trkpt lat="43.3554117" lon="11.9957936"><ele>321.0</ele><time>2026-04-24T15:00:43.075Z</time></trkpt><trkpt lat="43.3554747" lon="11.995931"><ele>320.0</ele><time>2026-04-24T15:00:44.108Z</time></trkpt><trkpt lat="43.3555188" lon="11.9960862"><ele>319.0</ele><time>2026-04-24T15:00:45.074Z</time></trkpt><trkpt lat="43.3555489" lon="11.996239"><ele>318.0</ele><time>2026-04-24T15:00:46.078Z</time></trkpt><trkpt lat="43.355563" lon="11.9963989"><ele>317.0</ele><time>2026-04-24T15:00:47.083Z</time></trkpt><trkpt lat="43.3555612" lon="11.9965724"><ele>320.0</ele><time>2026-04-24T15:00:48.086Z</time></trkpt><trkpt lat="43.3555364" lon="11.9967453"><ele>323.0</ele><time>2026-04-24T15:00:49.082Z</time></trkpt><trkpt lat="43.3555023" lon="11.9969151"><ele>326.0</ele><time>2026-04-24T15:00:50.084Z</time></trkpt><trkpt lat="43.355446" lon="11.9970782"><ele>329.0</ele><time>2026-04-24T15:00:51.079Z</time></trkpt><trkpt lat="43.3553664" lon="11.9972241"><ele>329.0</ele><time>2026-04-24T15:00:52.099Z</time></trkpt><trkpt lat="43.3552742" lon="11.99736"><ele>329.0</ele><time>2026-04-24T15:00:53.076Z</time></trkpt><trkpt lat="43.3551873" lon="11.9975014"><ele>329.0</ele><time>2026-04-24T15:00:54.077Z</time></trkpt><trkpt lat="43.3551168" lon="11.9976425"><ele>329.0</ele><time>2026-04-24T15:00:55.075Z</time></trkpt><trkpt lat="43.3550645" lon="11.99777"><ele>330.0</ele><time>2026-04-24T15:00:56.075Z</time></trkpt><trkpt lat="43.3550563" lon="11.9979039"><ele>331.0</ele><time>2026-04-24T15:00:57.089Z</time></trkpt><trkpt lat="43.3550916" lon="11.9980316"><ele>332.0</ele><time>2026-04-24T15:00:58.085Z</time></trkpt><trkpt lat="43.3551752" lon="11.998138"><ele>333.0</ele><time>2026-04-24T15:00:59.074Z</time></trkpt><trkpt lat="43.3552586" lon="11.9982396"><ele>334.0</ele><time>2026-04-24T15:01:00.088Z</time></trkpt><trkpt lat="43.3553343" lon="11.9983483"><ele>336.6</ele><time>2026-04-24T15:01:01.079Z</time></trkpt><trkpt lat="43.3553918" lon="11.9984797"><ele>339.2</ele><time>2026-04-24T15:01:02.102Z</time></trkpt><trkpt lat="43.3554233" lon="11.9986053"><ele>341.8</ele><time>2026-04-24T15:01:03.078Z</time></trkpt><trkpt lat="43.3554056" lon="11.9987444"><ele>344.40000000000003</ele><time>2026-04-24T15:01:04.089Z</time></trkpt><trkpt lat="43.3553662" lon="11.9988799"><ele>347.0</ele><time>2026-04-24T15:01:05.088Z</time></trkpt><trkpt lat="43.3553183" lon="11.9990116"><ele>347.0</ele><time>2026-04-24T15:01:06.094Z</time></trkpt><trkpt lat="43.3552836" lon="11.9991"><ele>347.0</ele><time>2026-04-24T15:01:07.086Z</time></trkpt><trkpt lat="43.3552433" lon="11.9992126"><ele>347.0</ele><time>2026-04-24T15:01:10.086Z</time></trkpt><trkpt lat="43.355195" lon="11.9993804"><ele>347.0</ele><time>2026-04-24T15:01:12.083Z</time></trkpt><trkpt lat="43.3551374" lon="11.9994717"><ele>347.0</ele><time>2026-04-24T15:01:13.085Z</time></trkpt><trkpt lat="43.3550631" lon="11.9995621"><ele>349.0</ele><time>2026-04-24T15:01:14.08Z</time></trkpt><trkpt lat="43.3549835" lon="11.9996617"><ele>351.0</ele><time>2026-04-24T15:01:15.081Z</time></trkpt><trkpt lat="43.3549093" lon="11.9997658"><ele>353.0</ele><time>2026-04-24T15:01:16.077Z</time></trkpt><trkpt lat="43.3548436" lon="11.9998759"><ele>355.0</ele><time>2026-04-24T15:01:17.089Z</time></trkpt><trkpt lat="43.3547955" lon="11.9999891"><ele>357.0</ele><time>2026-04-24T15:01:18.077Z</time></trkpt><trkpt lat="43.3547627" lon="12.0000985"><ele>357.0</ele><time>2026-04-24T15:01:19.099Z</time></trkpt><trkpt lat="43.3547367" lon="12.0002103"><ele>357.0</ele><time>2026-04-24T15:01:20.08Z</time></trkpt><trkpt lat="43.3547107" lon="12.0003175"><ele>357.0</ele><time>2026-04-24T15:01:21.075Z</time></trkpt><trkpt lat="43.3546964" lon="12.0004293"><ele>357.0</ele><time>2026-04-24T15:01:22.096Z</time></trkpt><trkpt lat="43.354693" lon="12.0005366"><ele>357.0</ele><time>2026-04-24T15:01:23.087Z</time></trkpt><trkpt lat="43.3547023" lon="12.0006405"><ele>357.0</ele><time>2026-04-24T15:01:24.086Z</time></trkpt><trkpt lat="43.354705" lon="12.000736"><ele>356.5</ele><time>2026-04-24T15:01:25.08Z</time></trkpt><trkpt lat="43.3546995" lon="12.0008262"><ele>356.0</ele><time>2026-04-24T15:01:26.077Z</time></trkpt><trkpt lat="43.3546589" lon="12.0009668"><ele>355.5</ele><time>2026-04-24T15:01:28.081Z</time></trkpt><trkpt lat="43.3546024" lon="12.0010236"><ele>355.0</ele><time>2026-04-24T15:01:30.07Z</time></trkpt><trkpt lat="43.3545366" lon="12.0009623"><ele>354.5</ele><time>2026-04-24T15:01:34.073Z</time></trkpt><trkpt lat="43.3545919" lon="12.0010134"><ele>354.0</ele><time>2026-04-24T15:03:59.084Z</time></trkpt><trkpt lat="43.3546659" lon="12.0009245"><ele>354.5</ele><time>2026-04-24T15:04:03.083Z</time></trkpt><trkpt lat="43.3547132" lon="12.0007855"><ele>355.0</ele><time>2026-04-24T15:04:05.072Z</time></trkpt><trkpt lat="43.3547224" lon="12.0006993"><ele>355.5</ele><time>2026-04-24T15:04:06.081Z</time></trkpt><trkpt lat="43.3547187" lon="12.0006087"><ele>356.0</ele><time>2026-04-24T15:04:07.075Z</time></trkpt><trkpt lat="43.3547089" lon="12.0005217"><ele>356.5</ele><time>2026-04-24T15:04:08.078Z</time></trkpt><trkpt lat="43.3547081" lon="12.0004254"><ele>357.0</ele><time>2026-04-24T15:04:09.082Z</time></trkpt><trkpt lat="43.3547185" lon="12.0003175"><ele>357.0</ele><time>2026-04-24T15:04:10.101Z</time></trkpt><trkpt lat="43.3547363" lon="12.0002157"><ele>357.0</ele><time>2026-04-24T15:04:11.081Z</time></trkpt><trkpt lat="43.3547668" lon="12.0001135"><ele>357.0</ele><time>2026-04-24T15:04:12.085Z</time></trkpt><trkpt lat="43.3547964" lon="12.000015"><ele>357.0</ele><time>2026-04-24T15:04:13.075Z</time></trkpt><trkpt lat="43.354833" lon="11.9999184"><ele>357.0</ele><time>2026-04-24T15:04:14.098Z</time></trkpt><trkpt lat="43.3548827" lon="11.9998169"><ele>357.0</ele><time>2026-04-24T15:04:15.087Z</time></trkpt><trkpt lat="43.3549499" lon="11.9997098"><ele>357.0</ele><time>2026-04-24T15:04:16.087Z</time></trkpt><trkpt lat="43.355026" lon="11.9996115"><ele>357.0</ele><time>2026-04-24T15:04:17.085Z</time></trkpt><trkpt lat="43.3550974" lon="11.999514"><ele>357.0</ele><time>2026-04-24T15:04:18.094Z</time></trkpt><trkpt lat="43.3551554" lon="11.9994316"><ele>357.0</ele><time>2026-04-24T15:04:19.08Z</time></trkpt><trkpt lat="43.3551996" lon="11.9993535"><ele>357.0</ele><time>2026-04-24T15:04:20.09Z</time></trkpt><trkpt lat="43.3552423" lon="11.9992198"><ele>355.0</ele><time>2026-04-24T15:04:22.148Z</time></trkpt><trkpt lat="43.3552637" lon="11.9991277"><ele>353.0</ele><time>2026-04-24T15:04:26.09Z</time></trkpt><trkpt lat="43.3553047" lon="11.9989426"><ele>351.0</ele><time>2026-04-24T15:04:28.09Z</time></trkpt><trkpt lat="43.3553387" lon="11.9988231"><ele>349.0</ele><time>2026-04-24T15:04:29.102Z</time></trkpt><trkpt lat="43.3553726" lon="11.9987001"><ele>347.0</ele><time>2026-04-24T15:04:30.081Z</time></trkpt><trkpt lat="43.35539" lon="11.9985812"><ele>347.0</ele><time>2026-04-24T15:04:31.09Z</time></trkpt><trkpt lat="43.3553782" lon="11.9984663"><ele>347.0</ele><time>2026-04-24T15:04:32.084Z</time></trkpt><trkpt lat="43.3553299" lon="11.9983479"><ele>347.0</ele><time>2026-04-24T15:04:33.089Z</time></trkpt><trkpt lat="43.3552495" lon="11.9982334"><ele>347.0</ele><time>2026-04-24T15:04:34.09Z</time></trkpt><trkpt lat="43.3551592" lon="11.998137"><ele>347.0</ele><time>2026-04-24T15:04:35.087Z</time></trkpt><trkpt lat="43.355089" lon="11.9980312"><ele>344.40000000000003</ele><time>2026-04-24T15:04:36.092Z</time></trkpt><trkpt lat="43.3550455" lon="11.9979066"><ele>341.8</ele><time>2026-04-24T15:04:37.083Z</time></trkpt><trkpt lat="43.3550389" lon="11.9977826"><ele>339.2</ele><time>2026-04-24T15:04:38.079Z</time></trkpt><trkpt lat="43.3550609" lon="11.9976519"><ele>336.6</ele><time>2026-04-24T15:04:39.082Z</time></trkpt><trkpt lat="43.3551112" lon="11.9975206"><ele>334.0</ele><time>2026-04-24T15:04:40.085Z</time></trkpt><trkpt lat="43.3551926" lon="11.9973862"><ele>332.75</ele><time>2026-04-24T15:04:41.092Z</time></trkpt><trkpt lat="43.3552794" lon="11.9972611"><ele>331.5</ele><time>2026-04-24T15:04:42.082Z</time></trkpt><trkpt lat="43.3553559" lon="11.9971478"><ele>330.25</ele><time>2026-04-24T15:04:43.093Z</time></trkpt><trkpt lat="43.355418" lon="11.9970307"><ele>329.0</ele><time>2026-04-24T15:04:44.08Z</time></trkpt><trkpt lat="43.3554666" lon="11.9968867"><ele>329.0</ele><time>2026-04-24T15:04:45.076Z</time></trkpt><trkpt lat="43.3555064" lon="11.9967263"><ele>329.0</ele><time>2026-04-24T15:04:46.082Z</time></trkpt><trkpt lat="43.3555278" lon="11.9965674"><ele>329.0</ele><time>2026-04-24T15:04:47.087Z</time></trkpt><trkpt lat="43.3555324" lon="11.9964169"><ele>329.0</ele><time>2026-04-24T15:04:48.087Z</time></trkpt><trkpt lat="43.3555257" lon="11.9962782"><ele>328.83333333333337</ele><time>2026-04-24T15:04:49.093Z</time></trkpt><trkpt lat="43.3555102" lon="11.9961502"><ele>328.6666666666667</ele><time>2026-04-24T15:04:50.09Z</time></trkpt><trkpt lat="43.3554874" lon="11.9960326"><ele>328.5</ele><time>2026-04-24T15:04:51.081Z</time></trkpt><trkpt lat="43.3554552" lon="11.9959235"><ele>328.3333333333333</ele><time>2026-04-24T15:04:52.086Z</time></trkpt><trkpt lat="43.3554183" lon="11.9958267"><ele>328.16666666666663</ele><time>2026-04-24T15:04:53.087Z</time></trkpt><trkpt lat="43.3553772" lon="11.995746"><ele>328.0</ele><time>2026-04-24T15:04:54.081Z</time></trkpt><trkpt lat="43.3553365" lon="11.9956758"><ele>326.59999999999997</ele><time>2026-04-24T15:04:55.083Z</time></trkpt><trkpt lat="43.3552441" lon="11.995578"><ele>325.2</ele><time>2026-04-24T15:04:57.16Z</time></trkpt><trkpt lat="43.355183" lon="11.9955101"><ele>323.8</ele><time>2026-04-24T15:04:59.079Z</time></trkpt><trkpt lat="43.3551142" lon="11.9954361"><ele>322.4</ele><time>2026-04-24T15:05:01.079Z</time></trkpt><trkpt lat="43.3550581" lon="11.9953743"><ele>321.0</ele><time>2026-04-24T15:05:03.081Z</time></trkpt><trkpt lat="43.3550013" lon="11.9952617"><ele>321.0</ele><time>2026-04-24T15:05:06.079Z</time></trkpt><trkpt lat="43.3549834" lon="11.9951592"><ele>321.0</ele><time>2026-04-24T15:05:07.093Z</time></trkpt><trkpt lat="43.3549808" lon="11.9950292"><ele>321.0</ele><time>2026-04-24T15:05:08.078Z</time></trkpt><trkpt lat="43.3549728" lon="11.9948646"><ele>321.0</ele><time>2026-04-24T15:05:09.08Z</time></trkpt><trkpt lat="43.3549585" lon="11.9946842"><ele>321.0</ele><time>2026-04-24T15:05:10.078Z</time></trkpt><trkpt lat="43.3549285" lon="11.9945012"><ele>318.75</ele><time>2026-04-24T15:05:11.09Z</time></trkpt><trkpt lat="43.354925" lon="11.9943197"><ele>316.5</ele><time>2026-04-24T15:05:12.079Z</time></trkpt><trkpt lat="43.3549453" lon="11.9941426"><ele>314.25</ele><time>2026-04-24T15:05:13.082Z</time></trkpt><trkpt lat="43.3549646" lon="11.9939794"><ele>312.0</ele><time>2026-04-24T15:05:14.078Z</time></trkpt><trkpt lat="43.3549786" lon="11.9938404"><ele>311.0</ele><time>2026-04-24T15:05:15.092Z</time></trkpt><trkpt lat="43.3549942" lon="11.9937275"><ele>310.0</ele><time>2026-04-24T15:05:16.08Z</time></trkpt><trkpt lat="43.3550134" lon="11.9936388"><ele>309.0</ele><time>2026-04-24T15:05:17.084Z</time></trkpt><trkpt lat="43.3550917" lon="11.9934902"><ele>308.0</ele><time>2026-04-24T15:05:19.081Z</time></trkpt><trkpt lat="43.3551398" lon="11.9933482"><ele>307.0</ele><time>2026-04-24T15:05:20.094Z</time></trkpt><trkpt lat="43.355166" lon="11.9931373"><ele>306.25</ele><time>2026-04-24T15:05:21.082Z</time></trkpt><trkpt lat="43.35519" lon="11.9929283"><ele>305.5</ele><time>2026-04-24T15:05:22.086Z</time></trkpt><trkpt lat="43.3552191" lon="11.9927518"><ele>304.75</ele><time>2026-04-24T15:05:23.075Z</time></trkpt><trkpt lat="43.3552544" lon="11.9925968"><ele>304.0</ele><time>2026-04-24T15:05:24.077Z</time></trkpt><trkpt lat="43.3552877" lon="11.9924585"><ele>303.5</ele><time>2026-04-24T15:05:25.097Z</time></trkpt><trkpt lat="43.355294" lon="11.9923121"><ele>303.0</ele><time>2026-04-24T15:05:26.081Z</time></trkpt><trkpt lat="43.3552681" lon="11.9921618"><ele>302.5</ele><time>2026-04-24T15:05:27.087Z</time></trkpt><trkpt lat="43.3552186" lon="11.9920155"><ele>302.0</ele><time>2026-04-24T15:05:28.086Z</time></trkpt><trkpt lat="43.3552138" lon="11.9918163"><ele>301.0</ele><time>2026-04-24T15:05:29.089Z</time></trkpt><trkpt lat="43.3552495" lon="11.9915865"><ele>300.0</ele><time>2026-04-24T15:05:30.077Z</time></trkpt><trkpt lat="43.3552901" lon="11.9913344"><ele>299.0</ele><time>2026-04-24T15:05:31.112Z</time></trkpt><trkpt lat="43.3553339" lon="11.9910698"><ele>298.33333333333337</ele><time>2026-04-24T15:05:32.079Z</time></trkpt><trkpt lat="43.3553751" lon="11.9908088"><ele>297.6666666666667</ele><time>2026-04-24T15:05:33.09Z</time></trkpt><trkpt lat="43.3554036" lon="11.9905857"><ele>297.0</ele><time>2026-04-24T15:05:34.1Z</time></trkpt><trkpt lat="43.3554341" lon="11.9903839"><ele>297.0</ele><time>2026-04-24T15:05:35.087Z</time></trkpt><trkpt lat="43.3554615" lon="11.9902092"><ele>297.0</ele><time>2026-04-24T15:05:36.087Z</time></trkpt><trkpt lat="43.3554837" lon="11.9900583"><ele>297.0</ele><time>2026-04-24T15:05:37.099Z</time></trkpt><trkpt lat="43.3555089" lon="11.9899318"><ele>297.0</ele><time>2026-04-24T15:05:38.086Z</time></trkpt><trkpt lat="43.3555545" lon="11.9898491"><ele>297.0</ele><time>2026-04-24T15:05:39.084Z</time></trkpt><trkpt lat="43.355604" lon="11.9897413"><ele>296.8</ele><time>2026-04-24T15:05:43.081Z</time></trkpt><trkpt lat="43.3556074" lon="11.9896379"><ele>296.6</ele><time>2026-04-24T15:05:44.084Z</time></trkpt><trkpt lat="43.3555809" lon="11.9895181"><ele>296.40000000000003</ele><time>2026-04-24T15:05:45.086Z</time></trkpt><trkpt lat="43.3555353" lon="11.9893709"><ele>296.2</ele><time>2026-04-24T15:05:46.08Z</time></trkpt><trkpt lat="43.3554856" lon="11.9891964"><ele>296.0</ele><time>2026-04-24T15:05:47.086Z</time></trkpt><trkpt lat="43.3554342" lon="11.9890046"><ele>296.6666666666667</ele><time>2026-04-24T15:05:48.084Z</time></trkpt><trkpt lat="43.3553856" lon="11.988798"><ele>297.3333333333333</ele><time>2026-04-24T15:05:49.091Z</time></trkpt><trkpt lat="43.3553421" lon="11.9885861"><ele>298.0</ele><time>2026-04-24T15:05:50.092Z</time></trkpt><trkpt lat="43.3553017" lon="11.9883943"><ele>297.0</ele><time>2026-04-24T15:05:51.102Z</time></trkpt><trkpt lat="43.3552694" lon="11.9881962"><ele>296.0</ele><time>2026-04-24T15:05:52.089Z</time></trkpt><trkpt lat="43.3552419" lon="11.9879791"><ele>295.0</ele><time>2026-04-24T15:05:53.085Z</time></trkpt><trkpt lat="43.3552243" lon="11.9877435"><ele>294.3333333333333</ele><time>2026-04-24T15:05:54.095Z</time></trkpt><trkpt lat="43.3552046" lon="11.9874919"><ele>293.6666666666667</ele><time>2026-04-24T15:05:55.089Z</time></trkpt><trkpt lat="43.3551875" lon="11.9872316"><ele>293.0</ele><time>2026-04-24T15:05:56.087Z</time></trkpt><trkpt lat="43.3551606" lon="11.9869775"><ele>293.0</ele><time>2026-04-24T15:05:57.086Z</time></trkpt><trkpt lat="43.355111" lon="11.9867205"><ele>293.0</ele><time>2026-04-24T15:05:58.089Z</time></trkpt><trkpt lat="43.355047" lon="11.986462"><ele>293.0</ele><time>2026-04-24T15:05:59.084Z</time></trkpt><trkpt lat="43.3549704" lon="11.9862073"><ele>293.33333333333337</ele><time>2026-04-24T15:06:00.1Z</time></trkpt><trkpt lat="43.3548862" lon="11.985964"><ele>293.6666666666667</ele><time>2026-04-24T15:06:01.091Z</time></trkpt><trkpt lat="43.354795" lon="11.9857218"><ele>294.0</ele><time>2026-04-24T15:06:02.088Z</time></trkpt><trkpt lat="43.3547085" lon="11.9854752"><ele>293.3333333333333</ele><time>2026-04-24T15:06:03.085Z</time></trkpt><trkpt lat="43.3546376" lon="11.9852209"><ele>292.66666666666663</ele><time>2026-04-24T15:06:04.088Z</time></trkpt><trkpt lat="43.3545859" lon="11.984958"><ele>292.0</ele><time>2026-04-24T15:06:05.098Z</time></trkpt><trkpt lat="43.3545439" lon="11.9846924"><ele>291.66666666666663</ele><time>2026-04-24T15:06:06.082Z</time></trkpt><trkpt lat="43.3545" lon="11.9844267"><ele>291.3333333333333</ele><time>2026-04-24T15:06:07.084Z</time></trkpt><trkpt lat="43.3544548" lon="11.9841586"><ele>291.0</ele><time>2026-04-24T15:06:08.081Z</time></trkpt><trkpt lat="43.354408" lon="11.983893"><ele>291.0</ele><time>2026-04-24T15:06:09.082Z</time></trkpt><trkpt lat="43.3543639" lon="11.9836209"><ele>291.0</ele><time>2026-04-24T15:06:10.074Z</time></trkpt><trkpt lat="43.3543319" lon="11.9833528"><ele>291.0</ele><time>2026-04-24T15:06:11.09Z</time></trkpt><trkpt lat="43.3543216" lon="11.9830776"><ele>290.6666666666667</ele><time>2026-04-24T15:06:12.085Z</time></trkpt><trkpt lat="43.3543289" lon="11.9828122"><ele>290.33333333333337</ele><time>2026-04-24T15:06:13.083Z</time></trkpt><trkpt lat="43.3543393" lon="11.9825415"><ele>290.0</ele><time>2026-04-24T15:06:14.088Z</time></trkpt><trkpt lat="43.3543504" lon="11.9822685"><ele>290.6666666666667</ele><time>2026-04-24T15:06:15.087Z</time></trkpt><trkpt lat="43.3543619" lon="11.982007"><ele>291.3333333333333</ele><time>2026-04-24T15:06:16.109Z</time></trkpt><trkpt lat="43.3543715" lon="11.9817206"><ele>292.0</ele><time>2026-04-24T15:06:17.087Z</time></trkpt><trkpt lat="43.3543866" lon="11.9814236"><ele>292.66666666666663</ele><time>2026-04-24T15:06:18.085Z</time></trkpt><trkpt lat="43.3544091" lon="11.9811268"><ele>293.3333333333333</ele><time>2026-04-24T15:06:19.092Z</time></trkpt><trkpt lat="43.354422" lon="11.9808512"><ele>294.0</ele><time>2026-04-24T15:06:20.088Z</time></trkpt><trkpt lat="43.3544309" lon="11.9805868"><ele>293.0</ele><time>2026-04-24T15:06:21.077Z</time></trkpt><trkpt lat="43.3544388" lon="11.9803519"><ele>292.0</ele><time>2026-04-24T15:06:22.086Z</time></trkpt><trkpt lat="43.3544472" lon="11.980152"><ele>291.0</ele><time>2026-04-24T15:06:23.078Z</time></trkpt><trkpt lat="43.3544524" lon="11.9800338"><ele>290.0</ele><time>2026-04-24T15:06:24.078Z</time></trkpt><trkpt lat="43.3545116" lon="11.9798777"><ele>290.0</ele><time>2026-04-24T15:06:26.078Z</time></trkpt><trkpt lat="43.3545611" lon="11.9797919"><ele>290.0</ele><time>2026-04-24T15:06:27.068Z</time></trkpt><trkpt lat="43.3546075" lon="11.9796861"><ele>290.0</ele><time>2026-04-24T15:06:28.101Z</time></trkpt><trkpt lat="43.3546401" lon="11.9795816"><ele>290.0</ele><time>2026-04-24T15:06:29.072Z</time></trkpt><trkpt lat="43.3546697" lon="11.9794988"><ele>290.0</ele><time>2026-04-24T15:06:30.088Z</time></trkpt><trkpt lat="43.3547276" lon="11.979437"><ele>290.0</ele><time>2026-04-24T15:06:31.1Z</time></trkpt><trkpt lat="43.354814" lon="11.9794046"><ele>290.4</ele><time>2026-04-24T15:06:32.093Z</time></trkpt><trkpt lat="43.3549025" lon="11.9793872"><ele>290.8</ele><time>2026-04-24T15:06:33.107Z</time></trkpt><trkpt lat="43.354989" lon="11.9794281"><ele>291.2</ele><time>2026-04-24T15:06:34.097Z</time></trkpt><trkpt lat="43.3550625" lon="11.9795213"><ele>291.6</ele><time>2026-04-24T15:06:35.087Z</time></trkpt><trkpt lat="43.3551329" lon="11.9796308"><ele>292.0</ele><time>2026-04-24T15:06:36.089Z</time></trkpt><trkpt lat="43.3552135" lon="11.9797178"><ele>292.0</ele><time>2026-04-24T15:06:37.089Z</time></trkpt><trkpt lat="43.3553117" lon="11.979764"><ele>292.0</ele><time>2026-04-24T15:06:38.089Z</time></trkpt><trkpt lat="43.35542" lon="11.9797959"><ele>292.0</ele><time>2026-04-24T15:06:39.075Z</time></trkpt><trkpt lat="43.3555407" lon="11.9798491"><ele>292.0</ele><time>2026-04-24T15:06:40.093Z</time></trkpt><trkpt lat="43.3556531" lon="11.9799157"><ele>292.25</ele><time>2026-04-24T15:06:41.086Z</time></trkpt><trkpt lat="43.355758" lon="11.980008"><ele>292.5</ele><time>2026-04-24T15:06:42.088Z</time></trkpt><trkpt lat="43.355854" lon="11.9801148"><ele>292.75</ele><time>2026-04-24T15:06:43.083Z</time></trkpt><trkpt lat="43.3559371" lon="11.9802407"><ele>293.0</ele><time>2026-04-24T15:06:44.094Z</time></trkpt><trkpt lat="43.3560215" lon="11.9803591"><ele>293.0</ele><time>2026-04-24T15:06:45.085Z</time></trkpt><trkpt lat="43.3561027" lon="11.9804701"><ele>293.0</ele><time>2026-04-24T15:06:46.077Z</time></trkpt><trkpt lat="43.3561792" lon="11.9805471"><ele>293.0</ele><time>2026-04-24T15:06:47.079Z</time></trkpt><trkpt lat="43.3562542" lon="11.9805989"><ele>293.0</ele><time>2026-04-24T15:06:48.097Z</time></trkpt><trkpt lat="43.3563258" lon="11.9805979"><ele>293.0</ele><time>2026-04-24T15:06:49.087Z</time></trkpt><trkpt lat="43.3563827" lon="11.9805567"><ele>293.0</ele><time>2026-04-24T15:06:50.081Z</time></trkpt><trkpt lat="43.3564613" lon="11.9804715"><ele>293.2</ele><time>2026-04-24T15:06:52.078Z</time></trkpt><trkpt lat="43.3564999" lon="11.9803941"><ele>293.4</ele><time>2026-04-24T15:06:55.074Z</time></trkpt><trkpt lat="43.3565413" lon="11.9802587"><ele>293.59999999999997</ele><time>2026-04-24T15:08:04.087Z</time></trkpt><trkpt lat="43.3565887" lon="11.9801584"><ele>293.8</ele><time>2026-04-24T15:08:05.09Z</time></trkpt><trkpt lat="43.3566498" lon="11.9800362"><ele>294.0</ele><time>2026-04-24T15:08:06.102Z</time></trkpt><trkpt lat="43.3567185" lon="11.979911"><ele>294.0</ele><time>2026-04-24T15:08:07.09Z</time></trkpt><trkpt lat="43.3568024" lon="11.9797794"><ele>294.0</ele><time>2026-04-24T15:08:08.095Z</time></trkpt><trkpt lat="43.3568958" lon="11.9796515"><ele>294.0</ele><time>2026-04-24T15:08:09.096Z</time></trkpt><trkpt lat="43.3569967" lon="11.9795546"><ele>294.0</ele><time>2026-04-24T15:08:10.091Z</time></trkpt><trkpt lat="43.3570945" lon="11.9794828"><ele>294.0</ele><time>2026-04-24T15:08:11.087Z</time></trkpt><trkpt lat="43.3571866" lon="11.9794553"><ele>294.0</ele><time>2026-04-24T15:08:12.091Z</time></trkpt><trkpt lat="43.3572924" lon="11.9794669"><ele>294.0</ele><time>2026-04-24T15:08:13.084Z</time></trkpt><trkpt lat="43.3574136" lon="11.9794866"><ele>294.0</ele><time>2026-04-24T15:08:14.087Z</time></trkpt><trkpt lat="43.3575443" lon="11.9795004"><ele>295.25</ele><time>2026-04-24T15:08:15.091Z</time></trkpt><trkpt lat="43.357689" lon="11.9794964"><ele>296.5</ele><time>2026-04-24T15:08:16.087Z</time></trkpt><trkpt lat="43.3578321" lon="11.9794907"><ele>297.75</ele><time>2026-04-24T15:08:17.086Z</time></trkpt><trkpt lat="43.3579627" lon="11.9795095"><ele>299.0</ele><time>2026-04-24T15:08:18.088Z</time></trkpt><trkpt lat="43.3580772" lon="11.97954"><ele>300.4</ele><time>2026-04-24T15:08:19.092Z</time></trkpt><trkpt lat="43.3581832" lon="11.9795824"><ele>301.79999999999995</ele><time>2026-04-24T15:08:20.132Z</time></trkpt><trkpt lat="43.3582712" lon="11.9796505"><ele>303.20000000000005</ele><time>2026-04-24T15:08:21.091Z</time></trkpt><trkpt lat="43.358345" lon="11.9797085"><ele>304.6</ele><time>2026-04-24T15:08:22.1Z</time></trkpt><trkpt lat="43.3584492" lon="11.9796997"><ele>306.0</ele><time>2026-04-24T15:08:24.091Z</time></trkpt><trkpt lat="43.3584888" lon="11.9796245"><ele>306.0</ele><time>2026-04-24T15:08:25.095Z</time></trkpt><trkpt lat="43.3585198" lon="11.9795391"><ele>306.0</ele><time>2026-04-24T15:08:26.102Z</time></trkpt><trkpt lat="43.3585392" lon="11.9794275"><ele>306.0</ele><time>2026-04-24T15:08:27.097Z</time></trkpt><trkpt lat="43.3585594" lon="11.9792842"><ele>306.0</ele><time>2026-04-24T15:08:28.087Z</time></trkpt><trkpt lat="43.3585698" lon="11.9791519"><ele>306.0</ele><time>2026-04-24T15:08:29.094Z</time></trkpt><trkpt lat="43.3585697" lon="11.9790377"><ele>306.0</ele><time>2026-04-24T15:08:30.093Z</time></trkpt><trkpt lat="43.3585507" lon="11.978919"><ele>306.0</ele><time>2026-04-24T15:08:31.092Z</time></trkpt><trkpt lat="43.3585111" lon="11.9788193"><ele>306.0</ele><time>2026-04-24T15:08:32.089Z</time></trkpt><trkpt lat="43.3584478" lon="11.9787375"><ele>306.0</ele><time>2026-04-24T15:08:33.102Z</time></trkpt><trkpt lat="43.3583715" lon="11.9786512"><ele>306.0</ele><time>2026-04-24T15:08:34.095Z</time></trkpt><trkpt lat="43.3583011" lon="11.9785602"><ele>306.0</ele><time>2026-04-24T15:08:35.233Z</time></trkpt><trkpt lat="43.3582329" lon="11.9784404"><ele>305.25</ele><time>2026-04-24T15:08:36.17Z</time></trkpt><trkpt lat="43.358171" lon="11.9782995"><ele>304.5</ele><time>2026-04-24T15:08:37.165Z</time></trkpt><trkpt lat="43.3581167" lon="11.9781568"><ele>303.75</ele><time>2026-04-24T15:08:38.16Z</time></trkpt><trkpt lat="43.3580492" lon="11.9780068"><ele>303.0</ele><time>2026-04-24T15:08:39.169Z</time></trkpt><trkpt lat="43.3579739" lon="11.9778473"><ele>302.25</ele><time>2026-04-24T15:08:40.173Z</time></trkpt><trkpt lat="43.3578895" lon="11.9776884"><ele>301.5</ele><time>2026-04-24T15:08:41.168Z</time></trkpt><trkpt lat="43.3578019" lon="11.9775276"><ele>300.75</ele><time>2026-04-24T15:08:42.164Z</time></trkpt><trkpt lat="43.3577201" lon="11.9773862"><ele>300.0</ele><time>2026-04-24T15:08:43.149Z</time></trkpt><trkpt lat="43.3576504" lon="11.9772779"><ele>300.0</ele><time>2026-04-24T15:08:44.161Z</time></trkpt><trkpt lat="43.3575938" lon="11.9771875"><ele>300.0</ele><time>2026-04-24T15:08:45.175Z</time></trkpt><trkpt lat="43.3575582" lon="11.9771108"><ele>300.0</ele><time>2026-04-24T15:08:46.168Z</time></trkpt><trkpt lat="43.3575771" lon="11.9769637"><ele>300.0</ele><time>2026-04-24T15:08:48.163Z</time></trkpt><trkpt lat="43.3576826" lon="11.9768961"><ele>300.0</ele><time>2026-04-24T15:08:50.146Z</time></trkpt><trkpt lat="43.357768" lon="11.9768636"><ele>300.0</ele><time>2026-04-24T15:08:51.152Z</time></trkpt><trkpt lat="43.3578671" lon="11.9768391"><ele>300.0</ele><time>2026-04-24T15:08:52.149Z</time></trkpt><trkpt lat="43.3580125" lon="11.9768041"><ele>300.0</ele><time>2026-04-24T15:08:53.148Z</time></trkpt><trkpt lat="43.3581405" lon="11.9767928"><ele>300.0</ele><time>2026-04-24T15:08:54.159Z</time></trkpt><trkpt lat="43.3582915" lon="11.9767715"><ele>301.0</ele><time>2026-04-24T15:08:55.157Z</time></trkpt><trkpt lat="43.3584692" lon="11.9767309"><ele>302.0</ele><time>2026-04-24T15:08:56.146Z</time></trkpt><trkpt lat="43.3586315" lon="11.9767208"><ele>303.0</ele><time>2026-04-24T15:08:57.14Z</time></trkpt><trkpt lat="43.3587742" lon="11.9767047"><ele>304.5</ele><time>2026-04-24T15:08:58.139Z</time></trkpt><trkpt lat="43.3589048" lon="11.9766776"><ele>306.0</ele><time>2026-04-24T15:08:59.142Z</time></trkpt><trkpt lat="43.3590244" lon="11.9766204"><ele>307.5</ele><time>2026-04-24T15:09:00.14Z</time></trkpt><trkpt lat="43.3591291" lon="11.9765531"><ele>309.0</ele><time>2026-04-24T15:09:01.135Z</time></trkpt><trkpt lat="43.3592076" lon="11.9765269"><ele>309.0</ele><time>2026-04-24T15:09:02.14Z</time></trkpt><trkpt lat="43.3592706" lon="11.9765235"><ele>309.0</ele><time>2026-04-24T15:09:03.14Z</time></trkpt><trkpt lat="43.3593742" lon="11.9766559"><ele>309.0</ele><time>2026-04-24T15:09:05.148Z</time></trkpt><trkpt lat="43.3594289" lon="11.9767796"><ele>309.0</ele><time>2026-04-24T15:09:06.143Z</time></trkpt><trkpt lat="43.3594822" lon="11.9769186"><ele>309.0</ele><time>2026-04-24T15:09:07.142Z</time></trkpt><trkpt lat="43.3595315" lon="11.9770218"><ele>308.8333333333333</ele><time>2026-04-24T15:09:08.166Z</time></trkpt><trkpt lat="43.3595817" lon="11.9771055"><ele>308.6666666666667</ele><time>2026-04-24T15:09:09.142Z</time></trkpt><trkpt lat="43.3596488" lon="11.9771588"><ele>308.5</ele><time>2026-04-24T15:09:10.144Z</time></trkpt><trkpt lat="43.3597363" lon="11.9771771"><ele>308.33333333333337</ele><time>2026-04-24T15:09:11.149Z</time></trkpt><trkpt lat="43.3598307" lon="11.9771649"><ele>308.1666666666667</ele><time>2026-04-24T15:09:12.167Z</time></trkpt><trkpt lat="43.3599348" lon="11.9771662"><ele>308.0</ele><time>2026-04-24T15:09:13.152Z</time></trkpt><trkpt lat="43.3600284" lon="11.9771586"><ele>309.0</ele><time>2026-04-24T15:09:14.157Z</time></trkpt><trkpt lat="43.360107" lon="11.9771552"><ele>310.0</ele><time>2026-04-24T15:09:15.149Z</time></trkpt><trkpt lat="43.3601844" lon="11.9771501"><ele>311.0</ele><time>2026-04-24T15:09:16.154Z</time></trkpt><trkpt lat="43.3602624" lon="11.9771462"><ele>312.0</ele><time>2026-04-24T15:09:17.086Z</time></trkpt><trkpt lat="43.3603526" lon="11.9771973"><ele>313.0</ele><time>2026-04-24T15:09:18.082Z</time></trkpt><trkpt lat="43.3604534" lon="11.9772519"><ele>314.0</ele><time>2026-04-24T15:09:19.085Z</time></trkpt><trkpt lat="43.3605556" lon="11.9773094"><ele>316.0</ele><time>2026-04-24T15:09:20.079Z</time></trkpt><trkpt lat="43.3606543" lon="11.9773737"><ele>318.0</ele><time>2026-04-24T15:09:21.08Z</time></trkpt><trkpt lat="43.3607341" lon="11.9774223"><ele>320.0</ele><time>2026-04-24T15:09:22.079Z</time></trkpt><trkpt lat="43.3608015" lon="11.9774422"><ele>322.0</ele><time>2026-04-24T15:09:23.076Z</time></trkpt><trkpt lat="43.3609039" lon="11.9773827"><ele>324.0</ele><time>2026-04-24T15:09:25.071Z</time></trkpt><trkpt lat="43.3609511" lon="11.977308"><ele>326.0</ele><time>2026-04-24T15:09:26.077Z</time></trkpt><trkpt lat="43.361004" lon="11.9772378"><ele>326.0</ele><time>2026-04-24T15:09:27.075Z</time></trkpt><trkpt lat="43.3610922" lon="11.9771977"><ele>326.0</ele><time>2026-04-24T15:09:28.091Z</time></trkpt><trkpt lat="43.3612107" lon="11.9771561"><ele>326.0</ele><time>2026-04-24T15:09:29.074Z</time></trkpt><trkpt lat="43.3613486" lon="11.9771169"><ele>326.0</ele><time>2026-04-24T15:09:30.08Z</time></trkpt><trkpt lat="43.3614984" lon="11.9770677"><ele>331.0</ele><time>2026-04-24T15:09:31.098Z</time></trkpt><trkpt lat="43.361655" lon="11.9770062"><ele>336.0</ele><time>2026-04-24T15:09:32.074Z</time></trkpt><trkpt lat="43.3618143" lon="11.9769454"><ele>341.0</ele><time>2026-04-24T15:09:33.088Z</time></trkpt><trkpt lat="43.3619701" lon="11.976889"><ele>341.0</ele><time>2026-04-24T15:09:34.103Z</time></trkpt><trkpt lat="43.3621048" lon="11.9768672"><ele>341.0</ele><time>2026-04-24T15:09:35.082Z</time></trkpt><trkpt lat="43.3622223" lon="11.9768631"><ele>341.0</ele><time>2026-04-24T15:09:36.088Z</time></trkpt><trkpt lat="43.362346" lon="11.9768823"><ele>341.0</ele><time>2026-04-24T15:09:37.074Z</time></trkpt><trkpt lat="43.3624769" lon="11.9768846"><ele>346.0</ele><time>2026-04-24T15:09:38.101Z</time></trkpt><trkpt lat="43.3626149" lon="11.97689"><ele>351.0</ele><time>2026-04-24T15:09:39.079Z</time></trkpt><trkpt lat="43.3627481" lon="11.9769012"><ele>356.0</ele><time>2026-04-24T15:09:40.086Z</time></trkpt><trkpt lat="43.3628673" lon="11.9769346"><ele>361.0</ele><time>2026-04-24T15:09:41.082Z</time></trkpt><trkpt lat="43.3629848" lon="11.9769812"><ele>365.25</ele><time>2026-04-24T15:09:42.078Z</time></trkpt><trkpt lat="43.3630965" lon="11.9770176"><ele>369.5</ele><time>2026-04-24T15:09:43.091Z</time></trkpt><trkpt lat="43.3632102" lon="11.9770486"><ele>373.75</ele><time>2026-04-24T15:09:44.089Z</time></trkpt><trkpt lat="43.3633226" lon="11.9770941"><ele>378.0</ele><time>2026-04-24T15:09:45.089Z</time></trkpt><trkpt lat="43.3634311" lon="11.9771654"><ele>378.0</ele><time>2026-04-24T15:09:46.075Z</time></trkpt><trkpt lat="43.3635322" lon="11.9772152"><ele>378.0</ele><time>2026-04-24T15:09:47.091Z</time></trkpt><trkpt lat="43.363636" lon="11.9772596"><ele>378.0</ele><time>2026-04-24T15:09:48.076Z</time></trkpt><trkpt lat="43.3637361" lon="11.9773278"><ele>378.0</ele><time>2026-04-24T15:09:49.077Z</time></trkpt><trkpt lat="43.3638355" lon="11.9774097"><ele>378.0</ele><time>2026-04-24T15:09:50.068Z</time></trkpt><trkpt lat="43.3638961" lon="11.9774634"><ele>381.1666666666667</ele><time>2026-04-24T15:09:51.085Z</time></trkpt><trkpt lat="43.3639845" lon="11.9774997"><ele>384.33333333333337</ele><time>2026-04-24T15:09:53.079Z</time></trkpt><trkpt lat="43.3640672" lon="11.9775311"><ele>387.5</ele><time>2026-04-24T15:09:55.077Z</time></trkpt><trkpt lat="43.3641506" lon="11.9776216"><ele>390.6666666666667</ele><time>2026-04-24T15:09:57.079Z</time></trkpt><trkpt lat="43.3642019" lon="11.9776773"><ele>393.83333333333337</ele><time>2026-04-24T15:09:58.082Z</time></trkpt><trkpt lat="43.3642568" lon="11.9777386"><ele>397.0</ele><time>2026-04-24T15:09:59.071Z</time></trkpt><trkpt lat="43.3643175" lon="11.9778114"><ele>398.33333333333337</ele><time>2026-04-24T15:10:00.071Z</time></trkpt><trkpt lat="43.3643646" lon="11.9778892"><ele>399.6666666666667</ele><time>2026-04-24T15:10:01.08Z</time></trkpt><trkpt lat="43.364388" lon="11.9779733"><ele>401.0</ele><time>2026-04-24T15:10:02.084Z</time></trkpt><trkpt lat="43.3644055" lon="11.9780768"><ele>402.33333333333337</ele><time>2026-04-24T15:10:03.076Z</time></trkpt><trkpt lat="43.3644177" lon="11.9781821"><ele>403.6666666666667</ele><time>2026-04-24T15:10:04.07Z</time></trkpt><trkpt lat="43.3644211" lon="11.9782862"><ele>405.0</ele><time>2026-04-24T15:10:05.072Z</time></trkpt><trkpt lat="43.3644196" lon="11.9784063"><ele>408.1666666666667</ele><time>2026-04-24T15:10:06.086Z</time></trkpt><trkpt lat="43.3643829" lon="11.9785311"><ele>411.33333333333337</ele><time>2026-04-24T15:10:07.084Z</time></trkpt><trkpt lat="43.3643294" lon="11.978631"><ele>414.5</ele><time>2026-04-24T15:10:08.081Z</time></trkpt><trkpt lat="43.3642658" lon="11.9787123"><ele>417.6666666666667</ele><time>2026-04-24T15:10:09.084Z</time></trkpt><trkpt lat="43.3642066" lon="11.9787659"><ele>420.83333333333337</ele><time>2026-04-24T15:10:10.08Z</time></trkpt><trkpt lat="43.3641993" lon="11.9788657"><ele>424.0</ele><time>2026-04-24T15:10:12.101Z</time></trkpt><trkpt lat="43.3642841" lon="11.9789752"><ele>424.00000000000006</ele><time>2026-04-24T15:10:14.081Z</time></trkpt><trkpt lat="43.3643659" lon="11.979091"><ele>424.0</ele><time>2026-04-24T15:10:16.097Z</time></trkpt><trkpt lat="43.364444" lon="11.9792279"><ele>424.0</ele><time>2026-04-24T15:10:18.085Z</time></trkpt><trkpt lat="43.3644962" lon="11.9792875"><ele>424.0</ele><time>2026-04-24T15:10:19.081Z</time></trkpt><trkpt lat="43.3645548" lon="11.9793338"><ele>424.00000000000006</ele><time>2026-04-24T15:10:20.079Z</time></trkpt><trkpt lat="43.3646169" lon="11.9793744"><ele>424.0</ele><time>2026-04-24T15:10:21.078Z</time></trkpt><trkpt lat="43.3646844" lon="11.9794119"><ele>425.83333333333337</ele><time>2026-04-24T15:10:22.087Z</time></trkpt><trkpt lat="43.3647556" lon="11.9794234"><ele>427.6666666666667</ele><time>2026-04-24T15:10:23.074Z</time></trkpt><trkpt lat="43.36482" lon="11.9794057"><ele>429.5</ele><time>2026-04-24T15:10:24.089Z</time></trkpt><trkpt lat="43.3649234" lon="11.9792996"><ele>431.33333333333337</ele><time>2026-04-24T15:10:26.095Z</time></trkpt><trkpt lat="43.3649482" lon="11.979204"><ele>433.1666666666667</ele><time>2026-04-24T15:10:27.086Z</time></trkpt><trkpt lat="43.3649664" lon="11.9791032"><ele>435.0</ele><time>2026-04-24T15:10:28.069Z</time></trkpt><trkpt lat="43.3649708" lon="11.9789985"><ele>435.00000000000006</ele><time>2026-04-24T15:10:29.083Z</time></trkpt><trkpt lat="43.364977" lon="11.9789052"><ele>435.0</ele><time>2026-04-24T15:10:30.085Z</time></trkpt><trkpt lat="43.3649831" lon="11.9788044"><ele>435.0</ele><time>2026-04-24T15:10:31.092Z</time></trkpt><trkpt lat="43.364984" lon="11.9786991"><ele>435.0</ele><time>2026-04-24T15:10:32.086Z</time></trkpt><trkpt lat="43.3649835" lon="11.9785999"><ele>435.0</ele><time>2026-04-24T15:10:33.098Z</time></trkpt><trkpt lat="43.3649821" lon="11.9785043"><ele>435.00000000000006</ele><time>2026-04-24T15:10:34.077Z</time></trkpt><trkpt lat="43.3649851" lon="11.9784102"><ele>435.0</ele><time>2026-04-24T15:10:35.094Z</time></trkpt><trkpt lat="43.3649922" lon="11.9783166"><ele>434.0</ele><time>2026-04-24T15:10:36.077Z</time></trkpt><trkpt lat="43.3650339" lon="11.9781839"><ele>433.0</ele><time>2026-04-24T15:10:38.091Z</time></trkpt><trkpt lat="43.3650726" lon="11.9781104"><ele>432.0</ele><time>2026-04-24T15:10:40.093Z</time></trkpt><trkpt lat="43.3651351" lon="11.9780441"><ele>431.0</ele><time>2026-04-24T15:10:42.095Z</time></trkpt><trkpt lat="43.3651981" lon="11.9780229"><ele>430.0</ele><time>2026-04-24T15:10:44.096Z</time></trkpt><trkpt lat="43.3652692" lon="11.9780904"><ele>429.0</ele><time>2026-04-24T15:10:46.087Z</time></trkpt><trkpt lat="43.3653517" lon="11.9782213"><ele>429.0</ele><time>2026-04-24T15:10:48.084Z</time></trkpt><trkpt lat="43.365395" lon="11.9782974"><ele>429.0</ele><time>2026-04-24T15:10:49.085Z</time></trkpt><trkpt lat="43.3654245" lon="11.9783837"><ele>429.0</ele><time>2026-04-24T15:10:50.081Z</time></trkpt><trkpt lat="43.3654526" lon="11.9784723"><ele>429.0</ele><time>2026-04-24T15:10:51.097Z</time></trkpt><trkpt lat="43.3655006" lon="11.9786123"><ele>429.0</ele><time>2026-04-24T15:10:53.091Z</time></trkpt><trkpt lat="43.3655619" lon="11.9787676"><ele>432.5</ele><time>2026-04-24T15:10:55.088Z</time></trkpt><trkpt lat="43.3655964" lon="11.9788607"><ele>436.0</ele><time>2026-04-24T15:10:56.084Z</time></trkpt><trkpt lat="43.3656418" lon="11.9789545"><ele>439.5</ele><time>2026-04-24T15:10:57.089Z</time></trkpt><trkpt lat="43.3656939" lon="11.9790485"><ele>443.0</ele><time>2026-04-24T15:10:58.09Z</time></trkpt><trkpt lat="43.3657495" lon="11.9791513"><ele>446.5</ele><time>2026-04-24T15:10:59.088Z</time></trkpt><trkpt lat="43.3658045" lon="11.9792442"><ele>450.0</ele><time>2026-04-24T15:11:00.095Z</time></trkpt><trkpt lat="43.3658612" lon="11.9793471"><ele>452.0</ele><time>2026-04-24T15:11:01.086Z</time></trkpt><trkpt lat="43.3659184" lon="11.9794596"><ele>454.0</ele><time>2026-04-24T15:11:02.094Z</time></trkpt><trkpt lat="43.3659585" lon="11.9795495"><ele>456.0</ele><time>2026-04-24T15:11:03.084Z</time></trkpt><trkpt lat="43.3660202" lon="11.9796615"><ele>458.0</ele><time>2026-04-24T15:11:05.113Z</time></trkpt><trkpt lat="43.3661013" lon="11.9796734"><ele>460.0</ele><time>2026-04-24T15:11:07.089Z</time></trkpt><trkpt lat="43.366166" lon="11.979662"><ele>462.0</ele><time>2026-04-24T15:11:08.076Z</time></trkpt><trkpt lat="43.3662728" lon="11.9797228"><ele>462.0</ele><time>2026-04-24T15:11:10.106Z</time></trkpt><trkpt lat="43.3663124" lon="11.9798127"><ele>462.00000000000006</ele><time>2026-04-24T15:11:11.09Z</time></trkpt><trkpt lat="43.3663502" lon="11.9799366"><ele>462.00000000000006</ele><time>2026-04-24T15:11:12.101Z</time></trkpt><trkpt lat="43.3664007" lon="11.9800489"><ele>462.0</ele><time>2026-04-24T15:11:13.084Z</time></trkpt><trkpt lat="43.3664676" lon="11.9801386"><ele>462.0</ele><time>2026-04-24T15:11:14.09Z</time></trkpt><trkpt lat="43.3665448" lon="11.980206"><ele>468.0</ele><time>2026-04-24T15:11:15.08Z</time></trkpt><trkpt lat="43.3666245" lon="11.9802772"><ele>474.00000000000006</ele><time>2026-04-24T15:11:16.094Z</time></trkpt><trkpt lat="43.3667088" lon="11.9803744"><ele>480.00000000000006</ele><time>2026-04-24T15:11:17.085Z</time></trkpt><trkpt lat="43.3668088" lon="11.9804627"><ele>486.0</ele><time>2026-04-24T15:11:18.089Z</time></trkpt><trkpt lat="43.3669188" lon="11.9805274"><ele>492.0</ele><time>2026-04-24T15:11:19.087Z</time></trkpt><trkpt lat="43.3670252" lon="11.9805677"><ele>492.0</ele><time>2026-04-24T15:11:20.098Z</time></trkpt><trkpt lat="43.3671289" lon="11.9806005"><ele>492.00000000000006</ele><time>2026-04-24T15:11:21.094Z</time></trkpt><trkpt lat="43.3672379" lon="11.9806347"><ele>492.00000000000006</ele><time>2026-04-24T15:11:22.079Z</time></trkpt><trkpt lat="43.3673439" lon="11.9806667"><ele>492.0</ele><time>2026-04-24T15:11:23.078Z</time></trkpt><trkpt lat="43.3674223" lon="11.9806674"><ele>492.0</ele><time>2026-04-24T15:11:24.091Z</time></trkpt><trkpt lat="43.3674754" lon="11.980613"><ele>493.40000000000003</ele><time>2026-04-24T15:11:25.086Z</time></trkpt><trkpt lat="43.3675219" lon="11.9805323"><ele>494.80000000000007</ele><time>2026-04-24T15:11:26.083Z</time></trkpt><trkpt lat="43.3675795" lon="11.9804752"><ele>496.2</ele><time>2026-04-24T15:11:27.082Z</time></trkpt><trkpt lat="43.367676" lon="11.9804716"><ele>497.6</ele><time>2026-04-24T15:11:28.084Z</time></trkpt><trkpt lat="43.3678045" lon="11.9805107"><ele>499.0</ele><time>2026-04-24T15:11:29.083Z</time></trkpt><trkpt lat="43.3679139" lon="11.9805706"><ele>499.0</ele><time>2026-04-24T15:11:30.087Z</time></trkpt><trkpt lat="43.3679672" lon="11.9806487"><ele>499.0</ele><time>2026-04-24T15:11:31.089Z</time></trkpt><trkpt lat="43.3679616" lon="11.9807436"><ele>499.0</ele><time>2026-04-24T15:11:32.084Z</time></trkpt><trkpt lat="43.3679107" lon="11.9808846"><ele>499.0</ele><time>2026-04-24T15:11:33.078Z</time></trkpt><trkpt lat="43.3678582" lon="11.9810276"><ele>499.0</ele><time>2026-04-24T15:11:34.089Z</time></trkpt><trkpt lat="43.3678064" lon="11.9811646"><ele>502.79999999999995</ele><time>2026-04-24T15:11:35.097Z</time></trkpt><trkpt lat="43.3677644" lon="11.9812716"><ele>506.59999999999997</ele><time>2026-04-24T15:11:36.085Z</time></trkpt><trkpt lat="43.3678027" lon="11.9814108"><ele>510.4</ele><time>2026-04-24T15:11:38.095Z</time></trkpt><trkpt lat="43.3678691" lon="11.9814559"><ele>514.1999999999999</ele><time>2026-04-24T15:11:39.083Z</time></trkpt><trkpt lat="43.3679568" lon="11.9814977"><ele>518.0</ele><time>2026-04-24T15:11:40.093Z</time></trkpt><trkpt lat="43.3680509" lon="11.981563"><ele>519.5</ele><time>2026-04-24T15:11:41.077Z</time></trkpt><trkpt lat="43.3681431" lon="11.9816567"><ele>521.0</ele><time>2026-04-24T15:11:42.093Z</time></trkpt><trkpt lat="43.3682138" lon="11.9817719"><ele>522.5</ele><time>2026-04-24T15:11:43.093Z</time></trkpt><trkpt lat="43.3682565" lon="11.9819152"><ele>524.0</ele><time>2026-04-24T15:11:44.087Z</time></trkpt><trkpt lat="43.3682807" lon="11.9820733"><ele>524.0</ele><time>2026-04-24T15:11:45.097Z</time></trkpt><trkpt lat="43.3682951" lon="11.9822394"><ele>524.0</ele><time>2026-04-24T15:11:46.09Z</time></trkpt><trkpt lat="43.3683257" lon="11.982384"><ele>524.0</ele><time>2026-04-24T15:11:47.094Z</time></trkpt><trkpt lat="43.3683985" lon="11.982476"><ele>524.0</ele><time>2026-04-24T15:11:48.093Z</time></trkpt><trkpt lat="43.3684992" lon="11.9825509"><ele>524.0</ele><time>2026-04-24T15:11:49.088Z</time></trkpt><trkpt lat="43.3686026" lon="11.9826536"><ele>524.0</ele><time>2026-04-24T15:11:50.088Z</time></trkpt><trkpt lat="43.3686832" lon="11.9827119"><ele>524.0</ele><time>2026-04-24T15:11:51.091Z</time></trkpt><trkpt lat="43.3687604" lon="11.9827066"><ele>524.0</ele><time>2026-04-24T15:11:52.089Z</time></trkpt><trkpt lat="43.368867" lon="11.98267"><ele>524.0</ele><time>2026-04-24T15:11:53.073Z</time></trkpt><trkpt lat="43.3689965" lon="11.9826214"><ele>524.0</ele><time>2026-04-24T15:11:54.082Z</time></trkpt><trkpt lat="43.3691428" lon="11.9825723"><ele>527.25</ele><time>2026-04-24T15:11:55.071Z</time></trkpt><trkpt lat="43.3692826" lon="11.9825312"><ele>530.5</ele><time>2026-04-24T15:11:56.085Z</time></trkpt><trkpt lat="43.3693973" lon="11.9824842"><ele>533.75</ele><time>2026-04-24T15:11:57.082Z</time></trkpt><trkpt lat="43.3694768" lon="11.9824217"><ele>537.0</ele><time>2026-04-24T15:11:58.096Z</time></trkpt><trkpt lat="43.3695566" lon="11.98234"><ele>538.0</ele><time>2026-04-24T15:11:59.08Z</time></trkpt><trkpt lat="43.3696441" lon="11.9822607"><ele>539.0</ele><time>2026-04-24T15:12:00.093Z</time></trkpt><trkpt lat="43.3697242" lon="11.9822171"><ele>540.0</ele><time>2026-04-24T15:12:01.101Z</time></trkpt><trkpt lat="43.3698006" lon="11.9822299"><ele>541.0</ele><time>2026-04-24T15:12:02.096Z</time></trkpt><trkpt lat="43.3698799" lon="11.9822854"><ele>542.0</ele><time>2026-04-24T15:12:03.086Z</time></trkpt><trkpt lat="43.3699688" lon="11.9823521"><ele>546.4</ele><time>2026-04-24T15:12:04.084Z</time></trkpt><trkpt lat="43.3700405" lon="11.9823749"><ele>550.8000000000001</ele><time>2026-04-24T15:12:05.086Z</time></trkpt><trkpt lat="43.3701539" lon="11.9823453"><ele>555.2</ele><time>2026-04-24T15:12:07.094Z</time></trkpt><trkpt lat="43.3702699" lon="11.9823986"><ele>559.6</ele><time>2026-04-24T15:12:09.076Z</time></trkpt><trkpt lat="43.3703425" lon="11.9823995"><ele>564.0</ele><time>2026-04-24T15:12:11.081Z</time></trkpt><trkpt lat="43.3704728" lon="11.9824304"><ele>568.8</ele><time>2026-04-24T15:12:13.082Z</time></trkpt><trkpt lat="43.3705897" lon="11.98245"><ele>573.5999999999999</ele><time>2026-04-24T15:12:14.095Z</time></trkpt><trkpt lat="43.3707078" lon="11.9824532"><ele>578.4</ele><time>2026-04-24T15:12:15.085Z</time></trkpt><trkpt lat="43.3708158" lon="11.9824252"><ele>583.1999999999999</ele><time>2026-04-24T15:12:16.092Z</time></trkpt><trkpt lat="43.370903" lon="11.9823679"><ele>588.0</ele><time>2026-04-24T15:12:17.086Z</time></trkpt><trkpt lat="43.3709599" lon="11.9822795"><ele>588.0</ele><time>2026-04-24T15:12:18.114Z</time></trkpt><trkpt lat="43.3710115" lon="11.9821702"><ele>588.0</ele><time>2026-04-24T15:12:19.079Z</time></trkpt><trkpt lat="43.3710644" lon="11.9820649"><ele>588.0</ele><time>2026-04-24T15:12:20.085Z</time></trkpt><trkpt lat="43.3711079" lon="11.9819869"><ele>588.0</ele><time>2026-04-24T15:12:21.088Z</time></trkpt><trkpt lat="43.3712057" lon="11.9819727"><ele>588.0</ele><time>2026-04-24T15:12:23.085Z</time></trkpt><trkpt lat="43.371269" lon="11.9820024"><ele>588.0</ele><time>2026-04-24T15:12:24.092Z</time></trkpt><trkpt lat="43.3713425" lon="11.9820224"><ele>591.6666666666666</ele><time>2026-04-24T15:12:25.075Z</time></trkpt><trkpt lat="43.3714291" lon="11.9820273"><ele>595.3333333333334</ele><time>2026-04-24T15:12:26.089Z</time></trkpt><trkpt lat="43.3715062" lon="11.9820342"><ele>599.0</ele><time>2026-04-24T15:12:27.098Z</time></trkpt><trkpt lat="43.3715659" lon="11.9820638"><ele>602.6666666666667</ele><time>2026-04-24T15:12:28.089Z</time></trkpt><trkpt lat="43.3716145" lon="11.9821355"><ele>606.3333333333334</ele><time>2026-04-24T15:12:29.094Z</time></trkpt><trkpt lat="43.3716586" lon="11.9822539"><ele>610.0</ele><time>2026-04-24T15:12:30.084Z</time></trkpt><trkpt lat="43.3717032" lon="11.9824024"><ele>608.6666666666667</ele><time>2026-04-24T15:12:31.087Z</time></trkpt><trkpt lat="43.3717479" lon="11.9825411"><ele>607.3333333333334</ele><time>2026-04-24T15:12:32.1Z</time></trkpt><trkpt lat="43.3718025" lon="11.9825869"><ele>606.0</ele><time>2026-04-24T15:12:33.087Z</time></trkpt><trkpt lat="43.3718701" lon="11.9825855"><ele>604.6666666666666</ele><time>2026-04-24T15:12:34.083Z</time></trkpt><trkpt lat="43.3719554" lon="11.9825727"><ele>603.3333333333333</ele><time>2026-04-24T15:12:35.089Z</time></trkpt><trkpt lat="43.3720576" lon="11.9825741"><ele>602.0</ele><time>2026-04-24T15:12:36.074Z</time></trkpt><trkpt lat="43.3721696" lon="11.9825894"><ele>603.6666666666666</ele><time>2026-04-24T15:12:37.109Z</time></trkpt><trkpt lat="43.3722632" lon="11.9825724"><ele>605.3333333333333</ele><time>2026-04-24T15:12:38.084Z</time></trkpt><trkpt lat="43.3723183" lon="11.9825032"><ele>607.0</ele><time>2026-04-24T15:12:39.089Z</time></trkpt><trkpt lat="43.3723763" lon="11.9823906"><ele>608.6666666666666</ele><time>2026-04-24T15:12:40.087Z</time></trkpt><trkpt lat="43.3724429" lon="11.9822775"><ele>610.3333333333334</ele><time>2026-04-24T15:12:41.085Z</time></trkpt><trkpt lat="43.3724938" lon="11.9822188"><ele>612.0</ele><time>2026-04-24T15:12:42.086Z</time></trkpt><trkpt lat="43.3725827" lon="11.9822064"><ele>614.2</ele><time>2026-04-24T15:12:43.086Z</time></trkpt><trkpt lat="43.3726589" lon="11.9821779"><ele>616.4000000000001</ele><time>2026-04-24T15:12:44.083Z</time></trkpt><trkpt lat="43.372734" lon="11.9821149"><ele>618.5999999999999</ele><time>2026-04-24T15:12:45.101Z</time></trkpt><trkpt lat="43.3727935" lon="11.9819955"><ele>620.8</ele><time>2026-04-24T15:12:46.086Z</time></trkpt><trkpt lat="43.3728707" lon="11.9818686"><ele>623.0</ele><time>2026-04-24T15:12:47.083Z</time></trkpt><trkpt lat="43.3729726" lon="11.9817569"><ele>625.5</ele><time>2026-04-24T15:12:48.099Z</time></trkpt><trkpt lat="43.3730806" lon="11.981681"><ele>628.0</ele><time>2026-04-24T15:12:49.084Z</time></trkpt><trkpt lat="43.3731999" lon="11.9816478"><ele>630.5</ele><time>2026-04-24T15:12:50.092Z</time></trkpt><trkpt lat="43.3733321" lon="11.9816333"><ele>633.0</ele><time>2026-04-24T15:12:51.085Z</time></trkpt><trkpt lat="43.3734554" lon="11.9816225"><ele>633.0</ele><time>2026-04-24T15:12:52.09Z</time></trkpt><trkpt lat="43.3735301" lon="11.981565"><ele>633.0</ele><time>2026-04-24T15:12:53.083Z</time></trkpt><trkpt lat="43.3735977" lon="11.9814882"><ele>633.0</ele><time>2026-04-24T15:12:54.083Z</time></trkpt><trkpt lat="43.3736796" lon="11.9814065"><ele>633.0</ele><time>2026-04-24T15:12:55.082Z</time></trkpt><trkpt lat="43.3737762" lon="11.9813676"><ele>633.0</ele><time>2026-04-24T15:12:56.092Z</time></trkpt><trkpt lat="43.3738814" lon="11.9813614"><ele>634.8</ele><time>2026-04-24T15:12:57.098Z</time></trkpt><trkpt lat="43.3739972" lon="11.9813142"><ele>636.5999999999999</ele><time>2026-04-24T15:12:58.098Z</time></trkpt><trkpt lat="43.3741029" lon="11.9812434"><ele>638.4000000000001</ele><time>2026-04-24T15:12:59.097Z</time></trkpt><trkpt lat="43.3741987" lon="11.9811567"><ele>640.2</ele><time>2026-04-24T15:13:00.085Z</time></trkpt><trkpt lat="43.3742731" lon="11.9810986"><ele>642.0</ele><time>2026-04-24T15:13:01.108Z</time></trkpt><trkpt lat="43.3743657" lon="11.9810999"><ele>642.0</ele><time>2026-04-24T15:13:02.099Z</time></trkpt><trkpt lat="43.3744814" lon="11.9811064"><ele>642.0</ele><time>2026-04-24T15:13:03.087Z</time></trkpt><trkpt lat="43.3746115" lon="11.9810941"><ele>642.0</ele><time>2026-04-24T15:13:04.11Z</time></trkpt><trkpt lat="43.3747548" lon="11.9811009"><ele>642.0</ele><time>2026-04-24T15:13:05.082Z</time></trkpt><trkpt lat="43.374857" lon="11.9811106"><ele>644.4000000000001</ele><time>2026-04-24T15:13:06.084Z</time></trkpt><trkpt lat="43.3749421" lon="11.9810956"><ele>646.8000000000001</ele><time>2026-04-24T15:13:07.086Z</time></trkpt><trkpt lat="43.3750255" lon="11.9810465"><ele>649.2</ele><time>2026-04-24T15:13:08.089Z</time></trkpt><trkpt lat="43.3751192" lon="11.9809465"><ele>651.6</ele><time>2026-04-24T15:13:09.081Z</time></trkpt><trkpt lat="43.3752043" lon="11.980873"><ele>654.0</ele><time>2026-04-24T15:13:10.076Z</time></trkpt><trkpt lat="43.3753093" lon="11.9808185"><ele>654.25</ele><time>2026-04-24T15:13:11.082Z</time></trkpt><trkpt lat="43.3754373" lon="11.9808243"><ele>654.5</ele><time>2026-04-24T15:13:12.089Z</time></trkpt><trkpt lat="43.3755693" lon="11.9808177"><ele>654.75</ele><time>2026-04-24T15:13:13.08Z</time></trkpt><trkpt lat="43.375718" lon="11.9807974"><ele>655.0</ele><time>2026-04-24T15:13:14.078Z</time></trkpt><trkpt lat="43.3758442" lon="11.9807492"><ele>660.5</ele><time>2026-04-24T15:13:15.097Z</time></trkpt><trkpt lat="43.3759416" lon="11.9806863"><ele>666.0</ele><time>2026-04-24T15:13:16.084Z</time></trkpt><trkpt lat="43.3760427" lon="11.9805914"><ele>671.5</ele><time>2026-04-24T15:13:17.081Z</time></trkpt><trkpt lat="43.3761618" lon="11.9804859"><ele>677.0</ele><time>2026-04-24T15:13:18.086Z</time></trkpt><trkpt lat="43.3762827" lon="11.9803782"><ele>681.0</ele><time>2026-04-24T15:13:19.078Z</time></trkpt><trkpt lat="43.3763891" lon="11.980267"><ele>685.0</ele><time>2026-04-24T15:13:20.087Z</time></trkpt><trkpt lat="43.3764796" lon="11.9801845"><ele>689.0</ele><time>2026-04-24T15:13:21.082Z</time></trkpt><trkpt lat="43.3765569" lon="11.9801436"><ele>693.0</ele><time>2026-04-24T15:13:22.079Z</time></trkpt><trkpt lat="43.3766235" lon="11.9801264"><ele>697.0</ele><time>2026-04-24T15:13:23.079Z</time></trkpt><trkpt lat="43.3766878" lon="11.9801969"><ele>697.0</ele><time>2026-04-24T15:13:26.07Z</time></trkpt><trkpt lat="43.3767031" lon="11.9802853"><ele>697.0</ele><time>2026-04-24T15:13:27.081Z</time></trkpt><trkpt lat="43.3767126" lon="11.9804324"><ele>697.0</ele><time>2026-04-24T15:13:28.083Z</time></trkpt><trkpt lat="43.3767011" lon="11.9805721"><ele>697.0</ele><time>2026-04-24T15:13:29.065Z</time></trkpt><trkpt lat="43.3766509" lon="11.9807149"><ele>697.0</ele><time>2026-04-24T15:13:30.084Z</time></trkpt><trkpt lat="43.3765888" lon="11.9808391"><ele>697.5</ele><time>2026-04-24T15:13:31.076Z</time></trkpt><trkpt lat="43.3765228" lon="11.9809657"><ele>698.0</ele><time>2026-04-24T15:13:32.079Z</time></trkpt><trkpt lat="43.3764847" lon="11.9810916"><ele>698.5</ele><time>2026-04-24T15:13:33.082Z</time></trkpt><trkpt lat="43.3764637" lon="11.9811853"><ele>699.0</ele><time>2026-04-24T15:13:34.089Z</time></trkpt><trkpt lat="43.3764416" lon="11.981293"><ele>699.5</ele><time>2026-04-24T15:13:36.101Z</time></trkpt><trkpt lat="43.3764423" lon="11.9813934"><ele>700.0</ele><time>2026-04-24T15:13:38.098Z</time></trkpt><trkpt lat="43.3764818" lon="11.9814647"><ele>700.0</ele><time>2026-04-24T15:13:40.082Z</time></trkpt><trkpt lat="43.3765529" lon="11.9815069"><ele>700.0</ele><time>2026-04-24T15:13:42.089Z</time></trkpt><trkpt lat="43.3766268" lon="11.9814692"><ele>700.0</ele><time>2026-04-24T15:13:44.091Z</time></trkpt><trkpt lat="43.3767272" lon="11.9814674"><ele>700.0</ele><time>2026-04-24T15:13:46.083Z</time></trkpt><trkpt lat="43.3767908" lon="11.9814418"><ele>700.0</ele><time>2026-04-24T15:13:48.087Z</time></trkpt><trkpt lat="43.3767004" lon="11.9814407"><ele>700.0</ele><time>2026-04-24T15:13:56.082Z</time></trkpt><trkpt lat="43.3766261" lon="11.9814562"><ele>700.0</ele><time>2026-04-24T15:13:57.079Z</time></trkpt><trkpt lat="43.3765468" lon="11.9814717"><ele>700.0</ele><time>2026-04-24T15:13:58.099Z</time></trkpt><trkpt lat="43.3764692" lon="11.9814723"><ele>700.0</ele><time>2026-04-24T15:13:59.09Z</time></trkpt><trkpt lat="43.376404" lon="11.981438"><ele>700.0</ele><time>2026-04-24T15:14:00.079Z</time></trkpt><trkpt lat="43.3763603" lon="11.9813734"><ele>700.0</ele><time>2026-04-24T15:14:01.093Z</time></trkpt><trkpt lat="43.3763505" lon="11.9812658"><ele>700.0</ele><time>2026-04-24T15:14:02.082Z</time></trkpt><trkpt lat="43.3763624" lon="11.981158"><ele>700.0</ele><time>2026-04-24T15:14:03.079Z</time></trkpt><trkpt lat="43.3763868" lon="11.9810734"><ele>700.0</ele><time>2026-04-24T15:14:04.1Z</time></trkpt><trkpt lat="43.376435" lon="11.9809843"><ele>700.0</ele><time>2026-04-24T15:14:06.085Z</time></trkpt><trkpt lat="43.3763455" lon="11.9809999"><ele>700.0</ele><time>2026-04-24T15:14:10.069Z</time></trkpt><trkpt lat="43.3762417" lon="11.9810811"><ele>700.0</ele><time>2026-04-24T15:14:12.085Z</time></trkpt><trkpt lat="43.3761826" lon="11.981124"><ele>700.0</ele><time>2026-04-24T15:14:13.082Z</time></trkpt><trkpt lat="43.3761337" lon="11.9811882"><ele>696.5</ele><time>2026-04-24T15:14:14.09Z</time></trkpt><trkpt lat="43.3760989" lon="11.9812662"><ele>693.0</ele><time>2026-04-24T15:14:15.086Z</time></trkpt><trkpt lat="43.3760658" lon="11.9814298"><ele>689.5</ele><time>2026-04-24T15:14:17.078Z</time></trkpt><trkpt lat="43.3760656" lon="11.9815246"><ele>686.0</ele><time>2026-04-24T15:14:18.084Z</time></trkpt><trkpt lat="43.376072" lon="11.9816366"><ele>682.5</ele><time>2026-04-24T15:14:19.078Z</time></trkpt><trkpt lat="43.3760924" lon="11.9817268"><ele>679.0</ele><time>2026-04-24T15:14:20.089Z</time></trkpt><trkpt lat="43.3761747" lon="11.9818611"><ele>678.0</ele><time>2026-04-24T15:14:22.075Z</time></trkpt><trkpt lat="43.3762746" lon="11.9819349"><ele>677.0</ele><time>2026-04-24T15:14:24.087Z</time></trkpt><trkpt lat="43.3763875" lon="11.9819981"><ele>676.0</ele><time>2026-04-24T15:14:26.082Z</time></trkpt><trkpt lat="43.376451" lon="11.9820421"><ele>675.0</ele><time>2026-04-24T15:14:27.097Z</time></trkpt><trkpt lat="43.3765149" lon="11.9820917"><ele>674.0</ele><time>2026-04-24T15:14:28.089Z</time></trkpt><trkpt lat="43.3765816" lon="11.9821601"><ele>674.0</ele><time>2026-04-24T15:14:29.078Z</time></trkpt><trkpt lat="43.3766606" lon="11.9822316"><ele>674.0</ele><time>2026-04-24T15:14:30.089Z</time></trkpt><trkpt lat="43.3767394" lon="11.9822815"><ele>674.0</ele><time>2026-04-24T15:14:31.096Z</time></trkpt><trkpt lat="43.3768369" lon="11.9823289"><ele>674.0</ele><time>2026-04-24T15:14:32.097Z</time></trkpt><trkpt lat="43.3769558" lon="11.9823756"><ele>674.0</ele><time>2026-04-24T15:14:33.074Z</time></trkpt><trkpt lat="43.3770832" lon="11.9824212"><ele>675.25</ele><time>2026-04-24T15:14:34.076Z</time></trkpt><trkpt lat="43.3771977" lon="11.9824684"><ele>676.5</ele><time>2026-04-24T15:14:35.08Z</time></trkpt><trkpt lat="43.3773043" lon="11.9825214"><ele>677.75</ele><time>2026-04-24T15:14:36.079Z</time></trkpt><trkpt lat="43.3774088" lon="11.9825783"><ele>679.0</ele><time>2026-04-24T15:14:37.083Z</time></trkpt><trkpt lat="43.3775178" lon="11.9826278"><ele>673.3333333333334</ele><time>2026-04-24T15:14:38.077Z</time></trkpt><trkpt lat="43.3776152" lon="11.9826781"><ele>667.6666666666667</ele><time>2026-04-24T15:14:39.086Z</time></trkpt><trkpt lat="43.3776753" lon="11.9827211"><ele>662.0</ele><time>2026-04-24T15:14:40.075Z</time></trkpt><trkpt lat="43.3777137" lon="11.982799"><ele>656.3333333333334</ele><time>2026-04-24T15:14:41.082Z</time></trkpt><trkpt lat="43.3777619" lon="11.9828992"><ele>650.6666666666666</ele><time>2026-04-24T15:14:42.067Z</time></trkpt><trkpt lat="43.3778288" lon="11.9829756"><ele>645.0</ele><time>2026-04-24T15:14:43.077Z</time></trkpt><trkpt lat="43.3778864" lon="11.9830453"><ele>645.0</ele><time>2026-04-24T15:14:44.084Z</time></trkpt><trkpt lat="43.3779273" lon="11.9831476"><ele>645.0</ele><time>2026-04-24T15:14:46.087Z</time></trkpt><trkpt lat="43.3778955" lon="11.9833239"><ele>645.0</ele><time>2026-04-24T15:14:48.072Z</time></trkpt><trkpt lat="43.3778715" lon="11.9834102"><ele>645.0</ele><time>2026-04-24T15:14:49.071Z</time></trkpt><trkpt lat="43.3778372" lon="11.9835011"><ele>645.0</ele><time>2026-04-24T15:14:50.074Z</time></trkpt><trkpt lat="43.3777909" lon="11.9836048"><ele>645.0</ele><time>2026-04-24T15:14:51.095Z</time></trkpt><trkpt lat="43.3777371" lon="11.9837237"><ele>644.8</ele><time>2026-04-24T15:14:52.068Z</time></trkpt><trkpt lat="43.3776898" lon="11.9838433"><ele>644.6</ele><time>2026-04-24T15:14:53.074Z</time></trkpt><trkpt lat="43.3776488" lon="11.9839577"><ele>644.4000000000001</ele><time>2026-04-24T15:14:54.075Z</time></trkpt><trkpt lat="43.3776316" lon="11.9840963"><ele>644.2</ele><time>2026-04-24T15:14:55.064Z</time></trkpt><trkpt lat="43.3776199" lon="11.9842325"><ele>644.0</ele><time>2026-04-24T15:14:56.064Z</time></trkpt><trkpt lat="43.3776232" lon="11.9843742"><ele>644.8333333333333</ele><time>2026-04-24T15:14:57.071Z</time></trkpt><trkpt lat="43.3776269" lon="11.9845081"><ele>645.6666666666666</ele><time>2026-04-24T15:14:58.075Z</time></trkpt><trkpt lat="43.3776252" lon="11.9846405"><ele>646.5</ele><time>2026-04-24T15:14:59.065Z</time></trkpt><trkpt lat="43.3776125" lon="11.9847377"><ele>647.3333333333334</ele><time>2026-04-24T15:15:00.07Z</time></trkpt><trkpt lat="43.3776028" lon="11.9848282"><ele>648.1666666666667</ele><time>2026-04-24T15:15:01.081Z</time></trkpt><trkpt lat="43.3775609" lon="11.9848983"><ele>649.0</ele><time>2026-04-24T15:15:02.072Z</time></trkpt><trkpt lat="43.3775094" lon="11.984976"><ele>648.4285714285713</ele><time>2026-04-24T15:15:03.086Z</time></trkpt><trkpt lat="43.3774775" lon="11.9850611"><ele>647.8571428571429</ele><time>2026-04-24T15:15:04.074Z</time></trkpt><trkpt lat="43.377471" lon="11.9851584"><ele>647.2857142857142</ele><time>2026-04-24T15:15:05.071Z</time></trkpt><trkpt lat="43.3774829" lon="11.985246"><ele>646.7142857142857</ele><time>2026-04-24T15:15:06.069Z</time></trkpt><trkpt lat="43.3775357" lon="11.9853249"><ele>646.1428571428571</ele><time>2026-04-24T15:15:07.073Z</time></trkpt><trkpt lat="43.3776007" lon="11.9853805"><ele>645.5714285714286</ele><time>2026-04-24T15:15:08.084Z</time></trkpt><trkpt lat="43.3776631" lon="11.9854264"><ele>645.0</ele><time>2026-04-24T15:15:09.068Z</time></trkpt><trkpt lat="43.3777231" lon="11.9854586"><ele>645.0</ele><time>2026-04-24T15:15:10.083Z</time></trkpt><trkpt lat="43.377789" lon="11.9854734"><ele>645.0</ele><time>2026-04-24T15:15:11.075Z</time></trkpt><trkpt lat="43.3778559" lon="11.9854864"><ele>645.0</ele><time>2026-04-24T15:15:12.061Z</time></trkpt><trkpt lat="43.3779265" lon="11.9854995"><ele>645.0</ele><time>2026-04-24T15:15:13.076Z</time></trkpt><trkpt lat="43.377995" lon="11.9855463"><ele>645.0</ele><time>2026-04-24T15:15:14.073Z</time></trkpt><trkpt lat="43.3780489" lon="11.9856179"><ele>645.0</ele><time>2026-04-24T15:15:15.072Z</time></trkpt><trkpt lat="43.378088" lon="11.9857066"><ele>645.0</ele><time>2026-04-24T15:15:16.082Z</time></trkpt><trkpt lat="43.3781228" lon="11.9858379"><ele>652.4</ele><time>2026-04-24T15:15:17.078Z</time></trkpt><trkpt lat="43.3781449" lon="11.9859757"><ele>659.8</ele><time>2026-04-24T15:15:18.067Z</time></trkpt><trkpt lat="43.3781666" lon="11.9861175"><ele>667.2</ele><time>2026-04-24T15:15:19.073Z</time></trkpt><trkpt lat="43.3781725" lon="11.986256"><ele>674.6</ele><time>2026-04-24T15:15:20.073Z</time></trkpt><trkpt lat="43.3781598" lon="11.9864105"><ele>682.0</ele><time>2026-04-24T15:15:21.071Z</time></trkpt><trkpt lat="43.3781441" lon="11.9865498"><ele>682.1666666666667</ele><time>2026-04-24T15:15:22.077Z</time></trkpt><trkpt lat="43.3781355" lon="11.9866839"><ele>682.3333333333334</ele><time>2026-04-24T15:15:23.07Z</time></trkpt><trkpt lat="43.378138" lon="11.9868064"><ele>682.5</ele><time>2026-04-24T15:15:24.07Z</time></trkpt><trkpt lat="43.3781619" lon="11.9869219"><ele>682.6666666666666</ele><time>2026-04-24T15:15:25.07Z</time></trkpt><trkpt lat="43.3781885" lon="11.9870214"><ele>682.8333333333333</ele><time>2026-04-24T15:15:26.068Z</time></trkpt><trkpt lat="43.3781632" lon="11.9871362"><ele>683.0</ele><time>2026-04-24T15:15:28.074Z</time></trkpt><trkpt lat="43.3781132" lon="11.9872018"><ele>683.0</ele><time>2026-04-24T15:15:29.068Z</time></trkpt><trkpt lat="43.3780685" lon="11.9872735"><ele>683.0</ele><time>2026-04-24T15:15:30.068Z</time></trkpt><trkpt lat="43.3779751" lon="11.9873735"><ele>683.0</ele><time>2026-04-24T15:15:32.069Z</time></trkpt><trkpt lat="43.3778864" lon="11.987472"><ele>683.0</ele><time>2026-04-24T15:15:34.077Z</time></trkpt><trkpt lat="43.3778341" lon="11.98753"><ele>683.0</ele><time>2026-04-24T15:15:35.083Z</time></trkpt><trkpt lat="43.3777844" lon="11.9875976"><ele>683.0</ele><time>2026-04-24T15:15:36.085Z</time></trkpt><trkpt lat="43.3777468" lon="11.9877397"><ele>678.8333333333333</ele><time>2026-04-24T15:15:38.076Z</time></trkpt><trkpt lat="43.3777378" lon="11.9878381"><ele>674.6666666666666</ele><time>2026-04-24T15:15:39.079Z</time></trkpt><trkpt lat="43.3777309" lon="11.9879489"><ele>670.5</ele><time>2026-04-24T15:15:40.081Z</time></trkpt><trkpt lat="43.3777371" lon="11.9880557"><ele>666.3333333333334</ele><time>2026-04-24T15:15:41.077Z</time></trkpt><trkpt lat="43.3777556" lon="11.9881666"><ele>662.1666666666667</ele><time>2026-04-24T15:15:42.083Z</time></trkpt><trkpt lat="43.3777863" lon="11.9882548"><ele>658.0</ele><time>2026-04-24T15:15:43.078Z</time></trkpt><trkpt lat="43.3778307" lon="11.9883304"><ele>656.5</ele><time>2026-04-24T15:15:44.081Z</time></trkpt><trkpt lat="43.3778925" lon="11.9884054"><ele>655.0</ele><time>2026-04-24T15:15:45.086Z</time></trkpt><trkpt lat="43.3779533" lon="11.9884855"><ele>653.5</ele><time>2026-04-24T15:15:46.095Z</time></trkpt><trkpt lat="43.3780027" lon="11.9885512"><ele>652.0</ele><time>2026-04-24T15:15:47.085Z</time></trkpt><trkpt lat="43.3780514" lon="11.9886195"><ele>650.5</ele><time>2026-04-24T15:15:49.09Z</time></trkpt><trkpt lat="43.3779815" lon="11.9886674"><ele>649.0</ele><time>2026-04-24T15:15:54.089Z</time></trkpt><trkpt lat="43.3779158" lon="11.988697"><ele>649.0</ele><time>2026-04-24T15:15:57.081Z</time></trkpt><trkpt lat="43.377897" lon="11.9887866"><ele>649.0</ele><time>2026-04-24T15:15:59.084Z</time></trkpt><trkpt lat="43.3778631" lon="11.9888902"><ele>649.0</ele><time>2026-04-24T15:16:01.084Z</time></trkpt><trkpt lat="43.3778489" lon="11.9889905"><ele>649.0</ele><time>2026-04-24T15:16:03.082Z</time></trkpt><trkpt lat="43.3777639" lon="11.9890669"><ele>649.0</ele><time>2026-04-24T15:16:06.078Z</time></trkpt><trkpt lat="43.3777385" lon="11.9891586"><ele>649.0</ele><time>2026-04-24T15:16:08.086Z</time></trkpt><trkpt lat="43.377729" lon="11.989276"><ele>647.8333333333334</ele><time>2026-04-24T15:16:10.076Z</time></trkpt><trkpt lat="43.37772" lon="11.9893626"><ele>646.6666666666667</ele><time>2026-04-24T15:16:12.086Z</time></trkpt><trkpt lat="43.3776785" lon="11.989476"><ele>645.5</ele><time>2026-04-24T15:16:14.084Z</time></trkpt><trkpt lat="43.3776078" lon="11.9895649"><ele>644.3333333333334</ele><time>2026-04-24T15:16:16.09Z</time></trkpt><trkpt lat="43.3775454" lon="11.9896154"><ele>643.1666666666666</ele><time>2026-04-24T15:16:18.076Z</time></trkpt><trkpt lat="43.3774752" lon="11.9896571"><ele>642.0</ele><time>2026-04-24T15:16:22.087Z</time></trkpt><trkpt lat="43.3774272" lon="11.9897425"><ele>642.0</ele><time>2026-04-24T15:16:26.073Z</time></trkpt><trkpt lat="43.377356" lon="11.9898142"><ele>642.0</ele><time>2026-04-24T15:16:29.075Z</time></trkpt><trkpt lat="43.3773026" lon="11.9898608"><ele>642.0</ele><time>2026-04-24T15:16:31.081Z</time></trkpt><trkpt lat="43.3772454" lon="11.9899278"><ele>642.0</ele><time>2026-04-24T15:16:33.093Z</time></trkpt><trkpt lat="43.3771859" lon="11.9900034"><ele>642.0</ele><time>2026-04-24T15:16:35.079Z</time></trkpt><trkpt lat="43.3770991" lon="11.9900889"><ele>642.0</ele><time>2026-04-24T15:16:37.074Z</time></trkpt><trkpt lat="43.3770283" lon="11.9901816"><ele>640.0</ele><time>2026-04-24T15:16:39.088Z</time></trkpt><trkpt lat="43.3769615" lon="11.9902673"><ele>638.0</ele><time>2026-04-24T15:16:41.083Z</time></trkpt><trkpt lat="43.3769378" lon="11.9903702"><ele>636.0</ele><time>2026-04-24T15:16:43.1Z</time></trkpt><trkpt lat="43.3770183" lon="11.9904656"><ele>634.0</ele><time>2026-04-24T15:16:45.084Z</time></trkpt><trkpt lat="43.3771338" lon="11.9905126"><ele>632.0</ele><time>2026-04-24T15:16:47.077Z</time></trkpt><trkpt lat="43.377206" lon="11.9905059"><ele>632.0</ele><time>2026-04-24T15:16:48.08Z</time></trkpt><trkpt lat="43.3772819" lon="11.9904622"><ele>632.0</ele><time>2026-04-24T15:16:49.073Z</time></trkpt><trkpt lat="43.3773428" lon="11.9904001"><ele>632.0</ele><time>2026-04-24T15:16:50.078Z</time></trkpt><trkpt lat="43.377413" lon="11.9903707"><ele>632.0</ele><time>2026-04-24T15:16:52.085Z</time></trkpt><trkpt lat="43.3774581" lon="11.9904912"><ele>632.0</ele><time>2026-04-24T15:16:54.083Z</time></trkpt><trkpt lat="43.3774582" lon="11.9906119"><ele>632.0</ele><time>2026-04-24T15:16:55.106Z</time></trkpt><trkpt lat="43.3774525" lon="11.9907457"><ele>631.0000000000001</ele><time>2026-04-24T15:16:56.073Z</time></trkpt><trkpt lat="43.3774417" lon="11.9908759"><ele>630.0</ele><time>2026-04-24T15:16:57.088Z</time></trkpt><trkpt lat="43.3774217" lon="11.9909703"><ele>629.0</ele><time>2026-04-24T15:16:58.071Z</time></trkpt><trkpt lat="43.3774096" lon="11.9910607"><ele>628.0</ele><time>2026-04-24T15:16:59.076Z</time></trkpt><trkpt lat="43.3773891" lon="11.9911512"><ele>627.0</ele><time>2026-04-24T15:17:00.07Z</time></trkpt><trkpt lat="43.3773591" lon="11.9912337"><ele>626.0000000000001</ele><time>2026-04-24T15:17:01.072Z</time></trkpt><trkpt lat="43.377329" lon="11.9913197"><ele>625.0</ele><time>2026-04-24T15:17:02.068Z</time></trkpt><trkpt lat="43.377274" lon="11.9914798"><ele>625.0</ele><time>2026-04-24T15:17:04.077Z</time></trkpt><trkpt lat="43.3772352" lon="11.9915742"><ele>625.0</ele><time>2026-04-24T15:17:05.076Z</time></trkpt><trkpt lat="43.3771607" lon="11.99165"><ele>625.0</ele><time>2026-04-24T15:17:06.079Z</time></trkpt><trkpt lat="43.3770873" lon="11.9917059"><ele>625.0</ele><time>2026-04-24T15:17:07.079Z</time></trkpt><trkpt lat="43.3770409" lon="11.9918417"><ele>625.0</ele><time>2026-04-24T15:17:09.07Z</time></trkpt><trkpt lat="43.377022" lon="11.9919263"><ele>625.0</ele><time>2026-04-24T15:17:10.074Z</time></trkpt><trkpt lat="43.3769832" lon="11.9920691"><ele>619.8</ele><time>2026-04-24T15:17:12.092Z</time></trkpt><trkpt lat="43.3769482" lon="11.9922228"><ele>614.6</ele><time>2026-04-24T15:17:14.081Z</time></trkpt><trkpt lat="43.37693" lon="11.9923737"><ele>609.4</ele><time>2026-04-24T15:17:16.072Z</time></trkpt><trkpt lat="43.3769418" lon="11.9925647"><ele>604.2</ele><time>2026-04-24T15:17:18.087Z</time></trkpt><trkpt lat="43.3769207" lon="11.9926688"><ele>599.0</ele><time>2026-04-24T15:17:19.086Z</time></trkpt><trkpt lat="43.376907" lon="11.9927633"><ele>598.7142857142858</ele><time>2026-04-24T15:17:20.072Z</time></trkpt><trkpt lat="43.3768933" lon="11.9928542"><ele>598.4285714285714</ele><time>2026-04-24T15:17:21.086Z</time></trkpt><trkpt lat="43.3768792" lon="11.9929644"><ele>598.1428571428571</ele><time>2026-04-24T15:17:22.068Z</time></trkpt><trkpt lat="43.3768636" lon="11.993089"><ele>597.8571428571429</ele><time>2026-04-24T15:17:23.076Z</time></trkpt><trkpt lat="43.3768631" lon="11.9931879"><ele>597.5714285714286</ele><time>2026-04-24T15:17:24.084Z</time></trkpt><trkpt lat="43.3768661" lon="11.9932762"><ele>597.2857142857143</ele><time>2026-04-24T15:17:25.075Z</time></trkpt><trkpt lat="43.3768543" lon="11.993365"><ele>597.0</ele><time>2026-04-24T15:17:27.074Z</time></trkpt><trkpt lat="43.3768179" lon="11.9934948"><ele>597.8000000000001</ele><time>2026-04-24T15:17:31.084Z</time></trkpt><trkpt lat="43.3768031" lon="11.9936072"><ele>598.6</ele><time>2026-04-24T15:17:33.084Z</time></trkpt><trkpt lat="43.3768302" lon="11.9937838"><ele>599.4000000000001</ele><time>2026-04-24T15:17:35.075Z</time></trkpt><trkpt lat="43.3768273" lon="11.9938972"><ele>600.2</ele><time>2026-04-24T15:17:36.088Z</time></trkpt><trkpt lat="43.3768041" lon="11.9940082"><ele>601.0</ele><time>2026-04-24T15:17:37.093Z</time></trkpt><trkpt lat="43.3767348" lon="11.9941087"><ele>602.2</ele><time>2026-04-24T15:17:38.095Z</time></trkpt><trkpt lat="43.3766379" lon="11.9942084"><ele>603.4000000000001</ele><time>2026-04-24T15:17:39.095Z</time></trkpt><trkpt lat="43.3765646" lon="11.9942985"><ele>604.6</ele><time>2026-04-24T15:17:40.095Z</time></trkpt><trkpt lat="43.3765098" lon="11.9944002"><ele>605.8000000000001</ele><time>2026-04-24T15:17:41.092Z</time></trkpt><trkpt lat="43.3764558" lon="11.9945036"><ele>607.0</ele><time>2026-04-24T15:17:42.087Z</time></trkpt><trkpt lat="43.3763982" lon="11.9946186"><ele>604.8000000000001</ele><time>2026-04-24T15:17:43.097Z</time></trkpt><trkpt lat="43.3763428" lon="11.9947437"><ele>602.6</ele><time>2026-04-24T15:17:44.087Z</time></trkpt><trkpt lat="43.3762853" lon="11.9948761"><ele>600.4000000000001</ele><time>2026-04-24T15:17:45.087Z</time></trkpt><trkpt lat="43.3762462" lon="11.9950199"><ele>598.2</ele><time>2026-04-24T15:17:46.092Z</time></trkpt><trkpt lat="43.3762339" lon="11.9951664"><ele>596.0</ele><time>2026-04-24T15:17:47.095Z</time></trkpt><trkpt lat="43.3762283" lon="11.9952867"><ele>596.0</ele><time>2026-04-24T15:17:48.075Z</time></trkpt><trkpt lat="43.3762184" lon="11.9954001"><ele>596.0</ele><time>2026-04-24T15:17:49.097Z</time></trkpt><trkpt lat="43.3761887" lon="11.9954971"><ele>596.0</ele><time>2026-04-24T15:17:50.099Z</time></trkpt><trkpt lat="43.3761518" lon="11.9955904"><ele>596.0</ele><time>2026-04-24T15:17:51.098Z</time></trkpt><trkpt lat="43.3760783" lon="11.995726"><ele>596.0</ele><time>2026-04-24T15:17:53.088Z</time></trkpt><trkpt lat="43.3760307" lon="11.995791"><ele>596.0</ele><time>2026-04-24T15:17:54.099Z</time></trkpt><trkpt lat="43.3759514" lon="11.9959042"><ele>597.4</ele><time>2026-04-24T15:17:56.095Z</time></trkpt><trkpt lat="43.3758702" lon="11.9959931"><ele>598.8</ele><time>2026-04-24T15:17:58.091Z</time></trkpt><trkpt lat="43.3758001" lon="11.9960247"><ele>600.1999999999999</ele><time>2026-04-24T15:18:00.094Z</time></trkpt><trkpt lat="43.3758312" lon="11.9961092"><ele>601.6</ele><time>2026-04-24T15:18:21.093Z</time></trkpt><trkpt lat="43.3759341" lon="11.9961268"><ele>603.0</ele><time>2026-04-24T15:18:24.092Z</time></trkpt><trkpt lat="43.3760645" lon="11.9961424"><ele>603.0</ele><time>2026-04-24T15:18:26.077Z</time></trkpt><trkpt lat="43.3761476" lon="11.9961522"><ele>603.0</ele><time>2026-04-24T15:18:27.087Z</time></trkpt><trkpt lat="43.3762384" lon="11.9961744"><ele>603.0</ele><time>2026-04-24T15:18:28.076Z</time></trkpt><trkpt lat="43.3763324" lon="11.9962245"><ele>603.0</ele><time>2026-04-24T15:18:29.082Z</time></trkpt><trkpt lat="43.3764413" lon="11.9962934"><ele>603.0</ele><time>2026-04-24T15:18:30.081Z</time></trkpt><trkpt lat="43.3765805" lon="11.9963554"><ele>600.3333333333334</ele><time>2026-04-24T15:18:31.07Z</time></trkpt><trkpt lat="43.3767356" lon="11.9964021"><ele>597.6666666666667</ele><time>2026-04-24T15:18:32.072Z</time></trkpt><trkpt lat="43.3768919" lon="11.9964284"><ele>595.0</ele><time>2026-04-24T15:18:33.077Z</time></trkpt><trkpt lat="43.3770444" lon="11.9964543"><ele>589.6666666666667</ele><time>2026-04-24T15:18:34.066Z</time></trkpt><trkpt lat="43.3772039" lon="11.9964793"><ele>584.3333333333334</ele><time>2026-04-24T15:18:35.07Z</time></trkpt><trkpt lat="43.3773578" lon="11.9965168"><ele>579.0</ele><time>2026-04-24T15:18:36.073Z</time></trkpt><trkpt lat="43.3774974" lon="11.9965539"><ele>579.0</ele><time>2026-04-24T15:18:37.084Z</time></trkpt><trkpt lat="43.3776218" lon="11.9965827"><ele>579.0</ele><time>2026-04-24T15:18:38.087Z</time></trkpt><trkpt lat="43.3777205" lon="11.9965995"><ele>579.0</ele><time>2026-04-24T15:18:39.075Z</time></trkpt><trkpt lat="43.3777908" lon="11.9965986"><ele>579.0</ele><time>2026-04-24T15:18:40.071Z</time></trkpt><trkpt lat="43.3778637" lon="11.996623"><ele>579.0</ele><time>2026-04-24T15:18:42.073Z</time></trkpt><trkpt lat="43.3778069" lon="11.996688"><ele>579.0</ele><time>2026-04-24T15:18:44.068Z</time></trkpt><trkpt lat="43.377738" lon="11.996707"><ele>579.6666666666666</ele><time>2026-04-24T15:18:45.072Z</time></trkpt><trkpt lat="43.377661" lon="11.9967287"><ele>580.3333333333334</ele><time>2026-04-24T15:18:46.07Z</time></trkpt><trkpt lat="43.377569" lon="11.996728"><ele>581.0</ele><time>2026-04-24T15:18:47.07Z</time></trkpt><trkpt lat="43.3774821" lon="11.9967195"><ele>581.6666666666667</ele><time>2026-04-24T15:18:48.072Z</time></trkpt><trkpt lat="43.3774128" lon="11.9967286"><ele>582.3333333333334</ele><time>2026-04-24T15:18:49.074Z</time></trkpt><trkpt lat="43.3774011" lon="11.9968226"><ele>583.0</ele><time>2026-04-24T15:18:51.067Z</time></trkpt><trkpt lat="43.3774715" lon="11.9968902"><ele>583.0</ele><time>2026-04-24T15:18:52.072Z</time></trkpt><trkpt lat="43.3775408" lon="11.9969636"><ele>583.0</ele><time>2026-04-24T15:18:53.067Z</time></trkpt><trkpt lat="43.3776093" lon="11.9970348"><ele>583.0</ele><time>2026-04-24T15:18:54.059Z</time></trkpt><trkpt lat="43.3776836" lon="11.9970965"><ele>583.0</ele><time>2026-04-24T15:18:55.067Z</time></trkpt><trkpt lat="43.3777532" lon="11.9971494"><ele>583.0</ele><time>2026-04-24T15:18:56.079Z</time></trkpt><trkpt lat="43.377868" lon="11.9972077"><ele>583.0</ele><time>2026-04-24T15:18:58.069Z</time></trkpt><trkpt lat="43.3780044" lon="11.9972665"><ele>583.0</ele><time>2026-04-24T15:19:00.063Z</time></trkpt><trkpt lat="43.3780762" lon="11.9972823"><ele>583.0</ele><time>2026-04-24T15:19:01.061Z</time></trkpt><trkpt lat="43.3781513" lon="11.9973047"><ele>583.0</ele><time>2026-04-24T15:19:02.083Z</time></trkpt><trkpt lat="43.3782167" lon="11.9973436"><ele>583.0</ele><time>2026-04-24T15:19:03.069Z</time></trkpt><trkpt lat="43.3782753" lon="11.9974"><ele>583.0</ele><time>2026-04-24T15:19:04.065Z</time></trkpt><trkpt lat="43.3783306" lon="11.9974836"><ele>577.8</ele><time>2026-04-24T15:19:05.064Z</time></trkpt><trkpt lat="43.378377" lon="11.9975758"><ele>572.5999999999999</ele><time>2026-04-24T15:19:06.069Z</time></trkpt><trkpt lat="43.3784244" lon="11.9976742"><ele>567.4000000000001</ele><time>2026-04-24T15:19:07.064Z</time></trkpt><trkpt lat="43.3784768" lon="11.9977746"><ele>562.2</ele><time>2026-04-24T15:19:08.061Z</time></trkpt><trkpt lat="43.378528" lon="11.9978798"><ele>557.0</ele><time>2026-04-24T15:19:09.08Z</time></trkpt><trkpt lat="43.3785912" lon="11.9979983"><ele>557.0</ele><time>2026-04-24T15:19:10.065Z</time></trkpt><trkpt lat="43.3786707" lon="11.9981261"><ele>557.0</ele><time>2026-04-24T15:19:11.064Z</time></trkpt><trkpt lat="43.3787549" lon="11.998267"><ele>557.0</ele><time>2026-04-24T15:19:12.066Z</time></trkpt><trkpt lat="43.378835" lon="11.9984051"><ele>557.0</ele><time>2026-04-24T15:19:13.069Z</time></trkpt><trkpt lat="43.3789167" lon="11.9985423"><ele>552.5</ele><time>2026-04-24T15:19:14.051Z</time></trkpt><trkpt lat="43.3789862" lon="11.9986877"><ele>548.0</ele><time>2026-04-24T15:19:15.065Z</time></trkpt><trkpt lat="43.3790581" lon="11.9988427"><ele>543.5</ele><time>2026-04-24T15:19:16.06Z</time></trkpt><trkpt lat="43.3791301" lon="11.9990275"><ele>539.0</ele><time>2026-04-24T15:19:17.064Z</time></trkpt><trkpt lat="43.3792072" lon="11.999217"><ele>537.25</ele><time>2026-04-24T15:19:18.057Z</time></trkpt><trkpt lat="43.3792861" lon="11.9993902"><ele>535.5</ele><time>2026-04-24T15:19:19.075Z</time></trkpt><trkpt lat="43.3793756" lon="11.999539"><ele>533.75</ele><time>2026-04-24T15:19:20.062Z</time></trkpt><trkpt lat="43.3794713" lon="11.9996742"><ele>532.0</ele><time>2026-04-24T15:19:21.06Z</time></trkpt><trkpt lat="43.3795492" lon="11.9997679"><ele>532.0</ele><time>2026-04-24T15:19:22.059Z</time></trkpt><trkpt lat="43.3796278" lon="11.9997952"><ele>532.0</ele><time>2026-04-24T15:19:23.066Z</time></trkpt><trkpt lat="43.3797141" lon="11.9997557"><ele>532.0</ele><time>2026-04-24T15:19:24.058Z</time></trkpt><trkpt lat="43.3797976" lon="11.9997479"><ele>532.0</ele><time>2026-04-24T15:19:25.054Z</time></trkpt><trkpt lat="43.3798765" lon="11.9997654"><ele>532.0</ele><time>2026-04-24T15:19:26.064Z</time></trkpt><trkpt lat="43.3799679" lon="11.9998646"><ele>530.25</ele><time>2026-04-24T15:19:27.059Z</time></trkpt><trkpt lat="43.3800806" lon="11.9999726"><ele>528.5</ele><time>2026-04-24T15:19:28.064Z</time></trkpt><trkpt lat="43.3802188" lon="12.0000688"><ele>526.75</ele><time>2026-04-24T15:19:29.067Z</time></trkpt><trkpt lat="43.3803419" lon="12.0001542"><ele>525.0</ele><time>2026-04-24T15:19:30.073Z</time></trkpt><trkpt lat="43.3804562" lon="12.0002183"><ele>524.0</ele><time>2026-04-24T15:19:31.066Z</time></trkpt><trkpt lat="43.3805672" lon="12.0002574"><ele>523.0</ele><time>2026-04-24T15:19:32.069Z</time></trkpt><trkpt lat="43.3806632" lon="12.0002657"><ele>522.0</ele><time>2026-04-24T15:19:33.069Z</time></trkpt><trkpt lat="43.3807619" lon="12.0002522"><ele>521.0</ele><time>2026-04-24T15:19:34.058Z</time></trkpt><trkpt lat="43.3808627" lon="12.0002732"><ele>520.0</ele><time>2026-04-24T15:19:35.077Z</time></trkpt><trkpt lat="43.3809752" lon="12.0003288"><ele>520.0</ele><time>2026-04-24T15:19:36.066Z</time></trkpt><trkpt lat="43.3810955" lon="12.0004205"><ele>520.0</ele><time>2026-04-24T15:19:37.064Z</time></trkpt><trkpt lat="43.3812072" lon="12.0004936"><ele>520.0</ele><time>2026-04-24T15:19:38.068Z</time></trkpt><trkpt lat="43.3812951" lon="12.0005185"><ele>520.0</ele><time>2026-04-24T15:19:39.065Z</time></trkpt><trkpt lat="43.3813757" lon="12.0004771"><ele>520.0</ele><time>2026-04-24T15:19:40.073Z</time></trkpt><trkpt lat="43.3814794" lon="12.0004009"><ele>521.8</ele><time>2026-04-24T15:19:41.065Z</time></trkpt><trkpt lat="43.3815656" lon="12.0003391"><ele>523.6</ele><time>2026-04-24T15:19:42.07Z</time></trkpt><trkpt lat="43.3816586" lon="12.0003294"><ele>525.4</ele><time>2026-04-24T15:19:43.066Z</time></trkpt><trkpt lat="43.3817428" lon="12.0003451"><ele>527.2</ele><time>2026-04-24T15:19:44.07Z</time></trkpt><trkpt lat="43.3818449" lon="12.0003897"><ele>529.0</ele><time>2026-04-24T15:19:45.073Z</time></trkpt><trkpt lat="43.3819436" lon="12.0004637"><ele>529.0</ele><time>2026-04-24T15:19:46.063Z</time></trkpt><trkpt lat="43.3820413" lon="12.0005847"><ele>529.0</ele><time>2026-04-24T15:19:47.086Z</time></trkpt><trkpt lat="43.3821409" lon="12.0007248"><ele>529.0</ele><time>2026-04-24T15:19:48.063Z</time></trkpt><trkpt lat="43.3822154" lon="12.000861"><ele>529.0</ele><time>2026-04-24T15:19:49.069Z</time></trkpt><trkpt lat="43.3822818" lon="12.0009784"><ele>526.4</ele><time>2026-04-24T15:19:50.073Z</time></trkpt><trkpt lat="43.3823347" lon="12.0011044"><ele>523.8</ele><time>2026-04-24T15:19:51.067Z</time></trkpt><trkpt lat="43.3823804" lon="12.0012274"><ele>521.2</ele><time>2026-04-24T15:19:52.077Z</time></trkpt><trkpt lat="43.3824273" lon="12.0013101"><ele>518.6</ele><time>2026-04-24T15:19:53.064Z</time></trkpt><trkpt lat="43.3825475" lon="12.0013669"><ele>516.0</ele><time>2026-04-24T15:19:55.067Z</time></trkpt><trkpt lat="43.3826222" lon="12.0014073"><ele>516.0</ele><time>2026-04-24T15:19:56.064Z</time></trkpt><trkpt lat="43.3826707" lon="12.0014748"><ele>516.0</ele><time>2026-04-24T15:19:57.063Z</time></trkpt><trkpt lat="43.3827061" lon="12.0015887"><ele>516.0</ele><time>2026-04-24T15:19:58.065Z</time></trkpt><trkpt lat="43.3827467" lon="12.0017361"><ele>516.0</ele><time>2026-04-24T15:19:59.066Z</time></trkpt><trkpt lat="43.3827884" lon="12.0018719"><ele>516.0</ele><time>2026-04-24T15:20:00.062Z</time></trkpt><trkpt lat="43.3828218" lon="12.0019859"><ele>514.0</ele><time>2026-04-24T15:20:01.063Z</time></trkpt><trkpt lat="43.3828769" lon="12.0020804"><ele>512.0</ele><time>2026-04-24T15:20:03.069Z</time></trkpt><trkpt lat="43.3830041" lon="12.0020531"><ele>510.0</ele><time>2026-04-24T15:20:24.065Z</time></trkpt><trkpt lat="43.3830691" lon="12.0020209"><ele>508.0</ele><time>2026-04-24T15:20:25.062Z</time></trkpt><trkpt lat="43.3831467" lon="12.0019848"><ele>506.0</ele><time>2026-04-24T15:20:26.076Z</time></trkpt><trkpt lat="43.3832316" lon="12.0019773"><ele>504.25</ele><time>2026-04-24T15:20:27.063Z</time></trkpt><trkpt lat="43.3833331" lon="12.0019928"><ele>502.5</ele><time>2026-04-24T15:20:28.058Z</time></trkpt><trkpt lat="43.3834434" lon="12.0019954"><ele>500.75</ele><time>2026-04-24T15:20:29.07Z</time></trkpt><trkpt lat="43.3835707" lon="12.0019925"><ele>499.0</ele><time>2026-04-24T15:20:30.071Z</time></trkpt><trkpt lat="43.3837073" lon="12.0019542"><ele>497.5</ele><time>2026-04-24T15:20:31.073Z</time></trkpt><trkpt lat="43.3838485" lon="12.0019166"><ele>496.0</ele><time>2026-04-24T15:20:32.067Z</time></trkpt><trkpt lat="43.3839969" lon="12.0018758"><ele>494.5</ele><time>2026-04-24T15:20:33.074Z</time></trkpt><trkpt lat="43.3841233" lon="12.0018135"><ele>493.0</ele><time>2026-04-24T15:20:34.065Z</time></trkpt><trkpt lat="43.3842422" lon="12.0017412"><ele>493.0</ele><time>2026-04-24T15:20:35.055Z</time></trkpt><trkpt lat="43.3843612" lon="12.0016691"><ele>493.0</ele><time>2026-04-24T15:20:36.077Z</time></trkpt><trkpt lat="43.3844698" lon="12.0016151"><ele>493.0</ele><time>2026-04-24T15:20:37.066Z</time></trkpt><trkpt lat="43.3845794" lon="12.001598"><ele>493.0</ele><time>2026-04-24T15:20:38.074Z</time></trkpt><trkpt lat="43.3846907" lon="12.0015803"><ele>497.5</ele><time>2026-04-24T15:20:39.067Z</time></trkpt><trkpt lat="43.3847946" lon="12.0015566"><ele>502.0</ele><time>2026-04-24T15:20:40.083Z</time></trkpt><trkpt lat="43.3849038" lon="12.0015454"><ele>506.5</ele><time>2026-04-24T15:20:41.067Z</time></trkpt><trkpt lat="43.3850174" lon="12.0015401"><ele>511.0</ele><time>2026-04-24T15:20:42.067Z</time></trkpt><trkpt lat="43.3851472" lon="12.0015574"><ele>511.0</ele><time>2026-04-24T15:20:43.067Z</time></trkpt><trkpt lat="43.3852842" lon="12.0016074"><ele>511.0</ele><time>2026-04-24T15:20:44.078Z</time></trkpt><trkpt lat="43.3854254" lon="12.0016561"><ele>511.0</ele><time>2026-04-24T15:20:45.062Z</time></trkpt><trkpt lat="43.3855588" lon="12.0016752"><ele>511.0</ele><time>2026-04-24T15:20:46.073Z</time></trkpt><trkpt lat="43.3856975" lon="12.0016794"><ele>508.5</ele><time>2026-04-24T15:20:47.073Z</time></trkpt><trkpt lat="43.3858307" lon="12.0016612"><ele>506.0</ele><time>2026-04-24T15:20:48.069Z</time></trkpt><trkpt lat="43.3859661" lon="12.0016485"><ele>503.5</ele><time>2026-04-24T15:20:49.072Z</time></trkpt><trkpt lat="43.3860746" lon="12.0016265"><ele>501.0</ele><time>2026-04-24T15:20:50.063Z</time></trkpt><trkpt lat="43.3861754" lon="12.0015626"><ele>501.0</ele><time>2026-04-24T15:20:51.07Z</time></trkpt><trkpt lat="43.3862823" lon="12.0014753"><ele>501.0</ele><time>2026-04-24T15:20:52.076Z</time></trkpt><trkpt lat="43.3863923" lon="12.0013758"><ele>501.0</ele><time>2026-04-24T15:20:53.073Z</time></trkpt><trkpt lat="43.3864799" lon="12.0013113"><ele>501.0</ele><time>2026-04-24T15:20:54.072Z</time></trkpt><trkpt lat="43.3865525" lon="12.0012407"><ele>501.0</ele><time>2026-04-24T15:20:55.08Z</time></trkpt><trkpt lat="43.3866211" lon="12.0011695"><ele>497.4</ele><time>2026-04-24T15:20:56.08Z</time></trkpt><trkpt lat="43.3867035" lon="12.0010643"><ele>493.8</ele><time>2026-04-24T15:20:58.072Z</time></trkpt><trkpt lat="43.3867592" lon="12.0011432"><ele>490.19999999999993</ele><time>2026-04-24T15:21:05.062Z</time></trkpt><trkpt lat="43.3867959" lon="12.001256"><ele>486.59999999999997</ele><time>2026-04-24T15:21:07.067Z</time></trkpt><trkpt lat="43.3867864" lon="12.0014323"><ele>483.0</ele><time>2026-04-24T15:21:09.073Z</time></trkpt><trkpt lat="43.3867556" lon="12.0015198"><ele>483.0</ele><time>2026-04-24T15:21:10.067Z</time></trkpt><trkpt lat="43.3866885" lon="12.0016213"><ele>483.0</ele><time>2026-04-24T15:21:11.073Z</time></trkpt><trkpt lat="43.3865941" lon="12.0017402"><ele>483.0</ele><time>2026-04-24T15:21:12.075Z</time></trkpt><trkpt lat="43.3865097" lon="12.0018708"><ele>483.0</ele><time>2026-04-24T15:21:13.074Z</time></trkpt><trkpt lat="43.386447" lon="12.0019916"><ele>482.59999999999997</ele><time>2026-04-24T15:21:14.07Z</time></trkpt><trkpt lat="43.3864233" lon="12.0021445"><ele>482.19999999999993</ele><time>2026-04-24T15:21:15.072Z</time></trkpt><trkpt lat="43.3864316" lon="12.0023003"><ele>481.8</ele><time>2026-04-24T15:21:16.084Z</time></trkpt><trkpt lat="43.3864521" lon="12.0023999"><ele>481.4</ele><time>2026-04-24T15:21:17.067Z</time></trkpt><trkpt lat="43.3865533" lon="12.0024114"><ele>481.0</ele><time>2026-04-24T15:21:19.074Z</time></trkpt><trkpt lat="43.3866273" lon="12.0023758"><ele>481.0</ele><time>2026-04-24T15:21:20.07Z</time></trkpt><trkpt lat="43.3867" lon="12.0023005"><ele>481.0</ele><time>2026-04-24T15:21:21.069Z</time></trkpt><trkpt lat="43.3867773" lon="12.0022063"><ele>481.0</ele><time>2026-04-24T15:21:22.077Z</time></trkpt><trkpt lat="43.3868547" lon="12.0021276"><ele>481.0</ele><time>2026-04-24T15:21:23.063Z</time></trkpt><trkpt lat="43.3869422" lon="12.002156"><ele>481.0</ele><time>2026-04-24T15:21:25.076Z</time></trkpt><trkpt lat="43.3869534" lon="12.0023242"><ele>481.0</ele><time>2026-04-24T15:21:27.067Z</time></trkpt><trkpt lat="43.3869688" lon="12.0024556"><ele>481.0</ele><time>2026-04-24T15:21:28.078Z</time></trkpt><trkpt lat="43.3870141" lon="12.0026044"><ele>481.0</ele><time>2026-04-24T15:21:29.078Z</time></trkpt><trkpt lat="43.3870727" lon="12.0027625"><ele>481.0</ele><time>2026-04-24T15:21:30.079Z</time></trkpt><trkpt lat="43.38712" lon="12.0029208"><ele>484.20000000000005</ele><time>2026-04-24T15:21:31.085Z</time></trkpt><trkpt lat="43.3871537" lon="12.0030614"><ele>487.40000000000003</ele><time>2026-04-24T15:21:32.073Z</time></trkpt><trkpt lat="43.3871695" lon="12.0031666"><ele>490.6</ele><time>2026-04-24T15:21:33.079Z</time></trkpt><trkpt lat="43.3871181" lon="12.0032785"><ele>493.8</ele><time>2026-04-24T15:21:35.085Z</time></trkpt><trkpt lat="43.3871983" lon="12.0033258"><ele>497.0</ele><time>2026-04-24T15:21:38.074Z</time></trkpt><trkpt lat="43.3872785" lon="12.0034123"><ele>500.20000000000005</ele><time>2026-04-24T15:21:40.066Z</time></trkpt><trkpt lat="43.3872955" lon="12.0035169"><ele>503.40000000000003</ele><time>2026-04-24T15:21:41.077Z</time></trkpt><trkpt lat="43.3873027" lon="12.0036793"><ele>506.59999999999997</ele><time>2026-04-24T15:21:42.071Z</time></trkpt><trkpt lat="43.3872911" lon="12.0038208"><ele>509.79999999999995</ele><time>2026-04-24T15:21:43.081Z</time></trkpt><trkpt lat="43.3872482" lon="12.0039102"><ele>513.0</ele><time>2026-04-24T15:21:44.073Z</time></trkpt><trkpt lat="43.3871864" lon="12.0039827"><ele>512.5</ele><time>2026-04-24T15:21:45.082Z</time></trkpt><trkpt lat="43.3871378" lon="12.0040462"><ele>512.0</ele><time>2026-04-24T15:21:46.074Z</time></trkpt><trkpt lat="43.3871707" lon="12.0041653"><ele>511.5</ele><time>2026-04-24T15:21:48.078Z</time></trkpt><trkpt lat="43.3872388" lon="12.004242"><ele>511.0</ele><time>2026-04-24T15:21:49.075Z</time></trkpt><trkpt lat="43.3873217" lon="12.0043068"><ele>510.5</ele><time>2026-04-24T15:21:50.08Z</time></trkpt><trkpt lat="43.3873707" lon="12.0043712"><ele>510.0</ele><time>2026-04-24T15:21:51.082Z</time></trkpt><trkpt lat="43.3873499" lon="12.0045051"><ele>514.0</ele><time>2026-04-24T15:21:53.07Z</time></trkpt><trkpt lat="43.387338" lon="12.0046078"><ele>518.0</ele><time>2026-04-24T15:21:54.071Z</time></trkpt><trkpt lat="43.3873666" lon="12.00471"><ele>522.0</ele><time>2026-04-24T15:21:55.073Z</time></trkpt><trkpt lat="43.3873832" lon="12.0048009"><ele>526.0</ele><time>2026-04-24T15:21:56.085Z</time></trkpt><trkpt lat="43.387327" lon="12.0049516"><ele>530.0</ele><time>2026-04-24T15:21:58.071Z</time></trkpt><trkpt lat="43.3873541" lon="12.0050345"><ele>534.0</ele><time>2026-04-24T15:22:00.088Z</time></trkpt><trkpt lat="43.3874365" lon="12.0050757"><ele>537.0</ele><time>2026-04-24T15:22:01.072Z</time></trkpt><trkpt lat="43.3875057" lon="12.0051218"><ele>540.0</ele><time>2026-04-24T15:22:02.074Z</time></trkpt><trkpt lat="43.3875532" lon="12.0052084"><ele>543.0</ele><time>2026-04-24T15:22:03.075Z</time></trkpt><trkpt lat="43.3875728" lon="12.0053173"><ele>546.0</ele><time>2026-04-24T15:22:04.076Z</time></trkpt><trkpt lat="43.3875891" lon="12.0054402"><ele>549.0</ele><time>2026-04-24T15:22:05.076Z</time></trkpt><trkpt lat="43.3875891" lon="12.0055608"><ele>552.0</ele><time>2026-04-24T15:22:06.082Z</time></trkpt><trkpt lat="43.3875719" lon="12.0056514"><ele>552.0</ele><time>2026-04-24T15:22:07.09Z</time></trkpt><trkpt lat="43.387579" lon="12.0057862"><ele>552.0</ele><time>2026-04-24T15:22:09.078Z</time></trkpt><trkpt lat="43.3876275" lon="12.0058441"><ele>552.0</ele><time>2026-04-24T15:22:10.084Z</time></trkpt><trkpt lat="43.3876786" lon="12.0059222"><ele>552.0</ele><time>2026-04-24T15:22:11.068Z</time></trkpt><trkpt lat="43.3877124" lon="12.0060519"><ele>552.0</ele><time>2026-04-24T15:22:12.081Z</time></trkpt><trkpt lat="43.3877402" lon="12.0062121"><ele>554.2</ele><time>2026-04-24T15:22:13.083Z</time></trkpt><trkpt lat="43.3877643" lon="12.0063814"><ele>556.4000000000001</ele><time>2026-04-24T15:22:14.085Z</time></trkpt><trkpt lat="43.387786" lon="12.0065347"><ele>558.5999999999999</ele><time>2026-04-24T15:22:15.081Z</time></trkpt><trkpt lat="43.3878021" lon="12.0066643"><ele>560.8</ele><time>2026-04-24T15:22:16.076Z</time></trkpt><trkpt lat="43.3878752" lon="12.0067554"><ele>563.0</ele><time>2026-04-24T15:22:18.083Z</time></trkpt><trkpt lat="43.3879853" lon="12.0067687"><ele>565.8571428571429</ele><time>2026-04-24T15:22:20.075Z</time></trkpt><trkpt lat="43.3880296" lon="12.0068338"><ele>568.7142857142858</ele><time>2026-04-24T15:22:21.074Z</time></trkpt><trkpt lat="43.3880638" lon="12.0069111"><ele>571.5714285714287</ele><time>2026-04-24T15:22:22.095Z</time></trkpt><trkpt lat="43.3880974" lon="12.0070097"><ele>574.4285714285714</ele><time>2026-04-24T15:22:23.073Z</time></trkpt><trkpt lat="43.3881078" lon="12.0071004"><ele>577.2857142857143</ele><time>2026-04-24T15:22:24.071Z</time></trkpt><trkpt lat="43.3881279" lon="12.0071834"><ele>580.1428571428572</ele><time>2026-04-24T15:22:25.077Z</time></trkpt><trkpt lat="43.3881647" lon="12.0072683"><ele>583.0</ele><time>2026-04-24T15:22:26.088Z</time></trkpt><trkpt lat="43.3882215" lon="12.0073609"><ele>583.0</ele><time>2026-04-24T15:22:27.07Z</time></trkpt><trkpt lat="43.3882679" lon="12.0074701"><ele>583.0</ele><time>2026-04-24T15:22:28.075Z</time></trkpt><trkpt lat="43.3882978" lon="12.0075904"><ele>583.0</ele><time>2026-04-24T15:22:29.072Z</time></trkpt><trkpt lat="43.3883097" lon="12.0077176"><ele>583.0</ele><time>2026-04-24T15:22:30.08Z</time></trkpt><trkpt lat="43.3883451" lon="12.0078516"><ele>583.0</ele><time>2026-04-24T15:22:31.072Z</time></trkpt><trkpt lat="43.3883859" lon="12.0079569"><ele>586.8</ele><time>2026-04-24T15:22:32.083Z</time></trkpt><trkpt lat="43.3884247" lon="12.0080452"><ele>590.5999999999999</ele><time>2026-04-24T15:22:33.078Z</time></trkpt><trkpt lat="43.3884681" lon="12.0081877"><ele>594.4000000000001</ele><time>2026-04-24T15:22:35.076Z</time></trkpt><trkpt lat="43.3885027" lon="12.0082822"><ele>598.2</ele><time>2026-04-24T15:22:36.086Z</time></trkpt><trkpt lat="43.3885545" lon="12.0084122"><ele>602.0</ele><time>2026-04-24T15:22:37.086Z</time></trkpt><trkpt lat="43.3886144" lon="12.0085439"><ele>602.6</ele><time>2026-04-24T15:22:38.083Z</time></trkpt><trkpt lat="43.3886799" lon="12.0086764"><ele>603.2</ele><time>2026-04-24T15:22:39.083Z</time></trkpt><trkpt lat="43.3887441" lon="12.0087934"><ele>603.8</ele><time>2026-04-24T15:22:40.092Z</time></trkpt><trkpt lat="43.3888126" lon="12.0089086"><ele>604.4</ele><time>2026-04-24T15:22:41.081Z</time></trkpt><trkpt lat="43.3888705" lon="12.0090213"><ele>605.0</ele><time>2026-04-24T15:22:42.084Z</time></trkpt><trkpt lat="43.3889225" lon="12.0091502"><ele>609.4</ele><time>2026-04-24T15:22:43.079Z</time></trkpt><trkpt lat="43.388961" lon="12.0092806"><ele>613.8</ele><time>2026-04-24T15:22:44.075Z</time></trkpt><trkpt lat="43.3889937" lon="12.0094064"><ele>618.2</ele><time>2026-04-24T15:22:45.098Z</time></trkpt><trkpt lat="43.3890277" lon="12.0095509"><ele>622.6</ele><time>2026-04-24T15:22:46.081Z</time></trkpt><trkpt lat="43.3890632" lon="12.0096727"><ele>627.0</ele><time>2026-04-24T15:22:47.08Z</time></trkpt><trkpt lat="43.3890973" lon="12.0097786"><ele>627.0</ele><time>2026-04-24T15:22:48.074Z</time></trkpt><trkpt lat="43.3891236" lon="12.0098843"><ele>627.0</ele><time>2026-04-24T15:22:49.078Z</time></trkpt><trkpt lat="43.389138" lon="12.0100098"><ele>627.0</ele><time>2026-04-24T15:22:50.082Z</time></trkpt><trkpt lat="43.3891317" lon="12.010149"><ele>627.0</ele><time>2026-04-24T15:22:51.079Z</time></trkpt><trkpt lat="43.3891117" lon="12.0102783"><ele>627.0</ele><time>2026-04-24T15:22:52.085Z</time></trkpt><trkpt lat="43.3890667" lon="12.0103745"><ele>627.0</ele><time>2026-04-24T15:22:53.074Z</time></trkpt><trkpt lat="43.3889952" lon="12.0104511"><ele>627.0</ele><time>2026-04-24T15:22:54.08Z</time></trkpt><trkpt lat="43.3889294" lon="12.0105334"><ele>627.0</ele><time>2026-04-24T15:22:55.074Z</time></trkpt><trkpt lat="43.3888633" lon="12.010649"><ele>627.0</ele><time>2026-04-24T15:22:56.08Z</time></trkpt><trkpt lat="43.3888074" lon="12.0107906"><ele>627.0</ele><time>2026-04-24T15:22:57.08Z</time></trkpt><trkpt lat="43.3887727" lon="12.0109082"><ele>629.4</ele><time>2026-04-24T15:22:58.087Z</time></trkpt><trkpt lat="43.3887618" lon="12.0110412"><ele>631.8000000000001</ele><time>2026-04-24T15:22:59.073Z</time></trkpt><trkpt lat="43.3887653" lon="12.0111769"><ele>634.2</ele><time>2026-04-24T15:23:00.079Z</time></trkpt><trkpt lat="43.3887712" lon="12.0113127"><ele>636.6</ele><time>2026-04-24T15:23:01.07Z</time></trkpt><trkpt lat="43.3887602" lon="12.0114398"><ele>639.0</ele><time>2026-04-24T15:23:02.086Z</time></trkpt><trkpt lat="43.3887626" lon="12.0115279"><ele>639.0</ele><time>2026-04-24T15:23:03.082Z</time></trkpt><trkpt lat="43.3887751" lon="12.0116167"><ele>639.0</ele><time>2026-04-24T15:23:04.076Z</time></trkpt><trkpt lat="43.3887952" lon="12.0117164"><ele>639.0</ele><time>2026-04-24T15:23:05.073Z</time></trkpt><trkpt lat="43.3888292" lon="12.01182"><ele>639.0</ele><time>2026-04-24T15:23:06.069Z</time></trkpt><trkpt lat="43.3888844" lon="12.0119196"><ele>639.0</ele><time>2026-04-24T15:23:07.081Z</time></trkpt><trkpt lat="43.3889303" lon="12.011999"><ele>639.0</ele><time>2026-04-24T15:23:08.073Z</time></trkpt><trkpt lat="43.3889694" lon="12.0121204"><ele>642.4</ele><time>2026-04-24T15:23:10.103Z</time></trkpt><trkpt lat="43.3889377" lon="12.0122834"><ele>645.8</ele><time>2026-04-24T15:23:12.073Z</time></trkpt><trkpt lat="43.3889393" lon="12.0123831"><ele>649.1999999999999</ele><time>2026-04-24T15:23:13.077Z</time></trkpt><trkpt lat="43.388991" lon="12.0125343"><ele>652.5999999999999</ele><time>2026-04-24T15:23:15.07Z</time></trkpt><trkpt lat="43.3889713" lon="12.0126942"><ele>656.0</ele><time>2026-04-24T15:23:17.082Z</time></trkpt><trkpt lat="43.3889378" lon="12.0127953"><ele>657.1666666666666</ele><time>2026-04-24T15:23:18.078Z</time></trkpt><trkpt lat="43.3889249" lon="12.0128847"><ele>658.3333333333333</ele><time>2026-04-24T15:23:19.081Z</time></trkpt><trkpt lat="43.3889267" lon="12.0129862"><ele>659.5</ele><time>2026-04-24T15:23:20.07Z</time></trkpt><trkpt lat="43.3889368" lon="12.0130981"><ele>660.6666666666666</ele><time>2026-04-24T15:23:21.081Z</time></trkpt><trkpt lat="43.3889569" lon="12.0131942"><ele>661.8333333333334</ele><time>2026-04-24T15:23:22.077Z</time></trkpt><trkpt lat="43.3889768" lon="12.0133526"><ele>663.0</ele><time>2026-04-24T15:23:24.093Z</time></trkpt><trkpt lat="43.3890115" lon="12.0134859"><ele>665.2</ele><time>2026-04-24T15:23:26.077Z</time></trkpt><trkpt lat="43.389044" lon="12.0136442"><ele>667.4</ele><time>2026-04-24T15:23:28.074Z</time></trkpt><trkpt lat="43.3890661" lon="12.0137285"><ele>669.6</ele><time>2026-04-24T15:23:29.071Z</time></trkpt><trkpt lat="43.3890954" lon="12.0138393"><ele>671.8000000000001</ele><time>2026-04-24T15:23:31.079Z</time></trkpt><trkpt lat="43.3891363" lon="12.013961"><ele>674.0</ele><time>2026-04-24T15:23:33.083Z</time></trkpt><trkpt lat="43.3891568" lon="12.0140858"><ele>674.0</ele><time>2026-04-24T15:23:35.078Z</time></trkpt><trkpt lat="43.389207" lon="12.0141842"><ele>674.0</ele><time>2026-04-24T15:23:37.076Z</time></trkpt><trkpt lat="43.3892896" lon="12.014208"><ele>674.0</ele><time>2026-04-24T15:23:39.076Z</time></trkpt><trkpt lat="43.389381" lon="12.014156"><ele>674.0</ele><time>2026-04-24T15:23:41.082Z</time></trkpt><trkpt lat="43.3894735" lon="12.0141371"><ele>674.0</ele><time>2026-04-24T15:23:43.077Z</time></trkpt><trkpt lat="43.3895466" lon="12.0141265"><ele>674.0</ele><time>2026-04-24T15:23:45.09Z</time></trkpt><trkpt lat="43.3895345" lon="12.0142478"><ele>677.0</ele><time>2026-04-24T15:23:48.074Z</time></trkpt><trkpt lat="43.3894908" lon="12.0143379"><ele>680.0</ele><time>2026-04-24T15:23:51.076Z</time></trkpt><trkpt lat="43.3895186" lon="12.0145189"><ele>683.0</ele><time>2026-04-24T15:23:53.081Z</time></trkpt><trkpt lat="43.3895458" lon="12.0146638"><ele>686.0</ele><time>2026-04-24T15:23:55.084Z</time></trkpt><trkpt lat="43.3895556" lon="12.0147804"><ele>689.0</ele><time>2026-04-24T15:23:57.078Z</time></trkpt><trkpt lat="43.3895662" lon="12.0149305"><ele>691.6</ele><time>2026-04-24T15:23:59.082Z</time></trkpt><trkpt lat="43.3895999" lon="12.0150656"><ele>694.2</ele><time>2026-04-24T15:24:01.087Z</time></trkpt><trkpt lat="43.3896639" lon="12.0152095"><ele>696.8000000000001</ele><time>2026-04-24T15:24:03.073Z</time></trkpt><trkpt lat="43.3896691" lon="12.0152984"><ele>699.4000000000001</ele><time>2026-04-24T15:24:04.098Z</time></trkpt><trkpt lat="43.3896716" lon="12.015456"><ele>702.0</ele><time>2026-04-24T15:24:06.07Z</time></trkpt><trkpt lat="43.3896971" lon="12.0156221"><ele>703.8333333333334</ele><time>2026-04-24T15:24:08.087Z</time></trkpt><trkpt lat="43.3897136" lon="12.0157084"><ele>705.6666666666666</ele><time>2026-04-24T15:24:09.074Z</time></trkpt><trkpt lat="43.3897366" lon="12.0157918"><ele>707.5</ele><time>2026-04-24T15:24:10.075Z</time></trkpt><trkpt lat="43.3897442" lon="12.015974"><ele>709.3333333333333</ele><time>2026-04-24T15:24:12.079Z</time></trkpt><trkpt lat="43.3897324" lon="12.0160857"><ele>711.1666666666666</ele><time>2026-04-24T15:24:13.081Z</time></trkpt><trkpt lat="43.3897242" lon="12.0161925"><ele>713.0</ele><time>2026-04-24T15:24:14.081Z</time></trkpt><trkpt lat="43.3897376" lon="12.0163394"><ele>716.0</ele><time>2026-04-24T15:24:16.077Z</time></trkpt><trkpt lat="43.3897826" lon="12.0164015"><ele>719.0</ele><time>2026-04-24T15:24:24.089Z</time></trkpt><trkpt lat="43.3898652" lon="12.0164698"><ele>722.0</ele><time>2026-04-24T15:24:27.069Z</time></trkpt><trkpt lat="43.3899475" lon="12.0165018"><ele>725.0</ele><time>2026-04-24T15:24:29.078Z</time></trkpt><trkpt lat="43.3900846" lon="12.0165368"><ele>728.0</ele><time>2026-04-24T15:24:31.076Z</time></trkpt><trkpt lat="43.3901584" lon="12.0165841"><ele>730.6666666666666</ele><time>2026-04-24T15:24:32.079Z</time></trkpt><trkpt lat="43.3902045" lon="12.0166658"><ele>733.3333333333333</ele><time>2026-04-24T15:24:33.073Z</time></trkpt><trkpt lat="43.3902582" lon="12.0167555"><ele>736.0</ele><time>2026-04-24T15:24:34.074Z</time></trkpt><trkpt lat="43.3903107" lon="12.016818"><ele>738.6666666666666</ele><time>2026-04-24T15:24:35.071Z</time></trkpt><trkpt lat="43.3903397" lon="12.0169254"><ele>741.3333333333334</ele><time>2026-04-24T15:24:38.079Z</time></trkpt><trkpt lat="43.3903003" lon="12.0170362"><ele>744.0</ele><time>2026-04-24T15:24:42.078Z</time></trkpt><trkpt lat="43.3902298" lon="12.017093"><ele>744.0000000000001</ele><time>2026-04-24T15:24:44.075Z</time></trkpt><trkpt lat="43.3901676" lon="12.0171363"><ele>744.0</ele><time>2026-04-24T15:24:45.083Z</time></trkpt><trkpt lat="43.39011" lon="12.0171798"><ele>744.0</ele><time>2026-04-24T15:24:46.081Z</time></trkpt><trkpt lat="43.3900531" lon="12.0172311"><ele>744.0</ele><time>2026-04-24T15:24:47.076Z</time></trkpt><trkpt lat="43.3900106" lon="12.0172956"><ele>744.0</ele><time>2026-04-24T15:24:48.076Z</time></trkpt><trkpt lat="43.3899751" lon="12.017374"><ele>744.0000000000001</ele><time>2026-04-24T15:24:49.071Z</time></trkpt><trkpt lat="43.3899554" lon="12.0174629"><ele>744.0</ele><time>2026-04-24T15:24:50.093Z</time></trkpt><trkpt lat="43.3899421" lon="12.0176221"><ele>747.0</ele><time>2026-04-24T15:24:52.076Z</time></trkpt><trkpt lat="43.3899644" lon="12.0177439"><ele>750.0</ele><time>2026-04-24T15:24:54.083Z</time></trkpt><trkpt lat="43.3900586" lon="12.01776"><ele>753.0</ele><time>2026-04-24T15:24:56.08Z</time></trkpt><trkpt lat="43.3901241" lon="12.0178027"><ele>756.0</ele><time>2026-04-24T15:24:58.073Z</time></trkpt><trkpt lat="43.3900729" lon="12.0178849"><ele>759.0</ele><time>2026-04-24T15:25:01.072Z</time></trkpt><trkpt lat="43.3899644" lon="12.0180008"><ele>759.0</ele><time>2026-04-24T15:25:03.076Z</time></trkpt><trkpt lat="43.3899042" lon="12.0180997"><ele>759.0</ele><time>2026-04-24T15:25:04.075Z</time></trkpt><trkpt lat="43.3898283" lon="12.0182103"><ele>759.0</ele><time>2026-04-24T15:25:05.079Z</time></trkpt><trkpt lat="43.3897472" lon="12.0182912"><ele>759.0</ele><time>2026-04-24T15:25:06.091Z</time></trkpt><trkpt lat="43.3896937" lon="12.0183603"><ele>759.0</ele><time>2026-04-24T15:25:07.081Z</time></trkpt><trkpt lat="43.3896503" lon="12.0185023"><ele>759.5714285714286</ele><time>2026-04-24T15:25:09.078Z</time></trkpt><trkpt lat="43.3896501" lon="12.0185954"><ele>760.1428571428571</ele><time>2026-04-24T15:25:10.082Z</time></trkpt><trkpt lat="43.3896456" lon="12.0186876"><ele>760.7142857142858</ele><time>2026-04-24T15:25:11.073Z</time></trkpt><trkpt lat="43.3896335" lon="12.0187742"><ele>761.2857142857142</ele><time>2026-04-24T15:25:12.093Z</time></trkpt><trkpt lat="43.389604" lon="12.0188859"><ele>761.8571428571429</ele><time>2026-04-24T15:25:14.084Z</time></trkpt><trkpt lat="43.3896293" lon="12.0189687"><ele>762.4285714285714</ele><time>2026-04-24T15:25:18.081Z</time></trkpt><trkpt lat="43.3896023" lon="12.0188767"><ele>763.0</ele><time>2026-04-24T15:25:22.083Z</time></trkpt><trkpt lat="43.3895435" lon="12.0188426"><ele>763.0</ele><time>2026-04-24T15:25:26.075Z</time></trkpt><trkpt lat="43.389579" lon="12.018736"><ele>763.0</ele><time>2026-04-24T15:26:28.077Z</time></trkpt><trkpt lat="43.3896083" lon="12.0186212"><ele>763.0</ele><time>2026-04-24T15:26:31.091Z</time></trkpt><trkpt lat="43.3896355" lon="12.0184985"><ele>763.0</ele><time>2026-04-24T15:26:33.095Z</time></trkpt><trkpt lat="43.3896871" lon="12.0183687"><ele>763.0</ele><time>2026-04-24T15:26:35.078Z</time></trkpt><trkpt lat="43.3897452" lon="12.0182465"><ele>762.2</ele><time>2026-04-24T15:26:37.091Z</time></trkpt><trkpt lat="43.3898123" lon="12.0181614"><ele>761.4</ele><time>2026-04-24T15:26:39.08Z</time></trkpt><trkpt lat="43.3898797" lon="12.0180893"><ele>760.6</ele><time>2026-04-24T15:26:41.086Z</time></trkpt><trkpt lat="43.3899545" lon="12.0179914"><ele>759.8000000000001</ele><time>2026-04-24T15:26:43.087Z</time></trkpt><trkpt lat="43.3900321" lon="12.0178884"><ele>759.0</ele><time>2026-04-24T15:26:45.074Z</time></trkpt><trkpt lat="43.3900879" lon="12.0178305"><ele>759.0</ele><time>2026-04-24T15:26:47.083Z</time></trkpt><trkpt lat="43.3901058" lon="12.0177419"><ele>759.0</ele><time>2026-04-24T15:26:50.085Z</time></trkpt><trkpt lat="43.390068" lon="12.0176724"><ele>759.0</ele><time>2026-04-24T15:26:54.083Z</time></trkpt><trkpt lat="43.390094" lon="12.0175348"><ele>759.0</ele><time>2026-04-24T15:26:57.081Z</time></trkpt><trkpt lat="43.3901667" lon="12.0174559"><ele>759.0</ele><time>2026-04-24T15:27:01.082Z</time></trkpt><trkpt lat="43.3902259" lon="12.017402"><ele>759.0</ele><time>2026-04-24T15:27:03.089Z</time></trkpt><trkpt lat="43.3902857" lon="12.0173373"><ele>756.8571428571429</ele><time>2026-04-24T15:27:05.073Z</time></trkpt><trkpt lat="43.3903429" lon="12.0172913"><ele>754.7142857142857</ele><time>2026-04-24T15:27:07.085Z</time></trkpt><trkpt lat="43.3904012" lon="12.0172069"><ele>752.5714285714287</ele><time>2026-04-24T15:27:10.077Z</time></trkpt><trkpt lat="43.3903715" lon="12.0171251"><ele>750.4285714285714</ele><time>2026-04-24T15:27:12.075Z</time></trkpt><trkpt lat="43.3903555" lon="12.0170387"><ele>748.2857142857143</ele><time>2026-04-24T15:27:15.077Z</time></trkpt><trkpt lat="43.390315" lon="12.0169514"><ele>746.1428571428572</ele><time>2026-04-24T15:32:57.081Z</time></trkpt><trkpt lat="43.3902614" lon="12.0170177"><ele>744.0</ele><time>2026-04-24T15:33:04.082Z</time></trkpt><trkpt lat="43.3902118" lon="12.0170715"><ele>744.0000000000001</ele><time>2026-04-24T15:33:06.078Z</time></trkpt><trkpt lat="43.3901508" lon="12.0171114"><ele>744.0</ele><time>2026-04-24T15:33:08.076Z</time></trkpt><trkpt lat="43.3900895" lon="12.0171616"><ele>744.0</ele><time>2026-04-24T15:33:10.076Z</time></trkpt><trkpt lat="43.3900288" lon="12.0172317"><ele>744.0</ele><time>2026-04-24T15:33:12.082Z</time></trkpt><trkpt lat="43.3899794" lon="12.0173095"><ele>744.0</ele><time>2026-04-24T15:33:14.078Z</time></trkpt><trkpt lat="43.3899606" lon="12.0174003"><ele>744.0000000000001</ele><time>2026-04-24T15:33:16.079Z</time></trkpt><trkpt lat="43.3899567" lon="12.0175006"><ele>744.0</ele><time>2026-04-24T15:33:18.073Z</time></trkpt><trkpt lat="43.3899537" lon="12.0175944"><ele>746.1428571428572</ele><time>2026-04-24T15:33:20.084Z</time></trkpt><trkpt lat="43.3899539" lon="12.0176927"><ele>748.2857142857143</ele><time>2026-04-24T15:33:22.081Z</time></trkpt><trkpt lat="43.3900085" lon="12.0177373"><ele>750.4285714285714</ele><time>2026-04-24T15:33:24.078Z</time></trkpt><trkpt lat="43.390076" lon="12.0177159"><ele>752.5714285714287</ele><time>2026-04-24T15:33:26.074Z</time></trkpt><trkpt lat="43.3901474" lon="12.0177572"><ele>754.7142857142857</ele><time>2026-04-24T15:33:29.08Z</time></trkpt><trkpt lat="43.390115" lon="12.0178432"><ele>756.8571428571429</ele><time>2026-04-24T15:33:31.087Z</time></trkpt><trkpt lat="43.3900508" lon="12.0178983"><ele>759.0</ele><time>2026-04-24T15:33:32.081Z</time></trkpt><trkpt lat="43.3899782" lon="12.0179736"><ele>759.0</ele><time>2026-04-24T15:33:33.075Z</time></trkpt><trkpt lat="43.389914" lon="12.0180533"><ele>759.0</ele><time>2026-04-24T15:33:34.079Z</time></trkpt><trkpt lat="43.3898622" lon="12.0181301"><ele>759.0</ele><time>2026-04-24T15:33:35.085Z</time></trkpt><trkpt lat="43.3898158" lon="12.0181924"><ele>759.0</ele><time>2026-04-24T15:33:36.087Z</time></trkpt><trkpt lat="43.3897363" lon="12.0182962"><ele>759.0</ele><time>2026-04-24T15:33:38.089Z</time></trkpt><trkpt lat="43.3896698" lon="12.0184208"><ele>759.0</ele><time>2026-04-24T15:33:40.089Z</time></trkpt><trkpt lat="43.3896299" lon="12.0185633"><ele>759.8000000000001</ele><time>2026-04-24T15:33:42.087Z</time></trkpt><trkpt lat="43.3896183" lon="12.0186934"><ele>760.6</ele><time>2026-04-24T15:33:44.082Z</time></trkpt><trkpt lat="43.3896205" lon="12.0187806"><ele>761.4</ele><time>2026-04-24T15:33:46.085Z</time></trkpt><trkpt lat="43.389591" lon="12.0189031"><ele>762.2</ele><time>2026-04-24T15:33:49.083Z</time></trkpt><trkpt lat="43.3896403" lon="12.018994"><ele>763.0</ele><time>2026-04-24T15:33:59.078Z</time></trkpt><trkpt lat="43.3897639" lon="12.0190312"><ele>765.2</ele><time>2026-04-24T15:34:01.086Z</time></trkpt><trkpt lat="43.3898452" lon="12.0190089"><ele>767.4</ele><time>2026-04-24T15:34:02.087Z</time></trkpt><trkpt lat="43.3899265" lon="12.0189817"><ele>769.6</ele><time>2026-04-24T15:34:03.091Z</time></trkpt><trkpt lat="43.3900189" lon="12.0189395"><ele>771.8000000000001</ele><time>2026-04-24T15:34:05.092Z</time></trkpt><trkpt lat="43.3900767" lon="12.019011"><ele>774.0</ele><time>2026-04-24T15:34:08.081Z</time></trkpt><trkpt lat="43.3901396" lon="12.01914"><ele>776.6666666666666</ele><time>2026-04-24T15:34:10.081Z</time></trkpt><trkpt lat="43.3902098" lon="12.0192252"><ele>779.3333333333333</ele><time>2026-04-24T15:34:12.073Z</time></trkpt><trkpt lat="43.3902588" lon="12.0193173"><ele>782.0</ele><time>2026-04-24T15:34:14.078Z</time></trkpt><trkpt lat="43.3902629" lon="12.0194176"><ele>784.6666666666666</ele><time>2026-04-24T15:34:16.084Z</time></trkpt><trkpt lat="43.3902501" lon="12.019519"><ele>787.3333333333333</ele><time>2026-04-24T15:34:18.078Z</time></trkpt><trkpt lat="43.3902171" lon="12.0196062"><ele>790.0</ele><time>2026-04-24T15:34:19.998Z</time></trkpt><trkpt lat="43.3902181" lon="12.0197158"><ele>789.9999999999999</ele><time>2026-04-24T15:34:22.074Z</time></trkpt><trkpt lat="43.390231" lon="12.0198167"><ele>790.0</ele><time>2026-04-24T15:34:24.077Z</time></trkpt><trkpt lat="43.3902378" lon="12.0199097"><ele>790.0</ele><time>2026-04-24T15:34:26.08Z</time></trkpt><trkpt lat="43.3902228" lon="12.0200004"><ele>790.0</ele><time>2026-04-24T15:34:28.076Z</time></trkpt><trkpt lat="43.3902181" lon="12.0201395"><ele>789.9999999999999</ele><time>2026-04-24T15:34:31.073Z</time></trkpt><trkpt lat="43.3902228" lon="12.0202564"><ele>790.0</ele><time>2026-04-24T15:34:33.984Z</time></trkpt><trkpt lat="43.3902266" lon="12.0203738"><ele>792.1666666666666</ele><time>2026-04-24T15:34:36.043Z</time></trkpt><trkpt lat="43.3902154" lon="12.0204911"><ele>794.3333333333333</ele><time>2026-04-24T15:34:38.084Z</time></trkpt><trkpt lat="43.3902333" lon="12.0205935"><ele>796.5</ele><time>2026-04-24T15:34:40.086Z</time></trkpt><trkpt lat="43.3902688" lon="12.0207165"><ele>798.6666666666667</ele><time>2026-04-24T15:34:42.074Z</time></trkpt><trkpt lat="43.3903143" lon="12.0207869"><ele>800.8333333333334</ele><time>2026-04-24T15:34:43.089Z</time></trkpt><trkpt lat="43.3903661" lon="12.0208676"><ele>803.0</ele><time>2026-04-24T15:34:45.079Z</time></trkpt><trkpt lat="43.3904277" lon="12.0209494"><ele>804.5000000000001</ele><time>2026-04-24T15:34:47.081Z</time></trkpt><trkpt lat="43.3904774" lon="12.0210638"><ele>806.0</ele><time>2026-04-24T15:34:49.079Z</time></trkpt><trkpt lat="43.3905068" lon="12.021144"><ele>807.5</ele><time>2026-04-24T15:34:50.989Z</time></trkpt><trkpt lat="43.3905256" lon="12.021274"><ele>809.0</ele><time>2026-04-24T15:34:53.082Z</time></trkpt><trkpt lat="43.390531" lon="12.0214121"><ele>810.5000000000001</ele><time>2026-04-24T15:34:55.083Z</time></trkpt><trkpt lat="43.3905288" lon="12.0215366"><ele>812.0</ele><time>2026-04-24T15:34:57.096Z</time></trkpt><trkpt lat="43.390565" lon="12.021628"><ele>816.0</ele><time>2026-04-24T15:34:59.074Z</time></trkpt><trkpt lat="43.3905953" lon="12.0217464"><ele>820.0</ele><time>2026-04-24T15:35:01.083Z</time></trkpt><trkpt lat="43.3905934" lon="12.021867"><ele>824.0</ele><time>2026-04-24T15:35:03.074Z</time></trkpt><trkpt lat="43.3906407" lon="12.0219912"><ele>828.0</ele><time>2026-04-24T15:35:05.106Z</time></trkpt><trkpt lat="43.3907141" lon="12.0221126"><ele>832.0</ele><time>2026-04-24T15:35:07.082Z</time></trkpt><trkpt lat="43.390803" lon="12.0222189"><ele>831.9999999999999</ele><time>2026-04-24T15:35:09.083Z</time></trkpt><trkpt lat="43.3908531" lon="12.0222805"><ele>832.0</ele><time>2026-04-24T15:35:10.094Z</time></trkpt><trkpt lat="43.390898" lon="12.0223416"><ele>832.0</ele><time>2026-04-24T15:35:11.086Z</time></trkpt><trkpt lat="43.3909364" lon="12.0224841"><ele>832.0</ele><time>2026-04-24T15:35:13.096Z</time></trkpt><trkpt lat="43.3909491" lon="12.0226029"><ele>831.9999999999999</ele><time>2026-04-24T15:35:15.085Z</time></trkpt><trkpt lat="43.3909673" lon="12.0227193"><ele>832.0</ele><time>2026-04-24T15:35:17.078Z</time></trkpt><trkpt lat="43.3909434" lon="12.0228623"><ele>834.2</ele><time>2026-04-24T15:35:19.094Z</time></trkpt><trkpt lat="43.3909106" lon="12.0229593"><ele>836.4000000000001</ele><time>2026-04-24T15:35:20.073Z</time></trkpt><trkpt lat="43.3908757" lon="12.0230743"><ele>838.5999999999999</ele><time>2026-04-24T15:35:21.089Z</time></trkpt><trkpt lat="43.3908473" lon="12.0232091"><ele>840.8</ele><time>2026-04-24T15:35:22.089Z</time></trkpt><trkpt lat="43.3908126" lon="12.0233549"><ele>843.0</ele><time>2026-04-24T15:35:23.086Z</time></trkpt><trkpt lat="43.3907735" lon="12.0235253"><ele>844.75</ele><time>2026-04-24T15:35:24.089Z</time></trkpt><trkpt lat="43.3907351" lon="12.0237037"><ele>846.5</ele><time>2026-04-24T15:35:25.089Z</time></trkpt><trkpt lat="43.3906965" lon="12.0238892"><ele>848.25</ele><time>2026-04-24T15:35:26.09Z</time></trkpt><trkpt lat="43.3906596" lon="12.0240707"><ele>850.0</ele><time>2026-04-24T15:35:27.09Z</time></trkpt><trkpt lat="43.3906231" lon="12.0242591"><ele>852.5</ele><time>2026-04-24T15:35:28.088Z</time></trkpt><trkpt lat="43.3905782" lon="12.0244492"><ele>855.0</ele><time>2026-04-24T15:35:29.083Z</time></trkpt><trkpt lat="43.3905397" lon="12.0246415"><ele>857.5</ele><time>2026-04-24T15:35:30.087Z</time></trkpt><trkpt lat="43.390504" lon="12.0248234"><ele>860.0</ele><time>2026-04-24T15:35:31.084Z</time></trkpt><trkpt lat="43.3904896" lon="12.0249885"><ele>861.1666666666667</ele><time>2026-04-24T15:35:32.114Z</time></trkpt><trkpt lat="43.390497" lon="12.02513"><ele>862.3333333333334</ele><time>2026-04-24T15:35:33.096Z</time></trkpt><trkpt lat="43.3905204" lon="12.0252412"><ele>863.5</ele><time>2026-04-24T15:35:34.083Z</time></trkpt><trkpt lat="43.3905579" lon="12.0253319"><ele>864.6666666666667</ele><time>2026-04-24T15:35:35.094Z</time></trkpt><trkpt lat="43.3906067" lon="12.0254216"><ele>865.8333333333334</ele><time>2026-04-24T15:35:36.076Z</time></trkpt><trkpt lat="43.3906617" lon="12.0255189"><ele>867.0</ele><time>2026-04-24T15:35:37.094Z</time></trkpt><trkpt lat="43.3907093" lon="12.0256305"><ele>867.0</ele><time>2026-04-24T15:35:38.094Z</time></trkpt><trkpt lat="43.3907521" lon="12.0257271"><ele>867.0</ele><time>2026-04-24T15:35:39.083Z</time></trkpt><trkpt lat="43.3908031" lon="12.0257856"><ele>867.0</ele><time>2026-04-24T15:35:40.095Z</time></trkpt><trkpt lat="43.3909155" lon="12.0257766"><ele>867.0</ele><time>2026-04-24T15:35:42.084Z</time></trkpt><trkpt lat="43.3909688" lon="12.0257234"><ele>867.0</ele><time>2026-04-24T15:35:43.074Z</time></trkpt><trkpt lat="43.3910164" lon="12.0256422"><ele>867.0</ele><time>2026-04-24T15:35:44.088Z</time></trkpt><trkpt lat="43.3910383" lon="12.0255443"><ele>867.0</ele><time>2026-04-24T15:35:45.089Z</time></trkpt><trkpt lat="43.3910445" lon="12.0254355"><ele>867.0</ele><time>2026-04-24T15:35:46.093Z</time></trkpt><trkpt lat="43.3910448" lon="12.0253242"><ele>867.0</ele><time>2026-04-24T15:35:47.086Z</time></trkpt><trkpt lat="43.3910601" lon="12.0252127"><ele>867.0</ele><time>2026-04-24T15:35:48.088Z</time></trkpt><trkpt lat="43.3910947" lon="12.0251264"><ele>867.0</ele><time>2026-04-24T15:35:49.092Z</time></trkpt><trkpt lat="43.3911646" lon="12.025082"><ele>867.0</ele><time>2026-04-24T15:35:50.095Z</time></trkpt><trkpt lat="43.3912581" lon="12.0250564"><ele>868.0</ele><time>2026-04-24T15:35:51.084Z</time></trkpt><trkpt lat="43.3913808" lon="12.025035"><ele>869.0</ele><time>2026-04-24T15:35:52.091Z</time></trkpt><trkpt lat="43.3915355" lon="12.0250047"><ele>870.0</ele><time>2026-04-24T15:35:53.094Z</time></trkpt><trkpt lat="43.3917139" lon="12.0249649"><ele>870.0</ele><time>2026-04-24T15:35:54.082Z</time></trkpt><trkpt lat="43.3919092" lon="12.0249094"><ele>870.0</ele><time>2026-04-24T15:35:55.1Z</time></trkpt><trkpt lat="43.3920913" lon="12.0248526"><ele>870.0</ele><time>2026-04-24T15:35:56.094Z</time></trkpt><trkpt lat="43.3922443" lon="12.0247767"><ele>872.0</ele><time>2026-04-24T15:35:57.076Z</time></trkpt><trkpt lat="43.3923635" lon="12.0247027"><ele>874.0</ele><time>2026-04-24T15:35:58.096Z</time></trkpt><trkpt lat="43.3924591" lon="12.0246459"><ele>876.0</ele><time>2026-04-24T15:35:59.078Z</time></trkpt><trkpt lat="43.3925594" lon="12.0246163"><ele>878.0</ele><time>2026-04-24T15:36:00.087Z</time></trkpt><trkpt lat="43.3926844" lon="12.0246106"><ele>878.0</ele><time>2026-04-24T15:36:01.083Z</time></trkpt><trkpt lat="43.39284" lon="12.0246176"><ele>878.0</ele><time>2026-04-24T15:36:02.093Z</time></trkpt><trkpt lat="43.3929975" lon="12.0246179"><ele>878.0</ele><time>2026-04-24T15:36:03.087Z</time></trkpt><trkpt lat="43.393146" lon="12.0245878"><ele>880.0</ele><time>2026-04-24T15:36:04.086Z</time></trkpt><trkpt lat="43.3932765" lon="12.0245123"><ele>882.0</ele><time>2026-04-24T15:36:05.084Z</time></trkpt><trkpt lat="43.3933858" lon="12.0243884"><ele>884.0</ele><time>2026-04-24T15:36:06.083Z</time></trkpt><trkpt lat="43.3934794" lon="12.0242591"><ele>886.0</ele><time>2026-04-24T15:36:07.072Z</time></trkpt><trkpt lat="43.3935604" lon="12.0241506"><ele>885.9999999999999</ele><time>2026-04-24T15:36:08.083Z</time></trkpt><trkpt lat="43.3936436" lon="12.024107"><ele>886.0</ele><time>2026-04-24T15:36:09.077Z</time></trkpt><trkpt lat="43.3937285" lon="12.0241338"><ele>886.0</ele><time>2026-04-24T15:36:10.08Z</time></trkpt><trkpt lat="43.3938014" lon="12.0241833"><ele>886.0</ele><time>2026-04-24T15:36:11.072Z</time></trkpt><trkpt lat="43.3938644" lon="12.0242265"><ele>885.9999999999999</ele><time>2026-04-24T15:36:12.08Z</time></trkpt><trkpt lat="43.393933" lon="12.024258"><ele>886.0</ele><time>2026-04-24T15:36:13.078Z</time></trkpt><trkpt lat="43.3940028" lon="12.0242687"><ele>888.8</ele><time>2026-04-24T15:36:14.075Z</time></trkpt><trkpt lat="43.3940848" lon="12.0242639"><ele>891.5999999999999</ele><time>2026-04-24T15:36:15.088Z</time></trkpt><trkpt lat="43.394178" lon="12.0242405"><ele>894.4</ele><time>2026-04-24T15:36:16.073Z</time></trkpt><trkpt lat="43.3942834" lon="12.0241996"><ele>897.2</ele><time>2026-04-24T15:36:17.062Z</time></trkpt><trkpt lat="43.3943925" lon="12.0241513"><ele>900.0</ele><time>2026-04-24T15:36:18.077Z</time></trkpt><trkpt lat="43.3944952" lon="12.0241082"><ele>900.1666666666666</ele><time>2026-04-24T15:36:19.071Z</time></trkpt><trkpt lat="43.3945923" lon="12.0240755"><ele>900.3333333333333</ele><time>2026-04-24T15:36:20.081Z</time></trkpt><trkpt lat="43.3946727" lon="12.0240496"><ele>900.5</ele><time>2026-04-24T15:36:21.066Z</time></trkpt><trkpt lat="43.3947391" lon="12.0240367"><ele>900.6666666666666</ele><time>2026-04-24T15:36:22.076Z</time></trkpt><trkpt lat="43.394843" lon="12.0240268"><ele>900.8333333333333</ele><time>2026-04-24T15:36:24.078Z</time></trkpt><trkpt lat="43.3949102" lon="12.0240012"><ele>901.0</ele><time>2026-04-24T15:36:26.076Z</time></trkpt><trkpt lat="43.3949843" lon="12.023948"><ele>901.8333333333333</ele><time>2026-04-24T15:36:28.072Z</time></trkpt><trkpt lat="43.3950922" lon="12.023902"><ele>902.6666666666666</ele><time>2026-04-24T15:36:30.068Z</time></trkpt><trkpt lat="43.3951582" lon="12.0238949"><ele>903.5</ele><time>2026-04-24T15:36:31.071Z</time></trkpt><trkpt lat="43.3952354" lon="12.0238978"><ele>904.3333333333333</ele><time>2026-04-24T15:36:32.076Z</time></trkpt><trkpt lat="43.3953279" lon="12.0239075"><ele>905.1666666666666</ele><time>2026-04-24T15:36:33.067Z</time></trkpt><trkpt lat="43.3954153" lon="12.0239123"><ele>906.0</ele><time>2026-04-24T15:36:34.066Z</time></trkpt><trkpt lat="43.3955006" lon="12.0239138"><ele>906.1666666666666</ele><time>2026-04-24T15:36:35.092Z</time></trkpt><trkpt lat="43.3955776" lon="12.0239033"><ele>906.3333333333333</ele><time>2026-04-24T15:36:36.064Z</time></trkpt><trkpt lat="43.3956634" lon="12.0238878"><ele>906.5</ele><time>2026-04-24T15:36:37.067Z</time></trkpt><trkpt lat="43.3957499" lon="12.0238712"><ele>906.6666666666666</ele><time>2026-04-24T15:36:38.072Z</time></trkpt><trkpt lat="43.3958285" lon="12.0238632"><ele>906.8333333333333</ele><time>2026-04-24T15:36:39.083Z</time></trkpt><trkpt lat="43.395898" lon="12.0238757"><ele>907.0</ele><time>2026-04-24T15:36:40.073Z</time></trkpt><trkpt lat="43.3959644" lon="12.0239115"><ele>907.0000000000001</ele><time>2026-04-24T15:36:41.074Z</time></trkpt><trkpt lat="43.3960262" lon="12.0239568"><ele>907.0</ele><time>2026-04-24T15:36:42.071Z</time></trkpt><trkpt lat="43.3960848" lon="12.0240193"><ele>907.0000000000001</ele><time>2026-04-24T15:36:43.074Z</time></trkpt><trkpt lat="43.3961412" lon="12.0240715"><ele>907.0000000000001</ele><time>2026-04-24T15:36:44.07Z</time></trkpt><trkpt lat="43.3962019" lon="12.0241072"><ele>907.0</ele><time>2026-04-24T15:36:45.071Z</time></trkpt><trkpt lat="43.3962678" lon="12.024122"><ele>907.0000000000001</ele><time>2026-04-24T15:36:46.079Z</time></trkpt><trkpt lat="43.3963357" lon="12.0241222"><ele>907.0000000000001</ele><time>2026-04-24T15:36:47.07Z</time></trkpt><trkpt lat="43.3964017" lon="12.0241058"><ele>905.6</ele><time>2026-04-24T15:36:48.082Z</time></trkpt><trkpt lat="43.3965205" lon="12.0240571"><ele>904.2</ele><time>2026-04-24T15:36:50.083Z</time></trkpt><trkpt lat="43.3966389" lon="12.0240447"><ele>902.8</ele><time>2026-04-24T15:36:52.071Z</time></trkpt><trkpt lat="43.3967405" lon="12.0240741"><ele>901.4</ele><time>2026-04-24T15:36:54.069Z</time></trkpt><trkpt lat="43.3966675" lon="12.0241154"><ele>900.0</ele><time>2026-04-24T15:36:58.071Z</time></trkpt><trkpt lat="43.396579" lon="12.0241245"><ele>900.0</ele><time>2026-04-24T15:36:59.067Z</time></trkpt><trkpt lat="43.39648" lon="12.0241403"><ele>900.0</ele><time>2026-04-24T15:37:00.077Z</time></trkpt><trkpt lat="43.3963816" lon="12.0241647"><ele>900.0</ele><time>2026-04-24T15:37:01.067Z</time></trkpt><trkpt lat="43.3962931" lon="12.0241795"><ele>900.0</ele><time>2026-04-24T15:37:02.069Z</time></trkpt><trkpt lat="43.3962215" lon="12.0241931"><ele>900.0</ele><time>2026-04-24T15:37:03.074Z</time></trkpt><trkpt lat="43.3961325" lon="12.0241673"><ele>900.0</ele><time>2026-04-24T15:37:05.075Z</time></trkpt><trkpt lat="43.3961078" lon="12.0240685"><ele>900.0</ele><time>2026-04-24T15:37:08.072Z</time></trkpt><trkpt lat="43.3961512" lon="12.0239867"><ele>900.0</ele><time>2026-04-24T15:37:10.079Z</time></trkpt><trkpt lat="43.3962156" lon="12.0239184"><ele>900.0</ele><time>2026-04-24T15:37:13.067Z</time></trkpt><trkpt lat="43.3962973" lon="12.0238539"><ele>900.0</ele><time>2026-04-24T15:37:15.068Z</time></trkpt><trkpt lat="43.3963594" lon="12.0237804"><ele>900.0</ele><time>2026-04-24T15:37:17.07Z</time></trkpt><trkpt lat="43.396388" lon="12.0236914"><ele>900.0</ele><time>2026-04-24T15:37:20.07Z</time></trkpt><trkpt lat="43.3963948" lon="12.0235825"><ele>900.0</ele><time>2026-04-24T15:37:23.069Z</time></trkpt><trkpt lat="43.3963816" lon="12.0234839"><ele>900.0</ele><time>2026-04-24T15:37:28.06Z</time></trkpt><trkpt lat="43.3964421" lon="12.0235197"><ele>900.0</ele><time>2026-04-24T15:37:43.074Z</time></trkpt><trkpt lat="43.3964027" lon="12.0236193"><ele>900.0</ele><time>2026-04-24T15:37:47.071Z</time></trkpt><trkpt lat="43.3963333" lon="12.023722"><ele>900.0</ele><time>2026-04-24T15:37:49.074Z</time></trkpt><trkpt lat="43.3962547" lon="12.0238139"><ele>901.4</ele><time>2026-04-24T15:37:51.082Z</time></trkpt><trkpt lat="43.3961821" lon="12.0238901"><ele>902.8</ele><time>2026-04-24T15:37:53.069Z</time></trkpt><trkpt lat="43.3960717" lon="12.023944"><ele>904.2</ele><time>2026-04-24T15:37:55.077Z</time></trkpt><trkpt lat="43.3959847" lon="12.0239196"><ele>905.6</ele><time>2026-04-24T15:37:57.07Z</time></trkpt><trkpt lat="43.3958649" lon="12.0238895"><ele>907.0</ele><time>2026-04-24T15:37:59.069Z</time></trkpt><trkpt lat="43.395802" lon="12.02388"><ele>906.9999999999999</ele><time>2026-04-24T15:38:00.08Z</time></trkpt><trkpt lat="43.395674" lon="12.0238988"><ele>907.0</ele><time>2026-04-24T15:38:02.074Z</time></trkpt><trkpt lat="43.3955966" lon="12.0239128"><ele>907.0</ele><time>2026-04-24T15:38:03.072Z</time></trkpt><trkpt lat="43.3955261" lon="12.0239295"><ele>907.0</ele><time>2026-04-24T15:38:04.068Z</time></trkpt><trkpt lat="43.3954549" lon="12.0239409"><ele>906.9999999999999</ele><time>2026-04-24T15:38:05.083Z</time></trkpt><trkpt lat="43.3953731" lon="12.0239565"><ele>907.0</ele><time>2026-04-24T15:38:06.064Z</time></trkpt><trkpt lat="43.3952942" lon="12.0239683"><ele>906.8333333333333</ele><time>2026-04-24T15:38:07.077Z</time></trkpt><trkpt lat="43.3952092" lon="12.0239802"><ele>906.6666666666666</ele><time>2026-04-24T15:38:08.08Z</time></trkpt><trkpt lat="43.3951209" lon="12.0239898"><ele>906.5</ele><time>2026-04-24T15:38:09.073Z</time></trkpt><trkpt lat="43.3950336" lon="12.0240077"><ele>906.3333333333333</ele><time>2026-04-24T15:38:10.082Z</time></trkpt><trkpt lat="43.3949615" lon="12.0240268"><ele>906.1666666666666</ele><time>2026-04-24T15:38:11.088Z</time></trkpt><trkpt lat="43.3948893" lon="12.0240508"><ele>906.0</ele><time>2026-04-24T15:38:12.064Z</time></trkpt><trkpt lat="43.3948176" lon="12.024075"><ele>906.0</ele><time>2026-04-24T15:38:13.078Z</time></trkpt><trkpt lat="43.3947535" lon="12.0240773"><ele>906.0</ele><time>2026-04-24T15:38:14.076Z</time></trkpt><trkpt lat="43.3946754" lon="12.0240476"><ele>906.0</ele><time>2026-04-24T15:38:16.075Z</time></trkpt><trkpt lat="43.3947293" lon="12.0239251"><ele>906.0</ele><time>2026-04-24T15:38:20.066Z</time></trkpt><trkpt lat="43.3947731" lon="12.0238394"><ele>906.0</ele><time>2026-04-24T15:38:21.069Z</time></trkpt><trkpt lat="43.3948236" lon="12.023709"><ele>906.0</ele><time>2026-04-24T15:38:22.083Z</time></trkpt><trkpt lat="43.3948966" lon="12.0235337"><ele>906.0</ele><time>2026-04-24T15:38:23.073Z</time></trkpt><trkpt lat="43.3949887" lon="12.0233493"><ele>906.0</ele><time>2026-04-24T15:38:24.066Z</time></trkpt><trkpt lat="43.3950845" lon="12.0232059"><ele>906.0</ele><time>2026-04-24T15:38:25.072Z</time></trkpt><trkpt lat="43.3951655" lon="12.0230885"><ele>906.0</ele><time>2026-04-24T15:38:26.071Z</time></trkpt><trkpt lat="43.3952636" lon="12.0229962"><ele>905.0</ele><time>2026-04-24T15:38:28.075Z</time></trkpt><trkpt lat="43.3953263" lon="12.022949"><ele>904.0</ele><time>2026-04-24T15:38:29.064Z</time></trkpt><trkpt lat="43.3954371" lon="12.0228825"><ele>903.0</ele><time>2026-04-24T15:38:31.076Z</time></trkpt><trkpt lat="43.3955163" lon="12.0228434"><ele>902.0</ele><time>2026-04-24T15:38:32.076Z</time></trkpt><trkpt lat="43.3955951" lon="12.0228202"><ele>901.0</ele><time>2026-04-24T15:38:33.061Z</time></trkpt><trkpt lat="43.395669" lon="12.0227929"><ele>900.0</ele><time>2026-04-24T15:38:34.057Z</time></trkpt><trkpt lat="43.3957427" lon="12.0227632"><ele>899.5</ele><time>2026-04-24T15:38:35.06Z</time></trkpt><trkpt lat="43.3958207" lon="12.0227404"><ele>899.0</ele><time>2026-04-24T15:38:36.068Z</time></trkpt><trkpt lat="43.3959021" lon="12.0227257"><ele>898.5</ele><time>2026-04-24T15:38:37.064Z</time></trkpt><trkpt lat="43.3959751" lon="12.0227146"><ele>898.0</ele><time>2026-04-24T15:38:38.061Z</time></trkpt><trkpt lat="43.3960514" lon="12.0226846"><ele>897.5</ele><time>2026-04-24T15:38:39.061Z</time></trkpt><trkpt lat="43.3961625" lon="12.0226242"><ele>897.0</ele><time>2026-04-24T15:38:41.055Z</time></trkpt><trkpt lat="43.3961935" lon="12.0225215"><ele>893.6</ele><time>2026-04-24T15:38:44.055Z</time></trkpt><trkpt lat="43.3960985" lon="12.0224505"><ele>890.2</ele><time>2026-04-24T15:38:54.064Z</time></trkpt><trkpt lat="43.3959785" lon="12.0224303"><ele>886.8</ele><time>2026-04-24T15:38:56.062Z</time></trkpt><trkpt lat="43.3958874" lon="12.022392"><ele>883.4</ele><time>2026-04-24T15:38:57.063Z</time></trkpt><trkpt lat="43.395779" lon="12.0223732"><ele>880.0</ele><time>2026-04-24T15:38:58.067Z</time></trkpt><trkpt lat="43.3956568" lon="12.022369"><ele>880.0</ele><time>2026-04-24T15:38:59.065Z</time></trkpt><trkpt lat="43.3955118" lon="12.0223857"><ele>880.0</ele><time>2026-04-24T15:39:00.062Z</time></trkpt><trkpt lat="43.39537" lon="12.0224102"><ele>880.0</ele><time>2026-04-24T15:39:01.057Z</time></trkpt><trkpt lat="43.3952215" lon="12.0224037"><ele>880.0</ele><time>2026-04-24T15:39:02.071Z</time></trkpt><trkpt lat="43.3950874" lon="12.022403"><ele>881.4</ele><time>2026-04-24T15:39:03.068Z</time></trkpt><trkpt lat="43.3950004" lon="12.0224511"><ele>882.8</ele><time>2026-04-24T15:39:04.079Z</time></trkpt><trkpt lat="43.3948977" lon="12.0224823"><ele>884.2</ele><time>2026-04-24T15:39:05.065Z</time></trkpt><trkpt lat="43.3948163" lon="12.0225028"><ele>885.6</ele><time>2026-04-24T15:39:06.064Z</time></trkpt><trkpt lat="43.3947519" lon="12.0225118"><ele>887.0</ele><time>2026-04-24T15:39:07.068Z</time></trkpt><trkpt lat="43.3946236" lon="12.0225994"><ele>887.4000000000001</ele><time>2026-04-24T15:39:09.06Z</time></trkpt><trkpt lat="43.3945227" lon="12.0226798"><ele>887.8000000000001</ele><time>2026-04-24T15:39:10.054Z</time></trkpt><trkpt lat="43.3944117" lon="12.0227713"><ele>888.2</ele><time>2026-04-24T15:39:11.067Z</time></trkpt><trkpt lat="43.3943669" lon="12.0228541"><ele>888.6</ele><time>2026-04-24T15:39:12.052Z</time></trkpt><trkpt lat="43.3942738" lon="12.0228906"><ele>889.0</ele><time>2026-04-24T15:39:13.059Z</time></trkpt><trkpt lat="43.3941926" lon="12.0229221"><ele>889.0</ele><time>2026-04-24T15:39:14.083Z</time></trkpt><trkpt lat="43.3941279" lon="12.0229738"><ele>889.0000000000001</ele><time>2026-04-24T15:39:15.064Z</time></trkpt><trkpt lat="43.3940685" lon="12.0230161"><ele>889.0000000000001</ele><time>2026-04-24T15:39:16.066Z</time></trkpt><trkpt lat="43.3940024" lon="12.0230492"><ele>889.0</ele><time>2026-04-24T15:39:17.059Z</time></trkpt><trkpt lat="43.3938991" lon="12.0230898"><ele>889.0</ele><time>2026-04-24T15:39:19.066Z</time></trkpt><trkpt lat="43.3937621" lon="12.0231172"><ele>888.3333333333333</ele><time>2026-04-24T15:39:21.062Z</time></trkpt><trkpt lat="43.3936815" lon="12.0231283"><ele>887.6666666666666</ele><time>2026-04-24T15:39:22.068Z</time></trkpt><trkpt lat="43.3936169" lon="12.0231952"><ele>887.0</ele><time>2026-04-24T15:39:23.071Z</time></trkpt><trkpt lat="43.3935606" lon="12.0232833"><ele>886.3333333333333</ele><time>2026-04-24T15:39:24.082Z</time></trkpt><trkpt lat="43.3935269" lon="12.0233718"><ele>885.6666666666666</ele><time>2026-04-24T15:39:25.062Z</time></trkpt><trkpt lat="43.3935032" lon="12.0234623"><ele>885.0</ele><time>2026-04-24T15:39:26.069Z</time></trkpt><trkpt lat="43.393491" lon="12.0235772"><ele>885.0</ele><time>2026-04-24T15:39:27.08Z</time></trkpt><trkpt lat="43.3934696" lon="12.0237176"><ele>885.0</ele><time>2026-04-24T15:39:28.072Z</time></trkpt><trkpt lat="43.3934399" lon="12.0238486"><ele>885.0</ele><time>2026-04-24T15:39:29.085Z</time></trkpt><trkpt lat="43.3934029" lon="12.0239638"><ele>885.0</ele><time>2026-04-24T15:39:30.074Z</time></trkpt><trkpt lat="43.3933402" lon="12.0240443"><ele>885.0</ele><time>2026-04-24T15:39:31.079Z</time></trkpt><trkpt lat="43.3932659" lon="12.0241318"><ele>885.1666666666666</ele><time>2026-04-24T15:39:32.095Z</time></trkpt><trkpt lat="43.3932064" lon="12.0242264"><ele>885.3333333333333</ele><time>2026-04-24T15:39:33.078Z</time></trkpt><trkpt lat="43.3931782" lon="12.0243208"><ele>885.5</ele><time>2026-04-24T15:39:34.072Z</time></trkpt><trkpt lat="43.3931645" lon="12.0244113"><ele>885.6666666666666</ele><time>2026-04-24T15:39:35.096Z</time></trkpt><trkpt lat="43.3931989" lon="12.024487"><ele>885.8333333333333</ele><time>2026-04-24T15:39:39.075Z</time></trkpt><trkpt lat="43.393273" lon="12.0244002"><ele>886.0</ele><time>2026-04-24T15:39:41.081Z</time></trkpt><trkpt lat="43.3933189" lon="12.0243265"><ele>885.9999999999999</ele><time>2026-04-24T15:39:42.074Z</time></trkpt><trkpt lat="43.3933784" lon="12.0242625"><ele>886.0</ele><time>2026-04-24T15:39:43.075Z</time></trkpt><trkpt lat="43.3934391" lon="12.0242201"><ele>886.0</ele><time>2026-04-24T15:39:44.086Z</time></trkpt><trkpt lat="43.3935595" lon="12.0241886"><ele>886.0</ele><time>2026-04-24T15:39:46.111Z</time></trkpt><trkpt lat="43.3936254" lon="12.0241917"><ele>885.9999999999999</ele><time>2026-04-24T15:39:47.074Z</time></trkpt><trkpt lat="43.3936915" lon="12.0242116"><ele>886.0</ele><time>2026-04-24T15:39:48.08Z</time></trkpt><trkpt lat="43.3937914" lon="12.0242722"><ele>888.8</ele><time>2026-04-24T15:39:50.078Z</time></trkpt><trkpt lat="43.3938762" lon="12.0243063"><ele>891.5999999999999</ele><time>2026-04-24T15:39:52.082Z</time></trkpt><trkpt lat="43.3939775" lon="12.0243208"><ele>894.4</ele><time>2026-04-24T15:39:54.069Z</time></trkpt><trkpt lat="43.3940882" lon="12.0243002"><ele>897.2</ele><time>2026-04-24T15:39:56.075Z</time></trkpt><trkpt lat="43.3942048" lon="12.0242544"><ele>900.0</ele><time>2026-04-24T15:39:58.073Z</time></trkpt><trkpt lat="43.3942672" lon="12.0242122"><ele>900.0</ele><time>2026-04-24T15:39:59.072Z</time></trkpt><trkpt lat="43.394349" lon="12.0241896"><ele>900.0</ele><time>2026-04-24T15:40:01.071Z</time></trkpt><trkpt lat="43.3944686" lon="12.0241035"><ele>900.0</ele><time>2026-04-24T15:43:45.075Z</time></trkpt><trkpt lat="43.3945747" lon="12.0240734"><ele>900.0</ele><time>2026-04-24T15:43:46.077Z</time></trkpt><trkpt lat="43.3946924" lon="12.0240298"><ele>900.0</ele><time>2026-04-24T15:43:47.084Z</time></trkpt><trkpt lat="43.3948498" lon="12.0239793"><ele>902.0</ele><time>2026-04-24T15:43:48.101Z</time></trkpt><trkpt lat="43.3950369" lon="12.0239263"><ele>904.0</ele><time>2026-04-24T15:43:49.073Z</time></trkpt><trkpt lat="43.3952308" lon="12.023887"><ele>906.0</ele><time>2026-04-24T15:43:50.09Z</time></trkpt><trkpt lat="43.3954161" lon="12.0238584"><ele>906.3333333333333</ele><time>2026-04-24T15:43:51.072Z</time></trkpt><trkpt lat="43.3956014" lon="12.0238217"><ele>906.6666666666666</ele><time>2026-04-24T15:43:52.073Z</time></trkpt><trkpt lat="43.3957703" lon="12.0238036"><ele>907.0</ele><time>2026-04-24T15:43:53.081Z</time></trkpt><trkpt lat="43.3959278" lon="12.0238048"><ele>907.0</ele><time>2026-04-24T15:43:54.072Z</time></trkpt><trkpt lat="43.3960157" lon="12.0238486"><ele>907.0</ele><time>2026-04-24T15:43:55.085Z</time></trkpt><trkpt lat="43.3960995" lon="12.0239501"><ele>907.0</ele><time>2026-04-24T15:43:56.084Z</time></trkpt><trkpt lat="43.396187" lon="12.0240623"><ele>907.0</ele><time>2026-04-24T15:43:57.067Z</time></trkpt><trkpt lat="43.3962816" lon="12.0241587"><ele>907.0</ele><time>2026-04-24T15:43:58.085Z</time></trkpt><trkpt lat="43.3963897" lon="12.0242118"><ele>906.75</ele><time>2026-04-24T15:43:59.074Z</time></trkpt><trkpt lat="43.3965129" lon="12.0242203"><ele>906.5</ele><time>2026-04-24T15:44:00.08Z</time></trkpt><trkpt lat="43.3966547" lon="12.0241981"><ele>906.25</ele><time>2026-04-24T15:44:01.071Z</time></trkpt><trkpt lat="43.3967804" lon="12.0241861"><ele>906.0</ele><time>2026-04-24T15:44:02.065Z</time></trkpt><trkpt lat="43.3968949" lon="12.0241833"><ele>906.0</ele><time>2026-04-24T15:44:03.074Z</time></trkpt><trkpt lat="43.3970041" lon="12.024218"><ele>906.0</ele><time>2026-04-24T15:44:04.07Z</time></trkpt><trkpt lat="43.3971076" lon="12.0242392"><ele>906.0</ele><time>2026-04-24T15:44:05.082Z</time></trkpt><trkpt lat="43.3972105" lon="12.0241542"><ele>906.0</ele><time>2026-04-24T15:44:06.089Z</time></trkpt><trkpt lat="43.3973361" lon="12.0240502"><ele>906.5</ele><time>2026-04-24T15:44:07.092Z</time></trkpt><trkpt lat="43.397477" lon="12.0239519"><ele>907.0</ele><time>2026-04-24T15:44:08.088Z</time></trkpt><trkpt lat="43.3975602" lon="12.0238267"><ele>907.5</ele><time>2026-04-24T15:44:09.088Z</time></trkpt><trkpt lat="43.3976129" lon="12.0237027"><ele>908.0</ele><time>2026-04-24T15:44:10.091Z</time></trkpt><trkpt lat="43.3976514" lon="12.0235461"><ele>908.0</ele><time>2026-04-24T15:44:11.091Z</time></trkpt><trkpt lat="43.3977091" lon="12.0233752"><ele>908.0</ele><time>2026-04-24T15:44:12.085Z</time></trkpt><trkpt lat="43.3977802" lon="12.0231913"><ele>908.0</ele><time>2026-04-24T15:44:13.083Z</time></trkpt><trkpt lat="43.3978832" lon="12.0230468"><ele>908.0</ele><time>2026-04-24T15:44:14.095Z</time></trkpt><trkpt lat="43.3979901" lon="12.0229504"><ele>909.0</ele><time>2026-04-24T15:44:15.1Z</time></trkpt><trkpt lat="43.3980743" lon="12.0228974"><ele>910.0</ele><time>2026-04-24T15:44:16.08Z</time></trkpt><trkpt lat="43.3981926" lon="12.0229253"><ele>911.0</ele><time>2026-04-24T15:44:18.089Z</time></trkpt><trkpt lat="43.3982575" lon="12.0229999"><ele>912.0</ele><time>2026-04-24T15:44:19.077Z</time></trkpt><trkpt lat="43.3983377" lon="12.0230938"><ele>913.0</ele><time>2026-04-24T15:44:20.099Z</time></trkpt><trkpt lat="43.3984426" lon="12.0232122"><ele>913.0</ele><time>2026-04-24T15:44:21.066Z</time></trkpt><trkpt lat="43.3985907" lon="12.0233016"><ele>913.0</ele><time>2026-04-24T15:44:22.075Z</time></trkpt><trkpt lat="43.398749" lon="12.0233477"><ele>913.0</ele><time>2026-04-24T15:44:23.075Z</time></trkpt><trkpt lat="43.3988924" lon="12.0234004"><ele>916.0</ele><time>2026-04-24T15:44:24.09Z</time></trkpt><trkpt lat="43.3989852" lon="12.0234705"><ele>919.0</ele><time>2026-04-24T15:44:25.07Z</time></trkpt><trkpt lat="43.3990327" lon="12.0235595"><ele>922.0</ele><time>2026-04-24T15:44:26.085Z</time></trkpt><trkpt lat="43.3990427" lon="12.0236593"><ele>925.0</ele><time>2026-04-24T15:44:27.082Z</time></trkpt><trkpt lat="43.3990784" lon="12.0238066"><ele>928.0</ele><time>2026-04-24T15:44:28.084Z</time></trkpt><trkpt lat="43.3990993" lon="12.0239688"><ele>928.0</ele><time>2026-04-24T15:44:29.068Z</time></trkpt><trkpt lat="43.3991278" lon="12.0241294"><ele>928.0</ele><time>2026-04-24T15:44:30.078Z</time></trkpt><trkpt lat="43.3991627" lon="12.0242599"><ele>928.0</ele><time>2026-04-24T15:44:31.085Z</time></trkpt><trkpt lat="43.3992313" lon="12.0243892"><ele>928.0</ele><time>2026-04-24T15:44:32.077Z</time></trkpt><trkpt lat="43.3993125" lon="12.0245155"><ele>930.25</ele><time>2026-04-24T15:44:33.07Z</time></trkpt><trkpt lat="43.3993995" lon="12.0246412"><ele>932.5</ele><time>2026-04-24T15:44:34.073Z</time></trkpt><trkpt lat="43.3994898" lon="12.0247409"><ele>934.75</ele><time>2026-04-24T15:44:35.098Z</time></trkpt><trkpt lat="43.3996073" lon="12.0248229"><ele>937.0</ele><time>2026-04-24T15:44:36.075Z</time></trkpt><trkpt lat="43.3997211" lon="12.024867"><ele>937.0</ele><time>2026-04-24T15:44:37.061Z</time></trkpt><trkpt lat="43.3998408" lon="12.0249212"><ele>937.0</ele><time>2026-04-24T15:44:38.075Z</time></trkpt><trkpt lat="43.3999705" lon="12.0249644"><ele>937.0</ele><time>2026-04-24T15:44:39.069Z</time></trkpt><trkpt lat="43.4001057" lon="12.0250047"><ele>937.0</ele><time>2026-04-24T15:44:40.073Z</time></trkpt><trkpt lat="43.4002375" lon="12.0250573"><ele>939.0</ele><time>2026-04-24T15:44:41.076Z</time></trkpt><trkpt lat="43.4003659" lon="12.0251136"><ele>941.0</ele><time>2026-04-24T15:44:42.072Z</time></trkpt><trkpt lat="43.4004904" lon="12.0251602"><ele>943.0</ele><time>2026-04-24T15:44:43.083Z</time></trkpt><trkpt lat="43.4006081" lon="12.0252017"><ele>945.0</ele><time>2026-04-24T15:44:44.075Z</time></trkpt><trkpt lat="43.4007071" lon="12.0252145"><ele>945.6666666666666</ele><time>2026-04-24T15:44:45.077Z</time></trkpt><trkpt lat="43.4007907" lon="12.025185"><ele>946.3333333333333</ele><time>2026-04-24T15:44:46.087Z</time></trkpt><trkpt lat="43.400867" lon="12.0251375"><ele>947.0</ele><time>2026-04-24T15:44:47.084Z</time></trkpt><trkpt lat="43.4009568" lon="12.0250955"><ele>947.6666666666666</ele><time>2026-04-24T15:44:48.073Z</time></trkpt><trkpt lat="43.4010375" lon="12.0250632"><ele>948.3333333333333</ele><time>2026-04-24T15:44:49.09Z</time></trkpt><trkpt lat="43.4011232" lon="12.0250505"><ele>949.0</ele><time>2026-04-24T15:44:50.081Z</time></trkpt><trkpt lat="43.4012365" lon="12.025077"><ele>949.25</ele><time>2026-04-24T15:44:51.073Z</time></trkpt><trkpt lat="43.4013695" lon="12.0251278"><ele>949.5</ele><time>2026-04-24T15:44:52.066Z</time></trkpt><trkpt lat="43.4015061" lon="12.0251782"><ele>949.75</ele><time>2026-04-24T15:44:53.071Z</time></trkpt><trkpt lat="43.4016367" lon="12.0252521"><ele>950.0</ele><time>2026-04-24T15:44:54.068Z</time></trkpt><trkpt lat="43.4017681" lon="12.025323"><ele>950.0</ele><time>2026-04-24T15:44:55.071Z</time></trkpt><trkpt lat="43.4018928" lon="12.0253965"><ele>950.0</ele><time>2026-04-24T15:44:56.084Z</time></trkpt><trkpt lat="43.4020042" lon="12.0254557"><ele>950.0</ele><time>2026-04-24T15:44:57.078Z</time></trkpt><trkpt lat="43.402113" lon="12.025498"><ele>950.0</ele><time>2026-04-24T15:44:58.082Z</time></trkpt><trkpt lat="43.402222" lon="12.0255417"><ele>952.5</ele><time>2026-04-24T15:44:59.079Z</time></trkpt><trkpt lat="43.4023344" lon="12.025572"><ele>955.0</ele><time>2026-04-24T15:45:00.077Z</time></trkpt><trkpt lat="43.4024586" lon="12.025599"><ele>957.5</ele><time>2026-04-24T15:45:01.086Z</time></trkpt><trkpt lat="43.4025722" lon="12.0256039"><ele>960.0</ele><time>2026-04-24T15:45:02.083Z</time></trkpt><trkpt lat="43.4026875" lon="12.0256057"><ele>960.0</ele><time>2026-04-24T15:45:03.083Z</time></trkpt><trkpt lat="43.4028095" lon="12.0256216"><ele>960.0</ele><time>2026-04-24T15:45:04.076Z</time></trkpt><trkpt lat="43.4029051" lon="12.0256466"><ele>960.0</ele><time>2026-04-24T15:45:05.075Z</time></trkpt><trkpt lat="43.4029991" lon="12.0256903"><ele>960.0</ele><time>2026-04-24T15:45:06.082Z</time></trkpt><trkpt lat="43.4031128" lon="12.0257746"><ele>960.0</ele><time>2026-04-24T15:45:07.111Z</time></trkpt><trkpt lat="43.4032468" lon="12.0258765"><ele>963.0</ele><time>2026-04-24T15:45:08.079Z</time></trkpt><trkpt lat="43.403409" lon="12.0259987"><ele>966.0</ele><time>2026-04-24T15:45:09.095Z</time></trkpt><trkpt lat="43.40356" lon="12.0260957"><ele>969.0</ele><time>2026-04-24T15:45:10.096Z</time></trkpt><trkpt lat="43.4036978" lon="12.0261841"><ele>969.0</ele><time>2026-04-24T15:45:11.087Z</time></trkpt><trkpt lat="43.4038258" lon="12.0262474"><ele>969.0</ele><time>2026-04-24T15:45:12.1Z</time></trkpt><trkpt lat="43.4039536" lon="12.0263115"><ele>969.0</ele><time>2026-04-24T15:45:13.092Z</time></trkpt><trkpt lat="43.4040783" lon="12.0263693"><ele>969.0</ele><time>2026-04-24T15:45:14.081Z</time></trkpt><trkpt lat="43.4041907" lon="12.0264363"><ele>967.6</ele><time>2026-04-24T15:45:15.08Z</time></trkpt><trkpt lat="43.4042734" lon="12.0265032"><ele>966.2</ele><time>2026-04-24T15:45:16.086Z</time></trkpt><trkpt lat="43.4043384" lon="12.0265453"><ele>964.8000000000001</ele><time>2026-04-24T15:45:17.076Z</time></trkpt><trkpt lat="43.4044097" lon="12.0264385"><ele>963.4000000000001</ele><time>2026-04-24T15:45:19.085Z</time></trkpt><trkpt lat="43.4043953" lon="12.0262854"><ele>962.0</ele><time>2026-04-24T15:45:21.08Z</time></trkpt><trkpt lat="43.4043611" lon="12.0261943"><ele>962.0</ele><time>2026-04-24T15:45:22.087Z</time></trkpt><trkpt lat="43.4043107" lon="12.026089"><ele>962.0</ele><time>2026-04-24T15:45:23.067Z</time></trkpt><trkpt lat="43.4042503" lon="12.0259538"><ele>962.0</ele><time>2026-04-24T15:45:24.077Z</time></trkpt><trkpt lat="43.4041616" lon="12.0258084"><ele>962.0</ele><time>2026-04-24T15:45:25.075Z</time></trkpt><trkpt lat="43.404064" lon="12.0256905"><ele>960.0000000000001</ele><time>2026-04-24T15:45:26.075Z</time></trkpt><trkpt lat="43.4039846" lon="12.0255949"><ele>958.0</ele><time>2026-04-24T15:45:27.069Z</time></trkpt><trkpt lat="43.4039327" lon="12.0255185"><ele>956.0</ele><time>2026-04-24T15:45:28.075Z</time></trkpt><trkpt lat="43.4039486" lon="12.0253944"><ele>954.0</ele><time>2026-04-24T15:45:30.083Z</time></trkpt><trkpt lat="43.4040051" lon="12.0253447"><ele>952.0000000000001</ele><time>2026-04-24T15:45:31.072Z</time></trkpt><trkpt lat="43.4040893" lon="12.025283"><ele>950.0</ele><time>2026-04-24T15:45:32.064Z</time></trkpt><trkpt lat="43.4041869" lon="12.0252269"><ele>950.0</ele><time>2026-04-24T15:45:33.065Z</time></trkpt><trkpt lat="43.404281" lon="12.0252054"><ele>950.0</ele><time>2026-04-24T15:45:34.075Z</time></trkpt><trkpt lat="43.4043901" lon="12.0252155"><ele>950.0</ele><time>2026-04-24T15:45:35.062Z</time></trkpt><trkpt lat="43.4044976" lon="12.0252509"><ele>950.0</ele><time>2026-04-24T15:45:36.08Z</time></trkpt><trkpt lat="43.4046163" lon="12.0253091"><ele>950.0</ele><time>2026-04-24T15:45:37.078Z</time></trkpt><trkpt lat="43.4047584" lon="12.0253795"><ele>948.25</ele><time>2026-04-24T15:45:38.08Z</time></trkpt><trkpt lat="43.4048916" lon="12.0254515"><ele>946.5</ele><time>2026-04-24T15:45:39.067Z</time></trkpt><trkpt lat="43.405022" lon="12.0255363"><ele>944.75</ele><time>2026-04-24T15:45:40.08Z</time></trkpt><trkpt lat="43.4051405" lon="12.0256212"><ele>943.0</ele><time>2026-04-24T15:45:41.08Z</time></trkpt><trkpt lat="43.4052355" lon="12.0256857"><ele>943.0</ele><time>2026-04-24T15:45:42.077Z</time></trkpt><trkpt lat="43.4052999" lon="12.0257254"><ele>943.0</ele><time>2026-04-24T15:45:43.072Z</time></trkpt><trkpt lat="43.405351" lon="12.0256591"><ele>943.0</ele><time>2026-04-24T15:45:45.075Z</time></trkpt><trkpt lat="43.4053489" lon="12.0255155"><ele>943.0</ele><time>2026-04-24T15:45:47.069Z</time></trkpt><trkpt lat="43.4053153" lon="12.0253791"><ele>943.0</ele><time>2026-04-24T15:45:48.068Z</time></trkpt><trkpt lat="43.40528" lon="12.0252373"><ele>943.0</ele><time>2026-04-24T15:45:49.076Z</time></trkpt><trkpt lat="43.4052468" lon="12.0250958"><ele>943.0</ele><time>2026-04-24T15:45:50.079Z</time></trkpt><trkpt lat="43.4052255" lon="12.0249435"><ele>943.0</ele><time>2026-04-24T15:45:51.065Z</time></trkpt><trkpt lat="43.4052048" lon="12.0248101"><ele>943.0</ele><time>2026-04-24T15:45:52.068Z</time></trkpt><trkpt lat="43.4052278" lon="12.024707"><ele>943.0</ele><time>2026-04-24T15:45:53.071Z</time></trkpt><trkpt lat="43.4052726" lon="12.0245833"><ele>942.4999999999999</ele><time>2026-04-24T15:45:55.074Z</time></trkpt><trkpt lat="43.405373" lon="12.0244922"><ele>942.0</ele><time>2026-04-24T15:45:57.073Z</time></trkpt><trkpt lat="43.4054469" lon="12.0244761"><ele>941.5</ele><time>2026-04-24T15:45:58.075Z</time></trkpt><trkpt lat="43.4055135" lon="12.0244594"><ele>941.0</ele><time>2026-04-24T15:45:59.071Z</time></trkpt><trkpt lat="43.4055858" lon="12.0244168"><ele>940.4999999999999</ele><time>2026-04-24T15:46:01.074Z</time></trkpt><trkpt lat="43.4056409" lon="12.0243689"><ele>940.0</ele><time>2026-04-24T15:46:03.079Z</time></trkpt><trkpt lat="43.4056569" lon="12.0242608"><ele>939.9999999999999</ele><time>2026-04-24T15:46:05.075Z</time></trkpt><trkpt lat="43.4056762" lon="12.024175"><ele>940.0</ele><time>2026-04-24T15:46:06.058Z</time></trkpt><trkpt lat="43.4056901" lon="12.0240668"><ele>940.0</ele><time>2026-04-24T15:46:07.085Z</time></trkpt><trkpt lat="43.4056997" lon="12.0239431"><ele>940.0</ele><time>2026-04-24T15:46:08.093Z</time></trkpt><trkpt lat="43.4057042" lon="12.0238056"><ele>939.9999999999999</ele><time>2026-04-24T15:46:09.089Z</time></trkpt><trkpt lat="43.405702" lon="12.0236726"><ele>940.0</ele><time>2026-04-24T15:46:10.082Z</time></trkpt><trkpt lat="43.4056856" lon="12.0235424"><ele>940.2</ele><time>2026-04-24T15:46:11.082Z</time></trkpt><trkpt lat="43.40566" lon="12.0234182"><ele>940.4</ele><time>2026-04-24T15:46:12.078Z</time></trkpt><trkpt lat="43.405621" lon="12.0232853"><ele>940.5999999999999</ele><time>2026-04-24T15:46:13.102Z</time></trkpt><trkpt lat="43.4055713" lon="12.0231608"><ele>940.8</ele><time>2026-04-24T15:46:14.072Z</time></trkpt><trkpt lat="43.4055279" lon="12.0230567"><ele>941.0</ele><time>2026-04-24T15:46:15.079Z</time></trkpt><trkpt lat="43.4055052" lon="12.0229241"><ele>935.25</ele><time>2026-04-24T15:46:16.069Z</time></trkpt><trkpt lat="43.4054868" lon="12.0227417"><ele>929.5</ele><time>2026-04-24T15:46:17.082Z</time></trkpt><trkpt lat="43.4054718" lon="12.0225426"><ele>923.75</ele><time>2026-04-24T15:46:18.074Z</time></trkpt><trkpt lat="43.4054784" lon="12.0223487"><ele>918.0</ele><time>2026-04-24T15:46:19.077Z</time></trkpt><trkpt lat="43.4054879" lon="12.0221687"><ele>916.0</ele><time>2026-04-24T15:46:20.08Z</time></trkpt><trkpt lat="43.4054992" lon="12.0219816"><ele>914.0</ele><time>2026-04-24T15:46:21.075Z</time></trkpt><trkpt lat="43.4055475" lon="12.0217986"><ele>912.0</ele><time>2026-04-24T15:46:22.075Z</time></trkpt><trkpt lat="43.4056305" lon="12.0216554"><ele>910.0</ele><time>2026-04-24T15:46:23.079Z</time></trkpt><trkpt lat="43.4057189" lon="12.0215241"><ele>910.0</ele><time>2026-04-24T15:46:24.084Z</time></trkpt><trkpt lat="43.4057743" lon="12.0214435"><ele>910.0</ele><time>2026-04-24T15:46:25.075Z</time></trkpt><trkpt lat="43.4057571" lon="12.0213178"><ele>910.0</ele><time>2026-04-24T15:46:27.072Z</time></trkpt><trkpt lat="43.4056477" lon="12.0212599"><ele>910.0</ele><time>2026-04-24T15:46:29.072Z</time></trkpt><trkpt lat="43.4055736" lon="12.0211881"><ele>910.0</ele><time>2026-04-24T15:46:30.072Z</time></trkpt><trkpt lat="43.4055238" lon="12.0211106"><ele>910.0</ele><time>2026-04-24T15:46:31.074Z</time></trkpt><trkpt lat="43.4055389" lon="12.0209742"><ele>910.0</ele><time>2026-04-24T15:46:33.066Z</time></trkpt><trkpt lat="43.4055984" lon="12.0208944"><ele>910.0</ele><time>2026-04-24T15:46:34.075Z</time></trkpt><trkpt lat="43.4056846" lon="12.0208022"><ele>910.0</ele><time>2026-04-24T15:46:35.089Z</time></trkpt><trkpt lat="43.4058123" lon="12.0207193"><ele>910.0</ele><time>2026-04-24T15:46:36.072Z</time></trkpt><trkpt lat="43.405932" lon="12.0206279"><ele>907.0</ele><time>2026-04-24T15:46:37.089Z</time></trkpt><trkpt lat="43.4060218" lon="12.0205554"><ele>904.0</ele><time>2026-04-24T15:46:38.075Z</time></trkpt><trkpt lat="43.4060821" lon="12.0205288"><ele>901.0</ele><time>2026-04-24T15:46:39.072Z</time></trkpt><trkpt lat="43.4061637" lon="12.0204381"><ele>898.0</ele><time>2026-04-24T15:46:41.079Z</time></trkpt><trkpt lat="43.4061518" lon="12.0203422"><ele>895.0</ele><time>2026-04-24T15:46:43.07Z</time></trkpt><trkpt lat="43.4060717" lon="12.0201845"><ele>894.9999999999999</ele><time>2026-04-24T15:46:45.082Z</time></trkpt><trkpt lat="43.4060166" lon="12.0200869"><ele>895.0</ele><time>2026-04-24T15:46:46.068Z</time></trkpt><trkpt lat="43.4059785" lon="12.0199756"><ele>895.0</ele><time>2026-04-24T15:46:47.076Z</time></trkpt><trkpt lat="43.4059461" lon="12.0198609"><ele>895.0</ele><time>2026-04-24T15:46:48.063Z</time></trkpt><trkpt lat="43.4059026" lon="12.0197644"><ele>894.9999999999999</ele><time>2026-04-24T15:46:49.064Z</time></trkpt><trkpt lat="43.4058412" lon="12.0196758"><ele>895.0</ele><time>2026-04-24T15:46:50.067Z</time></trkpt><trkpt lat="43.4057659" lon="12.0195664"><ele>891.1666666666666</ele><time>2026-04-24T15:46:51.066Z</time></trkpt><trkpt lat="43.4056723" lon="12.0194751"><ele>887.3333333333333</ele><time>2026-04-24T15:46:52.066Z</time></trkpt><trkpt lat="43.4055971" lon="12.0194225"><ele>883.5</ele><time>2026-04-24T15:46:53.071Z</time></trkpt><trkpt lat="43.4055109" lon="12.019385"><ele>879.6666666666667</ele><time>2026-04-24T15:46:54.066Z</time></trkpt><trkpt lat="43.4054431" lon="12.019353"><ele>875.8333333333334</ele><time>2026-04-24T15:46:55.056Z</time></trkpt><trkpt lat="43.405389" lon="12.0192973"><ele>872.0</ele><time>2026-04-24T15:46:56.077Z</time></trkpt><trkpt lat="43.4053315" lon="12.0192396"><ele>870.8333333333334</ele><time>2026-04-24T15:46:57.077Z</time></trkpt><trkpt lat="43.4052765" lon="12.0191684"><ele>869.6666666666667</ele><time>2026-04-24T15:46:58.065Z</time></trkpt><trkpt lat="43.4051688" lon="12.0190791"><ele>868.5</ele><time>2026-04-24T15:47:00.064Z</time></trkpt><trkpt lat="43.405071" lon="12.019057"><ele>867.3333333333333</ele><time>2026-04-24T15:47:02.057Z</time></trkpt><trkpt lat="43.4050018" lon="12.0190674"><ele>866.1666666666666</ele><time>2026-04-24T15:47:05.076Z</time></trkpt><trkpt lat="43.4049253" lon="12.0190969"><ele>865.0</ele><time>2026-04-24T15:47:10.073Z</time></trkpt><trkpt lat="43.4050151" lon="12.0190579"><ele>865.0</ele><time>2026-04-24T15:47:16.059Z</time></trkpt><trkpt lat="43.4051461" lon="12.0190777"><ele>865.0</ele><time>2026-04-24T15:47:18.06Z</time></trkpt><trkpt lat="43.4052345" lon="12.0191185"><ele>865.0</ele><time>2026-04-24T15:47:19.057Z</time></trkpt><trkpt lat="43.4053214" lon="12.0191654"><ele>865.0</ele><time>2026-04-24T15:47:20.075Z</time></trkpt><trkpt lat="43.4054235" lon="12.0192207"><ele>865.0</ele><time>2026-04-24T15:47:21.064Z</time></trkpt><trkpt lat="43.405538" lon="12.0192866"><ele>866.4</ele><time>2026-04-24T15:47:22.065Z</time></trkpt><trkpt lat="43.4056497" lon="12.0193626"><ele>867.8</ele><time>2026-04-24T15:47:23.066Z</time></trkpt><trkpt lat="43.4057533" lon="12.0194295"><ele>869.2</ele><time>2026-04-24T15:47:24.06Z</time></trkpt><trkpt lat="43.4058206" lon="12.0195026"><ele>870.6</ele><time>2026-04-24T15:47:25.068Z</time></trkpt><trkpt lat="43.4058802" lon="12.019602"><ele>872.0</ele><time>2026-04-24T15:47:26.062Z</time></trkpt><trkpt lat="43.405939" lon="12.0196902"><ele>872.0</ele><time>2026-04-24T15:47:27.062Z</time></trkpt><trkpt lat="43.4059814" lon="12.0197665"><ele>872.0</ele><time>2026-04-24T15:47:28.058Z</time></trkpt><trkpt lat="43.4060112" lon="12.0198485"><ele>872.0</ele><time>2026-04-24T15:47:29.079Z</time></trkpt><trkpt lat="43.4060451" lon="12.0199811"><ele>872.0</ele><time>2026-04-24T15:47:30.066Z</time></trkpt><trkpt lat="43.4060996" lon="12.0201476"><ele>872.0</ele><time>2026-04-24T15:47:31.064Z</time></trkpt><trkpt lat="43.4061483" lon="12.0203248"><ele>876.6</ele><time>2026-04-24T15:47:32.057Z</time></trkpt><trkpt lat="43.4061902" lon="12.0204644"><ele>881.2</ele><time>2026-04-24T15:47:33.077Z</time></trkpt><trkpt lat="43.4061528" lon="12.0205925"><ele>885.8</ele><time>2026-04-24T15:47:35.067Z</time></trkpt><trkpt lat="43.4060569" lon="12.0206484"><ele>890.4</ele><time>2026-04-24T15:47:36.061Z</time></trkpt><trkpt lat="43.4059374" lon="12.0207223"><ele>895.0</ele><time>2026-04-24T15:47:37.069Z</time></trkpt><trkpt lat="43.4057849" lon="12.0208051"><ele>895.75</ele><time>2026-04-24T15:47:38.053Z</time></trkpt><trkpt lat="43.4056228" lon="12.020893"><ele>896.5</ele><time>2026-04-24T15:47:39.07Z</time></trkpt><trkpt lat="43.4054866" lon="12.0209778"><ele>897.25</ele><time>2026-04-24T15:47:40.056Z</time></trkpt><trkpt lat="43.4054004" lon="12.0210553"><ele>898.0</ele><time>2026-04-24T15:47:41.061Z</time></trkpt><trkpt lat="43.4053721" lon="12.0211616"><ele>900.4</ele><time>2026-04-24T15:47:43.06Z</time></trkpt><trkpt lat="43.4055012" lon="12.0212347"><ele>902.8</ele><time>2026-04-24T15:47:45.058Z</time></trkpt><trkpt lat="43.405597" lon="12.021279"><ele>905.2</ele><time>2026-04-24T15:47:46.056Z</time></trkpt><trkpt lat="43.4056784" lon="12.0213363"><ele>907.6</ele><time>2026-04-24T15:47:47.06Z</time></trkpt><trkpt lat="43.4057299" lon="12.0213944"><ele>910.0</ele><time>2026-04-24T15:47:48.05Z</time></trkpt><trkpt lat="43.4057328" lon="12.0215745"><ele>910.0</ele><time>2026-04-24T15:47:50.067Z</time></trkpt><trkpt lat="43.4056776" lon="12.021712"><ele>910.0</ele><time>2026-04-24T15:47:51.072Z</time></trkpt><trkpt lat="43.4055994" lon="12.0218816"><ele>910.0</ele><time>2026-04-24T15:47:52.061Z</time></trkpt><trkpt lat="43.4055266" lon="12.0220497"><ele>910.0</ele><time>2026-04-24T15:47:53.068Z</time></trkpt><trkpt lat="43.4054902" lon="12.0222128"><ele>910.0</ele><time>2026-04-24T15:47:54.066Z</time></trkpt><trkpt lat="43.4054949" lon="12.0223861"><ele>910.0</ele><time>2026-04-24T15:47:55.074Z</time></trkpt><trkpt lat="43.4055259" lon="12.0225436"><ele>910.0</ele><time>2026-04-24T15:47:56.063Z</time></trkpt><trkpt lat="43.405555" lon="12.0226769"><ele>910.0</ele><time>2026-04-24T15:47:57.068Z</time></trkpt><trkpt lat="43.4055742" lon="12.0227894"><ele>910.0</ele><time>2026-04-24T15:47:58.066Z</time></trkpt><trkpt lat="43.4055949" lon="12.0228979"><ele>915.6</ele><time>2026-04-24T15:47:59.067Z</time></trkpt><trkpt lat="43.4056151" lon="12.0229995"><ele>921.2</ele><time>2026-04-24T15:48:00.07Z</time></trkpt><trkpt lat="43.4056401" lon="12.0230871"><ele>926.8</ele><time>2026-04-24T15:48:01.075Z</time></trkpt><trkpt lat="43.4056904" lon="12.0232291"><ele>932.4</ele><time>2026-04-24T15:48:03.058Z</time></trkpt><trkpt lat="43.4057305" lon="12.0233583"><ele>938.0</ele><time>2026-04-24T15:48:05.06Z</time></trkpt><trkpt lat="43.4057602" lon="12.0234762"><ele>938.5999999999999</ele><time>2026-04-24T15:48:07.068Z</time></trkpt><trkpt lat="43.4057794" lon="12.0235811"><ele>939.1999999999999</ele><time>2026-04-24T15:48:09.059Z</time></trkpt><trkpt lat="43.4058066" lon="12.0237046"><ele>939.8</ele><time>2026-04-24T15:48:11.073Z</time></trkpt><trkpt lat="43.4058029" lon="12.0238091"><ele>940.4</ele><time>2026-04-24T15:48:12.092Z</time></trkpt><trkpt lat="43.405791" lon="12.0239407"><ele>941.0</ele><time>2026-04-24T15:48:13.068Z</time></trkpt><trkpt lat="43.4057654" lon="12.0240827"><ele>940.8333333333334</ele><time>2026-04-24T15:48:14.063Z</time></trkpt><trkpt lat="43.4057313" lon="12.0242018"><ele>940.6666666666667</ele><time>2026-04-24T15:48:15.074Z</time></trkpt><trkpt lat="43.4057041" lon="12.0242877"><ele>940.5</ele><time>2026-04-24T15:48:16.078Z</time></trkpt><trkpt lat="43.4056832" lon="12.0243963"><ele>940.3333333333333</ele><time>2026-04-24T15:48:18.082Z</time></trkpt><trkpt lat="43.4056181" lon="12.024414"><ele>940.1666666666666</ele><time>2026-04-24T15:48:47.079Z</time></trkpt><trkpt lat="43.4057088" lon="12.0243482"><ele>940.0</ele><time>2026-04-24T15:49:06.085Z</time></trkpt><trkpt lat="43.4057937" lon="12.0243218"><ele>939.9999999999999</ele><time>2026-04-24T15:49:07.081Z</time></trkpt><trkpt lat="43.4058891" lon="12.0242839"><ele>940.0</ele><time>2026-04-24T15:49:08.074Z</time></trkpt><trkpt lat="43.405988" lon="12.0242568"><ele>940.0</ele><time>2026-04-24T15:49:09.087Z</time></trkpt><trkpt lat="43.4060676" lon="12.0242258"><ele>940.0</ele><time>2026-04-24T15:49:10.073Z</time></trkpt><trkpt lat="43.4061322" lon="12.0241833"><ele>939.9999999999999</ele><time>2026-04-24T15:49:11.079Z</time></trkpt><trkpt lat="43.4061949" lon="12.0241328"><ele>940.0</ele><time>2026-04-24T15:49:12.078Z</time></trkpt><trkpt lat="43.406256" lon="12.0240799"><ele>940.1666666666666</ele><time>2026-04-24T15:49:13.075Z</time></trkpt><trkpt lat="43.4063201" lon="12.0240266"><ele>940.3333333333333</ele><time>2026-04-24T15:49:14.09Z</time></trkpt><trkpt lat="43.4063902" lon="12.02397"><ele>940.5</ele><time>2026-04-24T15:49:15.078Z</time></trkpt><trkpt lat="43.4064596" lon="12.0239006"><ele>940.6666666666667</ele><time>2026-04-24T15:49:16.091Z</time></trkpt><trkpt lat="43.4065286" lon="12.0238251"><ele>940.8333333333334</ele><time>2026-04-24T15:49:17.087Z</time></trkpt><trkpt lat="43.4065919" lon="12.0237701"><ele>941.0</ele><time>2026-04-24T15:49:18.084Z</time></trkpt><trkpt lat="43.4066541" lon="12.0237346"><ele>940.0000000000001</ele><time>2026-04-24T15:49:19.078Z</time></trkpt><trkpt lat="43.406711" lon="12.0236932"><ele>939.0</ele><time>2026-04-24T15:49:20.081Z</time></trkpt><trkpt lat="43.4067695" lon="12.0236574"><ele>938.0</ele><time>2026-04-24T15:49:21.078Z</time></trkpt><trkpt lat="43.4068699" lon="12.0236064"><ele>937.0</ele><time>2026-04-24T15:49:23.083Z</time></trkpt><trkpt lat="43.4069656" lon="12.0236123"><ele>936.0000000000001</ele><time>2026-04-24T15:49:25.083Z</time></trkpt><trkpt lat="43.4068636" lon="12.0236583"><ele>935.0</ele><time>2026-04-24T15:49:33.082Z</time></trkpt><trkpt lat="43.4067743" lon="12.0237057"><ele>935.0</ele><time>2026-04-24T15:49:34.074Z</time></trkpt><trkpt lat="43.4066502" lon="12.0237849"><ele>935.0</ele><time>2026-04-24T15:49:35.081Z</time></trkpt><trkpt lat="43.4065219" lon="12.0239036"><ele>935.0</ele><time>2026-04-24T15:49:36.079Z</time></trkpt><trkpt lat="43.4063759" lon="12.024053"><ele>936.6666666666667</ele><time>2026-04-24T15:49:37.099Z</time></trkpt><trkpt lat="43.406247" lon="12.0241901"><ele>938.3333333333333</ele><time>2026-04-24T15:49:38.074Z</time></trkpt><trkpt lat="43.4061199" lon="12.0242895"><ele>940.0</ele><time>2026-04-24T15:49:39.077Z</time></trkpt><trkpt lat="43.4059809" lon="12.0243596"><ele>940.0</ele><time>2026-04-24T15:49:40.104Z</time></trkpt><trkpt lat="43.4058365" lon="12.0244263"><ele>940.0</ele><time>2026-04-24T15:49:41.088Z</time></trkpt><trkpt lat="43.4057017" lon="12.0244817"><ele>940.0</ele><time>2026-04-24T15:49:42.077Z</time></trkpt><trkpt lat="43.4056158" lon="12.0245034"><ele>940.0</ele><time>2026-04-24T15:49:43.074Z</time></trkpt><trkpt lat="43.4056405" lon="12.0242807"><ele>940.1666666666666</ele><time>2026-04-24T15:49:46.07Z</time></trkpt><trkpt lat="43.405694" lon="12.0241325"><ele>940.3333333333333</ele><time>2026-04-24T15:49:47.064Z</time></trkpt><trkpt lat="43.4057382" lon="12.0240135"><ele>940.5</ele><time>2026-04-24T15:49:48.072Z</time></trkpt><trkpt lat="43.4057693" lon="12.023918"><ele>940.6666666666667</ele><time>2026-04-24T15:49:49.074Z</time></trkpt><trkpt lat="43.4057734" lon="12.0238284"><ele>940.8333333333334</ele><time>2026-04-24T15:49:50.075Z</time></trkpt><trkpt lat="43.4057713" lon="12.0237388"><ele>941.0</ele><time>2026-04-24T15:49:51.067Z</time></trkpt><trkpt lat="43.4057428" lon="12.0235719"><ele>941.0</ele><time>2026-04-24T15:49:53.065Z</time></trkpt><trkpt lat="43.405691" lon="12.0234344"><ele>940.9999999999999</ele><time>2026-04-24T15:49:55.074Z</time></trkpt><trkpt lat="43.4056349" lon="12.0233059"><ele>940.9999999999999</ele><time>2026-04-24T15:49:57.067Z</time></trkpt><trkpt lat="43.4056058" lon="12.023225"><ele>941.0</ele><time>2026-04-24T15:49:58.064Z</time></trkpt><trkpt lat="43.4055722" lon="12.0231437"><ele>941.0</ele><time>2026-04-24T15:49:59.056Z</time></trkpt><trkpt lat="43.4055341" lon="12.0229985"><ele>940.5000000000001</ele><time>2026-04-24T15:50:01.092Z</time></trkpt><trkpt lat="43.405517" lon="12.0228991"><ele>940.0</ele><time>2026-04-24T15:50:02.064Z</time></trkpt><trkpt lat="43.4055041" lon="12.022783"><ele>939.5</ele><time>2026-04-24T15:50:03.068Z</time></trkpt><trkpt lat="43.4055024" lon="12.0226686"><ele>939.0</ele><time>2026-04-24T15:50:04.088Z</time></trkpt><trkpt lat="43.4054987" lon="12.0225588"><ele>938.5000000000001</ele><time>2026-04-24T15:50:05.065Z</time></trkpt><trkpt lat="43.405486" lon="12.0224534"><ele>938.0</ele><time>2026-04-24T15:50:06.057Z</time></trkpt><trkpt lat="43.4054676" lon="12.0223557"><ele>938.0</ele><time>2026-04-24T15:50:07.067Z</time></trkpt><trkpt lat="43.4054553" lon="12.0222185"><ele>938.0</ele><time>2026-04-24T15:50:09.063Z</time></trkpt><trkpt lat="43.4054787" lon="12.0223246"><ele>938.0</ele><time>2026-04-24T15:50:17.068Z</time></trkpt><trkpt lat="43.4055166" lon="12.0224525"><ele>938.0</ele><time>2026-04-24T15:50:18.058Z</time></trkpt><trkpt lat="43.4055586" lon="12.0226703"><ele>938.0</ele><time>2026-04-24T15:50:19.058Z</time></trkpt><trkpt lat="43.4055972" lon="12.0229042"><ele>938.0</ele><time>2026-04-24T15:50:20.063Z</time></trkpt><trkpt lat="43.4056451" lon="12.0231136"><ele>938.0</ele><time>2026-04-24T15:50:21.069Z</time></trkpt><trkpt lat="43.4057072" lon="12.0233152"><ele>938.0</ele><time>2026-04-24T15:50:22.067Z</time></trkpt><trkpt lat="43.4057735" lon="12.0235384"><ele>938.5</ele><time>2026-04-24T15:50:23.071Z</time></trkpt><trkpt lat="43.4058121" lon="12.0237511"><ele>939.0</ele><time>2026-04-24T15:50:24.067Z</time></trkpt><trkpt lat="43.4057958" lon="12.023946"><ele>939.5</ele><time>2026-04-24T15:50:25.067Z</time></trkpt><trkpt lat="43.405758" lon="12.0241392"><ele>940.0</ele><time>2026-04-24T15:50:26.075Z</time></trkpt><trkpt lat="43.4056888" lon="12.0243217"><ele>940.0</ele><time>2026-04-24T15:50:27.063Z</time></trkpt><trkpt lat="43.4056357" lon="12.0244574"><ele>940.0</ele><time>2026-04-24T15:50:28.07Z</time></trkpt><trkpt lat="43.4057036" lon="12.024461"><ele>940.0</ele><time>2026-04-24T15:56:00.068Z</time></trkpt><trkpt lat="43.4056719" lon="12.0243502"><ele>940.0</ele><time>2026-04-24T15:56:04.071Z</time></trkpt><trkpt lat="43.4057256" lon="12.0241612"><ele>940.0</ele><time>2026-04-24T15:56:06.073Z</time></trkpt><trkpt lat="43.4057569" lon="12.0240099"><ele>940.2</ele><time>2026-04-24T15:56:07.063Z</time></trkpt><trkpt lat="43.4057731" lon="12.0238626"><ele>940.4</ele><time>2026-04-24T15:56:08.065Z</time></trkpt><trkpt lat="43.4057645" lon="12.0237047"><ele>940.5999999999999</ele><time>2026-04-24T15:56:09.072Z</time></trkpt><trkpt lat="43.4057364" lon="12.0235523"><ele>940.8</ele><time>2026-04-24T15:56:10.068Z</time></trkpt><trkpt lat="43.405698" lon="12.0234216"><ele>941.0</ele><time>2026-04-24T15:56:11.069Z</time></trkpt><trkpt lat="43.4056524" lon="12.0233283"><ele>941.0</ele><time>2026-04-24T15:56:12.071Z</time></trkpt><trkpt lat="43.4056151" lon="12.0232542"><ele>941.0</ele><time>2026-04-24T15:56:13.072Z</time></trkpt><trkpt lat="43.4057065" lon="12.0234519"><ele>941.0</ele><time>2026-04-24T15:56:28.067Z</time></trkpt><trkpt lat="43.4057731" lon="12.0236461"><ele>941.0</ele><time>2026-04-24T15:56:29.078Z</time></trkpt><trkpt lat="43.4057924" lon="12.0238284"><ele>941.0</ele><time>2026-04-24T15:56:30.064Z</time></trkpt><trkpt lat="43.4057633" lon="12.0239844"><ele>941.0</ele><time>2026-04-24T15:56:31.061Z</time></trkpt><trkpt lat="43.4057126" lon="12.0241755"><ele>941.0</ele><time>2026-04-24T15:56:32.055Z</time></trkpt><trkpt lat="43.4056778" lon="12.0243335"><ele>941.0</ele><time>2026-04-24T15:56:33.055Z</time></trkpt><trkpt lat="43.4056719" lon="12.0244466"><ele>940.75</ele><time>2026-04-24T15:56:34.072Z</time></trkpt><trkpt lat="43.4057597" lon="12.0244145"><ele>940.5</ele><time>2026-04-24T15:56:36.071Z</time></trkpt><trkpt lat="43.4058419" lon="12.0243599"><ele>940.25</ele><time>2026-04-24T15:56:37.062Z</time></trkpt><trkpt lat="43.4059817" lon="12.0242705"><ele>940.0</ele><time>2026-04-24T15:56:38.063Z</time></trkpt><trkpt lat="43.4061412" lon="12.0241802"><ele>940.2</ele><time>2026-04-24T15:56:39.077Z</time></trkpt><trkpt lat="43.4062643" lon="12.0241158"><ele>940.4</ele><time>2026-04-24T15:56:40.076Z</time></trkpt><trkpt lat="43.4063314" lon="12.0240564"><ele>940.5999999999999</ele><time>2026-04-24T15:56:41.067Z</time></trkpt><trkpt lat="43.4064011" lon="12.0239578"><ele>940.8</ele><time>2026-04-24T15:56:43.066Z</time></trkpt><trkpt lat="43.4064815" lon="12.0239119"><ele>941.0</ele><time>2026-04-24T15:56:45.066Z</time></trkpt><trkpt lat="43.4064339" lon="12.0239957"><ele>941.0000000000001</ele><time>2026-04-24T15:56:57.066Z</time></trkpt><trkpt lat="43.406373" lon="12.0240533"><ele>941.0</ele><time>2026-04-24T15:56:58.078Z</time></trkpt><trkpt lat="43.4062996" lon="12.0241181"><ele>941.0</ele><time>2026-04-24T15:56:59.08Z</time></trkpt><trkpt lat="43.4062214" lon="12.0241912"><ele>941.0</ele><time>2026-04-24T15:57:00.075Z</time></trkpt><trkpt lat="43.4061471" lon="12.024269"><ele>941.0000000000001</ele><time>2026-04-24T15:57:01.086Z</time></trkpt><trkpt lat="43.4060732" lon="12.0243202"><ele>941.0</ele><time>2026-04-24T15:57:02.077Z</time></trkpt><trkpt lat="43.4060004" lon="12.0243489"><ele>940.8333333333334</ele><time>2026-04-24T15:57:03.072Z</time></trkpt><trkpt lat="43.4059303" lon="12.024376"><ele>940.6666666666667</ele><time>2026-04-24T15:57:04.074Z</time></trkpt><trkpt lat="43.4058525" lon="12.0244043"><ele>940.5</ele><time>2026-04-24T15:57:05.072Z</time></trkpt><trkpt lat="43.405786" lon="12.0244354"><ele>940.3333333333333</ele><time>2026-04-24T15:57:06.067Z</time></trkpt><trkpt lat="43.4057018" lon="12.0244983"><ele>940.1666666666666</ele><time>2026-04-24T15:57:08.069Z</time></trkpt><trkpt lat="43.405632" lon="12.0244907"><ele>940.0</ele><time>2026-04-24T15:57:12.07Z</time></trkpt><trkpt lat="43.4056767" lon="12.024349"><ele>939.9999999999999</ele><time>2026-04-24T15:57:14.068Z</time></trkpt><trkpt lat="43.4057064" lon="12.0242563"><ele>940.0</ele><time>2026-04-24T15:57:15.074Z</time></trkpt><trkpt lat="43.4057358" lon="12.0241643"><ele>940.0</ele><time>2026-04-24T15:57:16.074Z</time></trkpt><trkpt lat="43.4057487" lon="12.0240741"><ele>940.0</ele><time>2026-04-24T15:57:17.077Z</time></trkpt><trkpt lat="43.4057586" lon="12.0239865"><ele>939.9999999999999</ele><time>2026-04-24T15:57:18.068Z</time></trkpt><trkpt lat="43.40576" lon="12.0238937"><ele>940.0</ele><time>2026-04-24T15:57:19.072Z</time></trkpt><trkpt lat="43.4057583" lon="12.023724"><ele>940.1666666666666</ele><time>2026-04-24T15:57:21.076Z</time></trkpt><trkpt lat="43.405733" lon="12.0235685"><ele>940.3333333333333</ele><time>2026-04-24T15:57:23.072Z</time></trkpt><trkpt lat="43.4056878" lon="12.0234399"><ele>940.5</ele><time>2026-04-24T15:57:25.077Z</time></trkpt><trkpt lat="43.4056553" lon="12.0233649"><ele>940.6666666666667</ele><time>2026-04-24T15:57:26.071Z</time></trkpt><trkpt lat="43.405616" lon="12.0232941"><ele>940.8333333333334</ele><time>2026-04-24T15:57:27.062Z</time></trkpt><trkpt lat="43.405564" lon="12.023182"><ele>941.0</ele><time>2026-04-24T15:57:29.066Z</time></trkpt><trkpt lat="43.4056381" lon="12.0233089"><ele>941.0</ele><time>2026-04-24T15:57:56.073Z</time></trkpt><trkpt lat="43.4057052" lon="12.0234716"><ele>941.0</ele><time>2026-04-24T15:57:57.065Z</time></trkpt><trkpt lat="43.4057614" lon="12.0236596"><ele>941.0</ele><time>2026-04-24T15:57:58.062Z</time></trkpt><trkpt lat="43.4057898" lon="12.0238589"><ele>941.0</ele><time>2026-04-24T15:57:59.066Z</time></trkpt><trkpt lat="43.4057582" lon="12.0240362"><ele>940.8</ele><time>2026-04-24T15:58:00.057Z</time></trkpt><trkpt lat="43.4056968" lon="12.0242191"><ele>940.5999999999999</ele><time>2026-04-24T15:58:01.065Z</time></trkpt><trkpt lat="43.4056527" lon="12.0243909"><ele>940.4</ele><time>2026-04-24T15:58:02.068Z</time></trkpt><trkpt lat="43.4056459" lon="12.0244854"><ele>940.2</ele><time>2026-04-24T15:58:03.064Z</time></trkpt><trkpt lat="43.4057326" lon="12.0244757"><ele>940.0</ele><time>2026-04-24T15:58:05.062Z</time></trkpt><trkpt lat="43.4057952" lon="12.0244233"><ele>940.0</ele><time>2026-04-24T15:58:06.067Z</time></trkpt><trkpt lat="43.4059083" lon="12.0243401"><ele>940.0</ele><time>2026-04-24T15:58:07.064Z</time></trkpt><trkpt lat="43.406057" lon="12.0242468"><ele>940.0</ele><time>2026-04-24T15:58:08.063Z</time></trkpt><trkpt lat="43.4061846" lon="12.0241616"><ele>940.0</ele><time>2026-04-24T15:58:09.062Z</time></trkpt><trkpt lat="43.4062913" lon="12.0240829"><ele>940.1666666666666</ele><time>2026-04-24T15:58:10.077Z</time></trkpt><trkpt lat="43.4063662" lon="12.0240145"><ele>940.3333333333333</ele><time>2026-04-24T15:58:11.067Z</time></trkpt><trkpt lat="43.4064235" lon="12.0239574"><ele>940.5</ele><time>2026-04-24T15:58:12.075Z</time></trkpt><trkpt lat="43.4064838" lon="12.0239154"><ele>940.6666666666667</ele><time>2026-04-24T15:58:14.077Z</time></trkpt><trkpt lat="43.4064174" lon="12.0239751"><ele>940.8333333333334</ele><time>2026-04-24T15:58:28.079Z</time></trkpt><trkpt lat="43.4063487" lon="12.0240473"><ele>941.0</ele><time>2026-04-24T15:58:29.076Z</time></trkpt><trkpt lat="43.4062698" lon="12.0241282"><ele>940.8</ele><time>2026-04-24T15:58:30.077Z</time></trkpt><trkpt lat="43.4061921" lon="12.0241944"><ele>940.5999999999999</ele><time>2026-04-24T15:58:31.07Z</time></trkpt><trkpt lat="43.4061096" lon="12.0242585"><ele>940.4</ele><time>2026-04-24T15:58:32.072Z</time></trkpt><trkpt lat="43.4060198" lon="12.0243095"><ele>940.2</ele><time>2026-04-24T15:58:33.079Z</time></trkpt><trkpt lat="43.4059416" lon="12.0243604"><ele>940.0</ele><time>2026-04-24T15:58:34.074Z</time></trkpt><trkpt lat="43.4058613" lon="12.0244053"><ele>939.9999999999999</ele><time>2026-04-24T15:58:35.067Z</time></trkpt><trkpt lat="43.4057939" lon="12.0244366"><ele>940.0</ele><time>2026-04-24T15:58:36.066Z</time></trkpt><trkpt lat="43.4057286" lon="12.0244834"><ele>940.0</ele><time>2026-04-24T15:58:37.071Z</time></trkpt><trkpt lat="43.4056523" lon="12.0245272"><ele>940.0</ele><time>2026-04-24T15:58:39.07Z</time></trkpt><trkpt lat="43.405638" lon="12.02444"><ele>939.9999999999999</ele><time>2026-04-24T15:58:42.063Z</time></trkpt><trkpt lat="43.4056865" lon="12.024291"><ele>940.0</ele><time>2026-04-24T15:58:44.065Z</time></trkpt><trkpt lat="43.4057253" lon="12.0241838"><ele>940.2</ele><time>2026-04-24T15:58:45.066Z</time></trkpt><trkpt lat="43.4057616" lon="12.0240431"><ele>940.4</ele><time>2026-04-24T15:58:46.061Z</time></trkpt><trkpt lat="43.4057829" lon="12.0238966"><ele>940.5999999999999</ele><time>2026-04-24T15:58:47.064Z</time></trkpt><trkpt lat="43.4057751" lon="12.023757"><ele>940.8</ele><time>2026-04-24T15:58:48.072Z</time></trkpt><trkpt lat="43.4057444" lon="12.0236287"><ele>941.0</ele><time>2026-04-24T15:58:49.059Z</time></trkpt><trkpt lat="43.4057063" lon="12.0235157"><ele>941.0</ele><time>2026-04-24T15:58:50.077Z</time></trkpt><trkpt lat="43.4056518" lon="12.0233998"><ele>940.9999999999999</ele><time>2026-04-24T15:58:51.063Z</time></trkpt><trkpt lat="43.4055966" lon="12.0232679"><ele>940.9999999999999</ele><time>2026-04-24T15:58:52.072Z</time></trkpt><trkpt lat="43.4055505" lon="12.0231402"><ele>941.0</ele><time>2026-04-24T15:58:53.067Z</time></trkpt><trkpt lat="43.4055222" lon="12.0230504"><ele>941.0</ele><time>2026-04-24T15:58:54.069Z</time></trkpt><trkpt lat="43.4054998" lon="12.0229634"><ele>941.0</ele><time>2026-04-24T15:58:56.05Z</time></trkpt><trkpt lat="43.4055492" lon="12.0230517"><ele>941.0</ele><time>2026-04-24T15:59:04.069Z</time></trkpt><trkpt lat="43.4056153" lon="12.0231396"><ele>941.0</ele><time>2026-04-24T15:59:05.063Z</time></trkpt><trkpt lat="43.4056928" lon="12.0232717"><ele>941.0</ele><time>2026-04-24T15:59:06.066Z</time></trkpt><trkpt lat="43.4057727" lon="12.0234522"><ele>941.0</ele><time>2026-04-24T15:59:07.062Z</time></trkpt><trkpt lat="43.4058209" lon="12.0236574"><ele>941.0</ele><time>2026-04-24T15:59:08.064Z</time></trkpt><trkpt lat="43.4058283" lon="12.0238506"><ele>941.0</ele><time>2026-04-24T15:59:09.064Z</time></trkpt><trkpt lat="43.405795" lon="12.0240357"><ele>941.0</ele><time>2026-04-24T15:59:10.052Z</time></trkpt><trkpt lat="43.4057363" lon="12.0242268"><ele>940.75</ele><time>2026-04-24T15:59:11.059Z</time></trkpt><trkpt lat="43.4056845" lon="12.0243754"><ele>940.5</ele><time>2026-04-24T15:59:12.067Z</time></trkpt><trkpt lat="43.4057523" lon="12.0244148"><ele>940.25</ele><time>2026-04-24T15:59:15.074Z</time></trkpt><trkpt lat="43.4058473" lon="12.0243637"><ele>940.0</ele><time>2026-04-24T15:59:16.068Z</time></trkpt><trkpt lat="43.4059887" lon="12.0242724"><ele>940.0</ele><time>2026-04-24T15:59:17.065Z</time></trkpt><trkpt lat="43.4061425" lon="12.0241855"><ele>940.0</ele><time>2026-04-24T15:59:18.068Z</time></trkpt><trkpt lat="43.4062717" lon="12.0240983"><ele>940.0</ele><time>2026-04-24T15:59:19.072Z</time></trkpt><trkpt lat="43.4063929" lon="12.0239954"><ele>939.0</ele><time>2026-04-24T15:59:20.079Z</time></trkpt><trkpt lat="43.4065132" lon="12.023902"><ele>938.0</ele><time>2026-04-24T15:59:21.076Z</time></trkpt><trkpt lat="43.4066198" lon="12.0237945"><ele>937.0</ele><time>2026-04-24T15:59:22.071Z</time></trkpt><trkpt lat="43.4067012" lon="12.0237184"><ele>936.0</ele><time>2026-04-24T15:59:23.07Z</time></trkpt><trkpt lat="43.4067535" lon="12.0236687"><ele>935.0</ele><time>2026-04-24T15:59:24.08Z</time></trkpt><trkpt lat="43.4068565" lon="12.0236022"><ele>935.0</ele><time>2026-04-24T15:59:26.078Z</time></trkpt><trkpt lat="43.4069636" lon="12.0236105"><ele>935.0</ele><time>2026-04-24T15:59:28.073Z</time></trkpt><trkpt lat="43.406882" lon="12.0236083"><ele>935.0</ele><time>2026-04-24T15:59:33.086Z</time></trkpt><trkpt lat="43.4068045" lon="12.0236566"><ele>935.0</ele><time>2026-04-24T15:59:34.073Z</time></trkpt><trkpt lat="43.4067084" lon="12.0237149"><ele>935.0</ele><time>2026-04-24T15:59:35.063Z</time></trkpt><trkpt lat="43.4066152" lon="12.0237732"><ele>935.0</ele><time>2026-04-24T15:59:36.076Z</time></trkpt><trkpt lat="43.40653" lon="12.0238453"><ele>935.0</ele><time>2026-04-24T15:59:37.079Z</time></trkpt><trkpt lat="43.4064446" lon="12.0239269"><ele>935.0</ele><time>2026-04-24T15:59:38.061Z</time></trkpt><trkpt lat="43.4063611" lon="12.0240078"><ele>935.0</ele><time>2026-04-24T15:59:39.095Z</time></trkpt><trkpt lat="43.406278" lon="12.024095"><ele>935.0</ele><time>2026-04-24T15:59:40.071Z</time></trkpt><trkpt lat="43.4061926" lon="12.0241765"><ele>936.0</ele><time>2026-04-24T15:59:41.074Z</time></trkpt><trkpt lat="43.4061045" lon="12.0242584"><ele>937.0</ele><time>2026-04-24T15:59:42.07Z</time></trkpt><trkpt lat="43.4060258" lon="12.0243104"><ele>938.0</ele><time>2026-04-24T15:59:43.078Z</time></trkpt><trkpt lat="43.4059374" lon="12.0243517"><ele>939.0</ele><time>2026-04-24T15:59:44.067Z</time></trkpt><trkpt lat="43.4058523" lon="12.0243899"><ele>940.0</ele><time>2026-04-24T15:59:45.073Z</time></trkpt><trkpt lat="43.4057741" lon="12.0244332"><ele>939.9999999999999</ele><time>2026-04-24T15:59:46.066Z</time></trkpt><trkpt lat="43.4057012" lon="12.0244624"><ele>940.0</ele><time>2026-04-24T15:59:47.073Z</time></trkpt><trkpt lat="43.4056135" lon="12.0244607"><ele>940.0</ele><time>2026-04-24T15:59:49.07Z</time></trkpt><trkpt lat="43.405607" lon="12.0243501"><ele>940.0</ele><time>2026-04-24T15:59:52.062Z</time></trkpt><trkpt lat="43.4056481" lon="12.0242772"><ele>939.9999999999999</ele><time>2026-04-24T15:59:53.075Z</time></trkpt><trkpt lat="43.405679" lon="12.0241903"><ele>940.0</ele><time>2026-04-24T15:59:54.066Z</time></trkpt><trkpt lat="43.4057204" lon="12.0240877"><ele>940.1666666666666</ele><time>2026-04-24T15:59:55.071Z</time></trkpt><trkpt lat="43.4057611" lon="12.0239921"><ele>940.3333333333333</ele><time>2026-04-24T15:59:56.071Z</time></trkpt><trkpt lat="43.405788" lon="12.0238942"><ele>940.5</ele><time>2026-04-24T15:59:57.079Z</time></trkpt><trkpt lat="43.4057973" lon="12.0237803"><ele>940.6666666666667</ele><time>2026-04-24T15:59:58.076Z</time></trkpt><trkpt lat="43.4057871" lon="12.0236761"><ele>940.8333333333334</ele><time>2026-04-24T15:59:59.079Z</time></trkpt><trkpt lat="43.4057637" lon="12.0235831"><ele>941.0</ele><time>2026-04-24T16:00:00.075Z</time></trkpt><trkpt lat="43.405734" lon="12.023497"><ele>941.0</ele><time>2026-04-24T16:00:01.067Z</time></trkpt><trkpt lat="43.4056581" lon="12.0233535"><ele>940.9999999999999</ele><time>2026-04-24T16:00:03.072Z</time></trkpt><trkpt lat="43.4056292" lon="12.0232695"><ele>940.9999999999999</ele><time>2026-04-24T16:00:04.065Z</time></trkpt><trkpt lat="43.4055743" lon="12.0231363"><ele>941.0</ele><time>2026-04-24T16:00:06.076Z</time></trkpt><trkpt lat="43.4056593" lon="12.0232662"><ele>941.0</ele><time>2026-04-24T16:00:16.065Z</time></trkpt><trkpt lat="43.4057335" lon="12.0234376"><ele>941.0</ele><time>2026-04-24T16:00:17.058Z</time></trkpt><trkpt lat="43.4057935" lon="12.0236519"><ele>941.0</ele><time>2026-04-24T16:00:18.076Z</time></trkpt><trkpt lat="43.4058105" lon="12.0238851"><ele>941.0</ele><time>2026-04-24T16:00:19.063Z</time></trkpt><trkpt lat="43.4057784" lon="12.0241076"><ele>940.75</ele><time>2026-04-24T16:00:20.066Z</time></trkpt><trkpt lat="43.4057196" lon="12.0243133"><ele>940.5</ele><time>2026-04-24T16:00:21.068Z</time></trkpt><trkpt lat="43.4056678" lon="12.024467"><ele>940.25</ele><time>2026-04-24T16:00:22.075Z</time></trkpt><trkpt lat="43.4057466" lon="12.0244798"><ele>940.0</ele><time>2026-04-24T16:00:25.086Z</time></trkpt><trkpt lat="43.4058117" lon="12.0243988"><ele>940.0</ele><time>2026-04-24T16:00:26.072Z</time></trkpt><trkpt lat="43.4058972" lon="12.0242948"><ele>940.0</ele><time>2026-04-24T16:00:27.07Z</time></trkpt><trkpt lat="43.4060442" lon="12.0242052"><ele>940.0</ele><time>2026-04-24T16:00:28.064Z</time></trkpt><trkpt lat="43.4061823" lon="12.024117"><ele>940.0</ele><time>2026-04-24T16:00:29.079Z</time></trkpt><trkpt lat="43.4062928" lon="12.0240461"><ele>940.1666666666666</ele><time>2026-04-24T16:00:30.08Z</time></trkpt><trkpt lat="43.4063768" lon="12.0239747"><ele>940.3333333333333</ele><time>2026-04-24T16:00:31.069Z</time></trkpt><trkpt lat="43.4064314" lon="12.0239181"><ele>940.5</ele><time>2026-04-24T16:00:32.064Z</time></trkpt><trkpt lat="43.4064936" lon="12.0238735"><ele>940.6666666666667</ele><time>2026-04-24T16:00:34.066Z</time></trkpt><trkpt lat="43.4064024" lon="12.0240013"><ele>940.8333333333334</ele><time>2026-04-24T16:00:49.062Z</time></trkpt><trkpt lat="43.4063436" lon="12.024047"><ele>941.0</ele><time>2026-04-24T16:00:50.075Z</time></trkpt><trkpt lat="43.4062374" lon="12.0241408"><ele>940.8</ele><time>2026-04-24T16:00:52.072Z</time></trkpt><trkpt lat="43.406176" lon="12.0241952"><ele>940.5999999999999</ele><time>2026-04-24T16:00:53.07Z</time></trkpt><trkpt lat="43.4061203" lon="12.0242423"><ele>940.4</ele><time>2026-04-24T16:00:54.069Z</time></trkpt><trkpt lat="43.4060135" lon="12.0243171"><ele>940.2</ele><time>2026-04-24T16:00:56.073Z</time></trkpt><trkpt lat="43.4058978" lon="12.0243769"><ele>940.0</ele><time>2026-04-24T16:00:58.083Z</time></trkpt><trkpt lat="43.4058298" lon="12.0244019"><ele>939.9999999999999</ele><time>2026-04-24T16:00:59.079Z</time></trkpt><trkpt lat="43.4057695" lon="12.0244301"><ele>940.0</ele><time>2026-04-24T16:01:00.08Z</time></trkpt><trkpt lat="43.4056756" lon="12.024454"><ele>940.0</ele><time>2026-04-24T16:01:02.072Z</time></trkpt><trkpt lat="43.4056462" lon="12.0243356"><ele>940.0</ele><time>2026-04-24T16:01:05.077Z</time></trkpt><trkpt lat="43.4056663" lon="12.0242506"><ele>939.9999999999999</ele><time>2026-04-24T16:01:06.075Z</time></trkpt><trkpt lat="43.4057095" lon="12.0241521"><ele>940.0</ele><time>2026-04-24T16:01:07.075Z</time></trkpt><trkpt lat="43.4057432" lon="12.0240244"><ele>940.1666666666666</ele><time>2026-04-24T16:01:08.077Z</time></trkpt><trkpt lat="43.4057522" lon="12.0238898"><ele>940.3333333333333</ele><time>2026-04-24T16:01:09.08Z</time></trkpt><trkpt lat="43.4057479" lon="12.0237763"><ele>940.5</ele><time>2026-04-24T16:01:10.079Z</time></trkpt><trkpt lat="43.405736" lon="12.0236697"><ele>940.6666666666667</ele><time>2026-04-24T16:01:11.088Z</time></trkpt><trkpt lat="43.4057098" lon="12.0235472"><ele>940.8333333333334</ele><time>2026-04-24T16:01:12.072Z</time></trkpt><trkpt lat="43.4056761" lon="12.0234249"><ele>941.0</ele><time>2026-04-24T16:01:13.073Z</time></trkpt><trkpt lat="43.4056463" lon="12.0232913"><ele>941.0</ele><time>2026-04-24T16:01:14.074Z</time></trkpt><trkpt lat="43.4056129" lon="12.0231835"><ele>940.9999999999999</ele><time>2026-04-24T16:01:15.073Z</time></trkpt><trkpt lat="43.4055601" lon="12.0230847"><ele>940.9999999999999</ele><time>2026-04-24T16:01:17.067Z</time></trkpt><trkpt lat="43.4056189" lon="12.0232041"><ele>941.0</ele><time>2026-04-24T16:01:35.078Z</time></trkpt><trkpt lat="43.405671" lon="12.0233248"><ele>941.0</ele><time>2026-04-24T16:01:36.073Z</time></trkpt><trkpt lat="43.4057396" lon="12.0234985"><ele>941.0</ele><time>2026-04-24T16:01:37.077Z</time></trkpt><trkpt lat="43.4058062" lon="12.023691"><ele>941.0</ele><time>2026-04-24T16:01:38.075Z</time></trkpt><trkpt lat="43.4058262" lon="12.0238714"><ele>941.0</ele><time>2026-04-24T16:01:39.068Z</time></trkpt><trkpt lat="43.4058074" lon="12.0240562"><ele>941.0</ele><time>2026-04-24T16:01:40.08Z</time></trkpt><trkpt lat="43.40578" lon="12.0242465"><ele>940.8</ele><time>2026-04-24T16:01:41.078Z</time></trkpt><trkpt lat="43.4057269" lon="12.0244161"><ele>940.5999999999999</ele><time>2026-04-24T16:01:42.08Z</time></trkpt><trkpt lat="43.4056831" lon="12.024524"><ele>940.4</ele><time>2026-04-24T16:01:43.064Z</time></trkpt><trkpt lat="43.4057619" lon="12.0244725"><ele>940.2</ele><time>2026-04-24T16:01:45.065Z</time></trkpt><trkpt lat="43.4058499" lon="12.0243786"><ele>940.0</ele><time>2026-04-24T16:01:46.068Z</time></trkpt><trkpt lat="43.4059761" lon="12.0242932"><ele>940.0</ele><time>2026-04-24T16:01:47.069Z</time></trkpt><trkpt lat="43.4061333" lon="12.0242126"><ele>940.0</ele><time>2026-04-24T16:01:48.07Z</time></trkpt><trkpt lat="43.4062568" lon="12.0241237"><ele>940.0</ele><time>2026-04-24T16:01:49.087Z</time></trkpt><trkpt lat="43.4063741" lon="12.0240393"><ele>940.0</ele><time>2026-04-24T16:01:50.083Z</time></trkpt><trkpt lat="43.4064586" lon="12.0239649"><ele>939.0</ele><time>2026-04-24T16:01:51.093Z</time></trkpt><trkpt lat="43.4065404" lon="12.0238956"><ele>938.0</ele><time>2026-04-24T16:01:53.08Z</time></trkpt><trkpt lat="43.4066339" lon="12.0237778"><ele>937.0</ele><time>2026-04-24T16:01:55.087Z</time></trkpt><trkpt lat="43.4066944" lon="12.0237356"><ele>936.0</ele><time>2026-04-24T16:01:56.086Z</time></trkpt><trkpt lat="43.4067594" lon="12.0236937"><ele>935.0</ele><time>2026-04-24T16:01:57.089Z</time></trkpt><trkpt lat="43.4068738" lon="12.0236228"><ele>935.0000000000001</ele><time>2026-04-24T16:01:59.098Z</time></trkpt><trkpt lat="43.406937" lon="12.0236145"><ele>935.0</ele><time>2026-04-24T16:02:00.091Z</time></trkpt><trkpt lat="43.4070094" lon="12.0236168"><ele>935.0</ele><time>2026-04-24T16:02:02.093Z</time></trkpt><trkpt lat="43.4069464" lon="12.0236198"><ele>935.0</ele><time>2026-04-24T16:02:05.09Z</time></trkpt><trkpt lat="43.4068602" lon="12.0236437"><ele>935.0000000000001</ele><time>2026-04-24T16:02:06.097Z</time></trkpt><trkpt lat="43.4067769" lon="12.0236938"><ele>935.0</ele><time>2026-04-24T16:02:07.08Z</time></trkpt><trkpt lat="43.4066886" lon="12.0237638"><ele>935.0</ele><time>2026-04-24T16:02:08.077Z</time></trkpt><trkpt lat="43.4065798" lon="12.0238462"><ele>935.0</ele><time>2026-04-24T16:02:09.08Z</time></trkpt><trkpt lat="43.4064689" lon="12.0239512"><ele>935.0</ele><time>2026-04-24T16:02:10.078Z</time></trkpt><trkpt lat="43.4063616" lon="12.024066"><ele>935.0</ele><time>2026-04-24T16:02:11.075Z</time></trkpt><trkpt lat="43.4062676" lon="12.0241587"><ele>936.0</ele><time>2026-04-24T16:02:12.071Z</time></trkpt><trkpt lat="43.4061752" lon="12.0242195"><ele>937.0</ele><time>2026-04-24T16:02:13.073Z</time></trkpt><trkpt lat="43.4060858" lon="12.0242729"><ele>938.0</ele><time>2026-04-24T16:02:14.068Z</time></trkpt><trkpt lat="43.4059989" lon="12.0243146"><ele>939.0</ele><time>2026-04-24T16:02:15.079Z</time></trkpt><trkpt lat="43.4059174" lon="12.0243568"><ele>940.0</ele><time>2026-04-24T16:02:16.069Z</time></trkpt><trkpt lat="43.4058274" lon="12.0244002"><ele>940.0</ele><time>2026-04-24T16:02:17.07Z</time></trkpt><trkpt lat="43.4057404" lon="12.0244459"><ele>940.0</ele><time>2026-04-24T16:02:18.077Z</time></trkpt><trkpt lat="43.4056778" lon="12.0245019"><ele>940.0</ele><time>2026-04-24T16:02:19.072Z</time></trkpt><trkpt lat="43.4056076" lon="12.0245332"><ele>940.0</ele><time>2026-04-24T16:02:21.067Z</time></trkpt><trkpt lat="43.4055914" lon="12.024417"><ele>940.0</ele><time>2026-04-24T16:02:35.073Z</time></trkpt><trkpt lat="43.4056745" lon="12.0242351"><ele>940.25</ele><time>2026-04-24T16:02:37.075Z</time></trkpt><trkpt lat="43.4057276" lon="12.0241048"><ele>940.5</ele><time>2026-04-24T16:02:38.071Z</time></trkpt><trkpt lat="43.405766" lon="12.0239504"><ele>940.75</ele><time>2026-04-24T16:02:39.081Z</time></trkpt><trkpt lat="43.4057831" lon="12.0237831"><ele>941.0</ele><time>2026-04-24T16:02:40.084Z</time></trkpt><trkpt lat="43.4057652" lon="12.0236326"><ele>941.0</ele><time>2026-04-24T16:02:41.078Z</time></trkpt><trkpt lat="43.4057248" lon="12.0234891"><ele>940.9999999999999</ele><time>2026-04-24T16:02:42.084Z</time></trkpt><trkpt lat="43.4056732" lon="12.0233623"><ele>940.9999999999999</ele><time>2026-04-24T16:02:43.082Z</time></trkpt><trkpt lat="43.405622" lon="12.0232514"><ele>941.0</ele><time>2026-04-24T16:02:44.063Z</time></trkpt><trkpt lat="43.405578" lon="12.0231675"><ele>941.0</ele><time>2026-04-24T16:02:45.074Z</time></trkpt><trkpt lat="43.4055243" lon="12.0230751"><ele>941.0</ele><time>2026-04-24T16:02:47.083Z</time></trkpt><trkpt lat="43.4055963" lon="12.0231557"><ele>940.9999999999999</ele><time>2026-04-24T16:02:51.066Z</time></trkpt><trkpt lat="43.4056466" lon="12.0232525"><ele>940.9999999999999</ele><time>2026-04-24T16:02:52.077Z</time></trkpt><trkpt lat="43.4056939" lon="12.0233932"><ele>941.0</ele><time>2026-04-24T16:02:53.064Z</time></trkpt><trkpt lat="43.4057497" lon="12.0235245"><ele>941.0</ele><time>2026-04-24T16:02:54.084Z</time></trkpt><trkpt lat="43.4058033" lon="12.0236687"><ele>941.0</ele><time>2026-04-24T16:02:55.076Z</time></trkpt><trkpt lat="43.4058373" lon="12.0238134"><ele>941.0</ele><time>2026-04-24T16:02:56.077Z</time></trkpt><trkpt lat="43.4058195" lon="12.0239803"><ele>941.0</ele><time>2026-04-24T16:02:57.079Z</time></trkpt><trkpt lat="43.4057892" lon="12.0241356"><ele>941.0</ele><time>2026-04-24T16:02:58.078Z</time></trkpt><trkpt lat="43.4057497" lon="12.0242636"><ele>940.8</ele><time>2026-04-24T16:02:59.073Z</time></trkpt><trkpt lat="43.4057069" lon="12.0243465"><ele>940.5999999999999</ele><time>2026-04-24T16:03:00.075Z</time></trkpt><trkpt lat="43.4056424" lon="12.0244123"><ele>940.4</ele><time>2026-04-24T16:03:01.078Z</time></trkpt><trkpt lat="43.4055622" lon="12.0244659"><ele>940.2</ele><time>2026-04-24T16:03:02.079Z</time></trkpt><trkpt lat="43.4054478" lon="12.0245189"><ele>940.0</ele><time>2026-04-24T16:03:03.059Z</time></trkpt><trkpt lat="43.4053432" lon="12.0245678"><ele>938.4999999999999</ele><time>2026-04-24T16:03:04.067Z</time></trkpt><trkpt lat="43.4052459" lon="12.0245854"><ele>937.0</ele><time>2026-04-24T16:03:05.07Z</time></trkpt><trkpt lat="43.4051938" lon="12.0246367"><ele>935.5</ele><time>2026-04-24T16:03:07.071Z</time></trkpt><trkpt lat="43.4052877" lon="12.0245974"><ele>934.0</ele><time>2026-04-24T16:03:09.069Z</time></trkpt><trkpt lat="43.405346" lon="12.0245524"><ele>932.4999999999999</ele><time>2026-04-24T16:03:10.081Z</time></trkpt><trkpt lat="43.4054121" lon="12.0245254"><ele>931.0</ele><time>2026-04-24T16:03:11.078Z</time></trkpt><trkpt lat="43.4054824" lon="12.0245168"><ele>932.4999999999999</ele><time>2026-04-24T16:03:12.09Z</time></trkpt><trkpt lat="43.4055421" lon="12.0244866"><ele>934.0</ele><time>2026-04-24T16:03:13.065Z</time></trkpt><trkpt lat="43.4056266" lon="12.024392"><ele>935.5</ele><time>2026-04-24T16:03:15.074Z</time></trkpt><trkpt lat="43.4056649" lon="12.0243151"><ele>937.0</ele><time>2026-04-24T16:03:16.067Z</time></trkpt><trkpt lat="43.4057028" lon="12.0242212"><ele>938.4999999999999</ele><time>2026-04-24T16:03:17.063Z</time></trkpt><trkpt lat="43.4057353" lon="12.0241177"><ele>940.0</ele><time>2026-04-24T16:03:18.072Z</time></trkpt><trkpt lat="43.405758" lon="12.0239945"><ele>940.2</ele><time>2026-04-24T16:03:19.081Z</time></trkpt><trkpt lat="43.4057694" lon="12.0238701"><ele>940.4</ele><time>2026-04-24T16:03:20.083Z</time></trkpt><trkpt lat="43.4057678" lon="12.0237387"><ele>940.5999999999999</ele><time>2026-04-24T16:03:21.081Z</time></trkpt><trkpt lat="43.4057422" lon="12.0236212"><ele>940.8</ele><time>2026-04-24T16:03:22.084Z</time></trkpt><trkpt lat="43.4057205" lon="12.0235036"><ele>941.0</ele><time>2026-04-24T16:03:23.077Z</time></trkpt><trkpt lat="43.4056686" lon="12.0233934"><ele>940.4</ele><time>2026-04-24T16:03:24.083Z</time></trkpt><trkpt lat="43.405624" lon="12.0232721"><ele>939.8</ele><time>2026-04-24T16:03:25.07Z</time></trkpt><trkpt lat="43.4055824" lon="12.0231576"><ele>939.1999999999999</ele><time>2026-04-24T16:03:26.078Z</time></trkpt><trkpt lat="43.4055495" lon="12.023077"><ele>938.5999999999999</ele><time>2026-04-24T16:03:27.076Z</time></trkpt><trkpt lat="43.4054953" lon="12.0229563"><ele>938.0</ele><time>2026-04-24T16:03:29.074Z</time></trkpt><trkpt lat="43.4055442" lon="12.0230712"><ele>938.0</ele><time>2026-04-24T16:03:36.088Z</time></trkpt><trkpt lat="43.4055981" lon="12.0231579"><ele>938.0</ele><time>2026-04-24T16:03:37.073Z</time></trkpt><trkpt lat="43.4056716" lon="12.0232884"><ele>938.0</ele><time>2026-04-24T16:03:38.08Z</time></trkpt><trkpt lat="43.4057487" lon="12.0234846"><ele>938.0</ele><time>2026-04-24T16:03:39.076Z</time></trkpt><trkpt lat="43.4058067" lon="12.0236948"><ele>938.5</ele><time>2026-04-24T16:03:40.077Z</time></trkpt><trkpt lat="43.4058152" lon="12.0238915"><ele>939.0</ele><time>2026-04-24T16:03:41.083Z</time></trkpt><trkpt lat="43.405788" lon="12.0240969"><ele>939.5</ele><time>2026-04-24T16:03:42.077Z</time></trkpt><trkpt lat="43.4057366" lon="12.0242842"><ele>940.0</ele><time>2026-04-24T16:03:43.077Z</time></trkpt><trkpt lat="43.4057001" lon="12.0244374"><ele>940.0</ele><time>2026-04-24T16:03:44.069Z</time></trkpt><trkpt lat="43.4057932" lon="12.0244549"><ele>940.0</ele><time>2026-04-24T16:03:47.083Z</time></trkpt><trkpt lat="43.4058849" lon="12.0243646"><ele>940.0</ele><time>2026-04-24T16:03:49.072Z</time></trkpt><trkpt lat="43.4059499" lon="12.0243421"><ele>940.0</ele><time>2026-04-24T16:03:50.073Z</time></trkpt><trkpt lat="43.4060374" lon="12.0242754"><ele>940.0</ele><time>2026-04-24T16:03:52.08Z</time></trkpt><trkpt lat="43.4059616" lon="12.0243252"><ele>939.9999999999999</ele><time>2026-04-24T16:03:57.082Z</time></trkpt><trkpt lat="43.4058911" lon="12.024369"><ele>940.0</ele><time>2026-04-24T16:03:58.08Z</time></trkpt><trkpt lat="43.4058171" lon="12.024408"><ele>940.0</ele><time>2026-04-24T16:03:59.069Z</time></trkpt><trkpt lat="43.4057522" lon="12.0244301"><ele>940.0</ele><time>2026-04-24T16:04:00.066Z</time></trkpt><trkpt lat="43.4056752" lon="12.0244122"><ele>939.9999999999999</ele><time>2026-04-24T16:04:02.07Z</time></trkpt><trkpt lat="43.4056867" lon="12.0243079"><ele>940.0</ele><time>2026-04-24T16:04:04.067Z</time></trkpt><trkpt lat="43.4057447" lon="12.0241325"><ele>940.1666666666666</ele><time>2026-04-24T16:04:06.066Z</time></trkpt><trkpt lat="43.4057787" lon="12.0240244"><ele>940.3333333333333</ele><time>2026-04-24T16:04:07.067Z</time></trkpt><trkpt lat="43.405782" lon="12.023899"><ele>940.5</ele><time>2026-04-24T16:04:08.066Z</time></trkpt><trkpt lat="43.4057719" lon="12.0237882"><ele>940.6666666666667</ele><time>2026-04-24T16:04:09.071Z</time></trkpt><trkpt lat="43.4057379" lon="12.0236649"><ele>940.8333333333334</ele><time>2026-04-24T16:04:10.067Z</time></trkpt><trkpt lat="43.4056979" lon="12.0235507"><ele>941.0</ele><time>2026-04-24T16:04:11.074Z</time></trkpt><trkpt lat="43.4056505" lon="12.0234402"><ele>941.0</ele><time>2026-04-24T16:04:12.067Z</time></trkpt><trkpt lat="43.4056088" lon="12.0233379"><ele>940.9999999999999</ele><time>2026-04-24T16:04:13.075Z</time></trkpt><trkpt lat="43.4055782" lon="12.023245"><ele>940.9999999999999</ele><time>2026-04-24T16:04:14.07Z</time></trkpt><trkpt lat="43.4055409" lon="12.0230886"><ele>941.0</ele><time>2026-04-24T16:04:16.064Z</time></trkpt><trkpt lat="43.4055321" lon="12.022943"><ele>941.0</ele><time>2026-04-24T16:04:18.081Z</time></trkpt><trkpt lat="43.405536" lon="12.0228359"><ele>941.0</ele><time>2026-04-24T16:04:21.073Z</time></trkpt><trkpt lat="43.4055479" lon="12.0229436"><ele>940.9999999999999</ele><time>2026-04-24T16:04:27.087Z</time></trkpt><trkpt lat="43.4055808" lon="12.0230342"><ele>940.9999999999999</ele><time>2026-04-24T16:04:34.068Z</time></trkpt><trkpt lat="43.4056123" lon="12.0231147"><ele>941.0</ele><time>2026-04-24T16:04:35.071Z</time></trkpt><trkpt lat="43.4056837" lon="12.0232821"><ele>941.0</ele><time>2026-04-24T16:04:36.073Z</time></trkpt><trkpt lat="43.4057716" lon="12.0235197"><ele>941.0</ele><time>2026-04-24T16:04:37.068Z</time></trkpt><trkpt lat="43.4058116" lon="12.0237379"><ele>941.0</ele><time>2026-04-24T16:04:38.072Z</time></trkpt><trkpt lat="43.405793" lon="12.0239298"><ele>941.0</ele><time>2026-04-24T16:04:39.087Z</time></trkpt><trkpt lat="43.4057441" lon="12.0241053"><ele>941.0</ele><time>2026-04-24T16:04:40.078Z</time></trkpt><trkpt lat="43.4056976" lon="12.0242824"><ele>940.8</ele><time>2026-04-24T16:04:41.072Z</time></trkpt><trkpt lat="43.4056432" lon="12.0244089"><ele>940.5999999999999</ele><time>2026-04-24T16:04:42.082Z</time></trkpt><trkpt lat="43.4056326" lon="12.0244991"><ele>940.4</ele><time>2026-04-24T16:04:44.079Z</time></trkpt><trkpt lat="43.4057827" lon="12.0244187"><ele>940.2</ele><time>2026-04-24T16:04:46.058Z</time></trkpt><trkpt lat="43.405883" lon="12.0243605"><ele>940.0</ele><time>2026-04-24T16:04:47.064Z</time></trkpt><trkpt lat="43.4059514" lon="12.0242993"><ele>939.9999999999999</ele><time>2026-04-24T16:04:48.067Z</time></trkpt><trkpt lat="43.4060154" lon="12.0242865"><ele>940.0</ele><time>2026-04-24T16:04:49.076Z</time></trkpt><trkpt lat="43.405944" lon="12.02432"><ele>940.0</ele><time>2026-04-24T16:04:55.078Z</time></trkpt><trkpt lat="43.4058761" lon="12.0243756"><ele>940.0</ele><time>2026-04-24T16:04:56.066Z</time></trkpt><trkpt lat="43.4057967" lon="12.0244114"><ele>939.9999999999999</ele><time>2026-04-24T16:04:57.076Z</time></trkpt><trkpt lat="43.4056975" lon="12.024434"><ele>940.0</ele><time>2026-04-24T16:04:59.079Z</time></trkpt><trkpt lat="43.4056811" lon="12.0243113"><ele>940.0</ele><time>2026-04-24T16:05:02.084Z</time></trkpt><trkpt lat="43.4057037" lon="12.0242151"><ele>940.0</ele><time>2026-04-24T16:05:03.069Z</time></trkpt><trkpt lat="43.4057341" lon="12.0241048"><ele>940.0</ele><time>2026-04-24T16:05:04.08Z</time></trkpt><trkpt lat="43.4057694" lon="12.0239708"><ele>940.0</ele><time>2026-04-24T16:05:05.072Z</time></trkpt><trkpt lat="43.4057859" lon="12.0238381"><ele>940.0</ele><time>2026-04-24T16:05:06.075Z</time></trkpt><trkpt lat="43.405782" lon="12.0237055"><ele>940.2</ele><time>2026-04-24T16:05:07.069Z</time></trkpt><trkpt lat="43.4057411" lon="12.0235772"><ele>940.4</ele><time>2026-04-24T16:05:08.071Z</time></trkpt><trkpt lat="43.4057005" lon="12.0234709"><ele>940.5999999999999</ele><time>2026-04-24T16:05:09.057Z</time></trkpt><trkpt lat="43.4056557" lon="12.0233643"><ele>940.8</ele><time>2026-04-24T16:05:10.062Z</time></trkpt><trkpt lat="43.4056159" lon="12.0232629"><ele>941.0</ele><time>2026-04-24T16:05:11.064Z</time></trkpt><trkpt lat="43.4055667" lon="12.0231266"><ele>940.5000000000001</ele><time>2026-04-24T16:05:13.064Z</time></trkpt><trkpt lat="43.4055446" lon="12.0230109"><ele>940.0</ele><time>2026-04-24T16:05:15.064Z</time></trkpt><trkpt lat="43.4055089" lon="12.0229156"><ele>939.5</ele><time>2026-04-24T16:05:17.059Z</time></trkpt><trkpt lat="43.4055135" lon="12.022806"><ele>939.0</ele><time>2026-04-24T16:05:19.064Z</time></trkpt><trkpt lat="43.4055549" lon="12.0228914"><ele>938.5000000000001</ele><time>2026-04-24T16:05:25.069Z</time></trkpt><trkpt lat="43.4055611" lon="12.0229831"><ele>938.0</ele><time>2026-04-24T16:05:27.063Z</time></trkpt><trkpt lat="43.4055834" lon="12.0230879"><ele>938.0</ele><time>2026-04-24T16:05:39.061Z</time></trkpt><trkpt lat="43.4056367" lon="12.0231754"><ele>938.0</ele><time>2026-04-24T16:05:40.062Z</time></trkpt><trkpt lat="43.405697" lon="12.0233249"><ele>938.0</ele><time>2026-04-24T16:05:41.062Z</time></trkpt><trkpt lat="43.4057645" lon="12.0235233"><ele>938.0</ele><time>2026-04-24T16:05:42.067Z</time></trkpt><trkpt lat="43.4058039" lon="12.0237194"><ele>938.5</ele><time>2026-04-24T16:05:43.065Z</time></trkpt><trkpt lat="43.4058154" lon="12.0239167"><ele>939.0</ele><time>2026-04-24T16:05:44.064Z</time></trkpt><trkpt lat="43.405797" lon="12.0241254"><ele>939.5</ele><time>2026-04-24T16:05:45.075Z</time></trkpt><trkpt lat="43.4057441" lon="12.0243156"><ele>940.0</ele><time>2026-04-24T16:05:46.067Z</time></trkpt><trkpt lat="43.4057118" lon="12.0244424"><ele>940.0</ele><time>2026-04-24T16:05:47.056Z</time></trkpt><trkpt lat="43.4058103" lon="12.0243912"><ele>940.0</ele><time>2026-04-24T16:05:50.059Z</time></trkpt><trkpt lat="43.4059245" lon="12.0243154"><ele>940.0</ele><time>2026-04-24T16:05:51.054Z</time></trkpt><trkpt lat="43.4060714" lon="12.0242403"><ele>940.0</ele><time>2026-04-24T16:05:52.06Z</time></trkpt><trkpt lat="43.4062189" lon="12.0241702"><ele>939.0</ele><time>2026-04-24T16:05:53.063Z</time></trkpt><trkpt lat="43.4063351" lon="12.0241071"><ele>938.0</ele><time>2026-04-24T16:05:54.064Z</time></trkpt><trkpt lat="43.4064161" lon="12.0240377"><ele>937.0</ele><time>2026-04-24T16:05:55.076Z</time></trkpt><trkpt lat="43.4064712" lon="12.0239802"><ele>936.0</ele><time>2026-04-24T16:05:56.055Z</time></trkpt><trkpt lat="43.4065464" lon="12.0239399"><ele>935.0</ele><time>2026-04-24T16:05:58.074Z</time></trkpt><trkpt lat="43.4064438" lon="12.0239819"><ele>935.0</ele><time>2026-04-24T16:06:11.062Z</time></trkpt><trkpt lat="43.4063736" lon="12.0240482"><ele>935.0</ele><time>2026-04-24T16:06:12.072Z</time></trkpt><trkpt lat="43.4062865" lon="12.0241298"><ele>935.0</ele><time>2026-04-24T16:06:13.069Z</time></trkpt><trkpt lat="43.4061983" lon="12.0242123"><ele>935.0</ele><time>2026-04-24T16:06:14.069Z</time></trkpt><trkpt lat="43.4061144" lon="12.0242709"><ele>935.0</ele><time>2026-04-24T16:06:15.055Z</time></trkpt><trkpt lat="43.4060358" lon="12.0243193"><ele>935.8333333333334</ele><time>2026-04-24T16:06:16.073Z</time></trkpt><trkpt lat="43.405958" lon="12.0243602"><ele>936.6666666666667</ele><time>2026-04-24T16:06:17.079Z</time></trkpt><trkpt lat="43.4058816" lon="12.024398"><ele>937.5</ele><time>2026-04-24T16:06:18.069Z</time></trkpt><trkpt lat="43.4058054" lon="12.0244257"><ele>938.3333333333333</ele><time>2026-04-24T16:06:19.069Z</time></trkpt><trkpt lat="43.4057239" lon="12.0244564"><ele>939.1666666666666</ele><time>2026-04-24T16:06:21.067Z</time></trkpt><trkpt lat="43.4057207" lon="12.0243406"><ele>940.0</ele><time>2026-04-24T16:06:24.081Z</time></trkpt><trkpt lat="43.4057346" lon="12.0242551"><ele>939.9999999999999</ele><time>2026-04-24T16:06:25.054Z</time></trkpt><trkpt lat="43.4057532" lon="12.0241519"><ele>940.0</ele><time>2026-04-24T16:06:26.067Z</time></trkpt><trkpt lat="43.4057683" lon="12.0240315"><ele>940.0</ele><time>2026-04-24T16:06:27.064Z</time></trkpt><trkpt lat="43.4057792" lon="12.0239013"><ele>940.0</ele><time>2026-04-24T16:06:28.075Z</time></trkpt><trkpt lat="43.4057712" lon="12.0237781"><ele>939.9999999999999</ele><time>2026-04-24T16:06:29.069Z</time></trkpt><trkpt lat="43.405744" lon="12.0236641"><ele>940.0</ele><time>2026-04-24T16:06:30.066Z</time></trkpt><trkpt lat="43.4057156" lon="12.0235436"><ele>940.2</ele><time>2026-04-24T16:06:31.069Z</time></trkpt><trkpt lat="43.4056763" lon="12.0234316"><ele>940.4</ele><time>2026-04-24T16:06:32.075Z</time></trkpt><trkpt lat="43.4056209" lon="12.0233058"><ele>940.5999999999999</ele><time>2026-04-24T16:06:33.058Z</time></trkpt><trkpt lat="43.4055826" lon="12.0232023"><ele>940.8</ele><time>2026-04-24T16:06:34.064Z</time></trkpt><trkpt lat="43.4055306" lon="12.0230808"><ele>941.0</ele><time>2026-04-24T16:06:36.065Z</time></trkpt><trkpt lat="43.405521" lon="12.0229564"><ele>940.5714285714284</ele><time>2026-04-24T16:06:38.063Z</time></trkpt><trkpt lat="43.4054981" lon="12.0228629"><ele>940.1428571428571</ele><time>2026-04-24T16:06:40.058Z</time></trkpt><trkpt lat="43.4055064" lon="12.0227701"><ele>939.7142857142857</ele><time>2026-04-24T16:06:42.063Z</time></trkpt><trkpt lat="43.405531" lon="12.0228591"><ele>939.2857142857142</ele><time>2026-04-24T16:06:46.068Z</time></trkpt><trkpt lat="43.4055604" lon="12.0229583"><ele>938.8571428571429</ele><time>2026-04-24T16:06:48.06Z</time></trkpt><trkpt lat="43.4055867" lon="12.0230538"><ele>938.4285714285714</ele><time>2026-04-24T16:06:51.057Z</time></trkpt><trkpt lat="43.4056215" lon="12.0231304"><ele>938.0</ele><time>2026-04-24T16:07:03.063Z</time></trkpt><trkpt lat="43.4056764" lon="12.0232306"><ele>939.0</ele><time>2026-04-24T16:07:04.058Z</time></trkpt><trkpt lat="43.4057382" lon="12.0233585"><ele>940.0</ele><time>2026-04-24T16:07:05.065Z</time></trkpt><trkpt lat="43.4057987" lon="12.0235658"><ele>941.0</ele><time>2026-04-24T16:07:06.063Z</time></trkpt><trkpt lat="43.405828" lon="12.023809"><ele>941.0</ele><time>2026-04-24T16:07:07.061Z</time></trkpt><trkpt lat="43.4058042" lon="12.0240239"><ele>941.0</ele><time>2026-04-24T16:07:08.061Z</time></trkpt><trkpt lat="43.405744" lon="12.0242285"><ele>941.0</ele><time>2026-04-24T16:07:09.058Z</time></trkpt><trkpt lat="43.4056953" lon="12.0243946"><ele>941.0</ele><time>2026-04-24T16:07:10.055Z</time></trkpt><trkpt lat="43.4057798" lon="12.0244091"><ele>940.6666666666667</ele><time>2026-04-24T16:07:13.06Z</time></trkpt><trkpt lat="43.4059175" lon="12.0243352"><ele>940.3333333333333</ele><time>2026-04-24T16:07:14.063Z</time></trkpt><trkpt lat="43.4060804" lon="12.0242573"><ele>940.0</ele><time>2026-04-24T16:07:15.065Z</time></trkpt><trkpt lat="43.4062285" lon="12.0241604"><ele>939.0</ele><time>2026-04-24T16:07:16.069Z</time></trkpt><trkpt lat="43.4063358" lon="12.0240767"><ele>938.0</ele><time>2026-04-24T16:07:17.065Z</time></trkpt><trkpt lat="43.4064107" lon="12.0240077"><ele>937.0</ele><time>2026-04-24T16:07:18.064Z</time></trkpt><trkpt lat="43.4064697" lon="12.023945"><ele>936.0</ele><time>2026-04-24T16:07:19.067Z</time></trkpt><trkpt lat="43.4065236" lon="12.023898"><ele>935.0</ele><time>2026-04-24T16:07:22.071Z</time></trkpt><trkpt lat="43.4064067" lon="12.0239927"><ele>936.25</ele><time>2026-04-24T16:07:35.072Z</time></trkpt><trkpt lat="43.4063132" lon="12.0241006"><ele>937.5</ele><time>2026-04-24T16:07:36.067Z</time></trkpt><trkpt lat="43.4062056" lon="12.0241966"><ele>938.75</ele><time>2026-04-24T16:07:37.091Z</time></trkpt><trkpt lat="43.4060952" lon="12.0242627"><ele>940.0</ele><time>2026-04-24T16:07:38.066Z</time></trkpt><trkpt lat="43.405985" lon="12.0243147"><ele>939.9999999999999</ele><time>2026-04-24T16:07:39.066Z</time></trkpt><trkpt lat="43.4058907" lon="12.0243562"><ele>940.0</ele><time>2026-04-24T16:07:40.067Z</time></trkpt><trkpt lat="43.405801" lon="12.0244003"><ele>940.0</ele><time>2026-04-24T16:07:41.072Z</time></trkpt><trkpt lat="43.4057266" lon="12.0244293"><ele>940.0</ele><time>2026-04-24T16:07:42.069Z</time></trkpt><trkpt lat="43.405654" lon="12.0244092"><ele>939.9999999999999</ele><time>2026-04-24T16:07:44.067Z</time></trkpt><trkpt lat="43.4056571" lon="12.0243081"><ele>940.0</ele><time>2026-04-24T16:07:46.069Z</time></trkpt><trkpt lat="43.405712" lon="12.0241717"><ele>940.2</ele><time>2026-04-24T16:07:48.076Z</time></trkpt><trkpt lat="43.4057525" lon="12.0240558"><ele>940.4</ele><time>2026-04-24T16:07:49.063Z</time></trkpt><trkpt lat="43.4057831" lon="12.0239279"><ele>940.5999999999999</ele><time>2026-04-24T16:07:50.066Z</time></trkpt><trkpt lat="43.4057933" lon="12.0238127"><ele>940.8</ele><time>2026-04-24T16:07:51.069Z</time></trkpt><trkpt lat="43.405772" lon="12.0236979"><ele>941.0</ele><time>2026-04-24T16:07:52.067Z</time></trkpt><trkpt lat="43.4057356" lon="12.0235725"><ele>941.0000000000001</ele><time>2026-04-24T16:07:53.068Z</time></trkpt><trkpt lat="43.405695" lon="12.023455"><ele>941.0</ele><time>2026-04-24T16:07:54.062Z</time></trkpt><trkpt lat="43.4056484" lon="12.0233599"><ele>941.0</ele><time>2026-04-24T16:07:55.066Z</time></trkpt><trkpt lat="43.4056172" lon="12.0232788"><ele>941.0</ele><time>2026-04-24T16:07:56.07Z</time></trkpt><trkpt lat="43.4055711" lon="12.0231462"><ele>941.0000000000001</ele><time>2026-04-24T16:07:58.053Z</time></trkpt><trkpt lat="43.4056367" lon="12.0231504"><ele>941.0</ele><time>2026-04-24T16:08:20.059Z</time></trkpt><trkpt lat="43.4056987" lon="12.0232977"><ele>941.0</ele><time>2026-04-24T16:08:22.062Z</time></trkpt><trkpt lat="43.4057429" lon="12.0234289"><ele>941.0</ele><time>2026-04-24T16:08:23.053Z</time></trkpt><trkpt lat="43.4057934" lon="12.0235872"><ele>941.0</ele><time>2026-04-24T16:08:24.057Z</time></trkpt><trkpt lat="43.4058114" lon="12.023745"><ele>941.0</ele><time>2026-04-24T16:08:25.061Z</time></trkpt><trkpt lat="43.4057976" lon="12.0239284"><ele>941.0</ele><time>2026-04-24T16:08:26.074Z</time></trkpt><trkpt lat="43.4057481" lon="12.0241355"><ele>941.0</ele><time>2026-04-24T16:08:27.056Z</time></trkpt><trkpt lat="43.4056961" lon="12.0243331"><ele>941.0</ele><time>2026-04-24T16:08:28.062Z</time></trkpt><trkpt lat="43.405666" lon="12.0244629"><ele>941.0</ele><time>2026-04-24T16:08:29.07Z</time></trkpt><trkpt lat="43.4057372" lon="12.024449"><ele>940.8</ele><time>2026-04-24T16:08:31.069Z</time></trkpt><trkpt lat="43.4058027" lon="12.02439"><ele>940.5999999999999</ele><time>2026-04-24T16:08:32.058Z</time></trkpt><trkpt lat="43.4058921" lon="12.0243446"><ele>940.4</ele><time>2026-04-24T16:08:33.058Z</time></trkpt><trkpt lat="43.4059722" lon="12.0242961"><ele>940.2</ele><time>2026-04-24T16:08:34.068Z</time></trkpt><trkpt lat="43.4060571" lon="12.0242529"><ele>940.0</ele><time>2026-04-24T16:08:36.059Z</time></trkpt><trkpt lat="43.4059649" lon="12.0243399"><ele>939.9999999999999</ele><time>2026-04-24T16:08:40.067Z</time></trkpt><trkpt lat="43.4058968" lon="12.0243796"><ele>940.0</ele><time>2026-04-24T16:08:41.057Z</time></trkpt><trkpt lat="43.4058149" lon="12.0244079"><ele>940.0</ele><time>2026-04-24T16:08:42.065Z</time></trkpt><trkpt lat="43.4057516" lon="12.0244246"><ele>940.0</ele><time>2026-04-24T16:08:43.078Z</time></trkpt><trkpt lat="43.4056836" lon="12.0244199"><ele>939.9999999999999</ele><time>2026-04-24T16:08:45.071Z</time></trkpt><trkpt lat="43.4056831" lon="12.024286"><ele>940.0</ele><time>2026-04-24T16:08:48.068Z</time></trkpt><trkpt lat="43.4057048" lon="12.0241957"><ele>940.2</ele><time>2026-04-24T16:08:49.073Z</time></trkpt><trkpt lat="43.4057491" lon="12.0240809"><ele>940.4</ele><time>2026-04-24T16:08:50.056Z</time></trkpt><trkpt lat="43.4057781" lon="12.0239512"><ele>940.5999999999999</ele><time>2026-04-24T16:08:51.075Z</time></trkpt><trkpt lat="43.4057949" lon="12.023821"><ele>940.8</ele><time>2026-04-24T16:08:52.073Z</time></trkpt><trkpt lat="43.4057971" lon="12.023686"><ele>941.0</ele><time>2026-04-24T16:08:53.072Z</time></trkpt><trkpt lat="43.4057649" lon="12.0235805"><ele>941.0000000000001</ele><time>2026-04-24T16:08:54.076Z</time></trkpt><trkpt lat="43.4057225" lon="12.0234802"><ele>941.0</ele><time>2026-04-24T16:08:55.06Z</time></trkpt><trkpt lat="43.4056718" lon="12.0233675"><ele>941.0</ele><time>2026-04-24T16:08:56.059Z</time></trkpt><trkpt lat="43.4056284" lon="12.0232545"><ele>941.0</ele><time>2026-04-24T16:08:57.052Z</time></trkpt><trkpt lat="43.40559" lon="12.0231638"><ele>941.0000000000001</ele><time>2026-04-24T16:08:58.057Z</time></trkpt><trkpt lat="43.4055508" lon="12.0230924"><ele>941.0</ele><time>2026-04-24T16:08:59.066Z</time></trkpt><trkpt lat="43.4055202" lon="12.0230004"><ele>940.5000000000001</ele><time>2026-04-24T16:09:01.064Z</time></trkpt><trkpt lat="43.4055054" lon="12.022881"><ele>940.0</ele><time>2026-04-24T16:09:03.06Z</time></trkpt><trkpt lat="43.405498" lon="12.0227843"><ele>939.5</ele><time>2026-04-24T16:09:05.057Z</time></trkpt><trkpt lat="43.4055087" lon="12.0226954"><ele>939.0</ele><time>2026-04-24T16:09:07.061Z</time></trkpt><trkpt lat="43.4055663" lon="12.0228396"><ele>938.5000000000001</ele><time>2026-04-24T16:09:11.056Z</time></trkpt><trkpt lat="43.4055952" lon="12.0229573"><ele>938.0</ele><time>2026-04-24T16:09:12.056Z</time></trkpt><trkpt lat="43.4056455" lon="12.0231089"><ele>938.0</ele><time>2026-04-24T16:09:13.056Z</time></trkpt><trkpt lat="43.4057181" lon="12.0232987"><ele>938.0</ele><time>2026-04-24T16:09:14.066Z</time></trkpt><trkpt lat="43.4057953" lon="12.0235041"><ele>938.0</ele><time>2026-04-24T16:09:15.061Z</time></trkpt><trkpt lat="43.4058464" lon="12.0237279"><ele>938.6666666666667</ele><time>2026-04-24T16:09:16.082Z</time></trkpt><trkpt lat="43.4058387" lon="12.023909"><ele>939.3333333333333</ele><time>2026-04-24T16:09:17.062Z</time></trkpt><trkpt lat="43.4057908" lon="12.0241357"><ele>940.0</ele><time>2026-04-24T16:09:18.061Z</time></trkpt><trkpt lat="43.4057144" lon="12.0243744"><ele>940.0</ele><time>2026-04-24T16:09:19.067Z</time></trkpt><trkpt lat="43.4056665" lon="12.0245404"><ele>940.0</ele><time>2026-04-24T16:09:20.071Z</time></trkpt><trkpt lat="43.4057351" lon="12.0245145"><ele>940.0</ele><time>2026-04-24T16:09:23.068Z</time></trkpt><trkpt lat="43.4058288" lon="12.0244117"><ele>940.0</ele><time>2026-04-24T16:09:24.059Z</time></trkpt><trkpt lat="43.4059571" lon="12.0242998"><ele>940.0</ele><time>2026-04-24T16:09:25.061Z</time></trkpt><trkpt lat="43.406124" lon="12.0242024"><ele>940.0</ele><time>2026-04-24T16:09:26.061Z</time></trkpt><trkpt lat="43.4062573" lon="12.024102"><ele>940.0</ele><time>2026-04-24T16:09:27.061Z</time></trkpt><trkpt lat="43.4063474" lon="12.0240232"><ele>940.0</ele><time>2026-04-24T16:09:28.051Z</time></trkpt><trkpt lat="43.4064213" lon="12.023966"><ele>940.0</ele><time>2026-04-24T16:09:29.059Z</time></trkpt><trkpt lat="43.4065161" lon="12.023925"><ele>940.0</ele><time>2026-04-24T16:09:31.062Z</time></trkpt><trkpt lat="43.4064372" lon="12.0239766"><ele>940.0</ele><time>2026-04-24T16:09:39.067Z</time></trkpt><trkpt lat="43.4063648" lon="12.0240597"><ele>940.0</ele><time>2026-04-24T16:09:40.066Z</time></trkpt><trkpt lat="43.4062796" lon="12.0241455"><ele>940.0</ele><time>2026-04-24T16:09:41.068Z</time></trkpt><trkpt lat="43.4061879" lon="12.0242232"><ele>940.0</ele><time>2026-04-24T16:09:42.069Z</time></trkpt><trkpt lat="43.4060833" lon="12.0242923"><ele>940.0</ele><time>2026-04-24T16:09:43.061Z</time></trkpt><trkpt lat="43.4059695" lon="12.0243507"><ele>940.0</ele><time>2026-04-24T16:09:44.065Z</time></trkpt><trkpt lat="43.4058537" lon="12.0243931"><ele>940.0</ele><time>2026-04-24T16:09:45.065Z</time></trkpt><trkpt lat="43.4057546" lon="12.0244331"><ele>939.9999999999999</ele><time>2026-04-24T16:09:46.075Z</time></trkpt><trkpt lat="43.4056853" lon="12.0244634"><ele>940.0</ele><time>2026-04-24T16:09:47.064Z</time></trkpt><trkpt lat="43.4056155" lon="12.0245017"><ele>940.0</ele><time>2026-04-24T16:09:49.068Z</time></trkpt><trkpt lat="43.4056233" lon="12.0243871"><ele>940.0</ele><time>2026-04-24T16:13:44.063Z</time></trkpt><trkpt lat="43.4056764" lon="12.0242521"><ele>939.9999999999999</ele><time>2026-04-24T16:13:46.061Z</time></trkpt><trkpt lat="43.4057173" lon="12.0241288"><ele>940.0</ele><time>2026-04-24T16:13:47.059Z</time></trkpt><trkpt lat="43.4057482" lon="12.0239849"><ele>940.2</ele><time>2026-04-24T16:13:48.077Z</time></trkpt><trkpt lat="43.4057643" lon="12.0238395"><ele>940.4</ele><time>2026-04-24T16:13:49.076Z</time></trkpt><trkpt lat="43.4057585" lon="12.0237142"><ele>940.5999999999999</ele><time>2026-04-24T16:13:50.072Z</time></trkpt><trkpt lat="43.4057414" lon="12.0235922"><ele>940.8</ele><time>2026-04-24T16:13:51.065Z</time></trkpt><trkpt lat="43.4057204" lon="12.0234785"><ele>941.0</ele><time>2026-04-24T16:13:52.063Z</time></trkpt><trkpt lat="43.4056924" lon="12.0233695"><ele>940.5000000000001</ele><time>2026-04-24T16:13:53.061Z</time></trkpt><trkpt lat="43.4056532" lon="12.0232673"><ele>940.0</ele><time>2026-04-24T16:13:54.061Z</time></trkpt><trkpt lat="43.4056184" lon="12.0231689"><ele>939.5</ele><time>2026-04-24T16:13:55.071Z</time></trkpt><trkpt lat="43.4055898" lon="12.0230882"><ele>939.0</ele><time>2026-04-24T16:13:56.066Z</time></trkpt><trkpt lat="43.4055534" lon="12.0229622"><ele>938.5000000000001</ele><time>2026-04-24T16:13:58.058Z</time></trkpt><trkpt lat="43.4055327" lon="12.0228756"><ele>938.0</ele><time>2026-04-24T16:14:00.063Z</time></trkpt><trkpt lat="43.4055225" lon="12.0227789"><ele>938.0</ele><time>2026-04-24T16:14:02.06Z</time></trkpt><trkpt lat="43.4055578" lon="12.022889"><ele>938.0</ele><time>2026-04-24T16:14:09.062Z</time></trkpt><trkpt lat="43.4055916" lon="12.023014"><ele>938.0</ele><time>2026-04-24T16:14:10.061Z</time></trkpt><trkpt lat="43.4056514" lon="12.0231901"><ele>938.0</ele><time>2026-04-24T16:14:11.06Z</time></trkpt><trkpt lat="43.4057303" lon="12.0234048"><ele>939.0</ele><time>2026-04-24T16:14:12.061Z</time></trkpt><trkpt lat="43.4057989" lon="12.0236256"><ele>940.0</ele><time>2026-04-24T16:14:13.059Z</time></trkpt><trkpt lat="43.4058327" lon="12.023832"><ele>941.0</ele><time>2026-04-24T16:14:14.056Z</time></trkpt><trkpt lat="43.4058212" lon="12.0240405"><ele>940.75</ele><time>2026-04-24T16:14:15.056Z</time></trkpt><trkpt lat="43.4057776" lon="12.02424"><ele>940.5</ele><time>2026-04-24T16:14:16.063Z</time></trkpt><trkpt lat="43.4057212" lon="12.0244101"><ele>940.25</ele><time>2026-04-24T16:14:17.054Z</time></trkpt><trkpt lat="43.4056605" lon="12.0244973"><ele>940.0</ele><time>2026-04-24T16:14:18.055Z</time></trkpt><trkpt lat="43.4057363" lon="12.0244639"><ele>940.0</ele><time>2026-04-24T16:14:21.063Z</time></trkpt><trkpt lat="43.4056404" lon="12.0245105"><ele>940.0</ele><time>2026-04-24T16:14:27.066Z</time></trkpt><trkpt lat="43.4056409" lon="12.0244133"><ele>940.0</ele><time>2026-04-24T16:14:32.062Z</time></trkpt><trkpt lat="43.4057155" lon="12.02427"><ele>940.0</ele><time>2026-04-24T16:14:34.059Z</time></trkpt><trkpt lat="43.4057564" lon="12.0241684"><ele>940.0</ele><time>2026-04-24T16:14:35.058Z</time></trkpt><trkpt lat="43.4057869" lon="12.0240527"><ele>940.2</ele><time>2026-04-24T16:14:36.07Z</time></trkpt><trkpt lat="43.4057961" lon="12.023898"><ele>940.4</ele><time>2026-04-24T16:14:37.065Z</time></trkpt><trkpt lat="43.4057832" lon="12.0237589"><ele>940.5999999999999</ele><time>2026-04-24T16:14:38.055Z</time></trkpt><trkpt lat="43.4057466" lon="12.0236433"><ele>940.8</ele><time>2026-04-24T16:14:39.058Z</time></trkpt><trkpt lat="43.4057004" lon="12.0235369"><ele>941.0</ele><time>2026-04-24T16:14:40.063Z</time></trkpt><trkpt lat="43.4056634" lon="12.0234301"><ele>941.0000000000001</ele><time>2026-04-24T16:14:41.058Z</time></trkpt><trkpt lat="43.4056211" lon="12.0233336"><ele>941.0</ele><time>2026-04-24T16:14:42.055Z</time></trkpt><trkpt lat="43.4055923" lon="12.0232379"><ele>941.0</ele><time>2026-04-24T16:14:43.057Z</time></trkpt><trkpt lat="43.4055639" lon="12.0231588"><ele>941.0</ele><time>2026-04-24T16:14:44.058Z</time></trkpt><trkpt lat="43.4055269" lon="12.0230085"><ele>941.0000000000001</ele><time>2026-04-24T16:14:46.059Z</time></trkpt><trkpt lat="43.4055122" lon="12.0228573"><ele>941.0</ele><time>2026-04-24T16:14:48.066Z</time></trkpt><trkpt lat="43.4055107" lon="12.0227264"><ele>941.0000000000001</ele><time>2026-04-24T16:14:50.063Z</time></trkpt><trkpt lat="43.4055556" lon="12.0227924"><ele>941.0</ele><time>2026-04-24T16:14:55.069Z</time></trkpt><trkpt lat="43.4055782" lon="12.0228806"><ele>941.0</ele><time>2026-04-24T16:14:57.06Z</time></trkpt><trkpt lat="43.4055863" lon="12.0229759"><ele>941.0</ele><time>2026-04-24T16:14:59.058Z</time></trkpt><trkpt lat="43.4056278" lon="12.0230931"><ele>941.0000000000001</ele><time>2026-04-24T16:15:29.061Z</time></trkpt><trkpt lat="43.4056702" lon="12.0232473"><ele>941.0</ele><time>2026-04-24T16:15:30.071Z</time></trkpt><trkpt lat="43.4057361" lon="12.0234504"><ele>941.0</ele><time>2026-04-24T16:15:31.071Z</time></trkpt><trkpt lat="43.4057942" lon="12.0236774"><ele>941.0</ele><time>2026-04-24T16:15:32.062Z</time></trkpt><trkpt lat="43.4058076" lon="12.0238808"><ele>941.0</ele><time>2026-04-24T16:15:33.062Z</time></trkpt><trkpt lat="43.4057853" lon="12.0240819"><ele>940.75</ele><time>2026-04-24T16:15:34.067Z</time></trkpt><trkpt lat="43.4057279" lon="12.0242889"><ele>940.5</ele><time>2026-04-24T16:15:35.064Z</time></trkpt><trkpt lat="43.4056746" lon="12.0245008"><ele>940.25</ele><time>2026-04-24T16:15:36.062Z</time></trkpt><trkpt lat="43.4056344" lon="12.0246211"><ele>940.0</ele><time>2026-04-24T16:15:37.068Z</time></trkpt><trkpt lat="43.4056966" lon="12.0245552"><ele>940.0</ele><time>2026-04-24T16:15:40.073Z</time></trkpt><trkpt lat="43.4057138" lon="12.0244216"><ele>940.0</ele><time>2026-04-24T16:15:43.067Z</time></trkpt><trkpt lat="43.4057312" lon="12.0242882"><ele>940.0</ele><time>2026-04-24T16:15:44.066Z</time></trkpt><trkpt lat="43.4057511" lon="12.0241439"><ele>940.0</ele><time>2026-04-24T16:15:45.058Z</time></trkpt><trkpt lat="43.4057777" lon="12.0240008"><ele>940.0</ele><time>2026-04-24T16:15:46.064Z</time></trkpt><trkpt lat="43.4057891" lon="12.0238614"><ele>940.1666666666666</ele><time>2026-04-24T16:15:47.066Z</time></trkpt><trkpt lat="43.4057816" lon="12.0237318"><ele>940.3333333333333</ele><time>2026-04-24T16:15:48.081Z</time></trkpt><trkpt lat="43.4057536" lon="12.0236211"><ele>940.5</ele><time>2026-04-24T16:15:49.063Z</time></trkpt><trkpt lat="43.4057165" lon="12.0235239"><ele>940.6666666666667</ele><time>2026-04-24T16:15:50.053Z</time></trkpt><trkpt lat="43.4056768" lon="12.0234255"><ele>940.8333333333334</ele><time>2026-04-24T16:15:51.05Z</time></trkpt><trkpt lat="43.4056325" lon="12.0233328"><ele>941.0</ele><time>2026-04-24T16:15:52.057Z</time></trkpt><trkpt lat="43.4055912" lon="12.0232478"><ele>940.5000000000001</ele><time>2026-04-24T16:15:53.057Z</time></trkpt><trkpt lat="43.405552" lon="12.0231655"><ele>940.0</ele><time>2026-04-24T16:15:54.055Z</time></trkpt><trkpt lat="43.4055187" lon="12.0230757"><ele>939.5</ele><time>2026-04-24T16:15:55.059Z</time></trkpt><trkpt lat="43.4055042" lon="12.0229845"><ele>939.0</ele><time>2026-04-24T16:15:56.063Z</time></trkpt><trkpt lat="43.4054971" lon="12.0228911"><ele>938.5000000000001</ele><time>2026-04-24T16:15:57.061Z</time></trkpt><trkpt lat="43.405491" lon="12.0227462"><ele>938.0</ele><time>2026-04-24T16:15:59.06Z</time></trkpt><trkpt lat="43.4055556" lon="12.0228082"><ele>938.0</ele><time>2026-04-24T16:16:07.058Z</time></trkpt><trkpt lat="43.4055479" lon="12.0229175"><ele>938.0</ele><time>2026-04-24T16:16:13.062Z</time></trkpt><trkpt lat="43.4056118" lon="12.0230909"><ele>938.0</ele><time>2026-04-24T16:16:15.066Z</time></trkpt><trkpt lat="43.4056759" lon="12.0232511"><ele>938.0</ele><time>2026-04-24T16:16:16.053Z</time></trkpt><trkpt lat="43.4057669" lon="12.0234839"><ele>938.6666666666667</ele><time>2026-04-24T16:16:17.055Z</time></trkpt><trkpt lat="43.4058325" lon="12.0237169"><ele>939.3333333333333</ele><time>2026-04-24T16:16:18.059Z</time></trkpt><trkpt lat="43.4058336" lon="12.0239472"><ele>940.0</ele><time>2026-04-24T16:16:19.056Z</time></trkpt><trkpt lat="43.4057947" lon="12.0241759"><ele>940.0</ele><time>2026-04-24T16:16:20.069Z</time></trkpt><trkpt lat="43.4057329" lon="12.024378"><ele>940.0</ele><time>2026-04-24T16:16:21.062Z</time></trkpt><trkpt lat="43.4056687" lon="12.0245307"><ele>940.0</ele><time>2026-04-24T16:16:22.07Z</time></trkpt><trkpt lat="43.4056325" lon="12.0246036"><ele>940.0</ele><time>2026-04-24T16:16:23.058Z</time></trkpt><trkpt lat="43.4057339" lon="12.0244692"><ele>940.0</ele><time>2026-04-24T16:16:26.061Z</time></trkpt><trkpt lat="43.4058473" lon="12.0243782"><ele>940.0</ele><time>2026-04-24T16:16:27.063Z</time></trkpt><trkpt lat="43.4060026" lon="12.0242775"><ele>940.0</ele><time>2026-04-24T16:16:28.067Z</time></trkpt><trkpt lat="43.4062149" lon="12.0241707"><ele>940.1666666666666</ele><time>2026-04-24T16:16:29.072Z</time></trkpt><trkpt lat="43.4063137" lon="12.0241118"><ele>940.3333333333333</ele><time>2026-04-24T16:16:30.065Z</time></trkpt><trkpt lat="43.4063831" lon="12.0240507"><ele>940.5</ele><time>2026-04-24T16:16:31.066Z</time></trkpt><trkpt lat="43.4064382" lon="12.0239926"><ele>940.6666666666667</ele><time>2026-04-24T16:16:32.066Z</time></trkpt><trkpt lat="43.4064966" lon="12.0239462"><ele>940.8333333333334</ele><time>2026-04-24T16:16:33.069Z</time></trkpt><trkpt lat="43.4065537" lon="12.0239083"><ele>941.0</ele><time>2026-04-24T16:16:36.073Z</time></trkpt><trkpt lat="43.4064858" lon="12.0239538"><ele>940.8</ele><time>2026-04-24T16:16:43.069Z</time></trkpt><trkpt lat="43.40642" lon="12.0240306"><ele>940.5999999999999</ele><time>2026-04-24T16:16:44.069Z</time></trkpt><trkpt lat="43.4063389" lon="12.0241029"><ele>940.4</ele><time>2026-04-24T16:16:45.069Z</time></trkpt><trkpt lat="43.4062535" lon="12.0241826"><ele>940.2</ele><time>2026-04-24T16:16:46.071Z</time></trkpt><trkpt lat="43.4061808" lon="12.024249"><ele>940.0</ele><time>2026-04-24T16:16:47.065Z</time></trkpt><trkpt lat="43.4061014" lon="12.0242967"><ele>939.9999999999999</ele><time>2026-04-24T16:16:48.066Z</time></trkpt><trkpt lat="43.4060204" lon="12.0243398"><ele>940.0</ele><time>2026-04-24T16:16:49.062Z</time></trkpt><trkpt lat="43.4059325" lon="12.0243758"><ele>940.0</ele><time>2026-04-24T16:16:50.066Z</time></trkpt><trkpt lat="43.4058537" lon="12.0243968"><ele>940.0</ele><time>2026-04-24T16:16:51.064Z</time></trkpt><trkpt lat="43.4057835" lon="12.0244147"><ele>939.9999999999999</ele><time>2026-04-24T16:16:52.071Z</time></trkpt><trkpt lat="43.4057019" lon="12.0244296"><ele>940.0</ele><time>2026-04-24T16:16:54.075Z</time></trkpt><trkpt lat="43.405693" lon="12.0243355"><ele>940.0</ele><time>2026-04-24T16:16:57.078Z</time></trkpt><trkpt lat="43.4057331" lon="12.0241641"><ele>940.0</ele><time>2026-04-24T16:16:59.059Z</time></trkpt><trkpt lat="43.4057455" lon="12.0240624"><ele>940.0</ele><time>2026-04-24T16:17:00.08Z</time></trkpt><trkpt lat="43.4057622" lon="12.0239334"><ele>940.0</ele><time>2026-04-24T16:17:01.068Z</time></trkpt><trkpt lat="43.4057661" lon="12.0238051"><ele>940.0</ele><time>2026-04-24T16:17:02.067Z</time></trkpt><trkpt lat="43.405751" lon="12.0236813"><ele>940.1666666666666</ele><time>2026-04-24T16:17:03.065Z</time></trkpt><trkpt lat="43.405727" lon="12.0235503"><ele>940.3333333333333</ele><time>2026-04-24T16:17:04.074Z</time></trkpt><trkpt lat="43.4056835" lon="12.0234407"><ele>940.5</ele><time>2026-04-24T16:17:05.062Z</time></trkpt><trkpt lat="43.405633" lon="12.0233343"><ele>940.6666666666667</ele><time>2026-04-24T16:17:06.058Z</time></trkpt><trkpt lat="43.4055912" lon="12.0232327"><ele>940.8333333333334</ele><time>2026-04-24T16:17:07.056Z</time></trkpt><trkpt lat="43.4055582" lon="12.023131"><ele>941.0</ele><time>2026-04-24T16:17:08.059Z</time></trkpt><trkpt lat="43.405529" lon="12.0230435"><ele>940.5000000000001</ele><time>2026-04-24T16:17:09.056Z</time></trkpt><trkpt lat="43.405502" lon="12.0229004"><ele>940.0</ele><time>2026-04-24T16:17:11.059Z</time></trkpt><trkpt lat="43.4054869" lon="12.0227554"><ele>939.5</ele><time>2026-04-24T16:17:13.068Z</time></trkpt><trkpt lat="43.4055263" lon="12.022838"><ele>939.0</ele><time>2026-04-24T16:17:20.058Z</time></trkpt><trkpt lat="43.4055282" lon="12.0229367"><ele>938.5000000000001</ele><time>2026-04-24T16:17:22.063Z</time></trkpt><trkpt lat="43.405564" lon="12.023013"><ele>938.0</ele><time>2026-04-24T16:17:42.061Z</time></trkpt><trkpt lat="43.4056641" lon="12.0232166"><ele>939.0</ele><time>2026-04-24T16:17:44.057Z</time></trkpt><trkpt lat="43.4057412" lon="12.0234181"><ele>940.0</ele><time>2026-04-24T16:17:45.047Z</time></trkpt><trkpt lat="43.4058034" lon="12.0236455"><ele>941.0</ele><time>2026-04-24T16:17:46.065Z</time></trkpt><trkpt lat="43.4058235" lon="12.0238476"><ele>941.0</ele><time>2026-04-24T16:17:47.057Z</time></trkpt><trkpt lat="43.4057782" lon="12.024016"><ele>941.0</ele><time>2026-04-24T16:17:48.054Z</time></trkpt><trkpt lat="43.4057118" lon="12.0242057"><ele>941.0</ele><time>2026-04-24T16:17:49.05Z</time></trkpt><trkpt lat="43.4056533" lon="12.0243621"><ele>941.0</ele><time>2026-04-24T16:17:50.06Z</time></trkpt><trkpt lat="43.40562" lon="12.0244794"><ele>941.0000000000001</ele><time>2026-04-24T16:17:51.058Z</time></trkpt><trkpt lat="43.4056901" lon="12.0245223"><ele>941.0</ele><time>2026-04-24T16:17:53.055Z</time></trkpt><trkpt lat="43.4057027" lon="12.0244235"><ele>941.0</ele><time>2026-04-24T16:17:57.057Z</time></trkpt><trkpt lat="43.4057088" lon="12.0242923"><ele>941.0</ele><time>2026-04-24T16:17:59.061Z</time></trkpt><trkpt lat="43.4057383" lon="12.0241795"><ele>941.0000000000001</ele><time>2026-04-24T16:18:00.06Z</time></trkpt><trkpt lat="43.4057646" lon="12.0240336"><ele>941.0</ele><time>2026-04-24T16:18:01.07Z</time></trkpt><trkpt lat="43.40577" lon="12.0238977"><ele>941.0</ele><time>2026-04-24T16:18:02.065Z</time></trkpt><trkpt lat="43.4057561" lon="12.0237616"><ele>940.9999999999999</ele><time>2026-04-24T16:18:03.056Z</time></trkpt><trkpt lat="43.405736" lon="12.0236373"><ele>940.9999999999999</ele><time>2026-04-24T16:18:04.063Z</time></trkpt><trkpt lat="43.4056902" lon="12.0235202"><ele>941.0</ele><time>2026-04-24T16:18:05.058Z</time></trkpt><trkpt lat="43.4056553" lon="12.023401"><ele>941.0</ele><time>2026-04-24T16:18:06.086Z</time></trkpt><trkpt lat="43.4056237" lon="12.0232916"><ele>940.4</ele><time>2026-04-24T16:18:07.056Z</time></trkpt><trkpt lat="43.4055842" lon="12.0232028"><ele>939.8</ele><time>2026-04-24T16:18:08.059Z</time></trkpt><trkpt lat="43.4055443" lon="12.0230662"><ele>939.1999999999999</ele><time>2026-04-24T16:18:10.059Z</time></trkpt><trkpt lat="43.4055246" lon="12.0229383"><ele>938.5999999999999</ele><time>2026-04-24T16:18:12.062Z</time></trkpt><trkpt lat="43.4055002" lon="12.0227869"><ele>938.0</ele><time>2026-04-24T16:18:14.058Z</time></trkpt><trkpt lat="43.4055023" lon="12.0226954"><ele>934.0</ele><time>2026-04-24T16:18:15.055Z</time></trkpt><trkpt lat="43.4054908" lon="12.0225187"><ele>930.0</ele><time>2026-04-24T16:18:17.057Z</time></trkpt><trkpt lat="43.4054891" lon="12.0224272"><ele>926.0</ele><time>2026-04-24T16:18:18.062Z</time></trkpt><trkpt lat="43.4054789" lon="12.0222753"><ele>922.0</ele><time>2026-04-24T16:18:20.054Z</time></trkpt><trkpt lat="43.4054584" lon="12.0221921"><ele>918.0</ele><time>2026-04-24T16:18:23.062Z</time></trkpt><trkpt lat="43.4054877" lon="12.0223013"><ele>918.0</ele><time>2026-04-24T16:18:27.052Z</time></trkpt><trkpt lat="43.4054933" lon="12.0224006"><ele>918.0</ele><time>2026-04-24T16:18:29.059Z</time></trkpt><trkpt lat="43.4054859" lon="12.0225557"><ele>918.0</ele><time>2026-04-24T16:18:31.056Z</time></trkpt><trkpt lat="43.4055036" lon="12.0226766"><ele>918.0</ele><time>2026-04-24T16:18:32.065Z</time></trkpt><trkpt lat="43.4055208" lon="12.0228187"><ele>918.0</ele><time>2026-04-24T16:18:33.071Z</time></trkpt><trkpt lat="43.4055653" lon="12.0229618"><ele>924.6666666666667</ele><time>2026-04-24T16:18:34.061Z</time></trkpt><trkpt lat="43.4056252" lon="12.0231409"><ele>931.3333333333334</ele><time>2026-04-24T16:18:35.046Z</time></trkpt><trkpt lat="43.4056955" lon="12.0233379"><ele>938.0</ele><time>2026-04-24T16:18:36.06Z</time></trkpt><trkpt lat="43.4057747" lon="12.0235692"><ele>938.5</ele><time>2026-04-24T16:18:37.065Z</time></trkpt><trkpt lat="43.4058325" lon="12.0237898"><ele>939.0</ele><time>2026-04-24T16:18:38.067Z</time></trkpt><trkpt lat="43.4058291" lon="12.0239561"><ele>939.5</ele><time>2026-04-24T16:18:39.067Z</time></trkpt><trkpt lat="43.4057921" lon="12.02413"><ele>940.0</ele><time>2026-04-24T16:18:40.068Z</time></trkpt><trkpt lat="43.4057439" lon="12.0242936"><ele>940.0</ele><time>2026-04-24T16:18:41.068Z</time></trkpt><trkpt lat="43.4056865" lon="12.0244311"><ele>940.0</ele><time>2026-04-24T16:18:42.06Z</time></trkpt><trkpt lat="43.4056917" lon="12.024526"><ele>940.0</ele><time>2026-04-24T16:18:44.06Z</time></trkpt><trkpt lat="43.4057552" lon="12.0244882"><ele>940.0</ele><time>2026-04-24T16:18:45.075Z</time></trkpt><trkpt lat="43.4058672" lon="12.0243939"><ele>940.0</ele><time>2026-04-24T16:18:46.061Z</time></trkpt><trkpt lat="43.406012" lon="12.0242973"><ele>940.0</ele><time>2026-04-24T16:18:47.058Z</time></trkpt><trkpt lat="43.4061473" lon="12.0242082"><ele>940.0</ele><time>2026-04-24T16:18:48.084Z</time></trkpt><trkpt lat="43.406269" lon="12.0241351"><ele>940.0</ele><time>2026-04-24T16:18:49.073Z</time></trkpt><trkpt lat="43.4063447" lon="12.0240698"><ele>940.0</ele><time>2026-04-24T16:18:50.067Z</time></trkpt><trkpt lat="43.4064013" lon="12.0240075"><ele>940.0</ele><time>2026-04-24T16:18:51.058Z</time></trkpt><trkpt lat="43.4064557" lon="12.0239528"><ele>940.0</ele><time>2026-04-24T16:18:52.058Z</time></trkpt><trkpt lat="43.4065214" lon="12.0239471"><ele>940.0</ele><time>2026-04-24T16:18:54.061Z</time></trkpt><trkpt lat="43.4064018" lon="12.0240079"><ele>940.0</ele><time>2026-04-24T16:19:05.063Z</time></trkpt><trkpt lat="43.4063295" lon="12.0240841"><ele>940.0</ele><time>2026-04-24T16:19:06.06Z</time></trkpt><trkpt lat="43.4062506" lon="12.0241593"><ele>940.0</ele><time>2026-04-24T16:19:07.062Z</time></trkpt><trkpt lat="43.4061703" lon="12.0242239"><ele>939.9999999999999</ele><time>2026-04-24T16:19:08.055Z</time></trkpt><trkpt lat="43.4060889" lon="12.0242785"><ele>940.0</ele><time>2026-04-24T16:19:09.068Z</time></trkpt><trkpt lat="43.4059994" lon="12.0243171"><ele>940.0</ele><time>2026-04-24T16:19:10.063Z</time></trkpt><trkpt lat="43.4059103" lon="12.0243382"><ele>940.0</ele><time>2026-04-24T16:19:11.062Z</time></trkpt><trkpt lat="43.4058388" lon="12.0243645"><ele>939.9999999999999</ele><time>2026-04-24T16:19:12.06Z</time></trkpt><trkpt lat="43.4057727" lon="12.0243968"><ele>940.0</ele><time>2026-04-24T16:19:13.067Z</time></trkpt><trkpt lat="43.4056817" lon="12.0244024"><ele>939.9999999999999</ele><time>2026-04-24T16:19:15.054Z</time></trkpt><trkpt lat="43.4057071" lon="12.0242729"><ele>940.0</ele><time>2026-04-24T16:19:19.062Z</time></trkpt><trkpt lat="43.4057388" lon="12.024186"><ele>940.0</ele><time>2026-04-24T16:19:20.059Z</time></trkpt><trkpt lat="43.405764" lon="12.024079"><ele>940.0</ele><time>2026-04-24T16:19:21.065Z</time></trkpt><trkpt lat="43.4057808" lon="12.0239574"><ele>939.9999999999999</ele><time>2026-04-24T16:19:22.068Z</time></trkpt><trkpt lat="43.4057802" lon="12.0238482"><ele>940.0</ele><time>2026-04-24T16:19:23.066Z</time></trkpt><trkpt lat="43.4057676" lon="12.0237556"><ele>940.1666666666666</ele><time>2026-04-24T16:19:24.07Z</time></trkpt><trkpt lat="43.4057364" lon="12.023657"><ele>940.3333333333333</ele><time>2026-04-24T16:19:25.052Z</time></trkpt><trkpt lat="43.4057069" lon="12.0235648"><ele>940.5</ele><time>2026-04-24T16:19:26.079Z</time></trkpt><trkpt lat="43.4056769" lon="12.023481"><ele>940.6666666666667</ele><time>2026-04-24T16:19:27.059Z</time></trkpt><trkpt lat="43.4056481" lon="12.0233845"><ele>940.8333333333334</ele><time>2026-04-24T16:19:28.059Z</time></trkpt><trkpt lat="43.4056078" lon="12.0232706"><ele>941.0</ele><time>2026-04-24T16:19:29.058Z</time></trkpt><trkpt lat="43.4055744" lon="12.0231624"><ele>940.4</ele><time>2026-04-24T16:19:30.061Z</time></trkpt><trkpt lat="43.4055451" lon="12.0230832"><ele>939.8</ele><time>2026-04-24T16:19:31.051Z</time></trkpt><trkpt lat="43.4055417" lon="12.0229276"><ele>939.1999999999999</ele><time>2026-04-24T16:19:33.065Z</time></trkpt><trkpt lat="43.4055324" lon="12.0228418"><ele>938.5999999999999</ele><time>2026-04-24T16:19:34.051Z</time></trkpt><trkpt lat="43.4055309" lon="12.022687"><ele>938.0</ele><time>2026-04-24T16:19:36.062Z</time></trkpt><trkpt lat="43.4055444" lon="12.0225307"><ele>938.0000000000001</ele><time>2026-04-24T16:19:38.061Z</time></trkpt><trkpt lat="43.4055051" lon="12.0224091"><ele>938.0</ele><time>2026-04-24T16:19:40.074Z</time></trkpt><trkpt lat="43.4055183" lon="12.0225111"><ele>938.0</ele><time>2026-04-24T16:19:45.051Z</time></trkpt><trkpt lat="43.4055303" lon="12.0226045"><ele>938.0</ele><time>2026-04-24T16:19:47.072Z</time></trkpt><trkpt lat="43.4055276" lon="12.0227313"><ele>938.0000000000001</ele><time>2026-04-24T16:19:49.06Z</time></trkpt><trkpt lat="43.4055435" lon="12.0228595"><ele>938.0</ele><time>2026-04-24T16:19:51.056Z</time></trkpt><trkpt lat="43.4055617" lon="12.0229753"><ele>938.0</ele><time>2026-04-24T16:19:53.057Z</time></trkpt><trkpt lat="43.4056209" lon="12.0231084"><ele>938.0</ele><time>2026-04-24T16:20:19.073Z</time></trkpt><trkpt lat="43.4056818" lon="12.0232764"><ele>938.0</ele><time>2026-04-24T16:20:20.064Z</time></trkpt><trkpt lat="43.4057533" lon="12.0235239"><ele>938.0</ele><time>2026-04-24T16:20:21.062Z</time></trkpt><trkpt lat="43.4057999" lon="12.0237642"><ele>938.5</ele><time>2026-04-24T16:20:22.07Z</time></trkpt><trkpt lat="43.405782" lon="12.023966"><ele>939.0</ele><time>2026-04-24T16:20:23.055Z</time></trkpt><trkpt lat="43.4057339" lon="12.0241553"><ele>939.5</ele><time>2026-04-24T16:20:24.055Z</time></trkpt><trkpt lat="43.4056949" lon="12.0243154"><ele>940.0</ele><time>2026-04-24T16:20:25.063Z</time></trkpt><trkpt lat="43.405671" lon="12.0244276"><ele>940.0</ele><time>2026-04-24T16:20:26.057Z</time></trkpt><trkpt lat="43.4057814" lon="12.0243574"><ele>940.0</ele><time>2026-04-24T16:20:29.058Z</time></trkpt><trkpt lat="43.4058802" lon="12.0242894"><ele>940.0</ele><time>2026-04-24T16:20:30.066Z</time></trkpt><trkpt lat="43.4060247" lon="12.0242075"><ele>940.0</ele><time>2026-04-24T16:20:31.062Z</time></trkpt><trkpt lat="43.406183" lon="12.0241196"><ele>940.2</ele><time>2026-04-24T16:20:32.064Z</time></trkpt><trkpt lat="43.4063152" lon="12.0240519"><ele>940.4</ele><time>2026-04-24T16:20:33.067Z</time></trkpt><trkpt lat="43.4064092" lon="12.0239859"><ele>940.5999999999999</ele><time>2026-04-24T16:20:34.066Z</time></trkpt><trkpt lat="43.4064827" lon="12.0239377"><ele>940.8</ele><time>2026-04-24T16:20:35.062Z</time></trkpt><trkpt lat="43.4065176" lon="12.0238595"><ele>941.0</ele><time>2026-04-24T16:20:38.063Z</time></trkpt><trkpt lat="43.4064051" lon="12.0239716"><ele>941.0</ele><time>2026-04-24T16:20:45.073Z</time></trkpt><trkpt lat="43.4063344" lon="12.0240624"><ele>940.9999999999999</ele><time>2026-04-24T16:20:46.066Z</time></trkpt><trkpt lat="43.4062491" lon="12.0241452"><ele>940.9999999999999</ele><time>2026-04-24T16:20:47.054Z</time></trkpt><trkpt lat="43.4061464" lon="12.0242269"><ele>941.0</ele><time>2026-04-24T16:20:48.066Z</time></trkpt><trkpt lat="43.4060452" lon="12.0243"><ele>941.0</ele><time>2026-04-24T16:20:49.068Z</time></trkpt><trkpt lat="43.4059455" lon="12.0243651"><ele>940.8333333333334</ele><time>2026-04-24T16:20:50.063Z</time></trkpt><trkpt lat="43.4058595" lon="12.0244069"><ele>940.6666666666667</ele><time>2026-04-24T16:20:51.058Z</time></trkpt><trkpt lat="43.4057724" lon="12.0244503"><ele>940.5</ele><time>2026-04-24T16:20:52.063Z</time></trkpt><trkpt lat="43.4056975" lon="12.0244977"><ele>940.3333333333333</ele><time>2026-04-24T16:20:53.066Z</time></trkpt><trkpt lat="43.4056049" lon="12.0245183"><ele>940.1666666666666</ele><time>2026-04-24T16:20:55.064Z</time></trkpt><trkpt lat="43.4055943" lon="12.0244308"><ele>940.0</ele><time>2026-04-24T16:24:20.057Z</time></trkpt><trkpt lat="43.4057447" lon="12.0244022"><ele>940.0</ele><time>2026-04-24T16:24:24.064Z</time></trkpt><trkpt lat="43.405859" lon="12.0243522"><ele>940.0</ele><time>2026-04-24T16:24:25.064Z</time></trkpt><trkpt lat="43.4059639" lon="12.024304"><ele>940.0</ele><time>2026-04-24T16:24:26.064Z</time></trkpt><trkpt lat="43.4060603" lon="12.0242617"><ele>940.0</ele><time>2026-04-24T16:24:27.063Z</time></trkpt><trkpt lat="43.4061422" lon="12.0242132"><ele>940.0</ele><time>2026-04-24T16:24:28.08Z</time></trkpt><trkpt lat="43.406217" lon="12.0241587"><ele>940.2</ele><time>2026-04-24T16:24:29.072Z</time></trkpt><trkpt lat="43.4062931" lon="12.0240873"><ele>940.4</ele><time>2026-04-24T16:24:30.074Z</time></trkpt><trkpt lat="43.4063731" lon="12.0240129"><ele>940.5999999999999</ele><time>2026-04-24T16:24:31.073Z</time></trkpt><trkpt lat="43.4064579" lon="12.0239281"><ele>940.8</ele><time>2026-04-24T16:24:32.058Z</time></trkpt><trkpt lat="43.4065533" lon="12.023833"><ele>941.0</ele><time>2026-04-24T16:24:33.067Z</time></trkpt><trkpt lat="43.4066524" lon="12.0237417"><ele>939.8</ele><time>2026-04-24T16:24:34.062Z</time></trkpt><trkpt lat="43.4067557" lon="12.023659"><ele>938.5999999999999</ele><time>2026-04-24T16:24:35.083Z</time></trkpt><trkpt lat="43.406857" lon="12.0235966"><ele>937.4</ele><time>2026-04-24T16:24:36.068Z</time></trkpt><trkpt lat="43.4069551" lon="12.0235581"><ele>936.2</ele><time>2026-04-24T16:24:37.077Z</time></trkpt><trkpt lat="43.4070569" lon="12.0235394"><ele>935.0</ele><time>2026-04-24T16:24:38.086Z</time></trkpt><trkpt lat="43.4071561" lon="12.0235311"><ele>936.0</ele><time>2026-04-24T16:24:39.088Z</time></trkpt><trkpt lat="43.4072527" lon="12.0235288"><ele>937.0</ele><time>2026-04-24T16:24:40.07Z</time></trkpt><trkpt lat="43.407355" lon="12.0235246"><ele>938.0</ele><time>2026-04-24T16:24:41.079Z</time></trkpt><trkpt lat="43.4074537" lon="12.0235075"><ele>939.0</ele><time>2026-04-24T16:24:42.074Z</time></trkpt><trkpt lat="43.4075568" lon="12.0234653"><ele>940.0</ele><time>2026-04-24T16:24:43.075Z</time></trkpt><trkpt lat="43.4076611" lon="12.0234143"><ele>940.0</ele><time>2026-04-24T16:24:44.077Z</time></trkpt><trkpt lat="43.4077725" lon="12.0233595"><ele>940.0</ele><time>2026-04-24T16:24:45.075Z</time></trkpt><trkpt lat="43.4078831" lon="12.0233056"><ele>940.0</ele><time>2026-04-24T16:24:46.068Z</time></trkpt><trkpt lat="43.4080035" lon="12.0232456"><ele>940.0</ele><time>2026-04-24T16:24:47.085Z</time></trkpt><trkpt lat="43.4081281" lon="12.0231746"><ele>939.0</ele><time>2026-04-24T16:24:48.069Z</time></trkpt><trkpt lat="43.4082557" lon="12.0231063"><ele>938.0</ele><time>2026-04-24T16:24:49.066Z</time></trkpt><trkpt lat="43.4083776" lon="12.0230537"><ele>937.0</ele><time>2026-04-24T16:24:50.077Z</time></trkpt><trkpt lat="43.4084707" lon="12.023005"><ele>936.0</ele><time>2026-04-24T16:24:51.055Z</time></trkpt><trkpt lat="43.4085364" lon="12.0229666"><ele>935.0</ele><time>2026-04-24T16:24:52.07Z</time></trkpt><trkpt lat="43.4086281" lon="12.0229248"><ele>935.0</ele><time>2026-04-24T16:24:55.08Z</time></trkpt><trkpt lat="43.4087221" lon="12.0228981"><ele>935.0</ele><time>2026-04-24T16:24:57.071Z</time></trkpt><trkpt lat="43.40882" lon="12.0228374"><ele>935.0</ele><time>2026-04-24T16:24:59.066Z</time></trkpt><trkpt lat="43.4089421" lon="12.0227337"><ele>935.0</ele><time>2026-04-24T16:25:01.067Z</time></trkpt><trkpt lat="43.4090145" lon="12.0226567"><ele>935.0</ele><time>2026-04-24T16:25:02.065Z</time></trkpt><trkpt lat="43.4090828" lon="12.0225638"><ele>935.0000000000001</ele><time>2026-04-24T16:25:03.066Z</time></trkpt><trkpt lat="43.4091274" lon="12.0224907"><ele>935.0</ele><time>2026-04-24T16:25:04.071Z</time></trkpt><trkpt lat="43.4091869" lon="12.022407"><ele>935.0</ele><time>2026-04-24T16:25:07.062Z</time></trkpt><trkpt lat="43.4092683" lon="12.0222782"><ele>935.0</ele><time>2026-04-24T16:25:09.064Z</time></trkpt><trkpt lat="43.4093236" lon="12.022204"><ele>935.0000000000001</ele><time>2026-04-24T16:25:10.072Z</time></trkpt><trkpt lat="43.409358" lon="12.022116"><ele>935.0</ele><time>2026-04-24T16:25:11.066Z</time></trkpt><trkpt lat="43.4093851" lon="12.0220308"><ele>933.6666666666667</ele><time>2026-04-24T16:25:12.061Z</time></trkpt><trkpt lat="43.409421" lon="12.0219563"><ele>932.3333333333334</ele><time>2026-04-24T16:25:13.064Z</time></trkpt><trkpt lat="43.4095301" lon="12.0218831"><ele>931.0</ele><time>2026-04-24T16:25:15.063Z</time></trkpt><trkpt lat="43.4095933" lon="12.0218719"><ele>929.6666666666667</ele><time>2026-04-24T16:25:16.07Z</time></trkpt><trkpt lat="43.4096662" lon="12.0218861"><ele>928.3333333333334</ele><time>2026-04-24T16:25:17.071Z</time></trkpt><trkpt lat="43.409751" lon="12.0219113"><ele>927.0</ele><time>2026-04-24T16:25:18.077Z</time></trkpt><trkpt lat="43.4098593" lon="12.021931"><ele>925.75</ele><time>2026-04-24T16:25:19.071Z</time></trkpt><trkpt lat="43.4099808" lon="12.0219407"><ele>924.5</ele><time>2026-04-24T16:25:20.074Z</time></trkpt><trkpt lat="43.4101123" lon="12.0219416"><ele>923.25</ele><time>2026-04-24T16:25:21.062Z</time></trkpt><trkpt lat="43.4102377" lon="12.0219451"><ele>922.0</ele><time>2026-04-24T16:25:22.07Z</time></trkpt><trkpt lat="43.4103587" lon="12.0219449"><ele>922.0</ele><time>2026-04-24T16:25:23.056Z</time></trkpt><trkpt lat="43.4104692" lon="12.0219781"><ele>922.0</ele><time>2026-04-24T16:25:24.064Z</time></trkpt><trkpt lat="43.4105795" lon="12.0220232"><ele>922.0</ele><time>2026-04-24T16:25:25.079Z</time></trkpt><trkpt lat="43.4106586" lon="12.0220377"><ele>922.0</ele><time>2026-04-24T16:25:26.067Z</time></trkpt><trkpt lat="43.4107246" lon="12.0220035"><ele>922.0</ele><time>2026-04-24T16:25:27.068Z</time></trkpt><trkpt lat="43.410799" lon="12.0219478"><ele>922.8</ele><time>2026-04-24T16:25:28.06Z</time></trkpt><trkpt lat="43.4108705" lon="12.021891"><ele>923.6</ele><time>2026-04-24T16:25:29.061Z</time></trkpt><trkpt lat="43.410951" lon="12.0218569"><ele>924.3999999999999</ele><time>2026-04-24T16:25:30.066Z</time></trkpt><trkpt lat="43.4110415" lon="12.0218311"><ele>925.1999999999999</ele><time>2026-04-24T16:25:31.062Z</time></trkpt><trkpt lat="43.4111447" lon="12.0217948"><ele>926.0</ele><time>2026-04-24T16:25:32.065Z</time></trkpt><trkpt lat="43.4112501" lon="12.0217295"><ele>926.5999999999999</ele><time>2026-04-24T16:25:33.063Z</time></trkpt><trkpt lat="43.4113494" lon="12.0216677"><ele>927.1999999999999</ele><time>2026-04-24T16:25:34.068Z</time></trkpt><trkpt lat="43.4114448" lon="12.0216141"><ele>927.8000000000001</ele><time>2026-04-24T16:25:35.059Z</time></trkpt><trkpt lat="43.4115409" lon="12.0215695"><ele>928.4000000000001</ele><time>2026-04-24T16:25:36.076Z</time></trkpt><trkpt lat="43.411629" lon="12.0215284"><ele>929.0</ele><time>2026-04-24T16:25:37.062Z</time></trkpt><trkpt lat="43.4117104" lon="12.0214961"><ele>929.3333333333334</ele><time>2026-04-24T16:25:38.066Z</time></trkpt><trkpt lat="43.4117951" lon="12.0214674"><ele>929.6666666666667</ele><time>2026-04-24T16:25:39.07Z</time></trkpt><trkpt lat="43.4118515" lon="12.0214087"><ele>930.0</ele><time>2026-04-24T16:25:40.066Z</time></trkpt><trkpt lat="43.4118843" lon="12.0213236"><ele>930.3333333333333</ele><time>2026-04-24T16:25:41.067Z</time></trkpt><trkpt lat="43.4119207" lon="12.0212238"><ele>930.6666666666666</ele><time>2026-04-24T16:25:42.053Z</time></trkpt><trkpt lat="43.4119651" lon="12.0211095"><ele>931.0</ele><time>2026-04-24T16:25:43.069Z</time></trkpt><trkpt lat="43.4120082" lon="12.0209831"><ele>931.0</ele><time>2026-04-24T16:25:44.066Z</time></trkpt><trkpt lat="43.4120433" lon="12.0208625"><ele>930.9999999999999</ele><time>2026-04-24T16:25:45.083Z</time></trkpt><trkpt lat="43.4120623" lon="12.0207359"><ele>930.9999999999999</ele><time>2026-04-24T16:25:46.054Z</time></trkpt><trkpt lat="43.4120523" lon="12.0205981"><ele>931.0</ele><time>2026-04-24T16:25:47.069Z</time></trkpt><trkpt lat="43.4120247" lon="12.0204528"><ele>931.0</ele><time>2026-04-24T16:25:48.069Z</time></trkpt><trkpt lat="43.4120029" lon="12.0203183"><ele>928.8</ele><time>2026-04-24T16:25:49.068Z</time></trkpt><trkpt lat="43.4119894" lon="12.0201945"><ele>926.5999999999999</ele><time>2026-04-24T16:25:50.058Z</time></trkpt><trkpt lat="43.4119625" lon="12.0200537"><ele>924.4</ele><time>2026-04-24T16:25:51.063Z</time></trkpt><trkpt lat="43.4119368" lon="12.0199307"><ele>922.2</ele><time>2026-04-24T16:25:52.073Z</time></trkpt><trkpt lat="43.4119147" lon="12.0198015"><ele>920.0</ele><time>2026-04-24T16:25:53.061Z</time></trkpt><trkpt lat="43.4119054" lon="12.0196962"><ele>918.8</ele><time>2026-04-24T16:25:54.067Z</time></trkpt><trkpt lat="43.4119737" lon="12.0195731"><ele>917.6</ele><time>2026-04-24T16:25:56.064Z</time></trkpt><trkpt lat="43.4120399" lon="12.0195312"><ele>916.4000000000001</ele><time>2026-04-24T16:25:57.06Z</time></trkpt><trkpt lat="43.4121188" lon="12.0194905"><ele>915.2</ele><time>2026-04-24T16:25:58.057Z</time></trkpt><trkpt lat="43.4122155" lon="12.0194882"><ele>914.0</ele><time>2026-04-24T16:25:59.061Z</time></trkpt><trkpt lat="43.4123103" lon="12.019493"><ele>914.0000000000001</ele><time>2026-04-24T16:26:00.061Z</time></trkpt><trkpt lat="43.4123993" lon="12.0194992"><ele>914.0</ele><time>2026-04-24T16:26:01.063Z</time></trkpt><trkpt lat="43.4124732" lon="12.0194966"><ele>914.0</ele><time>2026-04-24T16:26:02.065Z</time></trkpt><trkpt lat="43.4125433" lon="12.0195112"><ele>914.0</ele><time>2026-04-24T16:26:03.075Z</time></trkpt><trkpt lat="43.4125944" lon="12.0195828"><ele>914.0000000000001</ele><time>2026-04-24T16:26:04.071Z</time></trkpt><trkpt lat="43.4126667" lon="12.0196719"><ele>914.0</ele><time>2026-04-24T16:26:05.066Z</time></trkpt><trkpt lat="43.4127542" lon="12.0197423"><ele>914.0000000000001</ele><time>2026-04-24T16:26:06.06Z</time></trkpt><trkpt lat="43.412842" lon="12.0197986"><ele>914.0</ele><time>2026-04-24T16:26:07.063Z</time></trkpt><trkpt lat="43.4129239" lon="12.0198389"><ele>914.0</ele><time>2026-04-24T16:26:08.064Z</time></trkpt><trkpt lat="43.4129783" lon="12.0198902"><ele>914.0</ele><time>2026-04-24T16:26:09.061Z</time></trkpt><trkpt lat="43.413023" lon="12.0199532"><ele>914.0000000000001</ele><time>2026-04-24T16:26:10.063Z</time></trkpt><trkpt lat="43.4130931" lon="12.0200755"><ele>914.0</ele><time>2026-04-24T16:26:12.077Z</time></trkpt><trkpt lat="43.4131543" lon="12.0201584"><ele>913.2</ele><time>2026-04-24T16:26:14.063Z</time></trkpt><trkpt lat="43.4132454" lon="12.020256"><ele>912.4000000000001</ele><time>2026-04-24T16:26:16.065Z</time></trkpt><trkpt lat="43.4133121" lon="12.0203127"><ele>911.6</ele><time>2026-04-24T16:26:17.062Z</time></trkpt><trkpt lat="43.4133753" lon="12.0203775"><ele>910.8</ele><time>2026-04-24T16:26:18.073Z</time></trkpt><trkpt lat="43.4134469" lon="12.0204269"><ele>910.0</ele><time>2026-04-24T16:26:19.077Z</time></trkpt><trkpt lat="43.4135459" lon="12.0203757"><ele>910.0</ele><time>2026-04-24T16:26:21.073Z</time></trkpt><trkpt lat="43.413586" lon="12.0202067"><ele>910.0</ele><time>2026-04-24T16:26:23.068Z</time></trkpt><trkpt lat="43.4135908" lon="12.0201095"><ele>910.0</ele><time>2026-04-24T16:26:24.059Z</time></trkpt><trkpt lat="43.4136428" lon="12.0199475"><ele>910.0</ele><time>2026-04-24T16:26:26.066Z</time></trkpt><trkpt lat="43.4137061" lon="12.0198549"><ele>910.0</ele><time>2026-04-24T16:26:27.066Z</time></trkpt><trkpt lat="43.4137748" lon="12.0197428"><ele>910.25</ele><time>2026-04-24T16:26:28.061Z</time></trkpt><trkpt lat="43.4138512" lon="12.0196247"><ele>910.5</ele><time>2026-04-24T16:26:29.07Z</time></trkpt><trkpt lat="43.4139187" lon="12.0194929"><ele>910.75</ele><time>2026-04-24T16:26:30.061Z</time></trkpt><trkpt lat="43.4139824" lon="12.0193477"><ele>911.0</ele><time>2026-04-24T16:26:31.061Z</time></trkpt><trkpt lat="43.4140456" lon="12.0191906"><ele>907.8</ele><time>2026-04-24T16:26:32.061Z</time></trkpt><trkpt lat="43.4141074" lon="12.0190446"><ele>904.5999999999999</ele><time>2026-04-24T16:26:33.066Z</time></trkpt><trkpt lat="43.4141684" lon="12.0189162"><ele>901.4</ele><time>2026-04-24T16:26:34.061Z</time></trkpt><trkpt lat="43.4142298" lon="12.0188141"><ele>898.2</ele><time>2026-04-24T16:26:35.053Z</time></trkpt><trkpt lat="43.4142986" lon="12.0187377"><ele>895.0</ele><time>2026-04-24T16:26:36.089Z</time></trkpt><trkpt lat="43.414373" lon="12.0187092"><ele>894.9999999999999</ele><time>2026-04-24T16:26:37.053Z</time></trkpt><trkpt lat="43.4144389" lon="12.0186872"><ele>895.0</ele><time>2026-04-24T16:26:38.068Z</time></trkpt><trkpt lat="43.4145198" lon="12.018701"><ele>895.0</ele><time>2026-04-24T16:26:39.07Z</time></trkpt><trkpt lat="43.414605" lon="12.0187203"><ele>895.0</ele><time>2026-04-24T16:26:40.06Z</time></trkpt><trkpt lat="43.4147029" lon="12.0187256"><ele>894.9999999999999</ele><time>2026-04-24T16:26:41.062Z</time></trkpt><trkpt lat="43.4148079" lon="12.0187224"><ele>895.0</ele><time>2026-04-24T16:26:42.064Z</time></trkpt><trkpt lat="43.4149107" lon="12.0187178"><ele>894.0</ele><time>2026-04-24T16:26:43.074Z</time></trkpt><trkpt lat="43.415006" lon="12.0186783"><ele>893.0</ele><time>2026-04-24T16:26:44.072Z</time></trkpt><trkpt lat="43.4151279" lon="12.0186695"><ele>892.0</ele><time>2026-04-24T16:26:45.057Z</time></trkpt><trkpt lat="43.4152288" lon="12.0186699"><ele>891.0</ele><time>2026-04-24T16:26:46.06Z</time></trkpt><trkpt lat="43.4153318" lon="12.0187038"><ele>890.0</ele><time>2026-04-24T16:26:47.06Z</time></trkpt><trkpt lat="43.4154423" lon="12.0187848"><ele>890.0</ele><time>2026-04-24T16:26:48.055Z</time></trkpt><trkpt lat="43.4155533" lon="12.0188732"><ele>890.0</ele><time>2026-04-24T16:26:49.066Z</time></trkpt><trkpt lat="43.4156525" lon="12.0189699"><ele>890.0</ele><time>2026-04-24T16:26:50.061Z</time></trkpt><trkpt lat="43.4157291" lon="12.0190389"><ele>890.0</ele><time>2026-04-24T16:26:51.06Z</time></trkpt><trkpt lat="43.4158004" lon="12.0190978"><ele>890.0</ele><time>2026-04-24T16:26:52.06Z</time></trkpt><trkpt lat="43.4158848" lon="12.0191262"><ele>890.8</ele><time>2026-04-24T16:26:53.054Z</time></trkpt><trkpt lat="43.4159975" lon="12.0191594"><ele>891.6</ele><time>2026-04-24T16:26:54.061Z</time></trkpt><trkpt lat="43.4161082" lon="12.0191603"><ele>892.4000000000001</ele><time>2026-04-24T16:26:55.055Z</time></trkpt><trkpt lat="43.4162121" lon="12.0191631"><ele>893.2</ele><time>2026-04-24T16:26:56.058Z</time></trkpt><trkpt lat="43.4163149" lon="12.0191693"><ele>894.0</ele><time>2026-04-24T16:26:57.049Z</time></trkpt><trkpt lat="43.4164277" lon="12.0191581"><ele>893.5</ele><time>2026-04-24T16:26:58.061Z</time></trkpt><trkpt lat="43.4165491" lon="12.0191283"><ele>893.0</ele><time>2026-04-24T16:26:59.063Z</time></trkpt><trkpt lat="43.4166397" lon="12.0190964"><ele>892.5</ele><time>2026-04-24T16:27:00.066Z</time></trkpt><trkpt lat="43.4167102" lon="12.0190488"><ele>892.0</ele><time>2026-04-24T16:27:01.063Z</time></trkpt><trkpt lat="43.4167603" lon="12.0189819"><ele>891.5</ele><time>2026-04-24T16:27:02.064Z</time></trkpt><trkpt lat="43.4167973" lon="12.018898"><ele>891.0</ele><time>2026-04-24T16:27:03.058Z</time></trkpt><trkpt lat="43.4168036" lon="12.0187985"><ele>891.0</ele><time>2026-04-24T16:27:04.061Z</time></trkpt><trkpt lat="43.4168086" lon="12.0186742"><ele>891.0</ele><time>2026-04-24T16:27:05.058Z</time></trkpt><trkpt lat="43.4168305" lon="12.0185511"><ele>891.0</ele><time>2026-04-24T16:27:06.057Z</time></trkpt><trkpt lat="43.4168535" lon="12.0184452"><ele>891.0</ele><time>2026-04-24T16:27:07.063Z</time></trkpt><trkpt lat="43.4168928" lon="12.0183717"><ele>891.0</ele><time>2026-04-24T16:27:08.054Z</time></trkpt><trkpt lat="43.4169867" lon="12.0183489"><ele>891.0</ele><time>2026-04-24T16:27:10.063Z</time></trkpt><trkpt lat="43.4170488" lon="12.0183139"><ele>891.0</ele><time>2026-04-24T16:27:11.069Z</time></trkpt><trkpt lat="43.4171307" lon="12.0182589"><ele>890.9999999999999</ele><time>2026-04-24T16:27:12.067Z</time></trkpt><trkpt lat="43.41724" lon="12.0182113"><ele>890.9999999999999</ele><time>2026-04-24T16:27:13.07Z</time></trkpt><trkpt lat="43.4173276" lon="12.0181952"><ele>891.0</ele><time>2026-04-24T16:27:14.058Z</time></trkpt><trkpt lat="43.4173934" lon="12.0182371"><ele>891.0</ele><time>2026-04-24T16:27:15.063Z</time></trkpt><trkpt lat="43.4174596" lon="12.0183093"><ele>892.4285714285716</ele><time>2026-04-24T16:27:16.063Z</time></trkpt><trkpt lat="43.4175286" lon="12.0183815"><ele>893.8571428571429</ele><time>2026-04-24T16:27:17.064Z</time></trkpt><trkpt lat="43.4175976" lon="12.0184292"><ele>895.2857142857143</ele><time>2026-04-24T16:27:18.063Z</time></trkpt><trkpt lat="43.4176665" lon="12.0184635"><ele>896.7142857142858</ele><time>2026-04-24T16:27:19.074Z</time></trkpt><trkpt lat="43.4177351" lon="12.0184925"><ele>898.1428571428572</ele><time>2026-04-24T16:27:20.068Z</time></trkpt><trkpt lat="43.4178015" lon="12.0185269"><ele>899.5714285714287</ele><time>2026-04-24T16:27:21.061Z</time></trkpt><trkpt lat="43.4178671" lon="12.0185517"><ele>901.0</ele><time>2026-04-24T16:27:22.057Z</time></trkpt><trkpt lat="43.4179334" lon="12.018568"><ele>902.1666666666666</ele><time>2026-04-24T16:27:23.057Z</time></trkpt><trkpt lat="43.4180037" lon="12.018606"><ele>903.3333333333333</ele><time>2026-04-24T16:27:24.064Z</time></trkpt><trkpt lat="43.4180922" lon="12.0186739"><ele>904.5</ele><time>2026-04-24T16:27:25.072Z</time></trkpt><trkpt lat="43.4181803" lon="12.0187456"><ele>905.6666666666667</ele><time>2026-04-24T16:27:26.072Z</time></trkpt><trkpt lat="43.4182585" lon="12.0188012"><ele>906.8333333333334</ele><time>2026-04-24T16:27:27.063Z</time></trkpt><trkpt lat="43.4183292" lon="12.0188401"><ele>908.0</ele><time>2026-04-24T16:27:28.059Z</time></trkpt><trkpt lat="43.4184027" lon="12.0188868"><ele>908.0000000000001</ele><time>2026-04-24T16:27:29.063Z</time></trkpt><trkpt lat="43.4184633" lon="12.0189505"><ele>908.0</ele><time>2026-04-24T16:27:30.066Z</time></trkpt><trkpt lat="43.4185303" lon="12.0190191"><ele>908.0</ele><time>2026-04-24T16:27:31.063Z</time></trkpt><trkpt lat="43.418612" lon="12.0190728"><ele>908.0</ele><time>2026-04-24T16:27:32.066Z</time></trkpt><trkpt lat="43.4187005" lon="12.0190767"><ele>908.0000000000001</ele><time>2026-04-24T16:27:33.063Z</time></trkpt><trkpt lat="43.4188006" lon="12.0190455"><ele>908.0</ele><time>2026-04-24T16:27:34.061Z</time></trkpt><trkpt lat="43.4189118" lon="12.0190442"><ele>909.25</ele><time>2026-04-24T16:27:35.059Z</time></trkpt><trkpt lat="43.4190411" lon="12.0190915"><ele>910.5</ele><time>2026-04-24T16:27:36.057Z</time></trkpt><trkpt lat="43.4191692" lon="12.0191541"><ele>911.75</ele><time>2026-04-24T16:27:37.063Z</time></trkpt><trkpt lat="43.4192858" lon="12.0191985"><ele>913.0</ele><time>2026-04-24T16:27:38.064Z</time></trkpt><trkpt lat="43.4193756" lon="12.0192201"><ele>912.9999999999999</ele><time>2026-04-24T16:27:39.069Z</time></trkpt><trkpt lat="43.4194668" lon="12.0191718"><ele>913.0</ele><time>2026-04-24T16:27:54.065Z</time></trkpt><trkpt lat="43.4195334" lon="12.0191578"><ele>913.0</ele><time>2026-04-24T16:27:55.073Z</time></trkpt><trkpt lat="43.4196054" lon="12.0191563"><ele>913.0</ele><time>2026-04-24T16:27:56.055Z</time></trkpt><trkpt lat="43.4196878" lon="12.0191724"><ele>912.9999999999999</ele><time>2026-04-24T16:27:57.065Z</time></trkpt><trkpt lat="43.4197759" lon="12.0192251"><ele>913.0</ele><time>2026-04-24T16:27:58.066Z</time></trkpt><trkpt lat="43.4198652" lon="12.0193469"><ele>914.4999999999999</ele><time>2026-04-24T16:27:59.06Z</time></trkpt><trkpt lat="43.4199509" lon="12.0194357"><ele>916.0</ele><time>2026-04-24T16:28:00.056Z</time></trkpt><trkpt lat="43.4200294" lon="12.0194862"><ele>917.5</ele><time>2026-04-24T16:28:01.064Z</time></trkpt><trkpt lat="43.4200988" lon="12.019501"><ele>919.0</ele><time>2026-04-24T16:28:02.055Z</time></trkpt><trkpt lat="43.4201796" lon="12.0195386"><ele>920.4999999999999</ele><time>2026-04-24T16:28:03.082Z</time></trkpt><trkpt lat="43.4202578" lon="12.0195757"><ele>922.0</ele><time>2026-04-24T16:28:04.057Z</time></trkpt><trkpt lat="43.4203351" lon="12.0196423"><ele>922.0</ele><time>2026-04-24T16:28:05.056Z</time></trkpt><trkpt lat="43.4204128" lon="12.0197557"><ele>922.0</ele><time>2026-04-24T16:28:06.06Z</time></trkpt><trkpt lat="43.4204787" lon="12.0198942"><ele>922.0</ele><time>2026-04-24T16:28:07.054Z</time></trkpt><trkpt lat="43.4205456" lon="12.0200181"><ele>922.0</ele><time>2026-04-24T16:28:08.054Z</time></trkpt><trkpt lat="43.4206039" lon="12.0201309"><ele>922.0</ele><time>2026-04-24T16:28:09.057Z</time></trkpt><trkpt lat="43.4206536" lon="12.0202582"><ele>922.2</ele><time>2026-04-24T16:28:10.058Z</time></trkpt><trkpt lat="43.420706" lon="12.0203789"><ele>922.4000000000001</ele><time>2026-04-24T16:28:11.056Z</time></trkpt><trkpt lat="43.4207688" lon="12.020477"><ele>922.5999999999999</ele><time>2026-04-24T16:28:12.073Z</time></trkpt><trkpt lat="43.4208258" lon="12.0205731"><ele>922.8</ele><time>2026-04-24T16:28:13.045Z</time></trkpt><trkpt lat="43.4208776" lon="12.0206798"><ele>923.0</ele><time>2026-04-24T16:28:14.056Z</time></trkpt><trkpt lat="43.4209502" lon="12.0207787"><ele>920.8</ele><time>2026-04-24T16:28:15.053Z</time></trkpt><trkpt lat="43.4210354" lon="12.020889"><ele>918.5999999999999</ele><time>2026-04-24T16:28:16.088Z</time></trkpt><trkpt lat="43.4211253" lon="12.0209753"><ele>916.4000000000001</ele><time>2026-04-24T16:28:17.053Z</time></trkpt><trkpt lat="43.421176" lon="12.0211015"><ele>914.2</ele><time>2026-04-24T16:28:18.059Z</time></trkpt><trkpt lat="43.4211769" lon="12.0212265"><ele>912.0</ele><time>2026-04-24T16:28:19.059Z</time></trkpt><trkpt lat="43.4211639" lon="12.0213579"><ele>912.0</ele><time>2026-04-24T16:28:20.056Z</time></trkpt><trkpt lat="43.4211418" lon="12.0215223"><ele>912.0</ele><time>2026-04-24T16:28:21.049Z</time></trkpt><trkpt lat="43.4211139" lon="12.0216942"><ele>912.0</ele><time>2026-04-24T16:28:22.051Z</time></trkpt><trkpt lat="43.4211081" lon="12.0218461"><ele>912.0</ele><time>2026-04-24T16:28:23.077Z</time></trkpt><trkpt lat="43.4211109" lon="12.021971"><ele>910.8</ele><time>2026-04-24T16:28:24.058Z</time></trkpt><trkpt lat="43.4211421" lon="12.0220744"><ele>909.6</ele><time>2026-04-24T16:28:25.063Z</time></trkpt><trkpt lat="43.4211872" lon="12.0221643"><ele>908.3999999999999</ele><time>2026-04-24T16:28:26.051Z</time></trkpt><trkpt lat="43.4212353" lon="12.0222801"><ele>907.1999999999999</ele><time>2026-04-24T16:28:27.058Z</time></trkpt><trkpt lat="43.4212862" lon="12.0224159"><ele>906.0</ele><time>2026-04-24T16:28:28.059Z</time></trkpt><trkpt lat="43.4213431" lon="12.0225298"><ele>906.0</ele><time>2026-04-24T16:28:29.065Z</time></trkpt><trkpt lat="43.4213969" lon="12.0226355"><ele>905.9999999999999</ele><time>2026-04-24T16:28:30.056Z</time></trkpt><trkpt lat="43.4214553" lon="12.0227158"><ele>905.9999999999999</ele><time>2026-04-24T16:28:31.056Z</time></trkpt><trkpt lat="43.4215014" lon="12.0228006"><ele>906.0</ele><time>2026-04-24T16:28:32.072Z</time></trkpt><trkpt lat="43.4215649" lon="12.0228981"><ele>906.0</ele><time>2026-04-24T16:28:33.065Z</time></trkpt><trkpt lat="43.4216425" lon="12.0230283"><ele>906.0</ele><time>2026-04-24T16:28:34.056Z</time></trkpt><trkpt lat="43.4217181" lon="12.0231468"><ele>906.0</ele><time>2026-04-24T16:28:35.066Z</time></trkpt><trkpt lat="43.4217838" lon="12.0232239"><ele>906.0</ele><time>2026-04-24T16:28:36.055Z</time></trkpt><trkpt lat="43.4218547" lon="12.0232381"><ele>906.0</ele><time>2026-04-24T16:28:37.057Z</time></trkpt><trkpt lat="43.4219195" lon="12.0232475"><ele>906.0</ele><time>2026-04-24T16:28:38.065Z</time></trkpt><trkpt lat="43.4219872" lon="12.0232644"><ele>906.0</ele><time>2026-04-24T16:28:40.064Z</time></trkpt><trkpt lat="43.4220246" lon="12.0231579"><ele>906.0</ele><time>2026-04-24T16:28:53.059Z</time></trkpt><trkpt lat="43.4220719" lon="12.0230203"><ele>906.0</ele><time>2026-04-24T16:28:55.069Z</time></trkpt><trkpt lat="43.422119" lon="12.0229336"><ele>906.0</ele><time>2026-04-24T16:29:08.064Z</time></trkpt><trkpt lat="43.4221731" lon="12.0228771"><ele>906.0</ele><time>2026-04-24T16:29:33.052Z</time></trkpt><trkpt lat="43.4222393" lon="12.0228263"><ele>906.0</ele><time>2026-04-24T16:29:38.046Z</time></trkpt><trkpt lat="43.4222998" lon="12.0228852"><ele>906.0</ele><time>2026-04-24T16:29:49.059Z</time></trkpt><trkpt lat="43.4222475" lon="12.0229586"><ele>906.0</ele><time>2026-04-24T16:30:06.064Z</time></trkpt><trkpt lat="43.4221725" lon="12.0229517"><ele>906.0</ele><time>2026-04-24T16:30:11.051Z</time></trkpt><trkpt lat="43.4221033" lon="12.0229524"><ele>906.0</ele><time>2026-04-24T16:30:14.054Z</time></trkpt><trkpt lat="43.4220398" lon="12.0229933"><ele>906.0</ele><time>2026-04-24T16:30:18.059Z</time></trkpt><trkpt lat="43.422009" lon="12.0230992"><ele>906.0</ele><time>2026-04-24T16:30:20.058Z</time></trkpt><trkpt lat="43.4219918" lon="12.0232195"><ele>906.0</ele><time>2026-04-24T16:30:22.052Z</time></trkpt><trkpt lat="43.4219201" lon="12.0232288"><ele>906.0</ele><time>2026-04-24T16:30:24.07Z</time></trkpt><trkpt lat="43.4218012" lon="12.0232195"><ele>905.9999999999999</ele><time>2026-04-24T16:30:26.049Z</time></trkpt><trkpt lat="43.4217276" lon="12.0231772"><ele>905.9999999999999</ele><time>2026-04-24T16:30:28.061Z</time></trkpt><trkpt lat="43.4217411" lon="12.0230565"><ele>906.0</ele><time>2026-04-24T16:30:30.071Z</time></trkpt><trkpt lat="43.4217533" lon="12.0229325"><ele>906.0</ele><time>2026-04-24T16:30:31.058Z</time></trkpt><trkpt lat="43.4217658" lon="12.0228063"><ele>906.0</ele><time>2026-04-24T16:30:32.051Z</time></trkpt><trkpt lat="43.4217896" lon="12.0227013"><ele>906.0</ele><time>2026-04-24T16:30:33.068Z</time></trkpt><trkpt lat="43.421845" lon="12.0225959"><ele>906.0</ele><time>2026-04-24T16:30:34.065Z</time></trkpt><trkpt lat="43.4219127" lon="12.0224796"><ele>906.0</ele><time>2026-04-24T16:30:35.059Z</time></trkpt><trkpt lat="43.4219686" lon="12.022384"><ele>906.0</ele><time>2026-04-24T16:30:36.059Z</time></trkpt><trkpt lat="43.4219987" lon="12.0223016"><ele>906.0</ele><time>2026-04-24T16:30:37.066Z</time></trkpt><trkpt lat="43.4220215" lon="12.0222167"><ele>907.5999999999999</ele><time>2026-04-24T16:30:38.058Z</time></trkpt><trkpt lat="43.4220424" lon="12.0221235"><ele>909.1999999999999</ele><time>2026-04-24T16:30:39.057Z</time></trkpt><trkpt lat="43.4220813" lon="12.021957"><ele>910.8000000000001</ele><time>2026-04-24T16:30:41.072Z</time></trkpt><trkpt lat="43.4220634" lon="12.0218181"><ele>912.4000000000001</ele><time>2026-04-24T16:30:43.052Z</time></trkpt><trkpt lat="43.4220101" lon="12.0217072"><ele>914.0</ele><time>2026-04-24T16:30:45.059Z</time></trkpt><trkpt lat="43.4219475" lon="12.0215762"><ele>915.25</ele><time>2026-04-24T16:30:47.05Z</time></trkpt><trkpt lat="43.4219154" lon="12.0214648"><ele>916.5</ele><time>2026-04-24T16:30:48.054Z</time></trkpt><trkpt lat="43.4218916" lon="12.0213013"><ele>917.75</ele><time>2026-04-24T16:30:49.055Z</time></trkpt><trkpt lat="43.4218895" lon="12.021135"><ele>919.0</ele><time>2026-04-24T16:30:50.065Z</time></trkpt><trkpt lat="43.4219093" lon="12.0209432"><ele>920.0</ele><time>2026-04-24T16:30:51.045Z</time></trkpt><trkpt lat="43.4219157" lon="12.0207722"><ele>921.0000000000001</ele><time>2026-04-24T16:30:52.066Z</time></trkpt><trkpt lat="43.4219205" lon="12.0206174"><ele>922.0000000000001</ele><time>2026-04-24T16:30:53.061Z</time></trkpt><trkpt lat="43.4219312" lon="12.0204857"><ele>923.0</ele><time>2026-04-24T16:30:54.055Z</time></trkpt><trkpt lat="43.421948" lon="12.0203386"><ele>924.0</ele><time>2026-04-24T16:30:55.059Z</time></trkpt><trkpt lat="43.4219818" lon="12.0201835"><ele>924.0</ele><time>2026-04-24T16:30:56.059Z</time></trkpt><trkpt lat="43.4220066" lon="12.0200449"><ele>924.0</ele><time>2026-04-24T16:30:57.053Z</time></trkpt><trkpt lat="43.4220135" lon="12.0199268"><ele>924.0</ele><time>2026-04-24T16:30:58.079Z</time></trkpt><trkpt lat="43.4220068" lon="12.0198377"><ele>924.0</ele><time>2026-04-24T16:30:59.058Z</time></trkpt><trkpt lat="43.4219926" lon="12.0197365"><ele>924.0</ele><time>2026-04-24T16:31:00.054Z</time></trkpt><trkpt lat="43.4219684" lon="12.0196393"><ele>924.0</ele><time>2026-04-24T16:31:01.063Z</time></trkpt><trkpt lat="43.421932" lon="12.0195534"><ele>923.3333333333334</ele><time>2026-04-24T16:31:02.077Z</time></trkpt><trkpt lat="43.4218884" lon="12.0194432"><ele>922.6666666666667</ele><time>2026-04-24T16:31:03.053Z</time></trkpt><trkpt lat="43.421855" lon="12.0193536"><ele>922.0</ele><time>2026-04-24T16:31:04.058Z</time></trkpt><trkpt lat="43.4218224" lon="12.0192631"><ele>921.3333333333334</ele><time>2026-04-24T16:31:05.057Z</time></trkpt><trkpt lat="43.4217746" lon="12.0191408"><ele>920.6666666666667</ele><time>2026-04-24T16:31:06.058Z</time></trkpt><trkpt lat="43.4217342" lon="12.0190027"><ele>920.0</ele><time>2026-04-24T16:31:07.058Z</time></trkpt><trkpt lat="43.4216979" lon="12.0188628"><ele>918.8333333333334</ele><time>2026-04-24T16:31:08.072Z</time></trkpt><trkpt lat="43.4216701" lon="12.0187569"><ele>917.6666666666667</ele><time>2026-04-24T16:31:09.054Z</time></trkpt><trkpt lat="43.4216199" lon="12.0186052"><ele>916.5</ele><time>2026-04-24T16:31:11.061Z</time></trkpt><trkpt lat="43.4215953" lon="12.0185069"><ele>915.3333333333333</ele><time>2026-04-24T16:31:12.072Z</time></trkpt><trkpt lat="43.4215654" lon="12.0184059"><ele>914.1666666666666</ele><time>2026-04-24T16:31:13.061Z</time></trkpt><trkpt lat="43.4215365" lon="12.0183009"><ele>913.0</ele><time>2026-04-24T16:31:14.055Z</time></trkpt><trkpt lat="43.4215319" lon="12.0181707"><ele>912.0</ele><time>2026-04-24T16:31:16.054Z</time></trkpt><trkpt lat="43.4215899" lon="12.01805"><ele>911.0</ele><time>2026-04-24T16:31:18.06Z</time></trkpt><trkpt lat="43.4216465" lon="12.0179213"><ele>910.0</ele><time>2026-04-24T16:31:20.065Z</time></trkpt><trkpt lat="43.4216738" lon="12.0177571"><ele>909.0</ele><time>2026-04-24T16:31:22.049Z</time></trkpt><trkpt lat="43.4216722" lon="12.0176512"><ele>908.0</ele><time>2026-04-24T16:31:23.062Z</time></trkpt><trkpt lat="43.4216713" lon="12.0175435"><ele>907.5000000000001</ele><time>2026-04-24T16:31:24.048Z</time></trkpt><trkpt lat="43.4216769" lon="12.0174354"><ele>907.0</ele><time>2026-04-24T16:31:25.076Z</time></trkpt><trkpt lat="43.4216791" lon="12.0173435"><ele>906.5</ele><time>2026-04-24T16:31:26.058Z</time></trkpt><trkpt lat="43.4216729" lon="12.0172493"><ele>906.0</ele><time>2026-04-24T16:31:27.06Z</time></trkpt><trkpt lat="43.4216521" lon="12.0171445"><ele>905.5000000000001</ele><time>2026-04-24T16:31:28.057Z</time></trkpt><trkpt lat="43.4215956" lon="12.0170249"><ele>905.0</ele><time>2026-04-24T16:31:29.059Z</time></trkpt><trkpt lat="43.4215327" lon="12.016916"><ele>905.0000000000001</ele><time>2026-04-24T16:31:30.06Z</time></trkpt><trkpt lat="43.4214798" lon="12.0168178"><ele>905.0</ele><time>2026-04-24T16:31:31.056Z</time></trkpt><trkpt lat="43.421434" lon="12.016721"><ele>905.0</ele><time>2026-04-24T16:31:32.062Z</time></trkpt><trkpt lat="43.4213899" lon="12.0166352"><ele>905.0</ele><time>2026-04-24T16:31:33.061Z</time></trkpt><trkpt lat="43.421369" lon="12.0165428"><ele>905.0000000000001</ele><time>2026-04-24T16:31:34.067Z</time></trkpt><trkpt lat="43.4213659" lon="12.0164414"><ele>905.0</ele><time>2026-04-24T16:31:35.059Z</time></trkpt><trkpt lat="43.4213696" lon="12.0163094"><ele>905.8</ele><time>2026-04-24T16:31:36.066Z</time></trkpt><trkpt lat="43.4213551" lon="12.0161541"><ele>906.6</ele><time>2026-04-24T16:31:37.074Z</time></trkpt><trkpt lat="43.421334" lon="12.0160084"><ele>907.4000000000001</ele><time>2026-04-24T16:31:38.063Z</time></trkpt><trkpt lat="43.421302" lon="12.0158619"><ele>908.2</ele><time>2026-04-24T16:31:39.066Z</time></trkpt><trkpt lat="43.4212532" lon="12.0157334"><ele>909.0</ele><time>2026-04-24T16:31:40.064Z</time></trkpt><trkpt lat="43.4211947" lon="12.0156135"><ele>907.0</ele><time>2026-04-24T16:31:41.062Z</time></trkpt><trkpt lat="43.4211363" lon="12.0155133"><ele>905.0</ele><time>2026-04-24T16:31:42.062Z</time></trkpt><trkpt lat="43.4210828" lon="12.0154248"><ele>903.0</ele><time>2026-04-24T16:31:43.086Z</time></trkpt><trkpt lat="43.4210221" lon="12.01534"><ele>901.0</ele><time>2026-04-24T16:31:44.069Z</time></trkpt><trkpt lat="43.4209526" lon="12.0152627"><ele>899.0</ele><time>2026-04-24T16:31:45.066Z</time></trkpt><trkpt lat="43.4208744" lon="12.0151945"><ele>897.0</ele><time>2026-04-24T16:31:46.059Z</time></trkpt><trkpt lat="43.4208046" lon="12.0151223"><ele>897.0</ele><time>2026-04-24T16:31:47.056Z</time></trkpt><trkpt lat="43.4207481" lon="12.0150554"><ele>897.0</ele><time>2026-04-24T16:31:48.067Z</time></trkpt><trkpt lat="43.4207072" lon="12.0149647"><ele>897.0</ele><time>2026-04-24T16:31:49.064Z</time></trkpt><trkpt lat="43.4206704" lon="12.014851"><ele>897.0</ele><time>2026-04-24T16:31:50.064Z</time></trkpt><trkpt lat="43.4206354" lon="12.0147389"><ele>897.0</ele><time>2026-04-24T16:31:51.059Z</time></trkpt><trkpt lat="43.4206127" lon="12.0146273"><ele>897.0</ele><time>2026-04-24T16:31:52.08Z</time></trkpt><trkpt lat="43.420571" lon="12.0145016"><ele>897.8333333333334</ele><time>2026-04-24T16:31:53.051Z</time></trkpt><trkpt lat="43.4205347" lon="12.0143663"><ele>898.6666666666667</ele><time>2026-04-24T16:31:54.078Z</time></trkpt><trkpt lat="43.420504" lon="12.0142395"><ele>899.5</ele><time>2026-04-24T16:31:55.068Z</time></trkpt><trkpt lat="43.4204829" lon="12.0141281"><ele>900.3333333333334</ele><time>2026-04-24T16:31:56.064Z</time></trkpt><trkpt lat="43.4204695" lon="12.014022"><ele>901.1666666666667</ele><time>2026-04-24T16:31:57.066Z</time></trkpt><trkpt lat="43.4204598" lon="12.0139105"><ele>902.0</ele><time>2026-04-24T16:31:58.057Z</time></trkpt><trkpt lat="43.420436" lon="12.0137907"><ele>897.0</ele><time>2026-04-24T16:31:59.063Z</time></trkpt><trkpt lat="43.4204096" lon="12.0136547"><ele>892.0</ele><time>2026-04-24T16:32:00.056Z</time></trkpt><trkpt lat="43.4203816" lon="12.0135193"><ele>887.0</ele><time>2026-04-24T16:32:01.057Z</time></trkpt><trkpt lat="43.4203434" lon="12.0133929"><ele>882.0</ele><time>2026-04-24T16:32:02.061Z</time></trkpt><trkpt lat="43.4203094" lon="12.0132631"><ele>877.0</ele><time>2026-04-24T16:32:03.057Z</time></trkpt><trkpt lat="43.420268" lon="12.0131435"><ele>877.0</ele><time>2026-04-24T16:32:04.054Z</time></trkpt><trkpt lat="43.4202391" lon="12.013042"><ele>877.0</ele><time>2026-04-24T16:32:05.053Z</time></trkpt><trkpt lat="43.4202116" lon="12.0129383"><ele>877.0</ele><time>2026-04-24T16:32:06.071Z</time></trkpt><trkpt lat="43.4202366" lon="12.0127655"><ele>877.0</ele><time>2026-04-24T16:32:08.059Z</time></trkpt><trkpt lat="43.4202828" lon="12.0126748"><ele>877.0</ele><time>2026-04-24T16:32:09.063Z</time></trkpt><trkpt lat="43.4203101" lon="12.0125648"><ele>876.8333333333333</ele><time>2026-04-24T16:32:10.058Z</time></trkpt><trkpt lat="43.4203301" lon="12.0124674"><ele>876.6666666666666</ele><time>2026-04-24T16:32:11.059Z</time></trkpt><trkpt lat="43.42034" lon="12.012353"><ele>876.5</ele><time>2026-04-24T16:32:12.06Z</time></trkpt><trkpt lat="43.4203332" lon="12.0122331"><ele>876.3333333333333</ele><time>2026-04-24T16:32:13.062Z</time></trkpt><trkpt lat="43.4203207" lon="12.0121168"><ele>876.1666666666666</ele><time>2026-04-24T16:32:14.055Z</time></trkpt><trkpt lat="43.4203062" lon="12.0119911"><ele>876.0</ele><time>2026-04-24T16:32:15.053Z</time></trkpt><trkpt lat="43.4202975" lon="12.0118489"><ele>876.0</ele><time>2026-04-24T16:32:16.06Z</time></trkpt><trkpt lat="43.4202943" lon="12.0117011"><ele>875.9999999999999</ele><time>2026-04-24T16:32:17.059Z</time></trkpt><trkpt lat="43.4202812" lon="12.0115555"><ele>875.9999999999999</ele><time>2026-04-24T16:32:18.057Z</time></trkpt><trkpt lat="43.4202592" lon="12.0114072"><ele>876.0</ele><time>2026-04-24T16:32:19.069Z</time></trkpt><trkpt lat="43.4202428" lon="12.0112615"><ele>876.0</ele><time>2026-04-24T16:32:20.063Z</time></trkpt><trkpt lat="43.420222" lon="12.0111159"><ele>876.0</ele><time>2026-04-24T16:32:21.06Z</time></trkpt><trkpt lat="43.4202043" lon="12.0109746"><ele>875.9999999999999</ele><time>2026-04-24T16:32:22.061Z</time></trkpt><trkpt lat="43.4201807" lon="12.0108305"><ele>875.9999999999999</ele><time>2026-04-24T16:32:23.068Z</time></trkpt><trkpt lat="43.4201543" lon="12.0106946"><ele>876.0</ele><time>2026-04-24T16:32:24.056Z</time></trkpt><trkpt lat="43.4201278" lon="12.0105665"><ele>876.0</ele><time>2026-04-24T16:32:25.066Z</time></trkpt><trkpt lat="43.4201064" lon="12.0104636"><ele>876.0</ele><time>2026-04-24T16:32:26.064Z</time></trkpt><trkpt lat="43.4201067" lon="12.0103506"><ele>876.0</ele><time>2026-04-24T16:32:28.065Z</time></trkpt><trkpt lat="43.4200824" lon="12.0102519"><ele>876.0</ele><time>2026-04-24T16:32:34.071Z</time></trkpt><trkpt lat="43.4200509" lon="12.0101195"><ele>876.0</ele><time>2026-04-24T16:49:47.068Z</time></trkpt><trkpt lat="43.4200012" lon="12.0100174"><ele>876.0</ele><time>2026-04-24T16:49:48.078Z</time></trkpt><trkpt lat="43.419954" lon="12.009912"><ele>876.0</ele><time>2026-04-24T16:49:49.076Z</time></trkpt><trkpt lat="43.4199082" lon="12.0097863"><ele>875.8</ele><time>2026-04-24T16:49:50.068Z</time></trkpt><trkpt lat="43.4198463" lon="12.0096681"><ele>875.5999999999999</ele><time>2026-04-24T16:49:51.071Z</time></trkpt><trkpt lat="43.4197722" lon="12.009566"><ele>875.4</ele><time>2026-04-24T16:49:52.074Z</time></trkpt><trkpt lat="43.4196882" lon="12.0094671"><ele>875.2</ele><time>2026-04-24T16:49:53.068Z</time></trkpt><trkpt lat="43.4196104" lon="12.0093661"><ele>875.0</ele><time>2026-04-24T16:49:54.072Z</time></trkpt><trkpt lat="43.419531" lon="12.0092667"><ele>874.1666666666667</ele><time>2026-04-24T16:49:55.07Z</time></trkpt><trkpt lat="43.4194638" lon="12.00916"><ele>873.3333333333334</ele><time>2026-04-24T16:49:56.071Z</time></trkpt><trkpt lat="43.4194403" lon="12.0090574"><ele>872.5</ele><time>2026-04-24T16:49:57.074Z</time></trkpt><trkpt lat="43.4194458" lon="12.008969"><ele>871.6666666666667</ele><time>2026-04-24T16:49:58.066Z</time></trkpt><trkpt lat="43.4195062" lon="12.0089151"><ele>870.8333333333334</ele><time>2026-04-24T16:50:00.075Z</time></trkpt><trkpt lat="43.4195859" lon="12.0089886"><ele>870.0</ele><time>2026-04-24T16:50:03.075Z</time></trkpt><trkpt lat="43.4196458" lon="12.0090278"><ele>870.8333333333334</ele><time>2026-04-24T16:50:04.075Z</time></trkpt><trkpt lat="43.41971" lon="12.009077"><ele>871.6666666666667</ele><time>2026-04-24T16:50:05.072Z</time></trkpt><trkpt lat="43.4197756" lon="12.0091214"><ele>872.5</ele><time>2026-04-24T16:50:06.069Z</time></trkpt><trkpt lat="43.4198383" lon="12.0091575"><ele>873.3333333333334</ele><time>2026-04-24T16:50:07.068Z</time></trkpt><trkpt lat="43.419978" lon="12.0091941"><ele>874.1666666666667</ele><time>2026-04-24T16:50:09.068Z</time></trkpt><trkpt lat="43.4200693" lon="12.009206"><ele>875.0</ele><time>2026-04-24T16:50:10.071Z</time></trkpt><trkpt lat="43.4201638" lon="12.0092328"><ele>875.0000000000001</ele><time>2026-04-24T16:50:11.075Z</time></trkpt><trkpt lat="43.4202365" lon="12.0092806"><ele>875.0</ele><time>2026-04-24T16:50:12.061Z</time></trkpt><trkpt lat="43.4203089" lon="12.0093362"><ele>875.0</ele><time>2026-04-24T16:50:13.058Z</time></trkpt><trkpt lat="43.4203755" lon="12.0093835"><ele>875.0</ele><time>2026-04-24T16:50:14.072Z</time></trkpt><trkpt lat="43.4204558" lon="12.0094182"><ele>875.0000000000001</ele><time>2026-04-24T16:50:15.067Z</time></trkpt><trkpt lat="43.420535" lon="12.0094454"><ele>875.0</ele><time>2026-04-24T16:50:16.062Z</time></trkpt><trkpt lat="43.4206292" lon="12.009501"><ele>871.6666666666667</ele><time>2026-04-24T16:50:17.085Z</time></trkpt><trkpt lat="43.4207243" lon="12.0095469"><ele>868.3333333333334</ele><time>2026-04-24T16:50:18.068Z</time></trkpt><trkpt lat="43.4208209" lon="12.0095775"><ele>865.0</ele><time>2026-04-24T16:50:19.058Z</time></trkpt><trkpt lat="43.4209078" lon="12.0096013"><ele>861.6666666666667</ele><time>2026-04-24T16:50:20.063Z</time></trkpt><trkpt lat="43.4209839" lon="12.0096343"><ele>858.3333333333334</ele><time>2026-04-24T16:50:21.056Z</time></trkpt><trkpt lat="43.4210483" lon="12.0096791"><ele>855.0</ele><time>2026-04-24T16:50:22.066Z</time></trkpt><trkpt lat="43.4211677" lon="12.0096337"><ele>855.0</ele><time>2026-04-24T16:50:24.072Z</time></trkpt><trkpt lat="43.4212437" lon="12.0095833"><ele>855.0</ele><time>2026-04-24T16:50:25.061Z</time></trkpt><trkpt lat="43.4213157" lon="12.0095376"><ele>855.0</ele><time>2026-04-24T16:50:26.071Z</time></trkpt><trkpt lat="43.4213675" lon="12.0094822"><ele>855.0</ele><time>2026-04-24T16:50:27.063Z</time></trkpt><trkpt lat="43.4214188" lon="12.0094027"><ele>855.0</ele><time>2026-04-24T16:50:28.075Z</time></trkpt><trkpt lat="43.4214732" lon="12.0093024"><ele>855.0</ele><time>2026-04-24T16:50:29.072Z</time></trkpt><trkpt lat="43.4215245" lon="12.0092029"><ele>851.5</ele><time>2026-04-24T16:50:30.062Z</time></trkpt><trkpt lat="43.4215664" lon="12.0091097"><ele>848.0</ele><time>2026-04-24T16:50:31.07Z</time></trkpt><trkpt lat="43.4215984" lon="12.0090206"><ele>844.5</ele><time>2026-04-24T16:50:32.059Z</time></trkpt><trkpt lat="43.4215881" lon="12.0088615"><ele>841.0</ele><time>2026-04-24T16:50:34.058Z</time></trkpt><trkpt lat="43.4215907" lon="12.0087554"><ele>837.5</ele><time>2026-04-24T16:50:35.055Z</time></trkpt><trkpt lat="43.4216089" lon="12.0086515"><ele>834.0</ele><time>2026-04-24T16:50:36.076Z</time></trkpt><trkpt lat="43.4216364" lon="12.0085606"><ele>834.0</ele><time>2026-04-24T16:50:37.06Z</time></trkpt><trkpt lat="43.4217051" lon="12.0084824"><ele>834.0</ele><time>2026-04-24T16:50:39.064Z</time></trkpt><trkpt lat="43.4217877" lon="12.0084472"><ele>834.0</ele><time>2026-04-24T16:50:40.056Z</time></trkpt><trkpt lat="43.421861" lon="12.0084344"><ele>834.0</ele><time>2026-04-24T16:50:41.075Z</time></trkpt><trkpt lat="43.4219266" lon="12.0084171"><ele>834.0</ele><time>2026-04-24T16:50:42.051Z</time></trkpt><trkpt lat="43.4219783" lon="12.0083594"><ele>834.0</ele><time>2026-04-24T16:50:43.072Z</time></trkpt><trkpt lat="43.4220288" lon="12.0083032"><ele>834.0</ele><time>2026-04-24T16:50:44.062Z</time></trkpt><trkpt lat="43.4221042" lon="12.0082271"><ele>830.1666666666666</ele><time>2026-04-24T16:50:45.067Z</time></trkpt><trkpt lat="43.4221829" lon="12.0081612"><ele>826.3333333333333</ele><time>2026-04-24T16:50:46.059Z</time></trkpt><trkpt lat="43.4222595" lon="12.0081056"><ele>822.5</ele><time>2026-04-24T16:50:47.061Z</time></trkpt><trkpt lat="43.4223102" lon="12.0079996"><ele>818.6666666666666</ele><time>2026-04-24T16:50:49.068Z</time></trkpt><trkpt lat="43.4223468" lon="12.0079011"><ele>814.8333333333333</ele><time>2026-04-24T16:50:51.073Z</time></trkpt><trkpt lat="43.4223948" lon="12.0078111"><ele>811.0</ele><time>2026-04-24T16:50:53.06Z</time></trkpt><trkpt lat="43.4224845" lon="12.0076875"><ele>811.0</ele><time>2026-04-24T16:50:55.051Z</time></trkpt><trkpt lat="43.422542" lon="12.0076291"><ele>811.0</ele><time>2026-04-24T16:50:56.061Z</time></trkpt><trkpt lat="43.4226049" lon="12.0075652"><ele>811.0</ele><time>2026-04-24T16:50:57.068Z</time></trkpt><trkpt lat="43.4226666" lon="12.0075125"><ele>811.0</ele><time>2026-04-24T16:50:58.068Z</time></trkpt><trkpt lat="43.4227231" lon="12.0074505"><ele>811.0</ele><time>2026-04-24T16:50:59.065Z</time></trkpt><trkpt lat="43.4227806" lon="12.0073941"><ele>811.0</ele><time>2026-04-24T16:51:00.058Z</time></trkpt><trkpt lat="43.4228328" lon="12.0073397"><ele>811.0</ele><time>2026-04-24T16:51:01.064Z</time></trkpt><trkpt lat="43.4229357" lon="12.0072582"><ele>806.8</ele><time>2026-04-24T16:51:03.065Z</time></trkpt><trkpt lat="43.4230292" lon="12.0071788"><ele>802.5999999999999</ele><time>2026-04-24T16:51:05.057Z</time></trkpt><trkpt lat="43.4231051" lon="12.0070924"><ele>798.4</ele><time>2026-04-24T16:51:07.062Z</time></trkpt><trkpt lat="43.4231809" lon="12.0070414"><ele>794.2</ele><time>2026-04-24T16:51:09.065Z</time></trkpt><trkpt lat="43.4232744" lon="12.0069789"><ele>790.0</ele><time>2026-04-24T16:51:11.07Z</time></trkpt><trkpt lat="43.423321" lon="12.0069127"><ele>789.9999999999999</ele><time>2026-04-24T16:51:13.062Z</time></trkpt><trkpt lat="43.4233545" lon="12.006832"><ele>790.0</ele><time>2026-04-24T16:51:15.07Z</time></trkpt><trkpt lat="43.423406" lon="12.0067076"><ele>790.0</ele><time>2026-04-24T16:51:17.07Z</time></trkpt><trkpt lat="43.4234262" lon="12.0066224"><ele>790.0</ele><time>2026-04-24T16:51:18.066Z</time></trkpt><trkpt lat="43.4234416" lon="12.0065042"><ele>789.9999999999999</ele><time>2026-04-24T16:51:19.069Z</time></trkpt><trkpt lat="43.4234687" lon="12.0063775"><ele>790.0</ele><time>2026-04-24T16:51:20.066Z</time></trkpt><trkpt lat="43.4234863" lon="12.0062457"><ele>787.6666666666666</ele><time>2026-04-24T16:51:21.067Z</time></trkpt><trkpt lat="43.4235082" lon="12.0061419"><ele>785.3333333333333</ele><time>2026-04-24T16:51:22.063Z</time></trkpt><trkpt lat="43.4235356" lon="12.0060385"><ele>783.0</ele><time>2026-04-24T16:51:23.075Z</time></trkpt><trkpt lat="43.4235535" lon="12.005917"><ele>780.6666666666667</ele><time>2026-04-24T16:51:24.074Z</time></trkpt><trkpt lat="43.4235657" lon="12.0057945"><ele>778.3333333333334</ele><time>2026-04-24T16:51:25.059Z</time></trkpt><trkpt lat="43.4235778" lon="12.0057022"><ele>776.0</ele><time>2026-04-24T16:51:26.069Z</time></trkpt><trkpt lat="43.4236293" lon="12.0056278"><ele>774.1666666666667</ele><time>2026-04-24T16:51:27.06Z</time></trkpt><trkpt lat="43.4236958" lon="12.0055698"><ele>772.3333333333334</ele><time>2026-04-24T16:51:28.063Z</time></trkpt><trkpt lat="43.4237733" lon="12.005512"><ele>770.5</ele><time>2026-04-24T16:51:29.064Z</time></trkpt><trkpt lat="43.4238668" lon="12.0054426"><ele>768.6666666666667</ele><time>2026-04-24T16:51:30.056Z</time></trkpt><trkpt lat="43.4239554" lon="12.005394"><ele>766.8333333333334</ele><time>2026-04-24T16:51:31.056Z</time></trkpt><trkpt lat="43.4240153" lon="12.005337"><ele>765.0</ele><time>2026-04-24T16:51:32.064Z</time></trkpt><trkpt lat="43.4240632" lon="12.0052795"><ele>765.0</ele><time>2026-04-24T16:51:33.055Z</time></trkpt><trkpt lat="43.4241036" lon="12.0052086"><ele>765.0</ele><time>2026-04-24T16:51:34.064Z</time></trkpt><trkpt lat="43.4241455" lon="12.0051409"><ele>765.0</ele><time>2026-04-24T16:51:35.06Z</time></trkpt><trkpt lat="43.4242244" lon="12.0050222"><ele>765.0</ele><time>2026-04-24T16:51:37.074Z</time></trkpt><trkpt lat="43.4242885" lon="12.0049952"><ele>765.0</ele><time>2026-04-24T16:51:39.066Z</time></trkpt><trkpt lat="43.4243747" lon="12.004969"><ele>765.0</ele><time>2026-04-24T16:51:48.056Z</time></trkpt><trkpt lat="43.4244521" lon="12.0049112"><ele>763.0</ele><time>2026-04-24T16:51:49.074Z</time></trkpt><trkpt lat="43.4245232" lon="12.0048441"><ele>761.0</ele><time>2026-04-24T16:51:50.066Z</time></trkpt><trkpt lat="43.4245974" lon="12.004757"><ele>759.0</ele><time>2026-04-24T16:51:51.064Z</time></trkpt><trkpt lat="43.4246689" lon="12.0046545"><ele>757.0</ele><time>2026-04-24T16:51:52.076Z</time></trkpt><trkpt lat="43.4247492" lon="12.0045613"><ele>755.0</ele><time>2026-04-24T16:51:53.065Z</time></trkpt><trkpt lat="43.4248337" lon="12.004479"><ele>755.0</ele><time>2026-04-24T16:51:54.082Z</time></trkpt><trkpt lat="43.4249272" lon="12.0043962"><ele>755.0</ele><time>2026-04-24T16:51:55.067Z</time></trkpt><trkpt lat="43.4250291" lon="12.004305"><ele>755.0</ele><time>2026-04-24T16:51:56.056Z</time></trkpt><trkpt lat="43.4251323" lon="12.0042175"><ele>755.0</ele><time>2026-04-24T16:51:57.074Z</time></trkpt><trkpt lat="43.4252235" lon="12.0041498"><ele>752.6</ele><time>2026-04-24T16:51:58.066Z</time></trkpt><trkpt lat="43.4253093" lon="12.0040921"><ele>750.2</ele><time>2026-04-24T16:51:59.076Z</time></trkpt><trkpt lat="43.4254025" lon="12.00405"><ele>747.8</ele><time>2026-04-24T16:52:00.064Z</time></trkpt><trkpt lat="43.4254829" lon="12.0039966"><ele>745.4</ele><time>2026-04-24T16:52:01.066Z</time></trkpt><trkpt lat="43.4255547" lon="12.0039206"><ele>743.0</ele><time>2026-04-24T16:52:02.096Z</time></trkpt><trkpt lat="43.425618" lon="12.0038294"><ele>743.0</ele><time>2026-04-24T16:52:03.085Z</time></trkpt><trkpt lat="43.4256932" lon="12.0037332"><ele>743.0</ele><time>2026-04-24T16:52:04.074Z</time></trkpt><trkpt lat="43.4257839" lon="12.0036141"><ele>743.0</ele><time>2026-04-24T16:52:05.06Z</time></trkpt><trkpt lat="43.4258784" lon="12.0035007"><ele>743.0</ele><time>2026-04-24T16:52:06.075Z</time></trkpt><trkpt lat="43.4259533" lon="12.0034307"><ele>743.0</ele><time>2026-04-24T16:52:07.064Z</time></trkpt><trkpt lat="43.4260326" lon="12.0034355"><ele>743.0</ele><time>2026-04-24T16:52:09.064Z</time></trkpt><trkpt lat="43.4260958" lon="12.0035142"><ele>743.0</ele><time>2026-04-24T16:52:12.055Z</time></trkpt><trkpt lat="43.4262305" lon="12.0034726"><ele>743.0</ele><time>2026-04-24T16:52:14.054Z</time></trkpt><trkpt lat="43.4262932" lon="12.0034538"><ele>743.0</ele><time>2026-04-24T16:52:15.06Z</time></trkpt><trkpt lat="43.4263692" lon="12.0034096"><ele>743.0</ele><time>2026-04-24T16:52:16.069Z</time></trkpt><trkpt lat="43.4264551" lon="12.0033658"><ele>741.8</ele><time>2026-04-24T16:52:17.067Z</time></trkpt><trkpt lat="43.4265437" lon="12.0033048"><ele>740.5999999999999</ele><time>2026-04-24T16:52:18.062Z</time></trkpt><trkpt lat="43.4266268" lon="12.0032313"><ele>739.4000000000001</ele><time>2026-04-24T16:52:19.071Z</time></trkpt><trkpt lat="43.426699" lon="12.0031578"><ele>738.2</ele><time>2026-04-24T16:52:20.071Z</time></trkpt><trkpt lat="43.4267684" lon="12.0030818"><ele>737.0</ele><time>2026-04-24T16:52:21.07Z</time></trkpt><trkpt lat="43.4268342" lon="12.0030197"><ele>737.0000000000001</ele><time>2026-04-24T16:52:22.058Z</time></trkpt><trkpt lat="43.4269021" lon="12.0029744"><ele>737.0</ele><time>2026-04-24T16:52:23.063Z</time></trkpt><trkpt lat="43.4269712" lon="12.0029349"><ele>737.0</ele><time>2026-04-24T16:52:24.072Z</time></trkpt><trkpt lat="43.4270349" lon="12.0028914"><ele>737.0</ele><time>2026-04-24T16:52:25.067Z</time></trkpt><trkpt lat="43.4270915" lon="12.0028372"><ele>737.0</ele><time>2026-04-24T16:52:26.057Z</time></trkpt><trkpt lat="43.4271435" lon="12.0027843"><ele>737.0000000000001</ele><time>2026-04-24T16:52:27.063Z</time></trkpt><trkpt lat="43.4272018" lon="12.002734"><ele>737.0</ele><time>2026-04-24T16:52:28.06Z</time></trkpt><trkpt lat="43.4272766" lon="12.00268"><ele>737.0</ele><time>2026-04-24T16:52:29.075Z</time></trkpt><trkpt lat="43.4273502" lon="12.0025954"><ele>737.0</ele><time>2026-04-24T16:52:30.068Z</time></trkpt><trkpt lat="43.4274143" lon="12.0025123"><ele>737.0</ele><time>2026-04-24T16:52:31.065Z</time></trkpt><trkpt lat="43.4274741" lon="12.002416"><ele>737.0</ele><time>2026-04-24T16:52:32.059Z</time></trkpt><trkpt lat="43.4275307" lon="12.0023246"><ele>737.0</ele><time>2026-04-24T16:52:33.057Z</time></trkpt><trkpt lat="43.4275828" lon="12.0022228"><ele>736.0</ele><time>2026-04-24T16:52:34.06Z</time></trkpt><trkpt lat="43.4276316" lon="12.0021347"><ele>735.0</ele><time>2026-04-24T16:52:35.062Z</time></trkpt><trkpt lat="43.4276708" lon="12.0020598"><ele>734.0</ele><time>2026-04-24T16:52:36.063Z</time></trkpt><trkpt lat="43.427712" lon="12.0019436"><ele>733.0</ele><time>2026-04-24T16:52:38.07Z</time></trkpt><trkpt lat="43.4276911" lon="12.0018213"><ele>732.0</ele><time>2026-04-24T16:52:40.059Z</time></trkpt><trkpt lat="43.4276989" lon="12.0017058"><ele>731.0</ele><time>2026-04-24T16:52:42.069Z</time></trkpt><trkpt lat="43.4277742" lon="12.0016148"><ele>728.4</ele><time>2026-04-24T16:52:44.057Z</time></trkpt><trkpt lat="43.4278694" lon="12.0015849"><ele>725.8</ele><time>2026-04-24T16:52:46.068Z</time></trkpt><trkpt lat="43.4279562" lon="12.0016198"><ele>723.1999999999999</ele><time>2026-04-24T16:52:48.059Z</time></trkpt><trkpt lat="43.4280506" lon="12.0015826"><ele>720.5999999999999</ele><time>2026-04-24T16:52:50.059Z</time></trkpt><trkpt lat="43.4281121" lon="12.0015052"><ele>718.0</ele><time>2026-04-24T16:52:52.062Z</time></trkpt><trkpt lat="43.4281322" lon="12.0013774"><ele>718.0</ele><time>2026-04-24T16:52:54.063Z</time></trkpt><trkpt lat="43.4281393" lon="12.0012898"><ele>718.0</ele><time>2026-04-24T16:52:55.059Z</time></trkpt><trkpt lat="43.4281454" lon="12.001185"><ele>718.0</ele><time>2026-04-24T16:52:56.054Z</time></trkpt><trkpt lat="43.4281577" lon="12.0010893"><ele>718.0</ele><time>2026-04-24T16:52:57.057Z</time></trkpt><trkpt lat="43.4281928" lon="12.0009205"><ele>718.0</ele><time>2026-04-24T16:52:59.064Z</time></trkpt><trkpt lat="43.4282282" lon="12.0008195"><ele>718.0</ele><time>2026-04-24T16:53:00.065Z</time></trkpt><trkpt lat="43.4282735" lon="12.000734"><ele>716.1428571428571</ele><time>2026-04-24T16:53:01.065Z</time></trkpt><trkpt lat="43.4283243" lon="12.0006564"><ele>714.2857142857143</ele><time>2026-04-24T16:53:02.059Z</time></trkpt><trkpt lat="43.428381" lon="12.0005931"><ele>712.4285714285713</ele><time>2026-04-24T16:53:03.054Z</time></trkpt><trkpt lat="43.4284423" lon="12.0005408"><ele>710.5714285714286</ele><time>2026-04-24T16:53:04.062Z</time></trkpt><trkpt lat="43.4284961" lon="12.0004936"><ele>708.7142857142857</ele><time>2026-04-24T16:53:05.056Z</time></trkpt><trkpt lat="43.4285419" lon="12.000428"><ele>706.8571428571428</ele><time>2026-04-24T16:53:06.067Z</time></trkpt><trkpt lat="43.4285705" lon="12.0003475"><ele>705.0</ele><time>2026-04-24T16:53:07.061Z</time></trkpt><trkpt lat="43.428618" lon="12.0002504"><ele>705.0</ele><time>2026-04-24T16:53:09.059Z</time></trkpt><trkpt lat="43.4286753" lon="12.0001284"><ele>705.0</ele><time>2026-04-24T16:53:11.076Z</time></trkpt><trkpt lat="43.4287479" lon="12.0000655"><ele>705.0</ele><time>2026-04-24T16:53:13.056Z</time></trkpt><trkpt lat="43.4288355" lon="12.0000176"><ele>705.0</ele><time>2026-04-24T16:53:15.067Z</time></trkpt><trkpt lat="43.4288614" lon="11.9999236"><ele>705.0</ele><time>2026-04-24T16:53:17.065Z</time></trkpt><trkpt lat="43.4287851" lon="11.9998612"><ele>705.0</ele><time>2026-04-24T16:53:19.055Z</time></trkpt><trkpt lat="43.4286692" lon="11.9998098"><ele>705.0</ele><time>2026-04-24T16:53:21.061Z</time></trkpt><trkpt lat="43.4285692" lon="11.9997593"><ele>705.0</ele><time>2026-04-24T16:53:23.068Z</time></trkpt><trkpt lat="43.4285105" lon="11.999696"><ele>705.0</ele><time>2026-04-24T16:53:25.067Z</time></trkpt><trkpt lat="43.4285131" lon="11.9995913"><ele>705.0</ele><time>2026-04-24T16:53:27.058Z</time></trkpt><trkpt lat="43.428582" lon="11.9994266"><ele>705.0</ele><time>2026-04-24T16:53:29.061Z</time></trkpt><trkpt lat="43.4286186" lon="11.9993334"><ele>704.9999999999999</ele><time>2026-04-24T16:53:30.066Z</time></trkpt><trkpt lat="43.4286501" lon="11.9992367"><ele>705.0</ele><time>2026-04-24T16:53:31.061Z</time></trkpt><trkpt lat="43.4286882" lon="11.999145"><ele>705.0</ele><time>2026-04-24T16:53:32.064Z</time></trkpt><trkpt lat="43.4287247" lon="11.9990494"><ele>705.0</ele><time>2026-04-24T16:53:33.06Z</time></trkpt><trkpt lat="43.4287483" lon="11.9989571"><ele>705.0</ele><time>2026-04-24T16:53:34.055Z</time></trkpt><trkpt lat="43.4287602" lon="11.9988641"><ele>704.9999999999999</ele><time>2026-04-24T16:53:35.062Z</time></trkpt><trkpt lat="43.4287545" lon="11.9987747"><ele>705.0</ele><time>2026-04-24T16:53:36.068Z</time></trkpt><trkpt lat="43.4287353" lon="11.9986824"><ele>703.1666666666666</ele><time>2026-04-24T16:53:37.071Z</time></trkpt><trkpt lat="43.4287187" lon="11.9985867"><ele>701.3333333333334</ele><time>2026-04-24T16:53:38.068Z</time></trkpt><trkpt lat="43.4287003" lon="11.9984877"><ele>699.5</ele><time>2026-04-24T16:53:39.073Z</time></trkpt><trkpt lat="43.4286789" lon="11.9983842"><ele>697.6666666666667</ele><time>2026-04-24T16:53:40.065Z</time></trkpt><trkpt lat="43.4286559" lon="11.9982646"><ele>695.8333333333334</ele><time>2026-04-24T16:53:41.054Z</time></trkpt><trkpt lat="43.4286242" lon="11.9981414"><ele>694.0</ele><time>2026-04-24T16:53:42.07Z</time></trkpt><trkpt lat="43.4285889" lon="11.998016"><ele>693.8333333333334</ele><time>2026-04-24T16:53:43.056Z</time></trkpt><trkpt lat="43.428554" lon="11.9979005"><ele>693.6666666666667</ele><time>2026-04-24T16:53:44.063Z</time></trkpt><trkpt lat="43.4285201" lon="11.9977922"><ele>693.5</ele><time>2026-04-24T16:53:45.064Z</time></trkpt><trkpt lat="43.4284817" lon="11.9976873"><ele>693.3333333333334</ele><time>2026-04-24T16:53:46.061Z</time></trkpt><trkpt lat="43.4284512" lon="11.9975778"><ele>693.1666666666666</ele><time>2026-04-24T16:53:47.075Z</time></trkpt><trkpt lat="43.4284281" lon="11.9974796"><ele>693.0</ele><time>2026-04-24T16:53:48.071Z</time></trkpt><trkpt lat="43.4284201" lon="11.9973659"><ele>693.3333333333334</ele><time>2026-04-24T16:53:49.071Z</time></trkpt><trkpt lat="43.4284145" lon="11.99725"><ele>693.6666666666666</ele><time>2026-04-24T16:53:50.069Z</time></trkpt><trkpt lat="43.4284203" lon="11.9971325"><ele>694.0</ele><time>2026-04-24T16:53:51.073Z</time></trkpt><trkpt lat="43.42843" lon="11.9970154"><ele>694.3333333333333</ele><time>2026-04-24T16:53:52.066Z</time></trkpt><trkpt lat="43.4284522" lon="11.9969166"><ele>694.6666666666666</ele><time>2026-04-24T16:53:53.061Z</time></trkpt><trkpt lat="43.4284776" lon="11.9968256"><ele>695.0</ele><time>2026-04-24T16:53:54.081Z</time></trkpt><trkpt lat="43.4285092" lon="11.9967423"><ele>694.0</ele><time>2026-04-24T16:53:55.077Z</time></trkpt><trkpt lat="43.4285423" lon="11.9966542"><ele>693.0</ele><time>2026-04-24T16:53:56.08Z</time></trkpt><trkpt lat="43.428577" lon="11.996555"><ele>692.0</ele><time>2026-04-24T16:53:57.06Z</time></trkpt><trkpt lat="43.4286082" lon="11.9964424"><ele>691.0</ele><time>2026-04-24T16:53:58.063Z</time></trkpt><trkpt lat="43.4286297" lon="11.9963377"><ele>690.0</ele><time>2026-04-24T16:53:59.066Z</time></trkpt><trkpt lat="43.4286438" lon="11.9962379"><ele>689.0</ele><time>2026-04-24T16:54:00.057Z</time></trkpt><trkpt lat="43.4286486" lon="11.9961407"><ele>689.0</ele><time>2026-04-24T16:54:01.067Z</time></trkpt><trkpt lat="43.4286419" lon="11.9960405"><ele>689.0</ele><time>2026-04-24T16:54:02.068Z</time></trkpt><trkpt lat="43.428625" lon="11.9959458"><ele>689.0</ele><time>2026-04-24T16:54:03.076Z</time></trkpt><trkpt lat="43.4286081" lon="11.9958408"><ele>689.0</ele><time>2026-04-24T16:54:04.08Z</time></trkpt><trkpt lat="43.4285906" lon="11.9957324"><ele>689.0</ele><time>2026-04-24T16:54:05.073Z</time></trkpt><trkpt lat="43.4285757" lon="11.9956295"><ele>689.0</ele><time>2026-04-24T16:54:06.072Z</time></trkpt><trkpt lat="43.4285659" lon="11.9955206"><ele>687.6666666666666</ele><time>2026-04-24T16:54:07.07Z</time></trkpt><trkpt lat="43.4285496" lon="11.9954166"><ele>686.3333333333333</ele><time>2026-04-24T16:54:08.07Z</time></trkpt><trkpt lat="43.4285369" lon="11.995306"><ele>685.0</ele><time>2026-04-24T16:54:09.061Z</time></trkpt><trkpt lat="43.4285289" lon="11.995197"><ele>683.6666666666666</ele><time>2026-04-24T16:54:10.075Z</time></trkpt><trkpt lat="43.4285167" lon="11.9951027"><ele>682.3333333333334</ele><time>2026-04-24T16:54:11.063Z</time></trkpt><trkpt lat="43.4285012" lon="11.9950061"><ele>681.0</ele><time>2026-04-24T16:54:12.068Z</time></trkpt><trkpt lat="43.4284926" lon="11.9949064"><ele>679.8333333333334</ele><time>2026-04-24T16:54:13.066Z</time></trkpt><trkpt lat="43.4284895" lon="11.9948194"><ele>678.6666666666666</ele><time>2026-04-24T16:54:14.074Z</time></trkpt><trkpt lat="43.4284872" lon="11.9947267"><ele>677.5</ele><time>2026-04-24T16:56:31.079Z</time></trkpt><trkpt lat="43.4284572" lon="11.9946246"><ele>676.3333333333333</ele><time>2026-04-24T16:56:34.074Z</time></trkpt><trkpt lat="43.428406" lon="11.9945241"><ele>675.1666666666666</ele><time>2026-04-24T16:56:36.078Z</time></trkpt><trkpt lat="43.4283251" lon="11.9944009"><ele>674.0</ele><time>2026-04-24T16:56:38.081Z</time></trkpt><trkpt lat="43.4282762" lon="11.9943392"><ele>674.0</ele><time>2026-04-24T16:56:39.078Z</time></trkpt><trkpt lat="43.4282288" lon="11.9942746"><ele>674.0</ele><time>2026-04-24T16:56:40.071Z</time></trkpt><trkpt lat="43.4281555" lon="11.9941734"><ele>674.0</ele><time>2026-04-24T16:56:42.08Z</time></trkpt><trkpt lat="43.4280885" lon="11.9941489"><ele>674.0</ele><time>2026-04-24T16:56:44.069Z</time></trkpt><trkpt lat="43.4280191" lon="11.9942332"><ele>674.0</ele><time>2026-04-24T16:56:46.066Z</time></trkpt><trkpt lat="43.4279679" lon="11.994355"><ele>674.0</ele><time>2026-04-24T16:56:48.07Z</time></trkpt><trkpt lat="43.4279072" lon="11.9944474"><ele>669.0</ele><time>2026-04-24T16:56:50.06Z</time></trkpt><trkpt lat="43.4278306" lon="11.9944291"><ele>664.0</ele><time>2026-04-24T16:56:52.057Z</time></trkpt><trkpt lat="43.4277998" lon="11.9943002"><ele>659.0</ele><time>2026-04-24T16:56:54.113Z</time></trkpt><trkpt lat="43.4277951" lon="11.9942045"><ele>654.0</ele><time>2026-04-24T16:56:55.053Z</time></trkpt><trkpt lat="43.4277952" lon="11.9940919"><ele>649.0</ele><time>2026-04-24T16:56:56.075Z</time></trkpt><trkpt lat="43.427787" lon="11.9939966"><ele>644.0</ele><time>2026-04-24T16:56:57.068Z</time></trkpt><trkpt lat="43.4277645" lon="11.9939025"><ele>643.5</ele><time>2026-04-24T16:56:58.069Z</time></trkpt><trkpt lat="43.4277304" lon="11.9938247"><ele>643.0</ele><time>2026-04-24T16:56:59.059Z</time></trkpt><trkpt lat="43.4276566" lon="11.993715"><ele>642.5</ele><time>2026-04-24T16:57:01.069Z</time></trkpt><trkpt lat="43.4276237" lon="11.9936031"><ele>642.0</ele><time>2026-04-24T16:57:03.072Z</time></trkpt><trkpt lat="43.4275875" lon="11.993451"><ele>641.5</ele><time>2026-04-24T16:57:05.072Z</time></trkpt><trkpt lat="43.4275537" lon="11.9933765"><ele>641.0</ele><time>2026-04-24T16:57:06.057Z</time></trkpt><trkpt lat="43.4275021" lon="11.9933178"><ele>641.0</ele><time>2026-04-24T16:57:07.066Z</time></trkpt><trkpt lat="43.4274432" lon="11.9932869"><ele>641.0</ele><time>2026-04-24T16:57:08.073Z</time></trkpt><trkpt lat="43.4273468" lon="11.9933055"><ele>641.0</ele><time>2026-04-24T16:57:10.103Z</time></trkpt><trkpt lat="43.427258" lon="11.9933513"><ele>641.0</ele><time>2026-04-24T16:57:12.066Z</time></trkpt><trkpt lat="43.4271638" lon="11.9932726"><ele>641.0</ele><time>2026-04-24T16:57:14.07Z</time></trkpt><trkpt lat="43.427116" lon="11.9931004"><ele>635.5999999999999</ele><time>2026-04-24T16:57:16.066Z</time></trkpt><trkpt lat="43.4270914" lon="11.9929909"><ele>630.1999999999999</ele><time>2026-04-24T16:57:17.063Z</time></trkpt><trkpt lat="43.4270736" lon="11.9928663"><ele>624.8</ele><time>2026-04-24T16:57:18.072Z</time></trkpt><trkpt lat="43.4270554" lon="11.9927248"><ele>619.4</ele><time>2026-04-24T16:57:19.07Z</time></trkpt><trkpt lat="43.4270535" lon="11.9925876"><ele>614.0</ele><time>2026-04-24T16:57:20.056Z</time></trkpt><trkpt lat="43.4270601" lon="11.992428"><ele>613.0</ele><time>2026-04-24T16:57:21.064Z</time></trkpt><trkpt lat="43.427057" lon="11.9922581"><ele>612.0</ele><time>2026-04-24T16:57:22.054Z</time></trkpt><trkpt lat="43.4270534" lon="11.9920969"><ele>611.0</ele><time>2026-04-24T16:57:23.077Z</time></trkpt><trkpt lat="43.4270442" lon="11.9919405"><ele>610.0</ele><time>2026-04-24T16:57:24.061Z</time></trkpt><trkpt lat="43.4270279" lon="11.9917937"><ele>608.4</ele><time>2026-04-24T16:57:25.068Z</time></trkpt><trkpt lat="43.4270087" lon="11.9916625"><ele>606.8</ele><time>2026-04-24T16:57:26.065Z</time></trkpt><trkpt lat="43.426988" lon="11.9915426"><ele>605.2</ele><time>2026-04-24T16:57:27.109Z</time></trkpt><trkpt lat="43.4269697" lon="11.9914463"><ele>603.6</ele><time>2026-04-24T16:57:28.068Z</time></trkpt><trkpt lat="43.4269741" lon="11.9912892"><ele>602.0</ele><time>2026-04-24T16:57:30.067Z</time></trkpt><trkpt lat="43.4270834" lon="11.9912021"><ele>602.0</ele><time>2026-04-24T16:57:32.07Z</time></trkpt><trkpt lat="43.4271819" lon="11.9911515"><ele>602.0</ele><time>2026-04-24T16:57:34.068Z</time></trkpt><trkpt lat="43.4272141" lon="11.991018"><ele>602.0</ele><time>2026-04-24T16:57:36.06Z</time></trkpt><trkpt lat="43.427129" lon="11.9908635"><ele>602.0</ele><time>2026-04-24T16:57:38.07Z</time></trkpt><trkpt lat="43.4270611" lon="11.9907758"><ele>602.0</ele><time>2026-04-24T16:57:39.065Z</time></trkpt><trkpt lat="43.4269834" lon="11.9906744"><ele>599.8000000000001</ele><time>2026-04-24T16:57:40.065Z</time></trkpt><trkpt lat="43.4269009" lon="11.990562"><ele>597.6</ele><time>2026-04-24T16:57:41.06Z</time></trkpt><trkpt lat="43.4268139" lon="11.9904558"><ele>595.4000000000001</ele><time>2026-04-24T16:57:42.07Z</time></trkpt><trkpt lat="43.4267355" lon="11.9903589"><ele>593.2</ele><time>2026-04-24T16:57:43.061Z</time></trkpt><trkpt lat="43.4266685" lon="11.9902859"><ele>591.0</ele><time>2026-04-24T16:57:44.069Z</time></trkpt><trkpt lat="43.4266126" lon="11.9902281"><ele>591.0</ele><time>2026-04-24T16:57:45.175Z</time></trkpt><trkpt lat="43.4265508" lon="11.9901422"><ele>591.0</ele><time>2026-04-24T16:57:47.126Z</time></trkpt><trkpt lat="43.4265913" lon="11.9900413"><ele>591.0</ele><time>2026-04-24T16:57:49.126Z</time></trkpt><trkpt lat="43.4266506" lon="11.9900109"><ele>591.0</ele><time>2026-04-24T16:57:50.066Z</time></trkpt><trkpt lat="43.4267468" lon="11.9899262"><ele>591.0</ele><time>2026-04-24T16:57:52.077Z</time></trkpt><trkpt lat="43.426754" lon="11.9898273"><ele>591.0</ele><time>2026-04-24T16:57:54.062Z</time></trkpt><trkpt lat="43.4266604" lon="11.9897093"><ele>589.0</ele><time>2026-04-24T16:57:56.066Z</time></trkpt><trkpt lat="43.4265848" lon="11.9896472"><ele>587.0</ele><time>2026-04-24T16:57:57.057Z</time></trkpt><trkpt lat="43.4265074" lon="11.98959"><ele>585.0</ele><time>2026-04-24T16:57:58.068Z</time></trkpt><trkpt lat="43.4264475" lon="11.9895431"><ele>583.0</ele><time>2026-04-24T16:57:59.074Z</time></trkpt><trkpt lat="43.4263872" lon="11.9894885"><ele>581.0</ele><time>2026-04-24T16:58:01.076Z</time></trkpt><trkpt lat="43.4263569" lon="11.9894108"><ele>579.0</ele><time>2026-04-24T16:58:03.064Z</time></trkpt><trkpt lat="43.426359" lon="11.9892692"><ele>575.8333333333334</ele><time>2026-04-24T16:58:05.07Z</time></trkpt><trkpt lat="43.4264077" lon="11.9891739"><ele>572.6666666666666</ele><time>2026-04-24T16:58:06.073Z</time></trkpt><trkpt lat="43.4264497" lon="11.9891015"><ele>569.5</ele><time>2026-04-24T16:58:07.066Z</time></trkpt><trkpt lat="43.4265418" lon="11.9890442"><ele>566.3333333333333</ele><time>2026-04-24T16:58:09.067Z</time></trkpt><trkpt lat="43.4266028" lon="11.98902"><ele>563.1666666666666</ele><time>2026-04-24T16:58:10.063Z</time></trkpt><trkpt lat="43.4266615" lon="11.9889763"><ele>560.0</ele><time>2026-04-24T16:58:11.079Z</time></trkpt><trkpt lat="43.4267438" lon="11.9888942"><ele>560.0</ele><time>2026-04-24T16:58:13.072Z</time></trkpt><trkpt lat="43.4267589" lon="11.9887547"><ele>560.0</ele><time>2026-04-24T16:58:15.061Z</time></trkpt><trkpt lat="43.4267317" lon="11.9886751"><ele>560.0</ele><time>2026-04-24T16:58:16.069Z</time></trkpt><trkpt lat="43.4266911" lon="11.9885101"><ele>560.0</ele><time>2026-04-24T16:58:18.087Z</time></trkpt><trkpt lat="43.4266688" lon="11.9883343"><ele>560.0</ele><time>2026-04-24T16:58:20.067Z</time></trkpt><trkpt lat="43.4266568" lon="11.9882386"><ele>557.8571428571429</ele><time>2026-04-24T16:58:21.062Z</time></trkpt><trkpt lat="43.426644" lon="11.9881438"><ele>555.7142857142858</ele><time>2026-04-24T16:58:22.131Z</time></trkpt><trkpt lat="43.426626" lon="11.9880427"><ele>553.5714285714286</ele><time>2026-04-24T16:58:23.133Z</time></trkpt><trkpt lat="43.4266045" lon="11.98794"><ele>551.4285714285714</ele><time>2026-04-24T16:58:24.147Z</time></trkpt><trkpt lat="43.4265865" lon="11.9878438"><ele>549.2857142857143</ele><time>2026-04-24T16:58:25.136Z</time></trkpt><trkpt lat="43.4265766" lon="11.9877459"><ele>547.1428571428571</ele><time>2026-04-24T16:58:26.137Z</time></trkpt><trkpt lat="43.4265886" lon="11.9876375"><ele>545.0</ele><time>2026-04-24T16:58:27.066Z</time></trkpt><trkpt lat="43.4266068" lon="11.9875245"><ele>543.0</ele><time>2026-04-24T16:58:28.077Z</time></trkpt><trkpt lat="43.4266214" lon="11.9874175"><ele>541.0</ele><time>2026-04-24T16:58:29.062Z</time></trkpt><trkpt lat="43.4266325" lon="11.9873093"><ele>539.0</ele><time>2026-04-24T16:58:30.07Z</time></trkpt><trkpt lat="43.4266418" lon="11.9871948"><ele>537.0</ele><time>2026-04-24T16:58:31.07Z</time></trkpt><trkpt lat="43.4266481" lon="11.9870795"><ele>535.0</ele><time>2026-04-24T16:58:32.072Z</time></trkpt><trkpt lat="43.4266467" lon="11.9869675"><ele>533.0</ele><time>2026-04-24T16:58:33.067Z</time></trkpt><trkpt lat="43.4266273" lon="11.9868554"><ele>533.0</ele><time>2026-04-24T16:58:34.065Z</time></trkpt><trkpt lat="43.4265925" lon="11.9867539"><ele>533.0</ele><time>2026-04-24T16:58:35.063Z</time></trkpt><trkpt lat="43.4265309" lon="11.986654"><ele>533.0</ele><time>2026-04-24T16:58:36.079Z</time></trkpt><trkpt lat="43.4264644" lon="11.9865796"><ele>533.0</ele><time>2026-04-24T16:58:37.068Z</time></trkpt><trkpt lat="43.4264146" lon="11.9865232"><ele>533.0</ele><time>2026-04-24T16:58:38.065Z</time></trkpt><trkpt lat="43.4263507" lon="11.9864085"><ele>533.0</ele><time>2026-04-24T16:58:40.065Z</time></trkpt><trkpt lat="43.4263784" lon="11.9863097"><ele>530.4</ele><time>2026-04-24T16:58:42.068Z</time></trkpt><trkpt lat="43.4264558" lon="11.9862332"><ele>527.8</ele><time>2026-04-24T16:58:44.067Z</time></trkpt><trkpt lat="43.4264418" lon="11.9860987"><ele>525.2</ele><time>2026-04-24T16:58:46.063Z</time></trkpt><trkpt lat="43.4264224" lon="11.9859583"><ele>522.6</ele><time>2026-04-24T16:58:48.065Z</time></trkpt><trkpt lat="43.4264294" lon="11.9858168"><ele>520.0</ele><time>2026-04-24T16:58:50.065Z</time></trkpt><trkpt lat="43.4263345" lon="11.985689"><ele>517.3333333333334</ele><time>2026-04-24T16:58:52.068Z</time></trkpt><trkpt lat="43.4262789" lon="11.9855725"><ele>514.6666666666667</ele><time>2026-04-24T16:58:54.062Z</time></trkpt><trkpt lat="43.4263231" lon="11.9854287"><ele>512.0</ele><time>2026-04-24T16:58:56.059Z</time></trkpt><trkpt lat="43.426372" lon="11.9853729"><ele>509.33333333333337</ele><time>2026-04-24T16:58:57.071Z</time></trkpt><trkpt lat="43.4264373" lon="11.9853599"><ele>506.6666666666667</ele><time>2026-04-24T16:58:58.051Z</time></trkpt><trkpt lat="43.4265108" lon="11.9853219"><ele>504.0</ele><time>2026-04-24T16:59:00.057Z</time></trkpt><trkpt lat="43.426446" lon="11.9851896"><ele>504.0</ele><time>2026-04-24T16:59:02.052Z</time></trkpt><trkpt lat="43.4263852" lon="11.9851425"><ele>504.0</ele><time>2026-04-24T16:59:03.054Z</time></trkpt><trkpt lat="43.4263199" lon="11.985101"><ele>504.0</ele><time>2026-04-24T16:59:04.068Z</time></trkpt><trkpt lat="43.4262465" lon="11.9850087"><ele>504.0</ele><time>2026-04-24T16:59:07.061Z</time></trkpt><trkpt lat="43.4262821" lon="11.9848468"><ele>504.0</ele><time>2026-04-24T16:59:09.06Z</time></trkpt><trkpt lat="43.4263445" lon="11.9847921"><ele>504.0</ele><time>2026-04-24T16:59:10.06Z</time></trkpt><trkpt lat="43.4264248" lon="11.9847657"><ele>501.5</ele><time>2026-04-24T16:59:11.064Z</time></trkpt><trkpt lat="43.4265117" lon="11.984721"><ele>499.0</ele><time>2026-04-24T16:59:13.062Z</time></trkpt><trkpt lat="43.4264807" lon="11.984598"><ele>496.5</ele><time>2026-04-24T16:59:15.065Z</time></trkpt><trkpt lat="43.4264249" lon="11.9845291"><ele>494.0</ele><time>2026-04-24T16:59:16.063Z</time></trkpt><trkpt lat="43.4263513" lon="11.9844781"><ele>491.5</ele><time>2026-04-24T16:59:17.061Z</time></trkpt><trkpt lat="43.4262905" lon="11.9844058"><ele>489.0</ele><time>2026-04-24T16:59:18.077Z</time></trkpt><trkpt lat="43.4262154" lon="11.9842916"><ele>486.4</ele><time>2026-04-24T16:59:20.064Z</time></trkpt><trkpt lat="43.4262296" lon="11.9841287"><ele>483.79999999999995</ele><time>2026-04-24T16:59:22.057Z</time></trkpt><trkpt lat="43.4262673" lon="11.9840463"><ele>481.20000000000005</ele><time>2026-04-24T16:59:23.063Z</time></trkpt><trkpt lat="43.4263409" lon="11.9839748"><ele>478.6</ele><time>2026-04-24T16:59:24.062Z</time></trkpt><trkpt lat="43.4264132" lon="11.9839152"><ele>476.0</ele><time>2026-04-24T16:59:25.062Z</time></trkpt><trkpt lat="43.4264896" lon="11.9838069"><ele>476.0</ele><time>2026-04-24T16:59:26.051Z</time></trkpt><trkpt lat="43.4265416" lon="11.9836339"><ele>476.0</ele><time>2026-04-24T16:59:27.071Z</time></trkpt><trkpt lat="43.4265931" lon="11.9834339"><ele>476.0</ele><time>2026-04-24T16:59:28.065Z</time></trkpt><trkpt lat="43.4266478" lon="11.983204"><ele>474.0</ele><time>2026-04-24T16:59:29.062Z</time></trkpt><trkpt lat="43.4267075" lon="11.9830041"><ele>472.0</ele><time>2026-04-24T16:59:30.063Z</time></trkpt><trkpt lat="43.4267619" lon="11.9828199"><ele>470.0</ele><time>2026-04-24T16:59:31.07Z</time></trkpt><trkpt lat="43.4267995" lon="11.9826453"><ele>468.0</ele><time>2026-04-24T16:59:32.062Z</time></trkpt><trkpt lat="43.4268091" lon="11.9824641"><ele>465.66666666666663</ele><time>2026-04-24T16:59:33.062Z</time></trkpt><trkpt lat="43.4267851" lon="11.9822843"><ele>463.3333333333333</ele><time>2026-04-24T16:59:34.058Z</time></trkpt><trkpt lat="43.426733" lon="11.9820788"><ele>461.0</ele><time>2026-04-24T16:59:35.069Z</time></trkpt><trkpt lat="43.4266833" lon="11.9818369"><ele>458.3333333333333</ele><time>2026-04-24T16:59:36.063Z</time></trkpt><trkpt lat="43.4266276" lon="11.9815964"><ele>455.66666666666663</ele><time>2026-04-24T16:59:37.084Z</time></trkpt><trkpt lat="43.4265827" lon="11.981368"><ele>453.0</ele><time>2026-04-24T16:59:38.055Z</time></trkpt><trkpt lat="43.4265401" lon="11.9811573"><ele>453.0</ele><time>2026-04-24T16:59:39.064Z</time></trkpt><trkpt lat="43.4264989" lon="11.9809636"><ele>453.0</ele><time>2026-04-24T16:59:40.06Z</time></trkpt><trkpt lat="43.4264548" lon="11.9807837"><ele>453.0</ele><time>2026-04-24T16:59:41.054Z</time></trkpt><trkpt lat="43.4264173" lon="11.9806113"><ele>453.0</ele><time>2026-04-24T16:59:42.061Z</time></trkpt><trkpt lat="43.4263894" lon="11.9804337"><ele>451.75</ele><time>2026-04-24T16:59:43.065Z</time></trkpt><trkpt lat="43.4263716" lon="11.9802519"><ele>450.5</ele><time>2026-04-24T16:59:44.063Z</time></trkpt><trkpt lat="43.4263638" lon="11.9800575"><ele>449.25</ele><time>2026-04-24T16:59:45.059Z</time></trkpt><trkpt lat="43.4263593" lon="11.9798647"><ele>448.0</ele><time>2026-04-24T16:59:46.059Z</time></trkpt><trkpt lat="43.4263601" lon="11.9796683"><ele>446.75</ele><time>2026-04-24T16:59:47.052Z</time></trkpt><trkpt lat="43.4263574" lon="11.9794695"><ele>445.5</ele><time>2026-04-24T16:59:48.058Z</time></trkpt><trkpt lat="43.426353" lon="11.9792874"><ele>444.25</ele><time>2026-04-24T16:59:49.072Z</time></trkpt><trkpt lat="43.4263469" lon="11.9791218"><ele>443.0</ele><time>2026-04-24T16:59:50.053Z</time></trkpt><trkpt lat="43.4263462" lon="11.9789885"><ele>441.4</ele><time>2026-04-24T16:59:51.061Z</time></trkpt><trkpt lat="43.4263765" lon="11.9788809"><ele>439.79999999999995</ele><time>2026-04-24T16:59:52.054Z</time></trkpt><trkpt lat="43.4264248" lon="11.9787913"><ele>438.2</ele><time>2026-04-24T16:59:53.062Z</time></trkpt><trkpt lat="43.4264978" lon="11.978653"><ele>436.6</ele><time>2026-04-24T16:59:55.061Z</time></trkpt><trkpt lat="43.426489" lon="11.9785274"><ele>435.0</ele><time>2026-04-24T16:59:56.06Z</time></trkpt><trkpt lat="43.4264339" lon="11.9784598"><ele>435.0</ele><time>2026-04-24T16:59:57.057Z</time></trkpt><trkpt lat="43.4263465" lon="11.9784098"><ele>435.0</ele><time>2026-04-24T16:59:58.063Z</time></trkpt><trkpt lat="43.4262814" lon="11.9783652"><ele>435.0</ele><time>2026-04-24T16:59:59.063Z</time></trkpt><trkpt lat="43.4262112" lon="11.978277"><ele>435.0</ele><time>2026-04-24T17:00:01.057Z</time></trkpt><trkpt lat="43.4263284" lon="11.9781417"><ele>435.0</ele><time>2026-04-24T17:00:03.065Z</time></trkpt><trkpt lat="43.4263917" lon="11.9780773"><ele>432.6666666666667</ele><time>2026-04-24T17:00:04.063Z</time></trkpt><trkpt lat="43.426368" lon="11.9779435"><ele>430.33333333333337</ele><time>2026-04-24T17:00:06.07Z</time></trkpt><trkpt lat="43.4262973" lon="11.9778669"><ele>428.0</ele><time>2026-04-24T17:00:07.055Z</time></trkpt><trkpt lat="43.4262211" lon="11.9778188"><ele>425.6666666666667</ele><time>2026-04-24T17:00:08.064Z</time></trkpt><trkpt lat="43.4261604" lon="11.9777865"><ele>423.33333333333337</ele><time>2026-04-24T17:00:09.061Z</time></trkpt><trkpt lat="43.4261525" lon="11.9776668"><ele>421.0</ele><time>2026-04-24T17:00:11.061Z</time></trkpt><trkpt lat="43.4262034" lon="11.9775977"><ele>420.50000000000006</ele><time>2026-04-24T17:00:12.059Z</time></trkpt><trkpt lat="43.4262833" lon="11.9775599"><ele>420.0</ele><time>2026-04-24T17:00:13.059Z</time></trkpt><trkpt lat="43.4263405" lon="11.9775086"><ele>419.5</ele><time>2026-04-24T17:00:14.063Z</time></trkpt><trkpt lat="43.4263524" lon="11.9773749"><ele>419.0</ele><time>2026-04-24T17:00:16.068Z</time></trkpt><trkpt lat="43.4263004" lon="11.9773048"><ele>418.50000000000006</ele><time>2026-04-24T17:00:17.059Z</time></trkpt><trkpt lat="43.4262406" lon="11.9772292"><ele>418.0</ele><time>2026-04-24T17:00:18.052Z</time></trkpt><trkpt lat="43.4261806" lon="11.9771662"><ele>416.2</ele><time>2026-04-24T17:00:19.056Z</time></trkpt><trkpt lat="43.4261199" lon="11.9771033"><ele>414.4</ele><time>2026-04-24T17:00:20.053Z</time></trkpt><trkpt lat="43.426054" lon="11.9770458"><ele>412.59999999999997</ele><time>2026-04-24T17:00:21.074Z</time></trkpt><trkpt lat="43.4259672" lon="11.9769743"><ele>410.79999999999995</ele><time>2026-04-24T17:00:23.059Z</time></trkpt><trkpt lat="43.4258464" lon="11.9768869"><ele>409.0</ele><time>2026-04-24T17:00:25.066Z</time></trkpt><trkpt lat="43.4257529" lon="11.9768231"><ele>409.0</ele><time>2026-04-24T17:00:26.066Z</time></trkpt><trkpt lat="43.4256249" lon="11.9767766"><ele>409.0</ele><time>2026-04-24T17:00:27.065Z</time></trkpt><trkpt lat="43.4254821" lon="11.9767284"><ele>409.0</ele><time>2026-04-24T17:00:28.061Z</time></trkpt><trkpt lat="43.4253328" lon="11.9766824"><ele>409.0</ele><time>2026-04-24T17:00:29.058Z</time></trkpt><trkpt lat="43.4251737" lon="11.9766377"><ele>408.33333333333337</ele><time>2026-04-24T17:00:30.071Z</time></trkpt><trkpt lat="43.425007" lon="11.976601"><ele>407.66666666666663</ele><time>2026-04-24T17:00:31.065Z</time></trkpt><trkpt lat="43.424829" lon="11.9765827"><ele>407.0</ele><time>2026-04-24T17:00:32.062Z</time></trkpt><trkpt lat="43.4246561" lon="11.9765756"><ele>406.66666666666663</ele><time>2026-04-24T17:00:33.066Z</time></trkpt><trkpt lat="43.4244767" lon="11.9765727"><ele>406.33333333333337</ele><time>2026-04-24T17:00:34.066Z</time></trkpt><trkpt lat="43.424297" lon="11.976588"><ele>406.0</ele><time>2026-04-24T17:00:35.064Z</time></trkpt><trkpt lat="43.4241212" lon="11.9766087"><ele>406.0</ele><time>2026-04-24T17:00:36.062Z</time></trkpt><trkpt lat="43.4239447" lon="11.9766366"><ele>406.0</ele><time>2026-04-24T17:00:37.075Z</time></trkpt><trkpt lat="43.4237684" lon="11.9766642"><ele>406.0</ele><time>2026-04-24T17:00:38.053Z</time></trkpt><trkpt lat="43.4235911" lon="11.9766884"><ele>404.6666666666667</ele><time>2026-04-24T17:00:39.072Z</time></trkpt><trkpt lat="43.423416" lon="11.9767172"><ele>403.33333333333337</ele><time>2026-04-24T17:00:40.052Z</time></trkpt><trkpt lat="43.4232293" lon="11.9767436"><ele>402.0</ele><time>2026-04-24T17:00:41.06Z</time></trkpt><trkpt lat="43.4230475" lon="11.9767724"><ele>403.0</ele><time>2026-04-24T17:00:42.053Z</time></trkpt><trkpt lat="43.4228783" lon="11.976803"><ele>404.0</ele><time>2026-04-24T17:00:43.079Z</time></trkpt><trkpt lat="43.4227278" lon="11.9768163"><ele>405.0</ele><time>2026-04-24T17:00:44.055Z</time></trkpt><trkpt lat="43.4225882" lon="11.9768294"><ele>405.0</ele><time>2026-04-24T17:00:45.067Z</time></trkpt><trkpt lat="43.4224736" lon="11.9768193"><ele>405.0</ele><time>2026-04-24T17:00:46.065Z</time></trkpt><trkpt lat="43.4223711" lon="11.9767912"><ele>405.0</ele><time>2026-04-24T17:00:47.063Z</time></trkpt><trkpt lat="43.4223022" lon="11.9767224"><ele>405.0</ele><time>2026-04-24T17:00:48.054Z</time></trkpt><trkpt lat="43.4222307" lon="11.9766103"><ele>405.0</ele><time>2026-04-24T17:00:49.058Z</time></trkpt><trkpt lat="43.422181" lon="11.9764743"><ele>404.5</ele><time>2026-04-24T17:00:50.062Z</time></trkpt><trkpt lat="43.4221351" lon="11.9763036"><ele>404.0</ele><time>2026-04-24T17:00:51.058Z</time></trkpt><trkpt lat="43.422095" lon="11.9761179"><ele>403.5</ele><time>2026-04-24T17:00:52.079Z</time></trkpt><trkpt lat="43.4220528" lon="11.9759267"><ele>403.0</ele><time>2026-04-24T17:00:53.061Z</time></trkpt><trkpt lat="43.4220147" lon="11.9757352"><ele>402.6666666666667</ele><time>2026-04-24T17:00:54.079Z</time></trkpt><trkpt lat="43.4219729" lon="11.9755235"><ele>402.33333333333337</ele><time>2026-04-24T17:00:55.067Z</time></trkpt><trkpt lat="43.4219198" lon="11.9753171"><ele>402.0</ele><time>2026-04-24T17:00:56.071Z</time></trkpt><trkpt lat="43.4218755" lon="11.9751107"><ele>402.5</ele><time>2026-04-24T17:00:57.06Z</time></trkpt><trkpt lat="43.4218433" lon="11.9749216"><ele>403.0</ele><time>2026-04-24T17:00:58.056Z</time></trkpt><trkpt lat="43.4218079" lon="11.9747626"><ele>403.5</ele><time>2026-04-24T17:00:59.06Z</time></trkpt><trkpt lat="43.4217702" lon="11.9746061"><ele>404.0</ele><time>2026-04-24T17:01:00.058Z</time></trkpt><trkpt lat="43.4217384" lon="11.9744745"><ele>403.99999999999994</ele><time>2026-04-24T17:01:01.056Z</time></trkpt><trkpt lat="43.4217233" lon="11.9743663"><ele>404.0</ele><time>2026-04-24T17:01:02.057Z</time></trkpt><trkpt lat="43.4216953" lon="11.9742462"><ele>404.0</ele><time>2026-04-24T17:01:04.063Z</time></trkpt><trkpt lat="43.4216673" lon="11.9741653"><ele>404.0</ele><time>2026-04-24T17:01:09.058Z</time></trkpt><trkpt lat="43.4216043" lon="11.9740873"><ele>403.99999999999994</ele><time>2026-04-24T17:01:12.055Z</time></trkpt><trkpt lat="43.4215255" lon="11.9740497"><ele>404.0</ele><time>2026-04-24T17:01:14.062Z</time></trkpt><trkpt lat="43.4214203" lon="11.9740689"><ele>404.3333333333333</ele><time>2026-04-24T17:01:16.06Z</time></trkpt><trkpt lat="43.4213365" lon="11.9740865"><ele>404.66666666666663</ele><time>2026-04-24T17:01:18.058Z</time></trkpt><trkpt lat="43.4212452" lon="11.9740931"><ele>405.0</ele><time>2026-04-24T17:01:20.056Z</time></trkpt><trkpt lat="43.4211717" lon="11.9740899"><ele>405.33333333333337</ele><time>2026-04-24T17:01:22.057Z</time></trkpt><trkpt lat="43.4211054" lon="11.9740539"><ele>405.6666666666667</ele><time>2026-04-24T17:01:34.062Z</time></trkpt><trkpt lat="43.4210423" lon="11.9740472"><ele>406.0</ele><time>2026-04-24T17:01:37.068Z</time></trkpt><trkpt lat="43.4209389" lon="11.9740531"><ele>406.0</ele><time>2026-04-24T17:01:40.057Z</time></trkpt><trkpt lat="43.4208518" lon="11.9740512"><ele>406.0</ele><time>2026-04-24T17:01:42.075Z</time></trkpt><trkpt lat="43.420786" lon="11.9740517"><ele>406.0</ele><time>2026-04-24T17:01:44.072Z</time></trkpt><trkpt lat="43.4207124" lon="11.9740848"><ele>406.0</ele><time>2026-04-24T17:01:47.072Z</time></trkpt><trkpt lat="43.4206457" lon="11.9740943"><ele>406.0</ele><time>2026-04-24T17:01:49.084Z</time></trkpt><trkpt lat="43.4205806" lon="11.9741059"><ele>406.0</ele><time>2026-04-24T17:01:51.051Z</time></trkpt><trkpt lat="43.4204944" lon="11.9741094"><ele>406.0</ele><time>2026-04-24T17:01:53.06Z</time></trkpt><trkpt lat="43.4204282" lon="11.9741076"><ele>406.0</ele><time>2026-04-24T17:01:55.066Z</time></trkpt><trkpt lat="43.420348" lon="11.9741363"><ele>406.0</ele><time>2026-04-24T17:02:08.075Z</time></trkpt><trkpt lat="43.4202328" lon="11.9740977"><ele>406.0</ele><time>2026-04-24T17:02:10.06Z</time></trkpt><trkpt lat="43.4201641" lon="11.9740367"><ele>406.0</ele><time>2026-04-24T17:02:11.07Z</time></trkpt><trkpt lat="43.4200898" lon="11.9739604"><ele>406.0</ele><time>2026-04-24T17:02:12.066Z</time></trkpt><trkpt lat="43.4200167" lon="11.9738648"><ele>406.0</ele><time>2026-04-24T17:02:13.073Z</time></trkpt><trkpt lat="43.4199333" lon="11.973758"><ele>406.0</ele><time>2026-04-24T17:02:14.062Z</time></trkpt><trkpt lat="43.4198486" lon="11.9736374"><ele>406.0</ele><time>2026-04-24T17:02:15.045Z</time></trkpt><trkpt lat="43.4197581" lon="11.9735313"><ele>406.0</ele><time>2026-04-24T17:02:16.058Z</time></trkpt><trkpt lat="43.4196559" lon="11.9734126"><ele>407.75</ele><time>2026-04-24T17:02:17.058Z</time></trkpt><trkpt lat="43.4195399" lon="11.9733046"><ele>409.5</ele><time>2026-04-24T17:02:18.05Z</time></trkpt><trkpt lat="43.4194124" lon="11.97322"><ele>411.25</ele><time>2026-04-24T17:02:19.052Z</time></trkpt><trkpt lat="43.4192853" lon="11.9731389"><ele>413.0</ele><time>2026-04-24T17:02:20.062Z</time></trkpt><trkpt lat="43.4191445" lon="11.9730645"><ele>413.0</ele><time>2026-04-24T17:02:21.06Z</time></trkpt><trkpt lat="43.4190056" lon="11.9729958"><ele>413.0</ele><time>2026-04-24T17:02:22.059Z</time></trkpt><trkpt lat="43.4188618" lon="11.9729361"><ele>413.0</ele><time>2026-04-24T17:02:23.071Z</time></trkpt><trkpt lat="43.4187139" lon="11.9728813"><ele>411.66666666666663</ele><time>2026-04-24T17:02:24.056Z</time></trkpt><trkpt lat="43.4185639" lon="11.9728484"><ele>410.33333333333337</ele><time>2026-04-24T17:02:25.056Z</time></trkpt><trkpt lat="43.4184182" lon="11.9728235"><ele>409.0</ele><time>2026-04-24T17:02:26.052Z</time></trkpt><trkpt lat="43.4182645" lon="11.9728285"><ele>409.0</ele><time>2026-04-24T17:02:27.052Z</time></trkpt><trkpt lat="43.4181164" lon="11.972851"><ele>409.0</ele><time>2026-04-24T17:02:28.054Z</time></trkpt><trkpt lat="43.4179653" lon="11.9728809"><ele>409.0</ele><time>2026-04-24T17:02:29.06Z</time></trkpt><trkpt lat="43.4178083" lon="11.9729232"><ele>409.33333333333337</ele><time>2026-04-24T17:02:30.054Z</time></trkpt><trkpt lat="43.417656" lon="11.9729604"><ele>409.66666666666663</ele><time>2026-04-24T17:02:31.052Z</time></trkpt><trkpt lat="43.4174961" lon="11.9729924"><ele>410.0</ele><time>2026-04-24T17:02:32.058Z</time></trkpt><trkpt lat="43.4173403" lon="11.9730213"><ele>410.0</ele><time>2026-04-24T17:02:33.049Z</time></trkpt><trkpt lat="43.4171784" lon="11.9730494"><ele>410.0</ele><time>2026-04-24T17:02:34.059Z</time></trkpt><trkpt lat="43.4170175" lon="11.973075"><ele>410.0</ele><time>2026-04-24T17:02:35.052Z</time></trkpt><trkpt lat="43.4168594" lon="11.9731115"><ele>410.5</ele><time>2026-04-24T17:02:36.057Z</time></trkpt><trkpt lat="43.4167059" lon="11.9731411"><ele>411.0</ele><time>2026-04-24T17:02:37.06Z</time></trkpt><trkpt lat="43.416566" lon="11.9731504"><ele>411.5</ele><time>2026-04-24T17:02:38.053Z</time></trkpt><trkpt lat="43.4164325" lon="11.9731332"><ele>412.0</ele><time>2026-04-24T17:02:39.053Z</time></trkpt><trkpt lat="43.4162937" lon="11.973079"><ele>410.6666666666667</ele><time>2026-04-24T17:02:40.061Z</time></trkpt><trkpt lat="43.4161542" lon="11.9730008"><ele>409.33333333333337</ele><time>2026-04-24T17:02:41.072Z</time></trkpt><trkpt lat="43.4160074" lon="11.9729059"><ele>408.0</ele><time>2026-04-24T17:02:42.062Z</time></trkpt><trkpt lat="43.4158724" lon="11.9727878"><ele>408.0</ele><time>2026-04-24T17:02:43.068Z</time></trkpt><trkpt lat="43.4157467" lon="11.9726363"><ele>408.0</ele><time>2026-04-24T17:02:44.057Z</time></trkpt><trkpt lat="43.4156283" lon="11.972475"><ele>408.0</ele><time>2026-04-24T17:02:45.05Z</time></trkpt><trkpt lat="43.4155099" lon="11.9723114"><ele>408.33333333333337</ele><time>2026-04-24T17:02:46.071Z</time></trkpt><trkpt lat="43.4154087" lon="11.9721341"><ele>408.6666666666667</ele><time>2026-04-24T17:02:47.058Z</time></trkpt><trkpt lat="43.415311" lon="11.9719571"><ele>409.0</ele><time>2026-04-24T17:02:48.056Z</time></trkpt><trkpt lat="43.4152222" lon="11.971773"><ele>410.6666666666667</ele><time>2026-04-24T17:02:49.057Z</time></trkpt><trkpt lat="43.4151381" lon="11.9715861"><ele>412.33333333333337</ele><time>2026-04-24T17:02:50.055Z</time></trkpt><trkpt lat="43.4150542" lon="11.9714042"><ele>414.0</ele><time>2026-04-24T17:02:51.062Z</time></trkpt><trkpt lat="43.4149754" lon="11.9712228"><ele>414.0</ele><time>2026-04-24T17:02:52.056Z</time></trkpt><trkpt lat="43.4149197" lon="11.9710251"><ele>414.0</ele><time>2026-04-24T17:02:53.057Z</time></trkpt><trkpt lat="43.4148866" lon="11.9708287"><ele>414.0</ele><time>2026-04-24T17:02:54.054Z</time></trkpt><trkpt lat="43.4148506" lon="11.9706335"><ele>414.0</ele><time>2026-04-24T17:02:55.07Z</time></trkpt><trkpt lat="43.414819" lon="11.9704315"><ele>414.0</ele><time>2026-04-24T17:02:56.059Z</time></trkpt><trkpt lat="43.4147693" lon="11.9702341"><ele>414.0</ele><time>2026-04-24T17:02:57.061Z</time></trkpt><trkpt lat="43.4147058" lon="11.9700496"><ele>414.0</ele><time>2026-04-24T17:02:58.069Z</time></trkpt><trkpt lat="43.4146414" lon="11.9698694"><ele>414.0</ele><time>2026-04-24T17:02:59.062Z</time></trkpt><trkpt lat="43.41456" lon="11.9696936"><ele>414.0</ele><time>2026-04-24T17:03:00.056Z</time></trkpt><trkpt lat="43.4144838" lon="11.9695203"><ele>414.0</ele><time>2026-04-24T17:03:01.057Z</time></trkpt><trkpt lat="43.4143834" lon="11.9693687"><ele>414.0</ele><time>2026-04-24T17:03:02.067Z</time></trkpt><trkpt lat="43.4142759" lon="11.9692203"><ele>414.0</ele><time>2026-04-24T17:03:03.055Z</time></trkpt><trkpt lat="43.4141513" lon="11.9691014"><ele>414.66666666666663</ele><time>2026-04-24T17:03:04.046Z</time></trkpt><trkpt lat="43.414025" lon="11.968994"><ele>415.3333333333333</ele><time>2026-04-24T17:03:05.051Z</time></trkpt><trkpt lat="43.4138955" lon="11.968914"><ele>416.0</ele><time>2026-04-24T17:03:06.071Z</time></trkpt><trkpt lat="43.4137348" lon="11.9688682"><ele>416.0</ele><time>2026-04-24T17:03:07.056Z</time></trkpt><trkpt lat="43.4135882" lon="11.9688386"><ele>416.0</ele><time>2026-04-24T17:03:08.049Z</time></trkpt><trkpt lat="43.4134448" lon="11.9688287"><ele>416.0</ele><time>2026-04-24T17:03:09.055Z</time></trkpt><trkpt lat="43.4133033" lon="11.9688141"><ele>416.0</ele><time>2026-04-24T17:03:10.059Z</time></trkpt><trkpt lat="43.4131727" lon="11.9687615"><ele>416.0</ele><time>2026-04-24T17:03:11.068Z</time></trkpt><trkpt lat="43.413044" lon="11.9686815"><ele>416.0</ele><time>2026-04-24T17:03:12.053Z</time></trkpt><trkpt lat="43.4129162" lon="11.9686019"><ele>416.0</ele><time>2026-04-24T17:03:13.064Z</time></trkpt><trkpt lat="43.4127955" lon="11.9685125"><ele>416.0</ele><time>2026-04-24T17:03:14.056Z</time></trkpt><trkpt lat="43.4126783" lon="11.9684054"><ele>416.4</ele><time>2026-04-24T17:03:15.077Z</time></trkpt><trkpt lat="43.4125814" lon="11.9682886"><ele>416.8</ele><time>2026-04-24T17:03:16.057Z</time></trkpt><trkpt lat="43.4125078" lon="11.9681613"><ele>417.2</ele><time>2026-04-24T17:03:17.055Z</time></trkpt><trkpt lat="43.4124479" lon="11.9680366"><ele>417.59999999999997</ele><time>2026-04-24T17:03:18.056Z</time></trkpt><trkpt lat="43.4124044" lon="11.9679461"><ele>418.0</ele><time>2026-04-24T17:03:19.062Z</time></trkpt><trkpt lat="43.4123533" lon="11.9678797"><ele>418.00000000000006</ele><time>2026-04-24T17:03:36.061Z</time></trkpt><trkpt lat="43.4123538" lon="11.9679702"><ele>418.0</ele><time>2026-04-24T17:03:38.055Z</time></trkpt><trkpt lat="43.4124108" lon="11.9680181"><ele>418.0</ele><time>2026-04-24T17:03:39.058Z</time></trkpt><trkpt lat="43.4124881" lon="11.9680568"><ele>418.0</ele><time>2026-04-24T17:03:40.045Z</time></trkpt><trkpt lat="43.4125746" lon="11.9680909"><ele>418.00000000000006</ele><time>2026-04-24T17:03:41.055Z</time></trkpt><trkpt lat="43.4126586" lon="11.9681382"><ele>418.0</ele><time>2026-04-24T17:03:42.06Z</time></trkpt><trkpt lat="43.4127363" lon="11.9681734"><ele>418.0</ele><time>2026-04-24T17:03:43.047Z</time></trkpt><trkpt lat="43.41282" lon="11.9682002"><ele>418.0</ele><time>2026-04-24T17:03:44.049Z</time></trkpt><trkpt lat="43.4128911" lon="11.9682155"><ele>418.0</ele><time>2026-04-24T17:03:45.06Z</time></trkpt><trkpt lat="43.4129913" lon="11.9681419"><ele>418.0</ele><time>2026-04-24T17:03:47.069Z</time></trkpt><trkpt lat="43.4129461" lon="11.9679957"><ele>418.0</ele><time>2026-04-24T17:03:49.052Z</time></trkpt><trkpt lat="43.4128934" lon="11.967931"><ele>418.00000000000006</ele><time>2026-04-24T17:03:50.042Z</time></trkpt><trkpt lat="43.4128515" lon="11.9678548"><ele>418.0</ele><time>2026-04-24T17:03:51.056Z</time></trkpt><trkpt lat="43.4128364" lon="11.9677465"><ele>418.0</ele><time>2026-04-24T17:03:52.059Z</time></trkpt><trkpt lat="43.4128368" lon="11.9676222"><ele>418.0</ele><time>2026-04-24T17:03:53.052Z</time></trkpt><trkpt lat="43.4128607" lon="11.9674859"><ele>418.00000000000006</ele><time>2026-04-24T17:03:54.06Z</time></trkpt><trkpt lat="43.4128851" lon="11.9673845"><ele>418.0</ele><time>2026-04-24T17:03:55.055Z</time></trkpt><trkpt lat="43.4129224" lon="11.9672773"><ele>419.59999999999997</ele><time>2026-04-24T17:03:56.052Z</time></trkpt><trkpt lat="43.4129671" lon="11.9671492"><ele>421.2</ele><time>2026-04-24T17:03:57.05Z</time></trkpt><trkpt lat="43.4130392" lon="11.9670371"><ele>422.8</ele><time>2026-04-24T17:03:58.054Z</time></trkpt><trkpt lat="43.4131293" lon="11.9669442"><ele>424.4</ele><time>2026-04-24T17:03:59.052Z</time></trkpt><trkpt lat="43.4131901" lon="11.9668306"><ele>426.0</ele><time>2026-04-24T17:04:00.063Z</time></trkpt><trkpt lat="43.4132273" lon="11.9667318"><ele>430.75</ele><time>2026-04-24T17:04:01.062Z</time></trkpt><trkpt lat="43.413321" lon="11.9666319"><ele>435.5</ele><time>2026-04-24T17:04:03.053Z</time></trkpt><trkpt lat="43.4134288" lon="11.9666121"><ele>440.25</ele><time>2026-04-24T17:04:04.057Z</time></trkpt><trkpt lat="43.4135518" lon="11.9665775"><ele>445.0</ele><time>2026-04-24T17:04:05.055Z</time></trkpt><trkpt lat="43.4136628" lon="11.9665557"><ele>445.00000000000006</ele><time>2026-04-24T17:04:06.058Z</time></trkpt><trkpt lat="43.413779" lon="11.9665355"><ele>445.0</ele><time>2026-04-24T17:04:07.068Z</time></trkpt><trkpt lat="43.4138689" lon="11.9664979"><ele>445.0</ele><time>2026-04-24T17:04:08.062Z</time></trkpt><trkpt lat="43.413896" lon="11.9664087"><ele>445.0</ele><time>2026-04-24T17:04:09.054Z</time></trkpt><trkpt lat="43.4139047" lon="11.9662982"><ele>445.00000000000006</ele><time>2026-04-24T17:04:10.057Z</time></trkpt><trkpt lat="43.4139355" lon="11.9661892"><ele>445.0</ele><time>2026-04-24T17:04:11.057Z</time></trkpt><trkpt lat="43.4139866" lon="11.9660584"><ele>445.50000000000006</ele><time>2026-04-24T17:04:12.055Z</time></trkpt><trkpt lat="43.4140583" lon="11.9659357"><ele>446.0</ele><time>2026-04-24T17:04:13.059Z</time></trkpt><trkpt lat="43.4141158" lon="11.9658454"><ele>446.5</ele><time>2026-04-24T17:04:14.056Z</time></trkpt><trkpt lat="43.4141067" lon="11.9657595"><ele>447.0</ele><time>2026-04-24T17:04:15.059Z</time></trkpt><trkpt lat="43.4141008" lon="11.9656684"><ele>447.50000000000006</ele><time>2026-04-24T17:04:16.062Z</time></trkpt><trkpt lat="43.4140636" lon="11.9655513"><ele>448.0</ele><time>2026-04-24T17:04:17.055Z</time></trkpt><trkpt lat="43.4140166" lon="11.9654433"><ele>449.0</ele><time>2026-04-24T17:04:18.054Z</time></trkpt><trkpt lat="43.4139421" lon="11.9653582"><ele>449.99999999999994</ele><time>2026-04-24T17:04:19.054Z</time></trkpt><trkpt lat="43.4138539" lon="11.9652761"><ele>450.99999999999994</ele><time>2026-04-24T17:04:20.071Z</time></trkpt><trkpt lat="43.4137707" lon="11.9651935"><ele>452.0</ele><time>2026-04-24T17:04:21.054Z</time></trkpt><trkpt lat="43.4137213" lon="11.9650949"><ele>453.0</ele><time>2026-04-24T17:04:22.05Z</time></trkpt><trkpt lat="43.4137206" lon="11.964978"><ele>455.0</ele><time>2026-04-24T17:04:23.075Z</time></trkpt><trkpt lat="43.4137511" lon="11.9648903"><ele>457.0</ele><time>2026-04-24T17:04:24.06Z</time></trkpt><trkpt lat="43.4138286" lon="11.9648412"><ele>459.0</ele><time>2026-04-24T17:04:25.054Z</time></trkpt><trkpt lat="43.4138975" lon="11.9648002"><ele>461.0</ele><time>2026-04-24T17:04:26.053Z</time></trkpt><trkpt lat="43.4139505" lon="11.9647301"><ele>463.0</ele><time>2026-04-24T17:04:27.057Z</time></trkpt><trkpt lat="43.4139708" lon="11.9646472"><ele>465.0</ele><time>2026-04-24T17:04:28.059Z</time></trkpt><trkpt lat="43.4139733" lon="11.9644989"><ele>465.4</ele><time>2026-04-24T17:04:30.055Z</time></trkpt><trkpt lat="43.4138902" lon="11.9643852"><ele>465.8</ele><time>2026-04-24T17:04:32.068Z</time></trkpt><trkpt lat="43.4138248" lon="11.9643012"><ele>466.20000000000005</ele><time>2026-04-24T17:04:33.059Z</time></trkpt><trkpt lat="43.4137642" lon="11.9641802"><ele>466.6</ele><time>2026-04-24T17:04:34.057Z</time></trkpt><trkpt lat="43.4137199" lon="11.9640625"><ele>467.0</ele><time>2026-04-24T17:04:35.066Z</time></trkpt><trkpt lat="43.4137174" lon="11.9639543"><ele>468.20000000000005</ele><time>2026-04-24T17:04:36.058Z</time></trkpt><trkpt lat="43.4137558" lon="11.9638474"><ele>469.40000000000003</ele><time>2026-04-24T17:04:37.057Z</time></trkpt><trkpt lat="43.413813" lon="11.9637351"><ele>470.59999999999997</ele><time>2026-04-24T17:04:38.069Z</time></trkpt><trkpt lat="43.4138624" lon="11.9636061"><ele>471.79999999999995</ele><time>2026-04-24T17:04:39.054Z</time></trkpt><trkpt lat="43.4139188" lon="11.9634514"><ele>473.0</ele><time>2026-04-24T17:04:40.06Z</time></trkpt><trkpt lat="43.4139721" lon="11.9632981"><ele>476.2</ele><time>2026-04-24T17:04:41.052Z</time></trkpt><trkpt lat="43.414015" lon="11.9631689"><ele>479.4</ele><time>2026-04-24T17:04:42.068Z</time></trkpt><trkpt lat="43.4140231" lon="11.9630378"><ele>482.59999999999997</ele><time>2026-04-24T17:04:43.06Z</time></trkpt><trkpt lat="43.4140343" lon="11.9628997"><ele>485.79999999999995</ele><time>2026-04-24T17:04:44.061Z</time></trkpt><trkpt lat="43.4140699" lon="11.9627978"><ele>489.0</ele><time>2026-04-24T17:04:45.055Z</time></trkpt><trkpt lat="43.4141269" lon="11.9627359"><ele>489.0</ele><time>2026-04-24T17:04:46.075Z</time></trkpt><trkpt lat="43.4141927" lon="11.9626755"><ele>489.0</ele><time>2026-04-24T17:04:47.056Z</time></trkpt><trkpt lat="43.4142617" lon="11.962583"><ele>489.0</ele><time>2026-04-24T17:04:48.054Z</time></trkpt><trkpt lat="43.4143279" lon="11.9624831"><ele>489.0</ele><time>2026-04-24T17:04:49.053Z</time></trkpt><trkpt lat="43.4143917" lon="11.9624097"><ele>489.0</ele><time>2026-04-24T17:04:50.077Z</time></trkpt><trkpt lat="43.4144946" lon="11.9624539"><ele>489.0</ele><time>2026-04-24T17:04:52.057Z</time></trkpt><trkpt lat="43.4145435" lon="11.9625159"><ele>489.0</ele><time>2026-04-24T17:04:53.055Z</time></trkpt><trkpt lat="43.4146461" lon="11.9625509"><ele>489.0</ele><time>2026-04-24T17:04:55.074Z</time></trkpt><trkpt lat="43.4147155" lon="11.9624161"><ele>489.0</ele><time>2026-04-24T17:04:57.056Z</time></trkpt><trkpt lat="43.4147834" lon="11.9623286"><ele>489.0</ele><time>2026-04-24T17:04:59.057Z</time></trkpt><trkpt lat="43.4149025" lon="11.9623066"><ele>492.2</ele><time>2026-04-24T17:05:01.058Z</time></trkpt><trkpt lat="43.4149883" lon="11.9622513"><ele>495.4</ele><time>2026-04-24T17:05:03.06Z</time></trkpt><trkpt lat="43.4150862" lon="11.9623183"><ele>498.6</ele><time>2026-04-24T17:05:05.064Z</time></trkpt><trkpt lat="43.4151921" lon="11.9623932"><ele>501.8</ele><time>2026-04-24T17:05:07.059Z</time></trkpt><trkpt lat="43.4153101" lon="11.9623901"><ele>505.0</ele><time>2026-04-24T17:05:09.065Z</time></trkpt><trkpt lat="43.4153806" lon="11.9623709"><ele>505.00000000000006</ele><time>2026-04-24T17:05:10.059Z</time></trkpt><trkpt lat="43.4154641" lon="11.96235"><ele>505.0</ele><time>2026-04-24T17:05:11.053Z</time></trkpt><trkpt lat="43.415548" lon="11.9623216"><ele>505.0</ele><time>2026-04-24T17:05:12.077Z</time></trkpt><trkpt lat="43.4156137" lon="11.9622928"><ele>505.0</ele><time>2026-04-24T17:05:13.067Z</time></trkpt><trkpt lat="43.415663" lon="11.9621485"><ele>505.00000000000006</ele><time>2026-04-24T17:05:15.071Z</time></trkpt><trkpt lat="43.4157125" lon="11.9620493"><ele>505.0</ele><time>2026-04-24T17:05:16.061Z</time></trkpt><trkpt lat="43.4158019" lon="11.9619599"><ele>508.0</ele><time>2026-04-24T17:05:17.058Z</time></trkpt><trkpt lat="43.4159003" lon="11.961885"><ele>511.0</ele><time>2026-04-24T17:05:18.062Z</time></trkpt><trkpt lat="43.4160062" lon="11.961821"><ele>514.0</ele><time>2026-04-24T17:05:19.055Z</time></trkpt><trkpt lat="43.4161184" lon="11.9617697"><ele>517.0</ele><time>2026-04-24T17:05:20.057Z</time></trkpt><trkpt lat="43.4162186" lon="11.9617241"><ele>518.0</ele><time>2026-04-24T17:05:21.058Z</time></trkpt><trkpt lat="43.4162967" lon="11.9616599"><ele>519.0</ele><time>2026-04-24T17:05:22.056Z</time></trkpt><trkpt lat="43.4163634" lon="11.9615886"><ele>520.0</ele><time>2026-04-24T17:05:23.067Z</time></trkpt><trkpt lat="43.4164209" lon="11.9615036"><ele>521.0</ele><time>2026-04-24T17:05:24.058Z</time></trkpt><trkpt lat="43.4164557" lon="11.9614008"><ele>522.0</ele><time>2026-04-24T17:05:25.067Z</time></trkpt><trkpt lat="43.4164933" lon="11.961306"><ele>523.0</ele><time>2026-04-24T17:05:26.063Z</time></trkpt><trkpt lat="43.4165479" lon="11.9612135"><ele>525.25</ele><time>2026-04-24T17:05:27.068Z</time></trkpt><trkpt lat="43.4166265" lon="11.9611235"><ele>527.5</ele><time>2026-04-24T17:05:28.052Z</time></trkpt><trkpt lat="43.4167315" lon="11.9610278"><ele>529.75</ele><time>2026-04-24T17:05:29.064Z</time></trkpt><trkpt lat="43.4168391" lon="11.9609331"><ele>532.0</ele><time>2026-04-24T17:05:30.054Z</time></trkpt><trkpt lat="43.4169313" lon="11.9608644"><ele>535.2</ele><time>2026-04-24T17:05:31.066Z</time></trkpt><trkpt lat="43.4170022" lon="11.9608107"><ele>538.4000000000001</ele><time>2026-04-24T17:05:32.057Z</time></trkpt><trkpt lat="43.4170904" lon="11.9607571"><ele>541.5999999999999</ele><time>2026-04-24T17:05:34.051Z</time></trkpt><trkpt lat="43.4171873" lon="11.9607618"><ele>544.8</ele><time>2026-04-24T17:05:36.05Z</time></trkpt><trkpt lat="43.4172687" lon="11.960896"><ele>548.0</ele><time>2026-04-24T17:05:38.051Z</time></trkpt><trkpt lat="43.4173072" lon="11.9610162"><ele>548.0</ele><time>2026-04-24T17:05:39.07Z</time></trkpt><trkpt lat="43.4173656" lon="11.961181"><ele>548.0</ele><time>2026-04-24T17:05:40.055Z</time></trkpt><trkpt lat="43.4174259" lon="11.9613516"><ele>548.0</ele><time>2026-04-24T17:05:41.05Z</time></trkpt><trkpt lat="43.4174738" lon="11.9615004"><ele>548.0</ele><time>2026-04-24T17:05:42.048Z</time></trkpt><trkpt lat="43.4175192" lon="11.961629"><ele>545.8</ele><time>2026-04-24T17:05:43.06Z</time></trkpt><trkpt lat="43.4175794" lon="11.9617214"><ele>543.5999999999999</ele><time>2026-04-24T17:05:44.045Z</time></trkpt><trkpt lat="43.4176586" lon="11.9617806"><ele>541.4000000000001</ele><time>2026-04-24T17:05:45.056Z</time></trkpt><trkpt lat="43.4177644" lon="11.9618049"><ele>539.2</ele><time>2026-04-24T17:05:46.053Z</time></trkpt><trkpt lat="43.4178914" lon="11.961808"><ele>537.0</ele><time>2026-04-24T17:05:47.054Z</time></trkpt><trkpt lat="43.4180257" lon="11.9618031"><ele>537.0</ele><time>2026-04-24T17:05:48.065Z</time></trkpt><trkpt lat="43.4181485" lon="11.9618093"><ele>537.0</ele><time>2026-04-24T17:05:49.044Z</time></trkpt><trkpt lat="43.4182703" lon="11.9618011"><ele>537.0</ele><time>2026-04-24T17:05:50.048Z</time></trkpt><trkpt lat="43.4183997" lon="11.9617676"><ele>537.0</ele><time>2026-04-24T17:05:51.052Z</time></trkpt><trkpt lat="43.4185299" lon="11.9617345"><ele>537.0</ele><time>2026-04-24T17:05:52.043Z</time></trkpt><trkpt lat="43.4186521" lon="11.9617282"><ele>537.0</ele><time>2026-04-24T17:05:53.059Z</time></trkpt><trkpt lat="43.4187618" lon="11.9617369"><ele>537.0</ele><time>2026-04-24T17:05:54.056Z</time></trkpt><trkpt lat="43.4188716" lon="11.9617404"><ele>537.0</ele><time>2026-04-24T17:05:55.047Z</time></trkpt><trkpt lat="43.4189661" lon="11.9617267"><ele>537.0</ele><time>2026-04-24T17:05:56.053Z</time></trkpt><trkpt lat="43.4190298" lon="11.9616929"><ele>540.1428571428571</ele><time>2026-04-24T17:05:57.057Z</time></trkpt><trkpt lat="43.4190811" lon="11.9616304"><ele>543.2857142857142</ele><time>2026-04-24T17:05:58.06Z</time></trkpt><trkpt lat="43.4191286" lon="11.9615584"><ele>546.4285714285714</ele><time>2026-04-24T17:05:59.062Z</time></trkpt><trkpt lat="43.4191798" lon="11.9614741"><ele>549.5714285714286</ele><time>2026-04-24T17:06:00.058Z</time></trkpt><trkpt lat="43.4192321" lon="11.9614055"><ele>552.7142857142858</ele><time>2026-04-24T17:06:01.064Z</time></trkpt><trkpt lat="43.419296" lon="11.961356"><ele>555.8571428571429</ele><time>2026-04-24T17:06:03.056Z</time></trkpt><trkpt lat="43.4192332" lon="11.9613397"><ele>559.0</ele><time>2026-04-24T17:06:11.058Z</time></trkpt><trkpt lat="43.4191318" lon="11.9614061"><ele>559.0</ele><time>2026-04-24T17:06:13.065Z</time></trkpt><trkpt lat="43.4190707" lon="11.9614429"><ele>559.0</ele><time>2026-04-24T17:06:14.053Z</time></trkpt><trkpt lat="43.4190021" lon="11.9614728"><ele>559.0</ele><time>2026-04-24T17:06:15.056Z</time></trkpt><trkpt lat="43.4188903" lon="11.9614734"><ele>559.0</ele><time>2026-04-24T17:06:17.057Z</time></trkpt><trkpt lat="43.418793" lon="11.9614606"><ele>559.0</ele><time>2026-04-24T17:06:19.059Z</time></trkpt><trkpt lat="43.4186977" lon="11.9614477"><ele>559.0</ele><time>2026-04-24T17:06:21.06Z</time></trkpt><trkpt lat="43.4185772" lon="11.961388"><ele>559.5714285714286</ele><time>2026-04-24T17:06:23.058Z</time></trkpt><trkpt lat="43.4185143" lon="11.9613407"><ele>560.1428571428572</ele><time>2026-04-24T17:06:24.063Z</time></trkpt><trkpt lat="43.4184566" lon="11.9612944"><ele>560.7142857142858</ele><time>2026-04-24T17:06:25.064Z</time></trkpt><trkpt lat="43.4184037" lon="11.9612408"><ele>561.2857142857143</ele><time>2026-04-24T17:06:26.058Z</time></trkpt><trkpt lat="43.418356" lon="11.9611764"><ele>561.8571428571429</ele><time>2026-04-24T17:06:27.066Z</time></trkpt><trkpt lat="43.4183086" lon="11.9611081"><ele>562.4285714285714</ele><time>2026-04-24T17:06:28.059Z</time></trkpt><trkpt lat="43.4182632" lon="11.9610428"><ele>563.0</ele><time>2026-04-24T17:06:29.058Z</time></trkpt><trkpt lat="43.4182176" lon="11.960963"><ele>563.0</ele><time>2026-04-24T17:06:30.058Z</time></trkpt><trkpt lat="43.4181784" lon="11.9608863"><ele>563.0</ele><time>2026-04-24T17:06:31.055Z</time></trkpt><trkpt lat="43.4181342" lon="11.9608042"><ele>563.0</ele><time>2026-04-24T17:06:32.07Z</time></trkpt><trkpt lat="43.4180926" lon="11.9607141"><ele>563.0</ele><time>2026-04-24T17:06:33.055Z</time></trkpt><trkpt lat="43.4180494" lon="11.9606365"><ele>563.0</ele><time>2026-04-24T17:06:34.061Z</time></trkpt><trkpt lat="43.4180089" lon="11.9605561"><ele>563.0</ele><time>2026-04-24T17:06:35.051Z</time></trkpt><trkpt lat="43.4179769" lon="11.9604606"><ele>563.0</ele><time>2026-04-24T17:06:36.054Z</time></trkpt><trkpt lat="43.417941" lon="11.9603695"><ele>563.0</ele><time>2026-04-24T17:06:37.052Z</time></trkpt><trkpt lat="43.4179104" lon="11.9602743"><ele>563.0</ele><time>2026-04-24T17:06:38.07Z</time></trkpt><trkpt lat="43.4178872" lon="11.9601638"><ele>563.0</ele><time>2026-04-24T17:06:39.055Z</time></trkpt><trkpt lat="43.417874" lon="11.9600438"><ele>563.0</ele><time>2026-04-24T17:06:40.053Z</time></trkpt><trkpt lat="43.4178695" lon="11.959929"><ele>563.0</ele><time>2026-04-24T17:06:41.059Z</time></trkpt><trkpt lat="43.4178724" lon="11.9598218"><ele>563.0</ele><time>2026-04-24T17:06:42.055Z</time></trkpt><trkpt lat="43.4178618" lon="11.9597271"><ele>565.0</ele><time>2026-04-24T17:06:43.059Z</time></trkpt><trkpt lat="43.4178406" lon="11.9596307"><ele>567.0</ele><time>2026-04-24T17:06:44.054Z</time></trkpt><trkpt lat="43.417789" lon="11.9595639"><ele>569.0</ele><time>2026-04-24T17:06:45.059Z</time></trkpt><trkpt lat="43.4177217" lon="11.959517"><ele>571.0</ele><time>2026-04-24T17:06:46.058Z</time></trkpt><trkpt lat="43.4176518" lon="11.9594828"><ele>573.0</ele><time>2026-04-24T17:06:47.052Z</time></trkpt><trkpt lat="43.4175888" lon="11.9594468"><ele>575.0</ele><time>2026-04-24T17:06:48.058Z</time></trkpt><trkpt lat="43.4175143" lon="11.959432"><ele>577.0</ele><time>2026-04-24T17:06:49.058Z</time></trkpt><trkpt lat="43.4174385" lon="11.9594216"><ele>577.0</ele><time>2026-04-24T17:06:50.056Z</time></trkpt><trkpt lat="43.4173648" lon="11.9593973"><ele>577.0</ele><time>2026-04-24T17:06:51.056Z</time></trkpt><trkpt lat="43.4172944" lon="11.9593424"><ele>577.0</ele><time>2026-04-24T17:06:52.063Z</time></trkpt><trkpt lat="43.4172577" lon="11.9592419"><ele>577.0</ele><time>2026-04-24T17:06:53.064Z</time></trkpt><trkpt lat="43.4172309" lon="11.9591297"><ele>577.0</ele><time>2026-04-24T17:06:54.071Z</time></trkpt><trkpt lat="43.4172342" lon="11.9590149"><ele>577.0</ele><time>2026-04-24T17:06:55.053Z</time></trkpt><trkpt lat="43.4172342" lon="11.9588932"><ele>578.6</ele><time>2026-04-24T17:06:56.059Z</time></trkpt><trkpt lat="43.4172161" lon="11.958769"><ele>580.2</ele><time>2026-04-24T17:06:57.065Z</time></trkpt><trkpt lat="43.4171812" lon="11.9586675"><ele>581.8</ele><time>2026-04-24T17:06:58.06Z</time></trkpt><trkpt lat="43.4171407" lon="11.9585641"><ele>583.4</ele><time>2026-04-24T17:06:59.054Z</time></trkpt><trkpt lat="43.4170856" lon="11.9584684"><ele>585.0</ele><time>2026-04-24T17:07:00.054Z</time></trkpt><trkpt lat="43.4170151" lon="11.9583601"><ele>587.25</ele><time>2026-04-24T17:07:01.059Z</time></trkpt><trkpt lat="43.4169377" lon="11.958253"><ele>589.5</ele><time>2026-04-24T17:07:02.059Z</time></trkpt><trkpt lat="43.4168641" lon="11.958125"><ele>591.75</ele><time>2026-04-24T17:07:03.057Z</time></trkpt><trkpt lat="43.4167886" lon="11.9579945"><ele>594.0</ele><time>2026-04-24T17:07:04.056Z</time></trkpt><trkpt lat="43.4167269" lon="11.9578431"><ele>594.0</ele><time>2026-04-24T17:07:05.065Z</time></trkpt><trkpt lat="43.4166919" lon="11.9576813"><ele>594.0</ele><time>2026-04-24T17:07:06.065Z</time></trkpt><trkpt lat="43.4166635" lon="11.9575429"><ele>594.0</ele><time>2026-04-24T17:07:07.05Z</time></trkpt><trkpt lat="43.4166512" lon="11.9574302"><ele>594.0</ele><time>2026-04-24T17:07:08.057Z</time></trkpt><trkpt lat="43.4166618" lon="11.9573315"><ele>594.0</ele><time>2026-04-24T17:07:09.053Z</time></trkpt><trkpt lat="43.4167026" lon="11.9571933"><ele>595.75</ele><time>2026-04-24T17:07:10.059Z</time></trkpt><trkpt lat="43.4167431" lon="11.9570196"><ele>597.5</ele><time>2026-04-24T17:07:11.054Z</time></trkpt><trkpt lat="43.416779" lon="11.9568301"><ele>599.25</ele><time>2026-04-24T17:07:12.064Z</time></trkpt><trkpt lat="43.4168371" lon="11.9566993"><ele>601.0</ele><time>2026-04-24T17:07:13.054Z</time></trkpt><trkpt lat="43.4169149" lon="11.9566631"><ele>599.75</ele><time>2026-04-24T17:07:14.049Z</time></trkpt><trkpt lat="43.4170009" lon="11.9566369"><ele>598.5</ele><time>2026-04-24T17:07:15.056Z</time></trkpt><trkpt lat="43.417089" lon="11.9566015"><ele>597.25</ele><time>2026-04-24T17:07:16.054Z</time></trkpt><trkpt lat="43.4172045" lon="11.9565339"><ele>596.0</ele><time>2026-04-24T17:07:17.045Z</time></trkpt><trkpt lat="43.4173557" lon="11.9564279"><ele>596.0</ele><time>2026-04-24T17:07:18.049Z</time></trkpt><trkpt lat="43.4175192" lon="11.9563406"><ele>596.0</ele><time>2026-04-24T17:07:19.055Z</time></trkpt><trkpt lat="43.4176556" lon="11.9562585"><ele>596.0</ele><time>2026-04-24T17:07:20.054Z</time></trkpt><trkpt lat="43.4177486" lon="11.9561662"><ele>596.0</ele><time>2026-04-24T17:07:21.054Z</time></trkpt><trkpt lat="43.4178045" lon="11.9560561"><ele>596.0</ele><time>2026-04-24T17:07:22.053Z</time></trkpt><trkpt lat="43.4178476" lon="11.9559415"><ele>596.0</ele><time>2026-04-24T17:07:23.051Z</time></trkpt><trkpt lat="43.417854" lon="11.9558515"><ele>596.0</ele><time>2026-04-24T17:07:24.052Z</time></trkpt><trkpt lat="43.4178188" lon="11.9557511"><ele>596.0</ele><time>2026-04-24T17:07:25.056Z</time></trkpt><trkpt lat="43.4177443" lon="11.9556644"><ele>596.0</ele><time>2026-04-24T17:07:26.089Z</time></trkpt><trkpt lat="43.4176567" lon="11.9555668"><ele>594.5</ele><time>2026-04-24T17:07:27.065Z</time></trkpt><trkpt lat="43.4175572" lon="11.9554592"><ele>593.0</ele><time>2026-04-24T17:07:28.063Z</time></trkpt><trkpt lat="43.4174978" lon="11.9552997"><ele>591.5</ele><time>2026-04-24T17:07:29.058Z</time></trkpt><trkpt lat="43.4174325" lon="11.9551025"><ele>590.0</ele><time>2026-04-24T17:07:30.053Z</time></trkpt><trkpt lat="43.4173577" lon="11.9549029"><ele>590.0</ele><time>2026-04-24T17:07:31.052Z</time></trkpt><trkpt lat="43.4172793" lon="11.9547357"><ele>590.0</ele><time>2026-04-24T17:07:32.06Z</time></trkpt><trkpt lat="43.4171987" lon="11.9546026"><ele>590.0</ele><time>2026-04-24T17:07:33.058Z</time></trkpt><trkpt lat="43.4170983" lon="11.9544747"><ele>590.0</ele><time>2026-04-24T17:07:34.058Z</time></trkpt><trkpt lat="43.4169785" lon="11.9543519"><ele>596.6</ele><time>2026-04-24T17:07:35.056Z</time></trkpt><trkpt lat="43.4168753" lon="11.9542162"><ele>603.2</ele><time>2026-04-24T17:07:36.05Z</time></trkpt><trkpt lat="43.4168135" lon="11.9540782"><ele>609.8</ele><time>2026-04-24T17:07:37.061Z</time></trkpt><trkpt lat="43.4167848" lon="11.9539818"><ele>616.4</ele><time>2026-04-24T17:07:38.051Z</time></trkpt><trkpt lat="43.4168232" lon="11.9538857"><ele>623.0</ele><time>2026-04-24T17:07:39.056Z</time></trkpt><trkpt lat="43.4169156" lon="11.9537658"><ele>623.0</ele><time>2026-04-24T17:07:40.057Z</time></trkpt><trkpt lat="43.4170162" lon="11.9536195"><ele>623.0</ele><time>2026-04-24T17:07:41.051Z</time></trkpt><trkpt lat="43.4171005" lon="11.9534765"><ele>623.0</ele><time>2026-04-24T17:07:42.049Z</time></trkpt><trkpt lat="43.4171362" lon="11.9533546"><ele>623.0</ele><time>2026-04-24T17:07:43.056Z</time></trkpt><trkpt lat="43.417135" lon="11.953213"><ele>624.8</ele><time>2026-04-24T17:07:44.051Z</time></trkpt><trkpt lat="43.4171488" lon="11.9530941"><ele>626.5999999999999</ele><time>2026-04-24T17:07:45.044Z</time></trkpt><trkpt lat="43.4171901" lon="11.9530097"><ele>628.4000000000001</ele><time>2026-04-24T17:07:46.051Z</time></trkpt><trkpt lat="43.4172856" lon="11.9529328"><ele>630.2</ele><time>2026-04-24T17:07:47.052Z</time></trkpt><trkpt lat="43.4174043" lon="11.9528377"><ele>632.0</ele><time>2026-04-24T17:07:48.043Z</time></trkpt><trkpt lat="43.4174789" lon="11.9527095"><ele>626.0</ele><time>2026-04-24T17:07:49.061Z</time></trkpt><trkpt lat="43.4175207" lon="11.9525991"><ele>620.0</ele><time>2026-04-24T17:07:50.053Z</time></trkpt><trkpt lat="43.4175207" lon="11.9524365"><ele>614.0</ele><time>2026-04-24T17:07:52.05Z</time></trkpt><trkpt lat="43.4175161" lon="11.9523394"><ele>608.0</ele><time>2026-04-24T17:07:53.055Z</time></trkpt><trkpt lat="43.4175068" lon="11.9522446"><ele>602.0</ele><time>2026-04-24T17:07:54.051Z</time></trkpt><trkpt lat="43.417486" lon="11.9521519"><ele>596.0</ele><time>2026-04-24T17:07:55.054Z</time></trkpt><trkpt lat="43.4174637" lon="11.9520618"><ele>596.0</ele><time>2026-04-24T17:07:56.072Z</time></trkpt><trkpt lat="43.4174166" lon="11.9519103"><ele>596.0</ele><time>2026-04-24T17:07:58.055Z</time></trkpt><trkpt lat="43.4173899" lon="11.9518297"><ele>596.0</ele><time>2026-04-24T17:07:59.057Z</time></trkpt><trkpt lat="43.4173532" lon="11.9517514"><ele>596.0</ele><time>2026-04-24T17:08:00.056Z</time></trkpt><trkpt lat="43.4173152" lon="11.9516618"><ele>596.0</ele><time>2026-04-24T17:08:01.058Z</time></trkpt><trkpt lat="43.4172631" lon="11.9515557"><ele>596.0</ele><time>2026-04-24T17:08:02.065Z</time></trkpt><trkpt lat="43.4172003" lon="11.951447"><ele>601.4</ele><time>2026-04-24T17:08:03.066Z</time></trkpt><trkpt lat="43.4171394" lon="11.9513307"><ele>606.8</ele><time>2026-04-24T17:08:04.063Z</time></trkpt><trkpt lat="43.4170824" lon="11.9512134"><ele>612.1999999999999</ele><time>2026-04-24T17:08:05.054Z</time></trkpt><trkpt lat="43.4170239" lon="11.9511109"><ele>617.6</ele><time>2026-04-24T17:08:06.063Z</time></trkpt><trkpt lat="43.4169526" lon="11.9510514"><ele>623.0</ele><time>2026-04-24T17:08:07.048Z</time></trkpt><trkpt lat="43.4168783" lon="11.9510392"><ele>623.0</ele><time>2026-04-24T17:08:08.051Z</time></trkpt><trkpt lat="43.4167919" lon="11.9510544"><ele>623.0</ele><time>2026-04-24T17:08:09.062Z</time></trkpt><trkpt lat="43.416711" lon="11.9510439"><ele>623.0</ele><time>2026-04-24T17:08:10.048Z</time></trkpt><trkpt lat="43.4166514" lon="11.9510107"><ele>623.0</ele><time>2026-04-24T17:08:11.05Z</time></trkpt><trkpt lat="43.4166231" lon="11.9508591"><ele>623.0</ele><time>2026-04-24T17:08:13.053Z</time></trkpt><trkpt lat="43.4166304" lon="11.9507569"><ele>623.0</ele><time>2026-04-24T17:08:14.071Z</time></trkpt><trkpt lat="43.4166396" lon="11.9506124"><ele>627.2</ele><time>2026-04-24T17:08:16.058Z</time></trkpt><trkpt lat="43.4166171" lon="11.9504985"><ele>631.4</ele><time>2026-04-24T17:08:18.056Z</time></trkpt><trkpt lat="43.4165669" lon="11.9504168"><ele>635.6</ele><time>2026-04-24T17:08:19.055Z</time></trkpt><trkpt lat="43.4164897" lon="11.9503297"><ele>639.8000000000001</ele><time>2026-04-24T17:08:20.046Z</time></trkpt><trkpt lat="43.4164013" lon="11.9502233"><ele>644.0</ele><time>2026-04-24T17:08:21.054Z</time></trkpt><trkpt lat="43.416309" lon="11.9501291"><ele>644.0</ele><time>2026-04-24T17:08:22.05Z</time></trkpt><trkpt lat="43.4162209" lon="11.9500462"><ele>644.0</ele><time>2026-04-24T17:08:23.051Z</time></trkpt><trkpt lat="43.4161355" lon="11.9499859"><ele>644.0</ele><time>2026-04-24T17:08:24.053Z</time></trkpt><trkpt lat="43.4160842" lon="11.9499105"><ele>644.0</ele><time>2026-04-24T17:08:25.053Z</time></trkpt><trkpt lat="43.416061" lon="11.949752"><ele>644.0</ele><time>2026-04-24T17:08:26.051Z</time></trkpt><trkpt lat="43.4160391" lon="11.9495993"><ele>640.2</ele><time>2026-04-24T17:08:27.059Z</time></trkpt><trkpt lat="43.4160418" lon="11.9494572"><ele>636.4000000000001</ele><time>2026-04-24T17:08:28.049Z</time></trkpt><trkpt lat="43.4160469" lon="11.9493318"><ele>632.6</ele><time>2026-04-24T17:08:29.049Z</time></trkpt><trkpt lat="43.4160255" lon="11.9492172"><ele>628.8</ele><time>2026-04-24T17:08:30.052Z</time></trkpt><trkpt lat="43.4160498" lon="11.9490853"><ele>625.0</ele><time>2026-04-24T17:08:32.057Z</time></trkpt><trkpt lat="43.416095" lon="11.9489915"><ele>623.0</ele><time>2026-04-24T17:08:33.041Z</time></trkpt><trkpt lat="43.4161348" lon="11.948872"><ele>621.0</ele><time>2026-04-24T17:08:34.054Z</time></trkpt><trkpt lat="43.4161754" lon="11.9487658"><ele>619.0</ele><time>2026-04-24T17:08:35.041Z</time></trkpt><trkpt lat="43.4162455" lon="11.9486976"><ele>617.0</ele><time>2026-04-24T17:08:36.05Z</time></trkpt><trkpt lat="43.4163236" lon="11.9486004"><ele>615.0</ele><time>2026-04-24T17:08:37.044Z</time></trkpt><trkpt lat="43.4163937" lon="11.9485209"><ele>615.5</ele><time>2026-04-24T17:08:38.044Z</time></trkpt><trkpt lat="43.416466" lon="11.948432"><ele>616.0</ele><time>2026-04-24T17:08:39.05Z</time></trkpt><trkpt lat="43.4165365" lon="11.9483429"><ele>616.5</ele><time>2026-04-24T17:08:40.05Z</time></trkpt><trkpt lat="43.4166" lon="11.9482692"><ele>617.0</ele><time>2026-04-24T17:08:41.048Z</time></trkpt><trkpt lat="43.4166706" lon="11.9482082"><ele>617.5</ele><time>2026-04-24T17:08:42.053Z</time></trkpt><trkpt lat="43.4167519" lon="11.9481633"><ele>618.0</ele><time>2026-04-24T17:08:43.063Z</time></trkpt><trkpt lat="43.4168303" lon="11.9481214"><ele>618.0</ele><time>2026-04-24T17:08:44.058Z</time></trkpt><trkpt lat="43.4169189" lon="11.9480798"><ele>618.0</ele><time>2026-04-24T17:08:45.053Z</time></trkpt><trkpt lat="43.4170188" lon="11.9480344"><ele>618.0</ele><time>2026-04-24T17:08:46.059Z</time></trkpt><trkpt lat="43.4171206" lon="11.9480095"><ele>618.0</ele><time>2026-04-24T17:08:47.05Z</time></trkpt><trkpt lat="43.4172135" lon="11.9479745"><ele>618.0</ele><time>2026-04-24T17:08:48.051Z</time></trkpt><trkpt lat="43.4172822" lon="11.9479617"><ele>616.4</ele><time>2026-04-24T17:08:49.052Z</time></trkpt><trkpt lat="43.417354" lon="11.9479662"><ele>614.8</ele><time>2026-04-24T17:08:50.055Z</time></trkpt><trkpt lat="43.4174508" lon="11.9479944"><ele>613.2</ele><time>2026-04-24T17:08:51.042Z</time></trkpt><trkpt lat="43.4175666" lon="11.948023"><ele>611.6</ele><time>2026-04-24T17:08:52.047Z</time></trkpt><trkpt lat="43.4176781" lon="11.9480396"><ele>610.0</ele><time>2026-04-24T17:08:53.053Z</time></trkpt><trkpt lat="43.4177757" lon="11.9480434"><ele>610.0</ele><time>2026-04-24T17:08:54.052Z</time></trkpt><trkpt lat="43.4178675" lon="11.9480231"><ele>610.0</ele><time>2026-04-24T17:08:55.047Z</time></trkpt><trkpt lat="43.4179576" lon="11.9479951"><ele>610.0</ele><time>2026-04-24T17:08:56.049Z</time></trkpt><trkpt lat="43.4180472" lon="11.9479741"><ele>610.0</ele><time>2026-04-24T17:08:57.051Z</time></trkpt><trkpt lat="43.4181152" lon="11.9479597"><ele>610.0</ele><time>2026-04-24T17:08:58.052Z</time></trkpt><trkpt lat="43.4181868" lon="11.9479003"><ele>610.0</ele><time>2026-04-24T17:09:00.052Z</time></trkpt><trkpt lat="43.4181725" lon="11.9477624"><ele>610.0</ele><time>2026-04-24T17:09:02.057Z</time></trkpt><trkpt lat="43.4181371" lon="11.9476883"><ele>610.0</ele><time>2026-04-24T17:09:03.053Z</time></trkpt><trkpt lat="43.418094" lon="11.9476122"><ele>610.0</ele><time>2026-04-24T17:09:04.055Z</time></trkpt><trkpt lat="43.4180544" lon="11.9475286"><ele>610.0</ele><time>2026-04-24T17:09:05.055Z</time></trkpt><trkpt lat="43.4180109" lon="11.9474338"><ele>610.0</ele><time>2026-04-24T17:09:06.065Z</time></trkpt><trkpt lat="43.4179743" lon="11.9473371"><ele>610.0</ele><time>2026-04-24T17:09:07.062Z</time></trkpt><trkpt lat="43.4179422" lon="11.9472595"><ele>610.0</ele><time>2026-04-24T17:09:08.061Z</time></trkpt><trkpt lat="43.4178622" lon="11.9471747"><ele>614.8</ele><time>2026-04-24T17:09:10.054Z</time></trkpt><trkpt lat="43.4177994" lon="11.947147"><ele>619.6</ele><time>2026-04-24T17:09:11.056Z</time></trkpt><trkpt lat="43.4177278" lon="11.9471335"><ele>624.4</ele><time>2026-04-24T17:09:12.062Z</time></trkpt><trkpt lat="43.4176151" lon="11.9471477"><ele>629.2</ele><time>2026-04-24T17:09:14.055Z</time></trkpt><trkpt lat="43.4175057" lon="11.9471351"><ele>634.0</ele><time>2026-04-24T17:09:16.06Z</time></trkpt><trkpt lat="43.4174069" lon="11.9470262"><ele>634.0</ele><time>2026-04-24T17:09:18.05Z</time></trkpt><trkpt lat="43.4173624" lon="11.9469333"><ele>634.0</ele><time>2026-04-24T17:09:19.057Z</time></trkpt><trkpt lat="43.4173177" lon="11.946836"><ele>634.0</ele><time>2026-04-24T17:09:20.072Z</time></trkpt><trkpt lat="43.4172594" lon="11.9467566"><ele>634.0</ele><time>2026-04-24T17:09:21.062Z</time></trkpt><trkpt lat="43.4171869" lon="11.9466866"><ele>634.0</ele><time>2026-04-24T17:09:22.045Z</time></trkpt><trkpt lat="43.4171001" lon="11.9466199"><ele>634.0</ele><time>2026-04-24T17:09:23.065Z</time></trkpt><trkpt lat="43.4170093" lon="11.9465628"><ele>637.1666666666667</ele><time>2026-04-24T17:09:24.061Z</time></trkpt><trkpt lat="43.4169255" lon="11.9465154"><ele>640.3333333333334</ele><time>2026-04-24T17:09:25.057Z</time></trkpt><trkpt lat="43.4168637" lon="11.9464675"><ele>643.5</ele><time>2026-04-24T17:09:26.054Z</time></trkpt><trkpt lat="43.4168208" lon="11.9463856"><ele>646.6666666666666</ele><time>2026-04-24T17:09:27.056Z</time></trkpt><trkpt lat="43.4167866" lon="11.9462977"><ele>649.8333333333333</ele><time>2026-04-24T17:09:28.045Z</time></trkpt><trkpt lat="43.4167643" lon="11.9462065"><ele>653.0</ele><time>2026-04-24T17:09:29.073Z</time></trkpt><trkpt lat="43.4167407" lon="11.9460929"><ele>653.0</ele><time>2026-04-24T17:09:30.054Z</time></trkpt><trkpt lat="43.4167219" lon="11.9459539"><ele>653.0</ele><time>2026-04-24T17:09:31.058Z</time></trkpt><trkpt lat="43.4167165" lon="11.9458009"><ele>653.0</ele><time>2026-04-24T17:09:32.054Z</time></trkpt><trkpt lat="43.4167182" lon="11.9456381"><ele>653.0</ele><time>2026-04-24T17:09:33.05Z</time></trkpt><trkpt lat="43.4167146" lon="11.9454772"><ele>653.0</ele><time>2026-04-24T17:09:34.055Z</time></trkpt><trkpt lat="43.4167067" lon="11.9453208"><ele>650.1999999999999</ele><time>2026-04-24T17:09:35.049Z</time></trkpt><trkpt lat="43.4166883" lon="11.9451715"><ele>647.4</ele><time>2026-04-24T17:09:36.057Z</time></trkpt><trkpt lat="43.4166503" lon="11.9450409"><ele>644.5999999999999</ele><time>2026-04-24T17:09:37.048Z</time></trkpt><trkpt lat="43.41659" lon="11.9449274"><ele>641.8</ele><time>2026-04-24T17:09:38.063Z</time></trkpt><trkpt lat="43.4165098" lon="11.9448411"><ele>639.0</ele><time>2026-04-24T17:09:39.055Z</time></trkpt><trkpt lat="43.416434" lon="11.9447576"><ele>638.0</ele><time>2026-04-24T17:09:40.052Z</time></trkpt><trkpt lat="43.4163713" lon="11.9446776"><ele>637.0</ele><time>2026-04-24T17:09:41.049Z</time></trkpt><trkpt lat="43.4163153" lon="11.9445837"><ele>636.0</ele><time>2026-04-24T17:09:42.054Z</time></trkpt><trkpt lat="43.4162698" lon="11.9444573"><ele>635.0</ele><time>2026-04-24T17:09:43.057Z</time></trkpt><trkpt lat="43.4162357" lon="11.944316"><ele>634.0</ele><time>2026-04-24T17:09:44.047Z</time></trkpt><trkpt lat="43.4162135" lon="11.9441917"><ele>634.0</ele><time>2026-04-24T17:09:45.05Z</time></trkpt><trkpt lat="43.4162175" lon="11.9440767"><ele>634.0</ele><time>2026-04-24T17:09:46.052Z</time></trkpt><trkpt lat="43.4162346" lon="11.9439576"><ele>634.0</ele><time>2026-04-24T17:09:47.062Z</time></trkpt><trkpt lat="43.4162437" lon="11.9438385"><ele>634.0</ele><time>2026-04-24T17:09:48.059Z</time></trkpt><trkpt lat="43.4162249" lon="11.9437184"><ele>634.0</ele><time>2026-04-24T17:09:49.059Z</time></trkpt><trkpt lat="43.4161852" lon="11.9435944"><ele>634.0</ele><time>2026-04-24T17:09:50.057Z</time></trkpt><trkpt lat="43.4161349" lon="11.9434746"><ele>631.3333333333334</ele><time>2026-04-24T17:09:51.047Z</time></trkpt><trkpt lat="43.4160846" lon="11.9433766"><ele>628.6666666666667</ele><time>2026-04-24T17:09:52.047Z</time></trkpt><trkpt lat="43.4160521" lon="11.9432978"><ele>626.0</ele><time>2026-04-24T17:09:53.054Z</time></trkpt><trkpt lat="43.416026" lon="11.943217"><ele>623.3333333333334</ele><time>2026-04-24T17:09:54.055Z</time></trkpt><trkpt lat="43.4159885" lon="11.9431427"><ele>620.6666666666666</ele><time>2026-04-24T17:09:55.049Z</time></trkpt><trkpt lat="43.4159361" lon="11.9430839"><ele>618.0</ele><time>2026-04-24T17:09:56.049Z</time></trkpt><trkpt lat="43.4158443" lon="11.9430056"><ele>618.0</ele><time>2026-04-24T17:09:58.049Z</time></trkpt><trkpt lat="43.415838" lon="11.9428952"><ele>618.0</ele><time>2026-04-24T17:10:01.055Z</time></trkpt><trkpt lat="43.4158266" lon="11.9427462"><ele>618.0</ele><time>2026-04-24T17:10:03.057Z</time></trkpt><trkpt lat="43.4158215" lon="11.9426342"><ele>618.0</ele><time>2026-04-24T17:10:05.056Z</time></trkpt><trkpt lat="43.4158745" lon="11.9425495"><ele>618.0</ele><time>2026-04-24T17:10:24.058Z</time></trkpt><trkpt lat="43.4159218" lon="11.9424279"><ele>615.0</ele><time>2026-04-24T17:10:26.051Z</time></trkpt><trkpt lat="43.4159595" lon="11.9423194"><ele>612.0</ele><time>2026-04-24T17:10:28.055Z</time></trkpt><trkpt lat="43.4160003" lon="11.9422326"><ele>609.0</ele><time>2026-04-24T17:10:30.057Z</time></trkpt><trkpt lat="43.4160798" lon="11.9421489"><ele>606.0</ele><time>2026-04-24T17:10:32.054Z</time></trkpt><trkpt lat="43.416133" lon="11.9420264"><ele>603.0</ele><time>2026-04-24T17:10:34.055Z</time></trkpt><trkpt lat="43.416154" lon="11.9419126"><ele>603.0</ele><time>2026-04-24T17:10:36.058Z</time></trkpt><trkpt lat="43.4161493" lon="11.9417646"><ele>603.0</ele><time>2026-04-24T17:10:38.054Z</time></trkpt><trkpt lat="43.4161218" lon="11.9415975"><ele>603.0</ele><time>2026-04-24T17:10:40.055Z</time></trkpt><trkpt lat="43.4160832" lon="11.9414588"><ele>603.0</ele><time>2026-04-24T17:10:42.069Z</time></trkpt><trkpt lat="43.4160758" lon="11.9413504"><ele>603.0</ele><time>2026-04-24T17:10:57.055Z</time></trkpt><trkpt lat="43.4160411" lon="11.9411908"><ele>601.5714285714286</ele><time>2026-04-24T17:11:00.062Z</time></trkpt><trkpt lat="43.4160227" lon="11.9410946"><ele>600.1428571428571</ele><time>2026-04-24T17:11:01.063Z</time></trkpt><trkpt lat="43.4159944" lon="11.9410043"><ele>598.7142857142857</ele><time>2026-04-24T17:11:02.061Z</time></trkpt><trkpt lat="43.4159673" lon="11.9409197"><ele>597.2857142857142</ele><time>2026-04-24T17:11:03.058Z</time></trkpt><trkpt lat="43.4159397" lon="11.9408315"><ele>595.8571428571429</ele><time>2026-04-24T17:11:04.071Z</time></trkpt><trkpt lat="43.4159207" lon="11.9407292"><ele>594.4285714285713</ele><time>2026-04-24T17:11:05.056Z</time></trkpt><trkpt lat="43.4159063" lon="11.9406117"><ele>593.0</ele><time>2026-04-24T17:11:06.071Z</time></trkpt><trkpt lat="43.4158953" lon="11.940493"><ele>591.1666666666666</ele><time>2026-04-24T17:11:07.087Z</time></trkpt><trkpt lat="43.4158972" lon="11.9403731"><ele>589.3333333333333</ele><time>2026-04-24T17:11:08.069Z</time></trkpt><trkpt lat="43.4158977" lon="11.9402588"><ele>587.5</ele><time>2026-04-24T17:11:09.061Z</time></trkpt><trkpt lat="43.4158927" lon="11.9401569"><ele>585.6666666666666</ele><time>2026-04-24T17:11:10.061Z</time></trkpt><trkpt lat="43.4158945" lon="11.9400567"><ele>583.8333333333334</ele><time>2026-04-24T17:11:11.058Z</time></trkpt><trkpt lat="43.4158897" lon="11.939883"><ele>582.0</ele><time>2026-04-24T17:11:13.059Z</time></trkpt><trkpt lat="43.4158942" lon="11.9397912"><ele>580.8333333333334</ele><time>2026-04-24T17:11:14.069Z</time></trkpt><trkpt lat="43.4159115" lon="11.9396908"><ele>579.6666666666666</ele><time>2026-04-24T17:11:15.059Z</time></trkpt><trkpt lat="43.4159292" lon="11.9395902"><ele>578.5</ele><time>2026-04-24T17:11:16.071Z</time></trkpt><trkpt lat="43.415945" lon="11.9394954"><ele>577.3333333333333</ele><time>2026-04-24T17:11:17.07Z</time></trkpt><trkpt lat="43.4159464" lon="11.9393594"><ele>576.1666666666666</ele><time>2026-04-24T17:11:19.061Z</time></trkpt><trkpt lat="43.4159652" lon="11.9392518"><ele>575.0</ele><time>2026-04-24T17:11:21.062Z</time></trkpt><trkpt lat="43.4159905" lon="11.9391628"><ele>574.0</ele><time>2026-04-24T17:11:23.06Z</time></trkpt><trkpt lat="43.4160398" lon="11.9390326"><ele>573.0</ele><time>2026-04-24T17:11:25.068Z</time></trkpt><trkpt lat="43.4161112" lon="11.9389231"><ele>572.0</ele><time>2026-04-24T17:11:27.059Z</time></trkpt><trkpt lat="43.4162119" lon="11.938842"><ele>571.0</ele><time>2026-04-24T17:11:29.064Z</time></trkpt><trkpt lat="43.4162797" lon="11.9387249"><ele>570.0</ele><time>2026-04-24T17:11:31.075Z</time></trkpt><trkpt lat="43.416267" lon="11.9386395"><ele>570.0</ele><time>2026-04-24T17:11:32.074Z</time></trkpt><trkpt lat="43.4162541" lon="11.9385478"><ele>570.0</ele><time>2026-04-24T17:11:33.067Z</time></trkpt><trkpt lat="43.4162838" lon="11.9383734"><ele>570.0</ele><time>2026-04-24T17:11:35.064Z</time></trkpt><trkpt lat="43.4163254" lon="11.938288"><ele>570.0</ele><time>2026-04-24T17:11:36.066Z</time></trkpt><trkpt lat="43.416376" lon="11.9382072"><ele>570.0</ele><time>2026-04-24T17:11:37.059Z</time></trkpt><trkpt lat="43.4164143" lon="11.9381201"><ele>570.0</ele><time>2026-04-24T17:11:38.06Z</time></trkpt><trkpt lat="43.4164387" lon="11.9379664"><ele>567.4</ele><time>2026-04-24T17:11:40.056Z</time></trkpt><trkpt lat="43.416362" lon="11.9378806"><ele>564.8</ele><time>2026-04-24T17:11:42.062Z</time></trkpt><trkpt lat="43.4163275" lon="11.9377952"><ele>562.2</ele><time>2026-04-24T17:11:44.069Z</time></trkpt><trkpt lat="43.4163707" lon="11.9376544"><ele>559.6</ele><time>2026-04-24T17:11:46.06Z</time></trkpt><trkpt lat="43.4164637" lon="11.9376088"><ele>557.0</ele><time>2026-04-24T17:11:48.059Z</time></trkpt><trkpt lat="43.4165671" lon="11.9375989"><ele>557.0</ele><time>2026-04-24T17:11:50.083Z</time></trkpt><trkpt lat="43.4166678" lon="11.9376522"><ele>557.0</ele><time>2026-04-24T17:11:52.059Z</time></trkpt><trkpt lat="43.4167464" lon="11.9376881"><ele>557.0</ele><time>2026-04-24T17:11:54.056Z</time></trkpt><trkpt lat="43.4167996" lon="11.9376139"><ele>557.0</ele><time>2026-04-24T17:11:58.056Z</time></trkpt><trkpt lat="43.4167654" lon="11.9374536"><ele>557.0</ele><time>2026-04-24T17:39:28.068Z</time></trkpt><trkpt lat="43.416751" lon="11.9373674"><ele>555.6666666666666</ele><time>2026-04-24T17:39:29.07Z</time></trkpt><trkpt lat="43.4167298" lon="11.9372642"><ele>554.3333333333333</ele><time>2026-04-24T17:39:30.079Z</time></trkpt><trkpt lat="43.4167079" lon="11.9371815"><ele>553.0</ele><time>2026-04-24T17:39:31.068Z</time></trkpt><trkpt lat="43.4166191" lon="11.9371276"><ele>551.6666666666666</ele><time>2026-04-24T17:39:33.061Z</time></trkpt><trkpt lat="43.4165413" lon="11.9371201"><ele>550.3333333333334</ele><time>2026-04-24T17:39:34.061Z</time></trkpt><trkpt lat="43.4164538" lon="11.9371161"><ele>549.0</ele><time>2026-04-24T17:39:35.067Z</time></trkpt><trkpt lat="43.4163674" lon="11.9371099"><ele>547.8333333333334</ele><time>2026-04-24T17:39:36.063Z</time></trkpt><trkpt lat="43.4162825" lon="11.9370925"><ele>546.6666666666666</ele><time>2026-04-24T17:39:37.063Z</time></trkpt><trkpt lat="43.4162104" lon="11.9370693"><ele>545.5</ele><time>2026-04-24T17:39:38.069Z</time></trkpt><trkpt lat="43.416136" lon="11.9370006"><ele>544.3333333333333</ele><time>2026-04-24T17:39:40.062Z</time></trkpt><trkpt lat="43.416207" lon="11.9368846"><ele>543.1666666666666</ele><time>2026-04-24T17:39:43.06Z</time></trkpt><trkpt lat="43.4162434" lon="11.9367763"><ele>542.0</ele><time>2026-04-24T17:39:45.067Z</time></trkpt><trkpt lat="43.4161913" lon="11.9367018"><ele>539.0</ele><time>2026-04-24T17:39:47.056Z</time></trkpt><trkpt lat="43.4160827" lon="11.9366467"><ele>536.0</ele><time>2026-04-24T17:39:49.062Z</time></trkpt><trkpt lat="43.416013" lon="11.9366503"><ele>533.0</ele><time>2026-04-24T17:39:50.046Z</time></trkpt><trkpt lat="43.4159479" lon="11.9366717"><ele>530.0</ele><time>2026-04-24T17:39:51.056Z</time></trkpt><trkpt lat="43.4158672" lon="11.9366733"><ele>527.0</ele><time>2026-04-24T17:39:53.06Z</time></trkpt><trkpt lat="43.4158717" lon="11.9365461"><ele>524.0</ele><time>2026-04-24T17:39:55.06Z</time></trkpt><trkpt lat="43.4159056" lon="11.9364723"><ele>524.0</ele><time>2026-04-24T17:39:56.048Z</time></trkpt><trkpt lat="43.4159564" lon="11.9364095"><ele>524.0</ele><time>2026-04-24T17:39:57.048Z</time></trkpt><trkpt lat="43.4160146" lon="11.9363449"><ele>524.0</ele><time>2026-04-24T17:39:58.041Z</time></trkpt><trkpt lat="43.4160695" lon="11.9362801"><ele>524.0</ele><time>2026-04-24T17:39:59.048Z</time></trkpt><trkpt lat="43.4161" lon="11.9361101"><ele>524.0</ele><time>2026-04-24T17:40:01.06Z</time></trkpt><trkpt lat="43.4160919" lon="11.9359677"><ele>524.0</ele><time>2026-04-24T17:40:03.053Z</time></trkpt><trkpt lat="43.4159891" lon="11.9359286"><ele>524.0</ele><time>2026-04-24T17:40:05.045Z</time></trkpt><trkpt lat="43.4159135" lon="11.9359363"><ele>524.0</ele><time>2026-04-24T17:40:06.065Z</time></trkpt><trkpt lat="43.4158466" lon="11.935946"><ele>524.0</ele><time>2026-04-24T17:40:07.05Z</time></trkpt><trkpt lat="43.4158039" lon="11.9358576"><ele>524.0</ele><time>2026-04-24T17:40:10.064Z</time></trkpt><trkpt lat="43.4158866" lon="11.935722"><ele>524.0</ele><time>2026-04-24T17:40:12.048Z</time></trkpt><trkpt lat="43.4159556" lon="11.9356315"><ele>524.0</ele><time>2026-04-24T17:40:13.054Z</time></trkpt><trkpt lat="43.4160153" lon="11.9355595"><ele>520.2</ele><time>2026-04-24T17:40:14.057Z</time></trkpt><trkpt lat="43.4160767" lon="11.9355239"><ele>516.4</ele><time>2026-04-24T17:40:15.053Z</time></trkpt><trkpt lat="43.4161823" lon="11.9354566"><ele>512.6</ele><time>2026-04-24T17:40:17.05Z</time></trkpt><trkpt lat="43.4162323" lon="11.9353601"><ele>508.8</ele><time>2026-04-24T17:40:19.05Z</time></trkpt><trkpt lat="43.4161599" lon="11.935293"><ele>505.0</ele><time>2026-04-24T17:40:23.057Z</time></trkpt><trkpt lat="43.4160516" lon="11.9352693"><ele>505.0</ele><time>2026-04-24T17:40:25.06Z</time></trkpt><trkpt lat="43.4159902" lon="11.9352358"><ele>505.0</ele><time>2026-04-24T17:40:27.056Z</time></trkpt><trkpt lat="43.4159752" lon="11.9350951"><ele>505.0</ele><time>2026-04-24T17:40:29.054Z</time></trkpt><trkpt lat="43.4159557" lon="11.9349294"><ele>505.0</ele><time>2026-04-24T17:40:31.055Z</time></trkpt><trkpt lat="43.4158947" lon="11.9348312"><ele>505.0</ele><time>2026-04-24T17:40:34.064Z</time></trkpt><trkpt lat="43.4158063" lon="11.9347327"><ele>505.0</ele><time>2026-04-24T17:40:36.059Z</time></trkpt><trkpt lat="43.4158748" lon="11.9348115"><ele>505.0</ele><time>2026-04-24T17:40:42.057Z</time></trkpt><trkpt lat="43.4159298" lon="11.9348732"><ele>505.0</ele><time>2026-04-24T17:40:43.063Z</time></trkpt><trkpt lat="43.4159899" lon="11.9349782"><ele>505.0</ele><time>2026-04-24T17:40:45.064Z</time></trkpt><trkpt lat="43.416099" lon="11.9350451"><ele>505.0</ele><time>2026-04-24T17:40:47.063Z</time></trkpt><trkpt lat="43.41617" lon="11.935088"><ele>505.0</ele><time>2026-04-24T17:40:48.071Z</time></trkpt><trkpt lat="43.4162432" lon="11.9351532"><ele>505.0</ele><time>2026-04-24T17:40:49.059Z</time></trkpt><trkpt lat="43.4163279" lon="11.9352326"><ele>505.0</ele><time>2026-04-24T17:40:50.056Z</time></trkpt><trkpt lat="43.4164399" lon="11.9353394"><ele>505.0</ele><time>2026-04-24T17:40:51.06Z</time></trkpt><trkpt lat="43.4165758" lon="11.9354907"><ele>503.8</ele><time>2026-04-24T17:40:52.053Z</time></trkpt><trkpt lat="43.41669" lon="11.9356176"><ele>502.6</ele><time>2026-04-24T17:40:53.055Z</time></trkpt><trkpt lat="43.4167778" lon="11.9357347"><ele>501.4</ele><time>2026-04-24T17:40:54.062Z</time></trkpt><trkpt lat="43.416841" lon="11.9358223"><ele>500.2</ele><time>2026-04-24T17:40:55.061Z</time></trkpt><trkpt lat="43.4168883" lon="11.9358815"><ele>499.0</ele><time>2026-04-24T17:40:56.052Z</time></trkpt><trkpt lat="43.416963" lon="11.9359895"><ele>498.1666666666667</ele><time>2026-04-24T17:40:58.05Z</time></trkpt><trkpt lat="43.4170378" lon="11.936032"><ele>497.33333333333337</ele><time>2026-04-24T17:41:00.048Z</time></trkpt><trkpt lat="43.4170856" lon="11.9361095"><ele>496.5</ele><time>2026-04-24T17:41:02.056Z</time></trkpt><trkpt lat="43.4171345" lon="11.9361813"><ele>495.66666666666663</ele><time>2026-04-24T17:41:03.046Z</time></trkpt><trkpt lat="43.4172003" lon="11.9362739"><ele>494.8333333333333</ele><time>2026-04-24T17:41:04.063Z</time></trkpt><trkpt lat="43.4172854" lon="11.9363883"><ele>494.0</ele><time>2026-04-24T17:41:05.059Z</time></trkpt><trkpt lat="43.4173827" lon="11.9365163"><ele>494.0</ele><time>2026-04-24T17:41:06.049Z</time></trkpt><trkpt lat="43.4174568" lon="11.9366406"><ele>494.0</ele><time>2026-04-24T17:41:07.045Z</time></trkpt><trkpt lat="43.4175116" lon="11.9367577"><ele>494.0</ele><time>2026-04-24T17:41:08.063Z</time></trkpt><trkpt lat="43.4175671" lon="11.9368768"><ele>494.0</ele><time>2026-04-24T17:41:09.046Z</time></trkpt><trkpt lat="43.4176235" lon="11.9370109"><ele>494.0</ele><time>2026-04-24T17:41:10.047Z</time></trkpt><trkpt lat="43.4176771" lon="11.9371527"><ele>493.0</ele><time>2026-04-24T17:41:11.049Z</time></trkpt><trkpt lat="43.417724" lon="11.937284"><ele>492.0</ele><time>2026-04-24T17:41:12.055Z</time></trkpt><trkpt lat="43.4177664" lon="11.9373778"><ele>491.0</ele><time>2026-04-24T17:41:13.05Z</time></trkpt><trkpt lat="43.4184139" lon="11.9382869"><ele>490.99999999999994</ele><time>2026-04-24T17:41:25.037Z</time></trkpt><trkpt lat="43.4185312" lon="11.9383228"><ele>491.0</ele><time>2026-04-24T17:41:26.035Z</time></trkpt><trkpt lat="43.4185914" lon="11.938359"><ele>491.0</ele><time>2026-04-24T17:41:27.039Z</time></trkpt><trkpt lat="43.4186502" lon="11.9384112"><ele>491.0</ele><time>2026-04-24T17:41:28.046Z</time></trkpt><trkpt lat="43.4187162" lon="11.9384427"><ele>490.99999999999994</ele><time>2026-04-24T17:41:29.042Z</time></trkpt><trkpt lat="43.418781" lon="11.9384955"><ele>491.0</ele><time>2026-04-24T17:41:30.038Z</time></trkpt><trkpt lat="43.4188519" lon="11.9385443"><ele>490.6</ele><time>2026-04-24T17:41:31.04Z</time></trkpt><trkpt lat="43.4189142" lon="11.938592"><ele>490.20000000000005</ele><time>2026-04-24T17:41:32.041Z</time></trkpt><trkpt lat="43.4189903" lon="11.9386437"><ele>489.79999999999995</ele><time>2026-04-24T17:41:34.043Z</time></trkpt><trkpt lat="43.4190691" lon="11.9387176"><ele>489.4</ele><time>2026-04-24T17:41:36.036Z</time></trkpt><trkpt lat="43.419176" lon="11.9388111"><ele>489.0</ele><time>2026-04-24T17:41:38.039Z</time></trkpt><trkpt lat="43.4192508" lon="11.9388695"><ele>489.0</ele><time>2026-04-24T17:41:39.046Z</time></trkpt><trkpt lat="43.4193206" lon="11.9389425"><ele>489.0</ele><time>2026-04-24T17:41:40.04Z</time></trkpt><trkpt lat="43.41939" lon="11.9390066"><ele>489.0</ele><time>2026-04-24T17:41:41.045Z</time></trkpt><trkpt lat="43.419473" lon="11.9390763"><ele>489.0</ele><time>2026-04-24T17:41:42.046Z</time></trkpt><trkpt lat="43.4195458" lon="11.9391358"><ele>489.0</ele><time>2026-04-24T17:41:43.045Z</time></trkpt><trkpt lat="43.419615" lon="11.9391864"><ele>489.0</ele><time>2026-04-24T17:41:44.044Z</time></trkpt><trkpt lat="43.4196801" lon="11.939222"><ele>487.66666666666663</ele><time>2026-04-24T17:41:45.051Z</time></trkpt><trkpt lat="43.4197409" lon="11.93926"><ele>486.3333333333333</ele><time>2026-04-24T17:41:46.044Z</time></trkpt><trkpt lat="43.4198649" lon="11.9393427"><ele>485.0</ele><time>2026-04-24T17:41:48.039Z</time></trkpt><trkpt lat="43.4206326" lon="11.9396148"><ele>484.99999999999994</ele><time>2026-04-24T17:41:57.028Z</time></trkpt><trkpt lat="43.4206716" lon="11.9397049"><ele>485.0</ele><time>2026-04-24T17:41:58.022Z</time></trkpt><trkpt lat="43.4207544" lon="11.9397791"><ele>485.0</ele><time>2026-04-24T17:41:59.029Z</time></trkpt><trkpt lat="43.4208078" lon="11.9398388"><ele>485.0</ele><time>2026-04-24T17:42:00.034Z</time></trkpt><trkpt lat="43.4208792" lon="11.9398721"><ele>484.99999999999994</ele><time>2026-04-24T17:42:01.036Z</time></trkpt><trkpt lat="43.4209639" lon="11.9399811"><ele>485.0</ele><time>2026-04-24T17:42:03.034Z</time></trkpt><trkpt lat="43.4210429" lon="11.9399968"><ele>485.0</ele><time>2026-04-24T17:42:04.043Z</time></trkpt><trkpt lat="43.421123" lon="11.9400323"><ele>485.0</ele><time>2026-04-24T17:42:05.047Z</time></trkpt><trkpt lat="43.4212193" lon="11.940075"><ele>485.0</ele><time>2026-04-24T17:42:06.043Z</time></trkpt><trkpt lat="43.4212925" lon="11.9400821"><ele>485.0</ele><time>2026-04-24T17:42:07.051Z</time></trkpt><trkpt lat="43.4214142" lon="11.9401512"><ele>485.0</ele><time>2026-04-24T17:42:09.045Z</time></trkpt><trkpt lat="43.4214899" lon="11.9402081"><ele>485.2</ele><time>2026-04-24T17:42:10.047Z</time></trkpt><trkpt lat="43.4215741" lon="11.9402781"><ele>485.4</ele><time>2026-04-24T17:42:11.055Z</time></trkpt><trkpt lat="43.4216666" lon="11.9403392"><ele>485.6</ele><time>2026-04-24T17:42:12.039Z</time></trkpt><trkpt lat="43.4217756" lon="11.9403798"><ele>485.8</ele><time>2026-04-24T17:42:13.04Z</time></trkpt><trkpt lat="43.4218741" lon="11.9404361"><ele>486.0</ele><time>2026-04-24T17:42:14.043Z</time></trkpt><trkpt lat="43.4219835" lon="11.9404645"><ele>486.0</ele><time>2026-04-24T17:42:15.036Z</time></trkpt><trkpt lat="43.4220945" lon="11.9405268"><ele>486.0</ele><time>2026-04-24T17:42:16.048Z</time></trkpt><trkpt lat="43.4221855" lon="11.9405962"><ele>486.0</ele><time>2026-04-24T17:42:17.035Z</time></trkpt><trkpt lat="43.422284" lon="11.9406428"><ele>486.0</ele><time>2026-04-24T17:42:18.038Z</time></trkpt><trkpt lat="43.4223839" lon="11.9406754"><ele>486.0</ele><time>2026-04-24T17:42:19.042Z</time></trkpt><trkpt lat="43.4224702" lon="11.9406848"><ele>486.0</ele><time>2026-04-24T17:42:20.047Z</time></trkpt><trkpt lat="43.4225562" lon="11.9406892"><ele>486.0</ele><time>2026-04-24T17:42:21.044Z</time></trkpt><trkpt lat="43.422642" lon="11.9406916"><ele>486.0</ele><time>2026-04-24T17:42:22.04Z</time></trkpt><trkpt lat="43.4227271" lon="11.9406834"><ele>486.0</ele><time>2026-04-24T17:42:23.044Z</time></trkpt><trkpt lat="43.4228236" lon="11.9406585"><ele>486.0</ele><time>2026-04-24T17:42:24.039Z</time></trkpt><trkpt lat="43.4229398" lon="11.9406076"><ele>483.8</ele><time>2026-04-24T17:42:25.042Z</time></trkpt><trkpt lat="43.4230488" lon="11.9405518"><ele>481.6</ele><time>2026-04-24T17:42:26.038Z</time></trkpt><trkpt lat="43.4231544" lon="11.9405031"><ele>479.4</ele><time>2026-04-24T17:42:27.05Z</time></trkpt><trkpt lat="43.4232523" lon="11.9404796"><ele>477.2</ele><time>2026-04-24T17:42:28.051Z</time></trkpt><trkpt lat="43.423365" lon="11.9404842"><ele>475.0</ele><time>2026-04-24T17:42:29.043Z</time></trkpt><trkpt lat="43.4234776" lon="11.9405061"><ele>475.0</ele><time>2026-04-24T17:42:30.042Z</time></trkpt><trkpt lat="43.42358" lon="11.9405457"><ele>475.0</ele><time>2026-04-24T17:42:31.051Z</time></trkpt><trkpt lat="43.4236854" lon="11.9406345"><ele>475.0</ele><time>2026-04-24T17:42:32.052Z</time></trkpt><trkpt lat="43.4237727" lon="11.9407117"><ele>475.0</ele><time>2026-04-24T17:42:33.054Z</time></trkpt><trkpt lat="43.4238574" lon="11.9408021"><ele>475.0</ele><time>2026-04-24T17:42:34.05Z</time></trkpt><trkpt lat="43.4239488" lon="11.9409105"><ele>475.75</ele><time>2026-04-24T17:42:35.051Z</time></trkpt><trkpt lat="43.4240375" lon="11.9410184"><ele>476.5</ele><time>2026-04-24T17:42:36.045Z</time></trkpt><trkpt lat="43.4241402" lon="11.9411369"><ele>477.25</ele><time>2026-04-24T17:42:37.047Z</time></trkpt><trkpt lat="43.4242523" lon="11.9412508"><ele>478.0</ele><time>2026-04-24T17:42:38.042Z</time></trkpt><trkpt lat="43.4243534" lon="11.9413594"><ele>478.0</ele><time>2026-04-24T17:42:39.048Z</time></trkpt><trkpt lat="43.4244606" lon="11.9414719"><ele>478.0</ele><time>2026-04-24T17:42:40.048Z</time></trkpt><trkpt lat="43.4245601" lon="11.9415942"><ele>478.0</ele><time>2026-04-24T17:42:41.04Z</time></trkpt><trkpt lat="43.4246591" lon="11.9417103"><ele>478.0</ele><time>2026-04-24T17:42:42.049Z</time></trkpt><trkpt lat="43.4247422" lon="11.9418146"><ele>476.0</ele><time>2026-04-24T17:42:43.041Z</time></trkpt><trkpt lat="43.4247999" lon="11.941889"><ele>473.99999999999994</ele><time>2026-04-24T17:42:44.045Z</time></trkpt><trkpt lat="43.424866" lon="11.9419448"><ele>471.99999999999994</ele><time>2026-04-24T17:42:45.049Z</time></trkpt><trkpt lat="43.4249493" lon="11.9419953"><ele>470.0</ele><time>2026-04-24T17:42:46.042Z</time></trkpt><trkpt lat="43.4250499" lon="11.9420492"><ele>468.0</ele><time>2026-04-24T17:42:47.044Z</time></trkpt><trkpt lat="43.4251616" lon="11.9421248"><ele>468.0</ele><time>2026-04-24T17:42:48.04Z</time></trkpt><trkpt lat="43.4252899" lon="11.9422061"><ele>468.0</ele><time>2026-04-24T17:42:49.047Z</time></trkpt><trkpt lat="43.4253977" lon="11.9422919"><ele>468.0</ele><time>2026-04-24T17:42:50.037Z</time></trkpt><trkpt lat="43.4254874" lon="11.942337"><ele>468.0</ele><time>2026-04-24T17:42:51.042Z</time></trkpt><trkpt lat="43.4255907" lon="11.9423952"><ele>466.75</ele><time>2026-04-24T17:42:52.043Z</time></trkpt><trkpt lat="43.4256983" lon="11.9424522"><ele>465.5</ele><time>2026-04-24T17:42:53.037Z</time></trkpt><trkpt lat="43.4258062" lon="11.9425256"><ele>464.25</ele><time>2026-04-24T17:42:54.048Z</time></trkpt><trkpt lat="43.4259078" lon="11.9425947"><ele>463.0</ele><time>2026-04-24T17:42:55.043Z</time></trkpt><trkpt lat="43.4260059" lon="11.9426636"><ele>463.2</ele><time>2026-04-24T17:42:56.037Z</time></trkpt><trkpt lat="43.4260849" lon="11.9427057"><ele>463.4</ele><time>2026-04-24T17:42:57.045Z</time></trkpt><trkpt lat="43.4261829" lon="11.9427391"><ele>463.59999999999997</ele><time>2026-04-24T17:42:58.04Z</time></trkpt><trkpt lat="43.4262832" lon="11.9427876"><ele>463.79999999999995</ele><time>2026-04-24T17:42:59.04Z</time></trkpt><trkpt lat="43.4263803" lon="11.9428557"><ele>464.0</ele><time>2026-04-24T17:43:00.036Z</time></trkpt><trkpt lat="43.4264728" lon="11.9429854"><ele>464.0</ele><time>2026-04-24T17:43:01.053Z</time></trkpt><trkpt lat="43.426543" lon="11.9431261"><ele>464.0</ele><time>2026-04-24T17:43:02.042Z</time></trkpt><trkpt lat="43.4266071" lon="11.9432764"><ele>464.0</ele><time>2026-04-24T17:43:03.043Z</time></trkpt><trkpt lat="43.4266656" lon="11.9434271"><ele>464.0</ele><time>2026-04-24T17:43:04.035Z</time></trkpt><trkpt lat="43.4267052" lon="11.9435707"><ele>464.6</ele><time>2026-04-24T17:43:05.045Z</time></trkpt><trkpt lat="43.4267397" lon="11.9437108"><ele>465.2</ele><time>2026-04-24T17:43:06.043Z</time></trkpt><trkpt lat="43.4267577" lon="11.943846"><ele>465.80000000000007</ele><time>2026-04-24T17:43:07.045Z</time></trkpt><trkpt lat="43.4267786" lon="11.9439863"><ele>466.40000000000003</ele><time>2026-04-24T17:43:08.037Z</time></trkpt><trkpt lat="43.4267855" lon="11.9441197"><ele>467.0</ele><time>2026-04-24T17:43:09.056Z</time></trkpt><trkpt lat="43.4267822" lon="11.9442534"><ele>467.40000000000003</ele><time>2026-04-24T17:43:10.04Z</time></trkpt><trkpt lat="43.4267679" lon="11.944382"><ele>467.80000000000007</ele><time>2026-04-24T17:43:11.038Z</time></trkpt><trkpt lat="43.4267578" lon="11.9445124"><ele>468.2</ele><time>2026-04-24T17:43:12.038Z</time></trkpt><trkpt lat="43.4267521" lon="11.9446516"><ele>468.6</ele><time>2026-04-24T17:43:13.046Z</time></trkpt><trkpt lat="43.426736" lon="11.9448018"><ele>469.0</ele><time>2026-04-24T17:43:14.035Z</time></trkpt><trkpt lat="43.4267169" lon="11.9449554"><ele>467.0</ele><time>2026-04-24T17:43:15.036Z</time></trkpt><trkpt lat="43.4267119" lon="11.9451016"><ele>465.0</ele><time>2026-04-24T17:43:16.039Z</time></trkpt><trkpt lat="43.4266963" lon="11.9452526"><ele>463.0</ele><time>2026-04-24T17:43:17.034Z</time></trkpt><trkpt lat="43.4266634" lon="11.9453969"><ele>461.0</ele><time>2026-04-24T17:43:18.04Z</time></trkpt><trkpt lat="43.4266135" lon="11.945553"><ele>461.0</ele><time>2026-04-24T17:43:19.032Z</time></trkpt><trkpt lat="43.4265643" lon="11.9457099"><ele>461.0</ele><time>2026-04-24T17:43:20.027Z</time></trkpt><trkpt lat="43.4265056" lon="11.945888"><ele>461.0</ele><time>2026-04-24T17:43:21.031Z</time></trkpt><trkpt lat="43.4264545" lon="11.9460937"><ele>461.0</ele><time>2026-04-24T17:43:22.033Z</time></trkpt><trkpt lat="43.426418" lon="11.9463057"><ele>459.0</ele><time>2026-04-24T17:43:23.04Z</time></trkpt><trkpt lat="43.4264055" lon="11.9465205"><ele>457.0</ele><time>2026-04-24T17:43:24.033Z</time></trkpt><trkpt lat="43.4264152" lon="11.9467532"><ele>455.0</ele><time>2026-04-24T17:43:25.033Z</time></trkpt><trkpt lat="43.4264452" lon="11.9470025"><ele>454.66666666666663</ele><time>2026-04-24T17:43:26.044Z</time></trkpt><trkpt lat="43.4264839" lon="11.9472662"><ele>454.33333333333337</ele><time>2026-04-24T17:43:27.038Z</time></trkpt><trkpt lat="43.4264801" lon="11.9475344"><ele>454.0</ele><time>2026-04-24T17:43:28.034Z</time></trkpt><trkpt lat="43.4264793" lon="11.9477706"><ele>453.25</ele><time>2026-04-24T17:43:29.034Z</time></trkpt><trkpt lat="43.4264816" lon="11.9479695"><ele>452.5</ele><time>2026-04-24T17:43:30.035Z</time></trkpt><trkpt lat="43.4264711" lon="11.9481502"><ele>451.75</ele><time>2026-04-24T17:43:31.035Z</time></trkpt><trkpt lat="43.4264423" lon="11.9483289"><ele>451.0</ele><time>2026-04-24T17:43:32.039Z</time></trkpt><trkpt lat="43.4263895" lon="11.9485087"><ele>451.33333333333337</ele><time>2026-04-24T17:43:33.036Z</time></trkpt><trkpt lat="43.4263233" lon="11.9487046"><ele>451.66666666666663</ele><time>2026-04-24T17:43:34.036Z</time></trkpt><trkpt lat="43.4262157" lon="11.9489335"><ele>452.0</ele><time>2026-04-24T17:43:35.041Z</time></trkpt><trkpt lat="43.4261197" lon="11.9491444"><ele>451.66666666666663</ele><time>2026-04-24T17:43:36.04Z</time></trkpt><trkpt lat="43.4260283" lon="11.9493354"><ele>451.33333333333337</ele><time>2026-04-24T17:43:37.047Z</time></trkpt><trkpt lat="43.425939" lon="11.9495311"><ele>451.0</ele><time>2026-04-24T17:43:38.037Z</time></trkpt><trkpt lat="43.4258853" lon="11.9497538"><ele>451.0</ele><time>2026-04-24T17:43:39.042Z</time></trkpt><trkpt lat="43.4258462" lon="11.9499913"><ele>451.0</ele><time>2026-04-24T17:43:40.047Z</time></trkpt><trkpt lat="43.4258205" lon="11.950215"><ele>451.0</ele><time>2026-04-24T17:43:41.041Z</time></trkpt><trkpt lat="43.4258136" lon="11.9504008"><ele>451.4</ele><time>2026-04-24T17:43:42.051Z</time></trkpt><trkpt lat="43.4258268" lon="11.9505476"><ele>451.8</ele><time>2026-04-24T17:43:43.046Z</time></trkpt><trkpt lat="43.4258565" lon="11.9506611"><ele>452.19999999999993</ele><time>2026-04-24T17:43:44.049Z</time></trkpt><trkpt lat="43.4258885" lon="11.9507397"><ele>452.59999999999997</ele><time>2026-04-24T17:43:45.048Z</time></trkpt><trkpt lat="43.4258963" lon="11.9508989"><ele>453.0</ele><time>2026-04-24T17:43:47.051Z</time></trkpt><trkpt lat="43.4258619" lon="11.9510296"><ele>451.75</ele><time>2026-04-24T17:43:48.049Z</time></trkpt><trkpt lat="43.4258109" lon="11.9511693"><ele>450.5</ele><time>2026-04-24T17:43:49.048Z</time></trkpt><trkpt lat="43.4257452" lon="11.951334"><ele>449.25</ele><time>2026-04-24T17:43:50.042Z</time></trkpt><trkpt lat="43.4256719" lon="11.9515201"><ele>448.0</ele><time>2026-04-24T17:43:51.039Z</time></trkpt><trkpt lat="43.4255828" lon="11.9517272"><ele>447.6666666666667</ele><time>2026-04-24T17:43:52.042Z</time></trkpt><trkpt lat="43.4255009" lon="11.9519794"><ele>447.33333333333337</ele><time>2026-04-24T17:43:53.041Z</time></trkpt><trkpt lat="43.425425" lon="11.9522602"><ele>447.0</ele><time>2026-04-24T17:43:54.042Z</time></trkpt><trkpt lat="43.4253507" lon="11.9525415"><ele>447.0</ele><time>2026-04-24T17:43:55.039Z</time></trkpt><trkpt lat="43.4252809" lon="11.9528419"><ele>447.0</ele><time>2026-04-24T17:43:56.04Z</time></trkpt><trkpt lat="43.4252078" lon="11.95312"><ele>447.0</ele><time>2026-04-24T17:43:57.046Z</time></trkpt><trkpt lat="43.4251302" lon="11.9534285"><ele>444.5</ele><time>2026-04-24T17:43:58.043Z</time></trkpt><trkpt lat="43.4250551" lon="11.9537365"><ele>442.0</ele><time>2026-04-24T17:43:59.041Z</time></trkpt><trkpt lat="43.4249764" lon="11.9540411"><ele>439.5</ele><time>2026-04-24T17:44:00.042Z</time></trkpt><trkpt lat="43.4248938" lon="11.9543394"><ele>437.0</ele><time>2026-04-24T17:44:01.047Z</time></trkpt><trkpt lat="43.4248206" lon="11.9546395"><ele>437.0</ele><time>2026-04-24T17:44:02.039Z</time></trkpt><trkpt lat="43.4247515" lon="11.9549489"><ele>437.0</ele><time>2026-04-24T17:44:03.035Z</time></trkpt><trkpt lat="43.424688" lon="11.9552531"><ele>445.0</ele><time>2026-04-24T17:44:04.034Z</time></trkpt><trkpt lat="43.4246342" lon="11.9555652"><ele>453.0</ele><time>2026-04-24T17:44:05.047Z</time></trkpt><trkpt lat="43.424574" lon="11.9558697"><ele>447.0</ele><time>2026-04-24T17:44:06.042Z</time></trkpt><trkpt lat="43.4245013" lon="11.9561678"><ele>441.0</ele><time>2026-04-24T17:44:07.042Z</time></trkpt><trkpt lat="43.4244115" lon="11.9564504"><ele>436.0</ele><time>2026-04-24T17:44:08.046Z</time></trkpt><trkpt lat="43.4242944" lon="11.95673"><ele>431.0</ele><time>2026-04-24T17:44:09.041Z</time></trkpt><trkpt lat="43.4241809" lon="11.9570026"><ele>431.0</ele><time>2026-04-24T17:44:10.045Z</time></trkpt><trkpt lat="43.4241023" lon="11.9572932"><ele>431.0</ele><time>2026-04-24T17:44:11.043Z</time></trkpt><trkpt lat="43.424049" lon="11.9575993"><ele>431.0</ele><time>2026-04-24T17:44:12.04Z</time></trkpt><trkpt lat="43.4239887" lon="11.9579124"><ele>431.0</ele><time>2026-04-24T17:44:13.045Z</time></trkpt><trkpt lat="43.4239386" lon="11.9582252"><ele>430.0</ele><time>2026-04-24T17:44:14.052Z</time></trkpt><trkpt lat="43.4238831" lon="11.9585244"><ele>429.0</ele><time>2026-04-24T17:44:15.047Z</time></trkpt><trkpt lat="43.423821" lon="11.9588206"><ele>428.0</ele><time>2026-04-24T17:44:16.048Z</time></trkpt><trkpt lat="43.4237576" lon="11.9591141"><ele>432.0</ele><time>2026-04-24T17:44:17.045Z</time></trkpt><trkpt lat="43.4236911" lon="11.9594228"><ele>436.0</ele><time>2026-04-24T17:44:18.048Z</time></trkpt><trkpt lat="43.4236322" lon="11.9597273"><ele>436.0</ele><time>2026-04-24T17:44:19.046Z</time></trkpt><trkpt lat="43.423584" lon="11.9600324"><ele>436.0</ele><time>2026-04-24T17:44:20.055Z</time></trkpt><trkpt lat="43.4235423" lon="11.9603387"><ele>438.0</ele><time>2026-04-24T17:44:21.047Z</time></trkpt><trkpt lat="43.4235236" lon="11.9606546"><ele>440.0</ele><time>2026-04-24T17:44:22.052Z</time></trkpt><trkpt lat="43.4235092" lon="11.960964"><ele>435.5</ele><time>2026-04-24T17:44:23.043Z</time></trkpt><trkpt lat="43.4234974" lon="11.9612777"><ele>431.0</ele><time>2026-04-24T17:44:24.049Z</time></trkpt><trkpt lat="43.4234854" lon="11.9615871"><ele>429.0</ele><time>2026-04-24T17:44:25.048Z</time></trkpt><trkpt lat="43.4234662" lon="11.9618896"><ele>427.0</ele><time>2026-04-24T17:44:26.051Z</time></trkpt><trkpt lat="43.4234373" lon="11.9621753"><ele>425.0</ele><time>2026-04-24T17:44:27.049Z</time></trkpt><trkpt lat="43.4233876" lon="11.9624584"><ele>423.0</ele><time>2026-04-24T17:44:28.054Z</time></trkpt><trkpt lat="43.4233026" lon="11.9627162"><ele>421.0</ele><time>2026-04-24T17:44:29.048Z</time></trkpt><trkpt lat="43.4231937" lon="11.9629714"><ele>419.0</ele><time>2026-04-24T17:44:30.053Z</time></trkpt><trkpt lat="43.4230861" lon="11.9632282"><ele>422.66666666666663</ele><time>2026-04-24T17:44:31.048Z</time></trkpt><trkpt lat="43.4229613" lon="11.9634735"><ele>426.33333333333337</ele><time>2026-04-24T17:44:32.039Z</time></trkpt><trkpt lat="43.4228455" lon="11.96371"><ele>430.0</ele><time>2026-04-24T17:44:33.043Z</time></trkpt><trkpt lat="43.4227336" lon="11.9639516"><ele>426.33333333333337</ele><time>2026-04-24T17:44:34.041Z</time></trkpt><trkpt lat="43.4226213" lon="11.9642007"><ele>422.66666666666663</ele><time>2026-04-24T17:44:35.039Z</time></trkpt><trkpt lat="43.4225134" lon="11.964452"><ele>419.0</ele><time>2026-04-24T17:44:36.044Z</time></trkpt><trkpt lat="43.4224194" lon="11.9647226"><ele>419.0</ele><time>2026-04-24T17:44:37.052Z</time></trkpt><trkpt lat="43.4223372" lon="11.965003"><ele>419.0</ele><time>2026-04-24T17:44:38.039Z</time></trkpt><trkpt lat="43.4222645" lon="11.9652836"><ele>419.0</ele><time>2026-04-24T17:44:39.045Z</time></trkpt><trkpt lat="43.4221923" lon="11.9655499"><ele>423.0</ele><time>2026-04-24T17:44:40.046Z</time></trkpt><trkpt lat="43.4221365" lon="11.9658357"><ele>427.0</ele><time>2026-04-24T17:44:41.045Z</time></trkpt><trkpt lat="43.4220829" lon="11.9661217"><ele>431.0</ele><time>2026-04-24T17:44:42.045Z</time></trkpt><trkpt lat="43.4220365" lon="11.966405"><ele>431.0</ele><time>2026-04-24T17:44:43.049Z</time></trkpt><trkpt lat="43.4219865" lon="11.9666869"><ele>431.0</ele><time>2026-04-24T17:44:44.053Z</time></trkpt><trkpt lat="43.4219524" lon="11.9669684"><ele>431.0</ele><time>2026-04-24T17:44:45.05Z</time></trkpt><trkpt lat="43.4219251" lon="11.9672539"><ele>428.3333333333333</ele><time>2026-04-24T17:44:46.046Z</time></trkpt><trkpt lat="43.4219239" lon="11.9675338"><ele>425.66666666666663</ele><time>2026-04-24T17:44:47.044Z</time></trkpt><trkpt lat="43.4219326" lon="11.9678164"><ele>423.0</ele><time>2026-04-24T17:44:48.046Z</time></trkpt><trkpt lat="43.4219518" lon="11.9681025"><ele>422.33333333333337</ele><time>2026-04-24T17:44:49.047Z</time></trkpt><trkpt lat="43.4219748" lon="11.9683911"><ele>421.6666666666667</ele><time>2026-04-24T17:44:50.042Z</time></trkpt><trkpt lat="43.4219959" lon="11.9686751"><ele>421.0</ele><time>2026-04-24T17:44:51.047Z</time></trkpt><trkpt lat="43.4220149" lon="11.968942"><ele>421.0</ele><time>2026-04-24T17:44:52.045Z</time></trkpt><trkpt lat="43.4220193" lon="11.9691846"><ele>421.0</ele><time>2026-04-24T17:44:53.043Z</time></trkpt><trkpt lat="43.422016" lon="11.9694129"><ele>421.0</ele><time>2026-04-24T17:44:54.055Z</time></trkpt><trkpt lat="43.4220014" lon="11.969637"><ele>419.33333333333337</ele><time>2026-04-24T17:44:55.045Z</time></trkpt><trkpt lat="43.4219569" lon="11.9698588"><ele>417.66666666666663</ele><time>2026-04-24T17:44:56.051Z</time></trkpt><trkpt lat="43.4218838" lon="11.9700657"><ele>416.0</ele><time>2026-04-24T17:44:57.054Z</time></trkpt><trkpt lat="43.4217981" lon="11.9702727"><ele>414.3333333333333</ele><time>2026-04-24T17:44:58.051Z</time></trkpt><trkpt lat="43.4217143" lon="11.9704838"><ele>412.66666666666663</ele><time>2026-04-24T17:44:59.041Z</time></trkpt><trkpt lat="43.4216304" lon="11.9706986"><ele>411.0</ele><time>2026-04-24T17:45:00.047Z</time></trkpt><trkpt lat="43.4215493" lon="11.9709116"><ele>410.0</ele><time>2026-04-24T17:45:01.045Z</time></trkpt><trkpt lat="43.4214891" lon="11.9711295"><ele>409.0</ele><time>2026-04-24T17:45:02.047Z</time></trkpt><trkpt lat="43.4214516" lon="11.9713355"><ele>408.0</ele><time>2026-04-24T17:45:03.051Z</time></trkpt><trkpt lat="43.4214452" lon="11.9715307"><ele>407.75</ele><time>2026-04-24T17:45:04.049Z</time></trkpt><trkpt lat="43.4214472" lon="11.9717462"><ele>407.5</ele><time>2026-04-24T17:45:05.049Z</time></trkpt><trkpt lat="43.4214579" lon="11.9719512"><ele>407.25</ele><time>2026-04-24T17:45:06.048Z</time></trkpt><trkpt lat="43.4214674" lon="11.9721422"><ele>407.0</ele><time>2026-04-24T17:45:07.049Z</time></trkpt><trkpt lat="43.421486" lon="11.9723195"><ele>407.0</ele><time>2026-04-24T17:45:08.047Z</time></trkpt><trkpt lat="43.4214986" lon="11.9724935"><ele>407.0</ele><time>2026-04-24T17:45:09.055Z</time></trkpt><trkpt lat="43.421504" lon="11.9726636"><ele>407.0</ele><time>2026-04-24T17:45:10.051Z</time></trkpt><trkpt lat="43.4215102" lon="11.9728207"><ele>407.0</ele><time>2026-04-24T17:45:11.051Z</time></trkpt><trkpt lat="43.4215171" lon="11.9729649"><ele>407.16666666666663</ele><time>2026-04-24T17:45:12.049Z</time></trkpt><trkpt lat="43.4215236" lon="11.9730945"><ele>407.3333333333333</ele><time>2026-04-24T17:45:13.04Z</time></trkpt><trkpt lat="43.4215299" lon="11.9732205"><ele>407.5</ele><time>2026-04-24T17:45:14.04Z</time></trkpt><trkpt lat="43.4215315" lon="11.9733354"><ele>407.66666666666663</ele><time>2026-04-24T17:45:15.043Z</time></trkpt><trkpt lat="43.4215342" lon="11.973438"><ele>407.8333333333333</ele><time>2026-04-24T17:45:16.053Z</time></trkpt><trkpt lat="43.4215415" lon="11.9735407"><ele>408.0</ele><time>2026-04-24T17:45:17.044Z</time></trkpt><trkpt lat="43.4215506" lon="11.9736383"><ele>407.59999999999997</ele><time>2026-04-24T17:45:18.042Z</time></trkpt><trkpt lat="43.4215651" lon="11.9737254"><ele>407.2</ele><time>2026-04-24T17:45:19.043Z</time></trkpt><trkpt lat="43.4215771" lon="11.9738124"><ele>406.8</ele><time>2026-04-24T17:45:20.047Z</time></trkpt><trkpt lat="43.4215947" lon="11.9739608"><ele>406.4</ele><time>2026-04-24T17:45:22.052Z</time></trkpt><trkpt lat="43.4215452" lon="11.9740771"><ele>406.0</ele><time>2026-04-24T17:45:24.053Z</time></trkpt><trkpt lat="43.4214024" lon="11.9741217"><ele>406.5</ele><time>2026-04-24T17:45:26.051Z</time></trkpt><trkpt lat="43.4212926" lon="11.9741406"><ele>407.0</ele><time>2026-04-24T17:45:27.055Z</time></trkpt><trkpt lat="43.4211587" lon="11.9741609"><ele>407.5</ele><time>2026-04-24T17:45:28.053Z</time></trkpt><trkpt lat="43.4209864" lon="11.974163"><ele>408.0</ele><time>2026-04-24T17:45:29.048Z</time></trkpt><trkpt lat="43.4208134" lon="11.974172"><ele>408.0</ele><time>2026-04-24T17:45:30.049Z</time></trkpt><trkpt lat="43.4206422" lon="11.9741689"><ele>408.0</ele><time>2026-04-24T17:45:31.061Z</time></trkpt><trkpt lat="43.4204866" lon="11.9741637"><ele>408.0</ele><time>2026-04-24T17:45:32.056Z</time></trkpt><trkpt lat="43.4203507" lon="11.9741428"><ele>407.5</ele><time>2026-04-24T17:45:33.056Z</time></trkpt><trkpt lat="43.420215" lon="11.9741109"><ele>407.0</ele><time>2026-04-24T17:45:34.053Z</time></trkpt><trkpt lat="43.4200949" lon="11.9740264"><ele>406.5</ele><time>2026-04-24T17:45:35.053Z</time></trkpt><trkpt lat="43.4199875" lon="11.9738889"><ele>406.0</ele><time>2026-04-24T17:45:36.064Z</time></trkpt><trkpt lat="43.4198785" lon="11.9737405"><ele>406.0</ele><time>2026-04-24T17:45:37.051Z</time></trkpt><trkpt lat="43.419766" lon="11.9735973"><ele>406.0</ele><time>2026-04-24T17:45:38.047Z</time></trkpt><trkpt lat="43.4196432" lon="11.9734495"><ele>406.0</ele><time>2026-04-24T17:45:39.054Z</time></trkpt><trkpt lat="43.419522" lon="11.9733068"><ele>408.33333333333337</ele><time>2026-04-24T17:45:40.047Z</time></trkpt><trkpt lat="43.4193868" lon="11.9731807"><ele>410.66666666666663</ele><time>2026-04-24T17:45:41.052Z</time></trkpt><trkpt lat="43.4192337" lon="11.9730847"><ele>413.0</ele><time>2026-04-24T17:45:42.046Z</time></trkpt><trkpt lat="43.4190658" lon="11.9730091"><ele>413.0</ele><time>2026-04-24T17:45:43.055Z</time></trkpt><trkpt lat="43.4188922" lon="11.9729516"><ele>413.0</ele><time>2026-04-24T17:45:44.061Z</time></trkpt><trkpt lat="43.4187148" lon="11.9729025"><ele>413.0</ele><time>2026-04-24T17:45:45.056Z</time></trkpt><trkpt lat="43.4185483" lon="11.97286"><ele>411.66666666666663</ele><time>2026-04-24T17:45:46.054Z</time></trkpt><trkpt lat="43.4183725" lon="11.972844"><ele>410.33333333333337</ele><time>2026-04-24T17:45:47.049Z</time></trkpt><trkpt lat="43.4182003" lon="11.9728488"><ele>409.0</ele><time>2026-04-24T17:45:48.051Z</time></trkpt><trkpt lat="43.4180195" lon="11.9728765"><ele>409.33333333333337</ele><time>2026-04-24T17:45:49.06Z</time></trkpt><trkpt lat="43.4178428" lon="11.9729147"><ele>409.66666666666663</ele><time>2026-04-24T17:45:50.048Z</time></trkpt><trkpt lat="43.4176682" lon="11.9729591"><ele>410.0</ele><time>2026-04-24T17:45:51.046Z</time></trkpt><trkpt lat="43.4174948" lon="11.973006"><ele>410.0</ele><time>2026-04-24T17:45:52.045Z</time></trkpt><trkpt lat="43.4173189" lon="11.973037"><ele>410.0</ele><time>2026-04-24T17:45:53.063Z</time></trkpt><trkpt lat="43.417141" lon="11.9730682"><ele>410.0</ele><time>2026-04-24T17:45:54.056Z</time></trkpt><trkpt lat="43.4169646" lon="11.9730984"><ele>410.66666666666663</ele><time>2026-04-24T17:45:55.053Z</time></trkpt><trkpt lat="43.4167821" lon="11.9731241"><ele>411.33333333333337</ele><time>2026-04-24T17:45:56.047Z</time></trkpt><trkpt lat="43.4166112" lon="11.9731368"><ele>412.0</ele><time>2026-04-24T17:45:57.059Z</time></trkpt><trkpt lat="43.4164392" lon="11.9731327"><ele>410.6666666666667</ele><time>2026-04-24T17:45:58.046Z</time></trkpt><trkpt lat="43.4162668" lon="11.9730624"><ele>409.33333333333337</ele><time>2026-04-24T17:45:59.058Z</time></trkpt><trkpt lat="43.4160985" lon="11.9729692"><ele>408.0</ele><time>2026-04-24T17:46:00.051Z</time></trkpt><trkpt lat="43.4159464" lon="11.9728544"><ele>408.0</ele><time>2026-04-24T17:46:01.058Z</time></trkpt><trkpt lat="43.4158051" lon="11.9727151"><ele>408.0</ele><time>2026-04-24T17:46:02.061Z</time></trkpt><trkpt lat="43.4156664" lon="11.9725462"><ele>408.0</ele><time>2026-04-24T17:46:03.047Z</time></trkpt><trkpt lat="43.4155389" lon="11.9723604"><ele>408.33333333333337</ele><time>2026-04-24T17:46:04.055Z</time></trkpt><trkpt lat="43.415423" lon="11.9721595"><ele>408.6666666666667</ele><time>2026-04-24T17:46:05.046Z</time></trkpt><trkpt lat="43.4153217" lon="11.971953"><ele>409.0</ele><time>2026-04-24T17:46:06.047Z</time></trkpt><trkpt lat="43.4152284" lon="11.9717365"><ele>410.6666666666667</ele><time>2026-04-24T17:46:07.047Z</time></trkpt><trkpt lat="43.4151275" lon="11.9715284"><ele>412.33333333333337</ele><time>2026-04-24T17:46:08.045Z</time></trkpt><trkpt lat="43.4150407" lon="11.9713151"><ele>414.0</ele><time>2026-04-24T17:46:09.043Z</time></trkpt><trkpt lat="43.4149701" lon="11.971093"><ele>414.0</ele><time>2026-04-24T17:46:10.045Z</time></trkpt><trkpt lat="43.414926" lon="11.9708649"><ele>414.0</ele><time>2026-04-24T17:46:11.049Z</time></trkpt><trkpt lat="43.4148887" lon="11.9706169"><ele>414.0</ele><time>2026-04-24T17:46:12.043Z</time></trkpt><trkpt lat="43.4148329" lon="11.9703724"><ele>414.0</ele><time>2026-04-24T17:46:13.044Z</time></trkpt><trkpt lat="43.4147797" lon="11.9701278"><ele>414.0</ele><time>2026-04-24T17:46:14.06Z</time></trkpt><trkpt lat="43.4147166" lon="11.9698935"><ele>414.0</ele><time>2026-04-24T17:46:15.047Z</time></trkpt><trkpt lat="43.4146323" lon="11.9696813"><ele>414.0</ele><time>2026-04-24T17:46:16.053Z</time></trkpt><trkpt lat="43.4145146" lon="11.9694993"><ele>414.0</ele><time>2026-04-24T17:46:17.054Z</time></trkpt><trkpt lat="43.4143792" lon="11.9693116"><ele>414.0</ele><time>2026-04-24T17:46:18.043Z</time></trkpt><trkpt lat="43.4142355" lon="11.9691548"><ele>414.66666666666663</ele><time>2026-04-24T17:46:19.049Z</time></trkpt><trkpt lat="43.4140771" lon="11.969026"><ele>415.3333333333333</ele><time>2026-04-24T17:46:20.056Z</time></trkpt><trkpt lat="43.4139101" lon="11.9689173"><ele>416.0</ele><time>2026-04-24T17:46:21.046Z</time></trkpt><trkpt lat="43.4137369" lon="11.9688517"><ele>416.0</ele><time>2026-04-24T17:46:22.041Z</time></trkpt><trkpt lat="43.4135624" lon="11.9688182"><ele>416.0</ele><time>2026-04-24T17:46:23.042Z</time></trkpt><trkpt lat="43.4133826" lon="11.9688093"><ele>416.0</ele><time>2026-04-24T17:46:24.047Z</time></trkpt><trkpt lat="43.4132145" lon="11.9687686"><ele>416.0</ele><time>2026-04-24T17:46:25.053Z</time></trkpt><trkpt lat="43.4130462" lon="11.9686852"><ele>416.0</ele><time>2026-04-24T17:46:26.038Z</time></trkpt><trkpt lat="43.4128878" lon="11.9685915"><ele>416.0</ele><time>2026-04-24T17:46:27.057Z</time></trkpt><trkpt lat="43.4127348" lon="11.9684656"><ele>416.66666666666663</ele><time>2026-04-24T17:46:28.041Z</time></trkpt><trkpt lat="43.4125982" lon="11.968317"><ele>417.33333333333337</ele><time>2026-04-24T17:46:29.042Z</time></trkpt><trkpt lat="43.412478" lon="11.9681268"><ele>418.0</ele><time>2026-04-24T17:46:30.05Z</time></trkpt><trkpt lat="43.4123581" lon="11.9679292"><ele>418.0</ele><time>2026-04-24T17:46:31.051Z</time></trkpt><trkpt lat="43.41224" lon="11.967758"><ele>418.0</ele><time>2026-04-24T17:46:32.062Z</time></trkpt><trkpt lat="43.4121075" lon="11.9675976"><ele>418.0</ele><time>2026-04-24T17:46:33.046Z</time></trkpt><trkpt lat="43.4119452" lon="11.9674564"><ele>416.33333333333337</ele><time>2026-04-24T17:46:34.05Z</time></trkpt><trkpt lat="43.411772" lon="11.9673327"><ele>414.66666666666663</ele><time>2026-04-24T17:46:35.069Z</time></trkpt><trkpt lat="43.4115989" lon="11.9672277"><ele>413.0</ele><time>2026-04-24T17:46:36.049Z</time></trkpt><trkpt lat="43.411429" lon="11.9671188"><ele>413.3333333333333</ele><time>2026-04-24T17:46:37.049Z</time></trkpt><trkpt lat="43.4112488" lon="11.967004"><ele>413.66666666666663</ele><time>2026-04-24T17:46:38.054Z</time></trkpt><trkpt lat="43.4110721" lon="11.9668986"><ele>414.0</ele><time>2026-04-24T17:46:39.056Z</time></trkpt><trkpt lat="43.4108974" lon="11.9668052"><ele>414.0</ele><time>2026-04-24T17:46:40.05Z</time></trkpt><trkpt lat="43.4107263" lon="11.9667104"><ele>414.0</ele><time>2026-04-24T17:46:41.049Z</time></trkpt><trkpt lat="43.4105564" lon="11.9666112"><ele>414.0</ele><time>2026-04-24T17:46:42.056Z</time></trkpt><trkpt lat="43.4103867" lon="11.9665212"><ele>415.0</ele><time>2026-04-24T17:46:43.062Z</time></trkpt><trkpt lat="43.4102112" lon="11.9664333"><ele>416.0</ele><time>2026-04-24T17:46:44.055Z</time></trkpt><trkpt lat="43.4100375" lon="11.9663608"><ele>417.0</ele><time>2026-04-24T17:46:45.056Z</time></trkpt><trkpt lat="43.4098618" lon="11.9662949"><ele>417.0</ele><time>2026-04-24T17:46:46.045Z</time></trkpt><trkpt lat="43.4096845" lon="11.9662293"><ele>417.0</ele><time>2026-04-24T17:46:47.053Z</time></trkpt><trkpt lat="43.4095075" lon="11.9661711"><ele>417.0</ele><time>2026-04-24T17:46:48.052Z</time></trkpt><trkpt lat="43.4093293" lon="11.9661356"><ele>417.0</ele><time>2026-04-24T17:46:49.048Z</time></trkpt><trkpt lat="43.4091458" lon="11.9661198"><ele>417.0</ele><time>2026-04-24T17:46:50.05Z</time></trkpt><trkpt lat="43.4089634" lon="11.9661138"><ele>417.0</ele><time>2026-04-24T17:46:51.067Z</time></trkpt><trkpt lat="43.4087717" lon="11.9661175"><ele>417.0</ele><time>2026-04-24T17:46:52.043Z</time></trkpt><trkpt lat="43.4085813" lon="11.9661247"><ele>417.0</ele><time>2026-04-24T17:46:53.049Z</time></trkpt><trkpt lat="43.4083918" lon="11.9661536"><ele>417.0</ele><time>2026-04-24T17:46:54.054Z</time></trkpt><trkpt lat="43.4082097" lon="11.9662174"><ele>417.0</ele><time>2026-04-24T17:46:55.05Z</time></trkpt><trkpt lat="43.4080261" lon="11.9662848"><ele>417.0</ele><time>2026-04-24T17:46:56.051Z</time></trkpt><trkpt lat="43.4078557" lon="11.966345"><ele>417.0</ele><time>2026-04-24T17:46:57.052Z</time></trkpt><trkpt lat="43.4076864" lon="11.9663678"><ele>418.0</ele><time>2026-04-24T17:46:58.057Z</time></trkpt><trkpt lat="43.4075091" lon="11.9663437"><ele>419.0</ele><time>2026-04-24T17:46:59.052Z</time></trkpt><trkpt lat="43.4073443" lon="11.9662802"><ele>420.0</ele><time>2026-04-24T17:47:00.052Z</time></trkpt><trkpt lat="43.4071773" lon="11.9661884"><ele>421.0</ele><time>2026-04-24T17:47:01.05Z</time></trkpt><trkpt lat="43.4070221" lon="11.9660875"><ele>422.0</ele><time>2026-04-24T17:47:02.052Z</time></trkpt><trkpt lat="43.4068681" lon="11.9659725"><ele>423.0</ele><time>2026-04-24T17:47:03.049Z</time></trkpt><trkpt lat="43.4067333" lon="11.9658404"><ele>423.0</ele><time>2026-04-24T17:47:04.06Z</time></trkpt><trkpt lat="43.4065959" lon="11.9656773"><ele>423.0</ele><time>2026-04-24T17:47:05.044Z</time></trkpt><trkpt lat="43.4064784" lon="11.9654881"><ele>423.0</ele><time>2026-04-24T17:47:06.046Z</time></trkpt><trkpt lat="43.406368" lon="11.9652908"><ele>423.33333333333337</ele><time>2026-04-24T17:47:07.064Z</time></trkpt><trkpt lat="43.406262" lon="11.9650859"><ele>423.6666666666667</ele><time>2026-04-24T17:47:08.049Z</time></trkpt><trkpt lat="43.4061646" lon="11.9648909"><ele>424.0</ele><time>2026-04-24T17:47:09.054Z</time></trkpt><trkpt lat="43.4060783" lon="11.9646784"><ele>424.0</ele><time>2026-04-24T17:47:10.05Z</time></trkpt><trkpt lat="43.4060244" lon="11.964463"><ele>424.0</ele><time>2026-04-24T17:47:11.053Z</time></trkpt><trkpt lat="43.406008" lon="11.9642392"><ele>424.0</ele><time>2026-04-24T17:47:12.048Z</time></trkpt><trkpt lat="43.4059889" lon="11.9640291"><ele>424.75</ele><time>2026-04-24T17:47:13.053Z</time></trkpt><trkpt lat="43.4059462" lon="11.9638346"><ele>425.5</ele><time>2026-04-24T17:47:14.052Z</time></trkpt><trkpt lat="43.4058826" lon="11.9636647"><ele>426.25</ele><time>2026-04-24T17:47:15.051Z</time></trkpt><trkpt lat="43.4057837" lon="11.9635208"><ele>427.0</ele><time>2026-04-24T17:47:16.046Z</time></trkpt><trkpt lat="43.4056538" lon="11.9633964"><ele>428.33333333333337</ele><time>2026-04-24T17:47:17.044Z</time></trkpt><trkpt lat="43.4055118" lon="11.9633038"><ele>429.66666666666663</ele><time>2026-04-24T17:47:18.061Z</time></trkpt><trkpt lat="43.405356" lon="11.9632331"><ele>431.0</ele><time>2026-04-24T17:47:19.046Z</time></trkpt><trkpt lat="43.4051731" lon="11.9632109"><ele>431.0</ele><time>2026-04-24T17:47:20.053Z</time></trkpt><trkpt lat="43.4049979" lon="11.9632291"><ele>431.0</ele><time>2026-04-24T17:47:21.043Z</time></trkpt><trkpt lat="43.4048123" lon="11.9632381"><ele>431.0</ele><time>2026-04-24T17:47:22.044Z</time></trkpt><trkpt lat="43.4046375" lon="11.9632302"><ele>430.5</ele><time>2026-04-24T17:47:23.042Z</time></trkpt><trkpt lat="43.4044728" lon="11.9632318"><ele>430.0</ele><time>2026-04-24T17:47:24.067Z</time></trkpt><trkpt lat="43.4043337" lon="11.9632302"><ele>429.5</ele><time>2026-04-24T17:47:25.042Z</time></trkpt><trkpt lat="43.4042047" lon="11.963212"><ele>429.0</ele><time>2026-04-24T17:47:26.046Z</time></trkpt><trkpt lat="43.4040824" lon="11.963162"><ele>429.0</ele><time>2026-04-24T17:47:27.05Z</time></trkpt><trkpt lat="43.4039688" lon="11.9630575"><ele>429.0</ele><time>2026-04-24T17:47:28.048Z</time></trkpt><trkpt lat="43.4038663" lon="11.9628958"><ele>429.0</ele><time>2026-04-24T17:47:29.054Z</time></trkpt><trkpt lat="43.4037812" lon="11.9627107"><ele>429.33333333333337</ele><time>2026-04-24T17:47:30.043Z</time></trkpt><trkpt lat="43.4037156" lon="11.9625218"><ele>429.6666666666667</ele><time>2026-04-24T17:47:31.04Z</time></trkpt><trkpt lat="43.4036723" lon="11.962323"><ele>430.0</ele><time>2026-04-24T17:47:32.049Z</time></trkpt><trkpt lat="43.4036519" lon="11.9620994"><ele>430.0</ele><time>2026-04-24T17:47:33.046Z</time></trkpt><trkpt lat="43.403625" lon="11.961857"><ele>430.0</ele><time>2026-04-24T17:47:34.051Z</time></trkpt><trkpt lat="43.4035853" lon="11.9616054"><ele>430.0</ele><time>2026-04-24T17:47:35.055Z</time></trkpt><trkpt lat="43.4035432" lon="11.9613409"><ele>430.6666666666667</ele><time>2026-04-24T17:47:36.043Z</time></trkpt><trkpt lat="43.4034754" lon="11.9611211"><ele>431.33333333333337</ele><time>2026-04-24T17:47:37.042Z</time></trkpt><trkpt lat="43.4033813" lon="11.9609028"><ele>432.0</ele><time>2026-04-24T17:47:38.062Z</time></trkpt><trkpt lat="43.4032793" lon="11.9606804"><ele>432.0</ele><time>2026-04-24T17:47:39.036Z</time></trkpt><trkpt lat="43.403183" lon="11.9604599"><ele>432.0</ele><time>2026-04-24T17:47:40.039Z</time></trkpt><trkpt lat="43.4030824" lon="11.9602438"><ele>432.0</ele><time>2026-04-24T17:47:41.046Z</time></trkpt><trkpt lat="43.4029809" lon="11.9600355"><ele>432.33333333333337</ele><time>2026-04-24T17:47:42.041Z</time></trkpt><trkpt lat="43.4028634" lon="11.9598243"><ele>432.6666666666667</ele><time>2026-04-24T17:47:43.053Z</time></trkpt><trkpt lat="43.4027475" lon="11.9596187"><ele>433.0</ele><time>2026-04-24T17:47:44.048Z</time></trkpt><trkpt lat="43.4026351" lon="11.9594163"><ele>433.0</ele><time>2026-04-24T17:47:45.048Z</time></trkpt><trkpt lat="43.4025204" lon="11.9592183"><ele>433.0</ele><time>2026-04-24T17:47:46.075Z</time></trkpt><trkpt lat="43.4023941" lon="11.9590524"><ele>433.0</ele><time>2026-04-24T17:47:47.043Z</time></trkpt><trkpt lat="43.4022536" lon="11.958921"><ele>433.33333333333337</ele><time>2026-04-24T17:47:48.046Z</time></trkpt><trkpt lat="43.4020906" lon="11.9588219"><ele>433.66666666666663</ele><time>2026-04-24T17:47:49.051Z</time></trkpt><trkpt lat="43.401894" lon="11.9587626"><ele>434.0</ele><time>2026-04-24T17:47:50.069Z</time></trkpt><trkpt lat="43.4016962" lon="11.958711"><ele>434.0</ele><time>2026-04-24T17:47:51.044Z</time></trkpt><trkpt lat="43.4015085" lon="11.9586516"><ele>434.0</ele><time>2026-04-24T17:47:52.043Z</time></trkpt><trkpt lat="43.4013253" lon="11.9586008"><ele>434.0</ele><time>2026-04-24T17:47:53.037Z</time></trkpt><trkpt lat="43.4011375" lon="11.9585752"><ele>433.66666666666663</ele><time>2026-04-24T17:47:54.061Z</time></trkpt><trkpt lat="43.4009603" lon="11.9585558"><ele>433.33333333333337</ele><time>2026-04-24T17:47:55.04Z</time></trkpt><trkpt lat="43.4007879" lon="11.9585359"><ele>433.0</ele><time>2026-04-24T17:47:56.041Z</time></trkpt><trkpt lat="43.4006116" lon="11.9585016"><ele>434.33333333333337</ele><time>2026-04-24T17:47:57.045Z</time></trkpt><trkpt lat="43.4004482" lon="11.9584317"><ele>435.66666666666663</ele><time>2026-04-24T17:47:58.063Z</time></trkpt><trkpt lat="43.4002829" lon="11.9583256"><ele>437.0</ele><time>2026-04-24T17:47:59.045Z</time></trkpt><trkpt lat="43.4001134" lon="11.9582063"><ele>437.66666666666663</ele><time>2026-04-24T17:48:00.047Z</time></trkpt><trkpt lat="43.3999483" lon="11.9581025"><ele>438.33333333333337</ele><time>2026-04-24T17:48:01.045Z</time></trkpt><trkpt lat="43.3997748" lon="11.9580138"><ele>439.0</ele><time>2026-04-24T17:48:02.055Z</time></trkpt><trkpt lat="43.3995965" lon="11.9579292"><ele>440.33333333333337</ele><time>2026-04-24T17:48:03.044Z</time></trkpt><trkpt lat="43.3994289" lon="11.9578447"><ele>441.66666666666663</ele><time>2026-04-24T17:48:04.049Z</time></trkpt><trkpt lat="43.3992849" lon="11.9577489"><ele>443.0</ele><time>2026-04-24T17:48:05.06Z</time></trkpt><trkpt lat="43.3991471" lon="11.957641"><ele>442.0</ele><time>2026-04-24T17:48:06.042Z</time></trkpt><trkpt lat="43.399026" lon="11.9575077"><ele>441.0</ele><time>2026-04-24T17:48:07.041Z</time></trkpt><trkpt lat="43.3989347" lon="11.957331"><ele>440.0</ele><time>2026-04-24T17:48:08.045Z</time></trkpt><trkpt lat="43.3988872" lon="11.9571143"><ele>440.0</ele><time>2026-04-24T17:48:09.053Z</time></trkpt><trkpt lat="43.3988568" lon="11.9568633"><ele>440.0</ele><time>2026-04-24T17:48:10.039Z</time></trkpt><trkpt lat="43.3988287" lon="11.9566132"><ele>440.0</ele><time>2026-04-24T17:48:11.05Z</time></trkpt><trkpt lat="43.398771" lon="11.9563758"><ele>441.0</ele><time>2026-04-24T17:48:12.042Z</time></trkpt><trkpt lat="43.3986824" lon="11.9561618"><ele>442.0</ele><time>2026-04-24T17:48:13.064Z</time></trkpt><trkpt lat="43.398571" lon="11.9559557"><ele>443.0</ele><time>2026-04-24T17:48:14.052Z</time></trkpt><trkpt lat="43.39845" lon="11.9557659"><ele>443.3333333333333</ele><time>2026-04-24T17:48:15.048Z</time></trkpt><trkpt lat="43.3983155" lon="11.9556055"><ele>443.66666666666663</ele><time>2026-04-24T17:48:16.051Z</time></trkpt><trkpt lat="43.3981635" lon="11.9554809"><ele>444.0</ele><time>2026-04-24T17:48:17.046Z</time></trkpt><trkpt lat="43.3979967" lon="11.9554033"><ele>443.33333333333337</ele><time>2026-04-24T17:48:18.049Z</time></trkpt><trkpt lat="43.3978101" lon="11.9553811"><ele>442.6666666666667</ele><time>2026-04-24T17:48:19.046Z</time></trkpt><trkpt lat="43.3976247" lon="11.9554004"><ele>442.0</ele><time>2026-04-24T17:48:20.051Z</time></trkpt><trkpt lat="43.3974391" lon="11.9554424"><ele>442.0</ele><time>2026-04-24T17:48:21.048Z</time></trkpt><trkpt lat="43.3972543" lon="11.9554939"><ele>442.0</ele><time>2026-04-24T17:48:22.065Z</time></trkpt><trkpt lat="43.3970581" lon="11.955558"><ele>442.0</ele><time>2026-04-24T17:48:23.039Z</time></trkpt><trkpt lat="43.3968751" lon="11.9556333"><ele>443.0</ele><time>2026-04-24T17:48:24.05Z</time></trkpt><trkpt lat="43.3966907" lon="11.9556875"><ele>444.0</ele><time>2026-04-24T17:48:25.044Z</time></trkpt><trkpt lat="43.396498" lon="11.9557209"><ele>445.0</ele><time>2026-04-24T17:48:26.041Z</time></trkpt><trkpt lat="43.3962976" lon="11.9557278"><ele>445.33333333333337</ele><time>2026-04-24T17:48:27.049Z</time></trkpt><trkpt lat="43.3961018" lon="11.9557365"><ele>445.66666666666663</ele><time>2026-04-24T17:48:28.046Z</time></trkpt><trkpt lat="43.3959046" lon="11.9557291"><ele>446.0</ele><time>2026-04-24T17:48:29.046Z</time></trkpt><trkpt lat="43.395708" lon="11.9557114"><ele>446.0</ele><time>2026-04-24T17:48:30.049Z</time></trkpt><trkpt lat="43.3955303" lon="11.9556858"><ele>446.0</ele><time>2026-04-24T17:48:31.052Z</time></trkpt><trkpt lat="43.3953912" lon="11.9556159"><ele>446.0</ele><time>2026-04-24T17:48:32.053Z</time></trkpt><trkpt lat="43.3952562" lon="11.9555321"><ele>446.3333333333333</ele><time>2026-04-24T17:48:33.048Z</time></trkpt><trkpt lat="43.395132" lon="11.9553955"><ele>446.66666666666663</ele><time>2026-04-24T17:48:34.062Z</time></trkpt><trkpt lat="43.395017" lon="11.9552529"><ele>447.0</ele><time>2026-04-24T17:48:35.041Z</time></trkpt><trkpt lat="43.3949101" lon="11.9551254"><ele>447.0</ele><time>2026-04-24T17:48:36.055Z</time></trkpt><trkpt lat="43.3947819" lon="11.9550393"><ele>447.0</ele><time>2026-04-24T17:48:37.051Z</time></trkpt><trkpt lat="43.3946113" lon="11.9550564"><ele>447.0</ele><time>2026-04-24T17:48:38.052Z</time></trkpt><trkpt lat="43.3944419" lon="11.9551252"><ele>447.66666666666663</ele><time>2026-04-24T17:48:39.043Z</time></trkpt><trkpt lat="43.3942799" lon="11.9552046"><ele>448.3333333333333</ele><time>2026-04-24T17:48:40.046Z</time></trkpt><trkpt lat="43.3941423" lon="11.9552856"><ele>449.0</ele><time>2026-04-24T17:48:41.04Z</time></trkpt><trkpt lat="43.3940014" lon="11.955347"><ele>451.66666666666663</ele><time>2026-04-24T17:48:42.05Z</time></trkpt><trkpt lat="43.39383" lon="11.9553712"><ele>454.33333333333337</ele><time>2026-04-24T17:48:43.054Z</time></trkpt><trkpt lat="43.3936502" lon="11.955331"><ele>457.0</ele><time>2026-04-24T17:48:44.051Z</time></trkpt><trkpt lat="43.3934763" lon="11.955252"><ele>457.0</ele><time>2026-04-24T17:48:45.046Z</time></trkpt><trkpt lat="43.3932964" lon="11.9551836"><ele>457.0</ele><time>2026-04-24T17:48:46.042Z</time></trkpt><trkpt lat="43.3931127" lon="11.9551186"><ele>457.0</ele><time>2026-04-24T17:48:47.05Z</time></trkpt><trkpt lat="43.3929309" lon="11.9550481"><ele>456.6666666666667</ele><time>2026-04-24T17:48:48.04Z</time></trkpt><trkpt lat="43.392751" lon="11.9549626"><ele>456.33333333333337</ele><time>2026-04-24T17:48:49.053Z</time></trkpt><trkpt lat="43.3925652" lon="11.9548751"><ele>456.0</ele><time>2026-04-24T17:48:50.038Z</time></trkpt><trkpt lat="43.3923801" lon="11.954795"><ele>456.0</ele><time>2026-04-24T17:48:51.04Z</time></trkpt><trkpt lat="43.3921899" lon="11.9546987"><ele>456.0</ele><time>2026-04-24T17:48:52.058Z</time></trkpt><trkpt lat="43.3920023" lon="11.9546228"><ele>456.0</ele><time>2026-04-24T17:48:53.043Z</time></trkpt><trkpt lat="43.3918085" lon="11.9545379"><ele>458.0</ele><time>2026-04-24T17:48:54.05Z</time></trkpt><trkpt lat="43.3916162" lon="11.9544516"><ele>460.0</ele><time>2026-04-24T17:48:55.047Z</time></trkpt><trkpt lat="43.3914321" lon="11.954367"><ele>462.0</ele><time>2026-04-24T17:48:56.037Z</time></trkpt><trkpt lat="43.3912393" lon="11.954315"><ele>464.33333333333337</ele><time>2026-04-24T17:48:57.066Z</time></trkpt><trkpt lat="43.3910263" lon="11.9543115"><ele>466.6666666666667</ele><time>2026-04-24T17:48:58.047Z</time></trkpt><trkpt lat="43.390821" lon="11.9543279"><ele>469.0</ele><time>2026-04-24T17:48:59.037Z</time></trkpt><trkpt lat="43.3906258" lon="11.9543342"><ele>471.0</ele><time>2026-04-24T17:49:00.039Z</time></trkpt><trkpt lat="43.3904485" lon="11.954304"><ele>473.0</ele><time>2026-04-24T17:49:01.036Z</time></trkpt><trkpt lat="43.3902747" lon="11.9542454"><ele>475.0</ele><time>2026-04-24T17:49:02.041Z</time></trkpt><trkpt lat="43.3900986" lon="11.9541504"><ele>473.0</ele><time>2026-04-24T17:49:03.053Z</time></trkpt><trkpt lat="43.3899171" lon="11.9540675"><ele>471.0</ele><time>2026-04-24T17:49:04.055Z</time></trkpt><trkpt lat="43.3897382" lon="11.9540137"><ele>469.0</ele><time>2026-04-24T17:49:05.042Z</time></trkpt><trkpt lat="43.3895285" lon="11.9540195"><ele>469.0</ele><time>2026-04-24T17:49:06.038Z</time></trkpt><trkpt lat="43.38935" lon="11.9540396"><ele>469.0</ele><time>2026-04-24T17:49:07.06Z</time></trkpt><trkpt lat="43.3891755" lon="11.9540515"><ele>469.0</ele><time>2026-04-24T17:49:08.045Z</time></trkpt><trkpt lat="43.3890221" lon="11.9540563"><ele>469.0</ele><time>2026-04-24T17:49:09.056Z</time></trkpt><trkpt lat="43.3888865" lon="11.9540142"><ele>469.0</ele><time>2026-04-24T17:49:10.04Z</time></trkpt><trkpt lat="43.3887566" lon="11.9539266"><ele>469.0</ele><time>2026-04-24T17:49:11.041Z</time></trkpt><trkpt lat="43.3886192" lon="11.9538224"><ele>469.0</ele><time>2026-04-24T17:49:12.053Z</time></trkpt><trkpt lat="43.3884707" lon="11.9537219"><ele>469.33333333333337</ele><time>2026-04-24T17:49:13.032Z</time></trkpt><trkpt lat="43.3883036" lon="11.9536673"><ele>469.66666666666663</ele><time>2026-04-24T17:49:14.048Z</time></trkpt><trkpt lat="43.3881296" lon="11.9536471"><ele>470.0</ele><time>2026-04-24T17:49:15.044Z</time></trkpt><trkpt lat="43.3879449" lon="11.953677"><ele>471.0</ele><time>2026-04-24T17:49:16.042Z</time></trkpt><trkpt lat="43.3877698" lon="11.9537223"><ele>472.0</ele><time>2026-04-24T17:49:17.047Z</time></trkpt><trkpt lat="43.3875932" lon="11.9538241"><ele>473.0</ele><time>2026-04-24T17:49:18.047Z</time></trkpt><trkpt lat="43.3874279" lon="11.953938"><ele>473.0</ele><time>2026-04-24T17:49:19.048Z</time></trkpt><trkpt lat="43.3872997" lon="11.9540853"><ele>473.0</ele><time>2026-04-24T17:49:20.052Z</time></trkpt><trkpt lat="43.3871487" lon="11.9542083"><ele>473.0</ele><time>2026-04-24T17:49:21.038Z</time></trkpt><trkpt lat="43.3869674" lon="11.9542904"><ele>475.3333333333333</ele><time>2026-04-24T17:49:22.042Z</time></trkpt><trkpt lat="43.3867935" lon="11.9543353"><ele>477.66666666666663</ele><time>2026-04-24T17:49:23.044Z</time></trkpt><trkpt lat="43.3865913" lon="11.954389"><ele>480.0</ele><time>2026-04-24T17:49:24.034Z</time></trkpt><trkpt lat="43.3864004" lon="11.9544293"><ele>478.66666666666663</ele><time>2026-04-24T17:49:25.044Z</time></trkpt><trkpt lat="43.3862137" lon="11.9544608"><ele>477.3333333333333</ele><time>2026-04-24T17:49:26.045Z</time></trkpt><trkpt lat="43.3860271" lon="11.9544985"><ele>476.0</ele><time>2026-04-24T17:49:27.039Z</time></trkpt><trkpt lat="43.3858357" lon="11.9545842"><ele>476.0</ele><time>2026-04-24T17:49:28.032Z</time></trkpt><trkpt lat="43.3856422" lon="11.9547005"><ele>476.0</ele><time>2026-04-24T17:49:29.042Z</time></trkpt><trkpt lat="43.3854702" lon="11.9548435"><ele>476.0</ele><time>2026-04-24T17:49:30.053Z</time></trkpt><trkpt lat="43.3853116" lon="11.955017"><ele>477.66666666666663</ele><time>2026-04-24T17:49:31.035Z</time></trkpt><trkpt lat="43.3851615" lon="11.955186"><ele>479.33333333333337</ele><time>2026-04-24T17:49:32.039Z</time></trkpt><trkpt lat="43.3850309" lon="11.9553529"><ele>481.0</ele><time>2026-04-24T17:49:33.033Z</time></trkpt><trkpt lat="43.3848811" lon="11.9555105"><ele>481.0</ele><time>2026-04-24T17:49:34.042Z</time></trkpt><trkpt lat="43.3846979" lon="11.9556434"><ele>481.0</ele><time>2026-04-24T17:49:35.037Z</time></trkpt><trkpt lat="43.3845229" lon="11.9557512"><ele>481.0</ele><time>2026-04-24T17:49:36.046Z</time></trkpt><trkpt lat="43.3843542" lon="11.9558515"><ele>482.0</ele><time>2026-04-24T17:49:37.035Z</time></trkpt><trkpt lat="43.3841667" lon="11.9559652"><ele>483.0</ele><time>2026-04-24T17:49:38.034Z</time></trkpt><trkpt lat="43.3839638" lon="11.9560611"><ele>484.0</ele><time>2026-04-24T17:49:39.05Z</time></trkpt><trkpt lat="43.383772" lon="11.9561695"><ele>484.0</ele><time>2026-04-24T17:49:40.046Z</time></trkpt><trkpt lat="43.3835892" lon="11.9562944"><ele>484.0</ele><time>2026-04-24T17:49:41.046Z</time></trkpt><trkpt lat="43.3834014" lon="11.9564245"><ele>484.0</ele><time>2026-04-24T17:49:42.042Z</time></trkpt><trkpt lat="43.3832139" lon="11.9565564"><ele>484.0</ele><time>2026-04-24T17:49:43.049Z</time></trkpt><trkpt lat="43.3830207" lon="11.9566645"><ele>484.0</ele><time>2026-04-24T17:49:44.04Z</time></trkpt><trkpt lat="43.3828203" lon="11.9567459"><ele>484.0</ele><time>2026-04-24T17:49:45.04Z</time></trkpt><trkpt lat="43.3826183" lon="11.956822"><ele>485.33333333333337</ele><time>2026-04-24T17:49:46.05Z</time></trkpt><trkpt lat="43.3824201" lon="11.9569024"><ele>486.66666666666663</ele><time>2026-04-24T17:49:47.036Z</time></trkpt><trkpt lat="43.3822177" lon="11.9569884"><ele>488.0</ele><time>2026-04-24T17:49:48.03Z</time></trkpt><trkpt lat="43.3820273" lon="11.9570854"><ele>489.0</ele><time>2026-04-24T17:49:49.054Z</time></trkpt><trkpt lat="43.3818402" lon="11.9571664"><ele>490.0</ele><time>2026-04-24T17:49:50.041Z</time></trkpt><trkpt lat="43.3816442" lon="11.9572326"><ele>491.0</ele><time>2026-04-24T17:49:51.043Z</time></trkpt><trkpt lat="43.3814475" lon="11.9572931"><ele>493.66666666666663</ele><time>2026-04-24T17:49:52.037Z</time></trkpt><trkpt lat="43.3812697" lon="11.9573716"><ele>496.33333333333337</ele><time>2026-04-24T17:49:53.056Z</time></trkpt><trkpt lat="43.3810763" lon="11.9574531"><ele>499.0</ele><time>2026-04-24T17:49:54.037Z</time></trkpt><trkpt lat="43.3808865" lon="11.9575522"><ele>499.0</ele><time>2026-04-24T17:49:55.038Z</time></trkpt><trkpt lat="43.380708" lon="11.957647"><ele>499.0</ele><time>2026-04-24T17:49:56.042Z</time></trkpt><trkpt lat="43.3805356" lon="11.957743"><ele>499.0</ele><time>2026-04-24T17:49:57.046Z</time></trkpt><trkpt lat="43.3803731" lon="11.9578644"><ele>497.33333333333337</ele><time>2026-04-24T17:49:58.032Z</time></trkpt><trkpt lat="43.3802152" lon="11.9579787"><ele>495.66666666666663</ele><time>2026-04-24T17:49:59.032Z</time></trkpt><trkpt lat="43.3800715" lon="11.9580961"><ele>494.0</ele><time>2026-04-24T17:50:00.037Z</time></trkpt><trkpt lat="43.3798965" lon="11.9581904"><ele>494.0</ele><time>2026-04-24T17:50:01.047Z</time></trkpt><trkpt lat="43.3797371" lon="11.9581941"><ele>494.0</ele><time>2026-04-24T17:50:02.029Z</time></trkpt><trkpt lat="43.3795971" lon="11.9581231"><ele>494.0</ele><time>2026-04-24T17:50:03.039Z</time></trkpt><trkpt lat="43.379462" lon="11.9579912"><ele>496.3333333333333</ele><time>2026-04-24T17:50:04.033Z</time></trkpt><trkpt lat="43.3793167" lon="11.9578225"><ele>498.66666666666663</ele><time>2026-04-24T17:50:05.055Z</time></trkpt><trkpt lat="43.3791852" lon="11.9576477"><ele>501.0</ele><time>2026-04-24T17:50:06.036Z</time></trkpt><trkpt lat="43.3790711" lon="11.9574325"><ele>502.33333333333337</ele><time>2026-04-24T17:50:07.037Z</time></trkpt><trkpt lat="43.3789644" lon="11.9571972"><ele>503.6666666666667</ele><time>2026-04-24T17:50:08.057Z</time></trkpt><trkpt lat="43.3788815" lon="11.956944"><ele>505.0</ele><time>2026-04-24T17:50:09.041Z</time></trkpt><trkpt lat="43.3788082" lon="11.9567054"><ele>506.6666666666667</ele><time>2026-04-24T17:50:10.045Z</time></trkpt><trkpt lat="43.3787207" lon="11.9565082"><ele>508.33333333333337</ele><time>2026-04-24T17:50:11.043Z</time></trkpt><trkpt lat="43.3786161" lon="11.9563169"><ele>510.0</ele><time>2026-04-24T17:50:12.033Z</time></trkpt><trkpt lat="43.3784863" lon="11.9561475"><ele>510.0</ele><time>2026-04-24T17:50:13.052Z</time></trkpt><trkpt lat="43.3783638" lon="11.9559992"><ele>510.0</ele><time>2026-04-24T17:50:14.038Z</time></trkpt><trkpt lat="43.3782191" lon="11.9559232"><ele>510.0</ele><time>2026-04-24T17:50:15.038Z</time></trkpt><trkpt lat="43.378055" lon="11.9559185"><ele>513.0</ele><time>2026-04-24T17:50:16.042Z</time></trkpt><trkpt lat="43.3778482" lon="11.9559748"><ele>516.0</ele><time>2026-04-24T17:50:17.044Z</time></trkpt><trkpt lat="43.3776603" lon="11.9560205"><ele>519.0</ele><time>2026-04-24T17:50:18.043Z</time></trkpt><trkpt lat="43.377485" lon="11.9560665"><ele>519.0</ele><time>2026-04-24T17:50:19.046Z</time></trkpt><trkpt lat="43.3772995" lon="11.9560988"><ele>519.0</ele><time>2026-04-24T17:50:20.042Z</time></trkpt><trkpt lat="43.3771233" lon="11.956096"><ele>519.0</ele><time>2026-04-24T17:50:21.042Z</time></trkpt><trkpt lat="43.3769585" lon="11.9560411"><ele>518.6666666666666</ele><time>2026-04-24T17:50:22.051Z</time></trkpt><trkpt lat="43.3767826" lon="11.9559722"><ele>518.3333333333333</ele><time>2026-04-24T17:50:23.037Z</time></trkpt><trkpt lat="43.3765797" lon="11.9559058"><ele>518.0</ele><time>2026-04-24T17:50:24.031Z</time></trkpt><trkpt lat="43.3763948" lon="11.9558518"><ele>517.3333333333333</ele><time>2026-04-24T17:50:25.042Z</time></trkpt><trkpt lat="43.3762164" lon="11.9557935"><ele>516.6666666666666</ele><time>2026-04-24T17:50:26.04Z</time></trkpt><trkpt lat="43.3760527" lon="11.9557205"><ele>516.0</ele><time>2026-04-24T17:50:27.035Z</time></trkpt><trkpt lat="43.3759121" lon="11.9555746"><ele>516.0</ele><time>2026-04-24T17:50:28.039Z</time></trkpt><trkpt lat="43.3757572" lon="11.9554333"><ele>516.0</ele><time>2026-04-24T17:50:29.035Z</time></trkpt><trkpt lat="43.3755894" lon="11.9552851"><ele>516.0</ele><time>2026-04-24T17:50:30.043Z</time></trkpt><trkpt lat="43.3754334" lon="11.9551583"><ele>517.6666666666666</ele><time>2026-04-24T17:50:31.045Z</time></trkpt><trkpt lat="43.3752738" lon="11.955013"><ele>519.3333333333333</ele><time>2026-04-24T17:50:32.031Z</time></trkpt><trkpt lat="43.3751095" lon="11.9548685"><ele>521.0</ele><time>2026-04-24T17:50:33.042Z</time></trkpt><trkpt lat="43.374961" lon="11.9547099"><ele>521.0</ele><time>2026-04-24T17:50:34.035Z</time></trkpt><trkpt lat="43.3747976" lon="11.954559"><ele>521.0</ele><time>2026-04-24T17:50:35.046Z</time></trkpt><trkpt lat="43.3746397" lon="11.9544067"><ele>521.0</ele><time>2026-04-24T17:50:36.033Z</time></trkpt><trkpt lat="43.3744606" lon="11.9542663"><ele>525.0</ele><time>2026-04-24T17:50:37.038Z</time></trkpt><trkpt lat="43.374278" lon="11.9541651"><ele>529.0</ele><time>2026-04-24T17:50:38.04Z</time></trkpt><trkpt lat="43.3740724" lon="11.9541032"><ele>533.0</ele><time>2026-04-24T17:50:39.033Z</time></trkpt><trkpt lat="43.3738627" lon="11.9540292"><ele>532.3333333333333</ele><time>2026-04-24T17:50:40.041Z</time></trkpt><trkpt lat="43.3736512" lon="11.9539721"><ele>531.6666666666666</ele><time>2026-04-24T17:50:41.048Z</time></trkpt><trkpt lat="43.3734344" lon="11.9539361"><ele>531.0</ele><time>2026-04-24T17:50:42.047Z</time></trkpt><trkpt lat="43.373214" lon="11.9538893"><ele>532.3333333333334</ele><time>2026-04-24T17:50:43.036Z</time></trkpt><trkpt lat="43.3730171" lon="11.9538152"><ele>533.6666666666667</ele><time>2026-04-24T17:50:44.036Z</time></trkpt><trkpt lat="43.3728391" lon="11.9537293"><ele>535.0</ele><time>2026-04-24T17:50:45.042Z</time></trkpt><trkpt lat="43.3726737" lon="11.9536251"><ele>535.0</ele><time>2026-04-24T17:50:46.059Z</time></trkpt><trkpt lat="43.3725154" lon="11.9535064"><ele>535.0</ele><time>2026-04-24T17:50:47.041Z</time></trkpt><trkpt lat="43.3723736" lon="11.9533801"><ele>535.0</ele><time>2026-04-24T17:50:48.045Z</time></trkpt><trkpt lat="43.372237" lon="11.9532517"><ele>537.6666666666667</ele><time>2026-04-24T17:50:49.053Z</time></trkpt><trkpt lat="43.3720777" lon="11.9531776"><ele>540.3333333333334</ele><time>2026-04-24T17:50:50.047Z</time></trkpt><trkpt lat="43.3719153" lon="11.9531062"><ele>543.0</ele><time>2026-04-24T17:50:51.051Z</time></trkpt><trkpt lat="43.3717576" lon="11.9530263"><ele>543.0</ele><time>2026-04-24T17:50:52.062Z</time></trkpt><trkpt lat="43.3716264" lon="11.9528803"><ele>543.0</ele><time>2026-04-24T17:50:53.045Z</time></trkpt><trkpt lat="43.3715038" lon="11.9527087"><ele>543.0</ele><time>2026-04-24T17:50:54.045Z</time></trkpt><trkpt lat="43.3713872" lon="11.9525484"><ele>545.3333333333334</ele><time>2026-04-24T17:50:55.038Z</time></trkpt><trkpt lat="43.3712577" lon="11.9524109"><ele>547.6666666666667</ele><time>2026-04-24T17:50:56.056Z</time></trkpt><trkpt lat="43.3711172" lon="11.9523291"><ele>550.0</ele><time>2026-04-24T17:50:57.047Z</time></trkpt><trkpt lat="43.3709686" lon="11.952285"><ele>550.0</ele><time>2026-04-24T17:50:58.047Z</time></trkpt><trkpt lat="43.3708078" lon="11.952283"><ele>550.0</ele><time>2026-04-24T17:50:59.051Z</time></trkpt><trkpt lat="43.3706255" lon="11.952304"><ele>550.0</ele><time>2026-04-24T17:51:00.044Z</time></trkpt><trkpt lat="43.3704491" lon="11.9523349"><ele>551.0</ele><time>2026-04-24T17:51:01.06Z</time></trkpt><trkpt lat="43.3702657" lon="11.9523399"><ele>552.0</ele><time>2026-04-24T17:51:02.031Z</time></trkpt><trkpt lat="43.3700818" lon="11.952332"><ele>553.0</ele><time>2026-04-24T17:51:03.034Z</time></trkpt><trkpt lat="43.3698994" lon="11.9523027"><ele>553.0</ele><time>2026-04-24T17:51:04.038Z</time></trkpt><trkpt lat="43.3697422" lon="11.9522323"><ele>553.0</ele><time>2026-04-24T17:51:05.036Z</time></trkpt><trkpt lat="43.3696246" lon="11.9520918"><ele>553.0</ele><time>2026-04-24T17:51:06.047Z</time></trkpt><trkpt lat="43.369524" lon="11.9519038"><ele>554.0</ele><time>2026-04-24T17:51:07.039Z</time></trkpt><trkpt lat="43.3693973" lon="11.9517128"><ele>555.0</ele><time>2026-04-24T17:51:08.05Z</time></trkpt><trkpt lat="43.3692625" lon="11.9515406"><ele>556.0</ele><time>2026-04-24T17:51:09.04Z</time></trkpt><trkpt lat="43.3691153" lon="11.9513888"><ele>556.0</ele><time>2026-04-24T17:51:10.057Z</time></trkpt><trkpt lat="43.3689627" lon="11.9512363"><ele>556.0</ele><time>2026-04-24T17:51:11.04Z</time></trkpt><trkpt lat="43.3688182" lon="11.9510796"><ele>556.0</ele><time>2026-04-24T17:51:12.043Z</time></trkpt><trkpt lat="43.3686753" lon="11.9509169"><ele>558.6666666666667</ele><time>2026-04-24T17:51:13.04Z</time></trkpt><trkpt lat="43.3685358" lon="11.950736"><ele>561.3333333333334</ele><time>2026-04-24T17:51:14.031Z</time></trkpt><trkpt lat="43.3684047" lon="11.9505426"><ele>564.0</ele><time>2026-04-24T17:51:15.045Z</time></trkpt><trkpt lat="43.3682993" lon="11.9503405"><ele>564.0</ele><time>2026-04-24T17:51:16.04Z</time></trkpt><trkpt lat="43.3682144" lon="11.9501471"><ele>564.0</ele><time>2026-04-24T17:51:17.053Z</time></trkpt><trkpt lat="43.3681437" lon="11.9500003"><ele>564.0</ele><time>2026-04-24T17:51:18.046Z</time></trkpt><trkpt lat="43.3680616" lon="11.9498653"><ele>564.0</ele><time>2026-04-24T17:51:19.055Z</time></trkpt><trkpt lat="43.3679709" lon="11.9497794"><ele>566.5</ele><time>2026-04-24T17:51:20.056Z</time></trkpt><trkpt lat="43.3678461" lon="11.9497784"><ele>569.0</ele><time>2026-04-24T17:51:21.049Z</time></trkpt><trkpt lat="43.3677181" lon="11.9498563"><ele>571.5</ele><time>2026-04-24T17:51:22.06Z</time></trkpt><trkpt lat="43.3676335" lon="11.9499629"><ele>574.0</ele><time>2026-04-24T17:51:23.05Z</time></trkpt><trkpt lat="43.3675746" lon="11.9501285"><ele>575.25</ele><time>2026-04-24T17:51:24.043Z</time></trkpt><trkpt lat="43.3675668" lon="11.9503033"><ele>576.5</ele><time>2026-04-24T17:51:25.063Z</time></trkpt><trkpt lat="43.3675936" lon="11.9504746"><ele>577.75</ele><time>2026-04-24T17:51:26.042Z</time></trkpt><trkpt lat="43.367648" lon="11.9506367"><ele>579.0</ele><time>2026-04-24T17:51:27.044Z</time></trkpt><trkpt lat="43.3677293" lon="11.9508083"><ele>579.5</ele><time>2026-04-24T17:51:28.051Z</time></trkpt><trkpt lat="43.367801" lon="11.9509912"><ele>580.0</ele><time>2026-04-24T17:51:29.047Z</time></trkpt><trkpt lat="43.3678426" lon="11.9511844"><ele>580.5</ele><time>2026-04-24T17:51:30.038Z</time></trkpt><trkpt lat="43.3678446" lon="11.9513933"><ele>581.0</ele><time>2026-04-24T17:51:31.044Z</time></trkpt><trkpt lat="43.3678387" lon="11.9515576"><ele>578.0</ele><time>2026-04-24T17:51:32.034Z</time></trkpt><trkpt lat="43.3677538" lon="11.9517343"><ele>575.0</ele><time>2026-04-24T17:51:33.041Z</time></trkpt><trkpt lat="43.3676293" lon="11.9518594"><ele>572.0</ele><time>2026-04-24T17:51:34.034Z</time></trkpt><trkpt lat="43.3675046" lon="11.951965"><ele>572.0</ele><time>2026-04-24T17:51:35.043Z</time></trkpt><trkpt lat="43.3673578" lon="11.9520775"><ele>572.0</ele><time>2026-04-24T17:51:36.045Z</time></trkpt><trkpt lat="43.3672136" lon="11.9521634"><ele>572.0</ele><time>2026-04-24T17:51:37.044Z</time></trkpt><trkpt lat="43.3670722" lon="11.9522386"><ele>570.3333333333333</ele><time>2026-04-24T17:51:38.052Z</time></trkpt><trkpt lat="43.366928" lon="11.95232"><ele>568.6666666666666</ele><time>2026-04-24T17:51:39.046Z</time></trkpt><trkpt lat="43.366792" lon="11.9523852"><ele>567.0</ele><time>2026-04-24T17:51:40.047Z</time></trkpt><trkpt lat="43.3666323" lon="11.9524173"><ele>567.0</ele><time>2026-04-24T17:51:41.048Z</time></trkpt><trkpt lat="43.3664786" lon="11.9524252"><ele>567.0</ele><time>2026-04-24T17:51:42.041Z</time></trkpt><trkpt lat="43.3663375" lon="11.9524644"><ele>567.0</ele><time>2026-04-24T17:51:43.058Z</time></trkpt><trkpt lat="43.366224" lon="11.9524998"><ele>567.0</ele><time>2026-04-24T17:51:44.042Z</time></trkpt><trkpt lat="43.366124" lon="11.9525238"><ele>562.25</ele><time>2026-04-24T17:51:45.042Z</time></trkpt><trkpt lat="43.3660215" lon="11.9525171"><ele>557.5</ele><time>2026-04-24T17:51:46.048Z</time></trkpt><trkpt lat="43.3659384" lon="11.952394"><ele>552.75</ele><time>2026-04-24T17:51:47.048Z</time></trkpt><trkpt lat="43.3659025" lon="11.9522273"><ele>548.0</ele><time>2026-04-24T17:51:48.043Z</time></trkpt><trkpt lat="43.365888" lon="11.9520555"><ele>548.0</ele><time>2026-04-24T17:51:49.044Z</time></trkpt><trkpt lat="43.3658823" lon="11.9518551"><ele>548.0</ele><time>2026-04-24T17:51:50.043Z</time></trkpt><trkpt lat="43.3658717" lon="11.9516532"><ele>548.0</ele><time>2026-04-24T17:51:51.059Z</time></trkpt><trkpt lat="43.365851" lon="11.9514427"><ele>548.0</ele><time>2026-04-24T17:51:52.045Z</time></trkpt><trkpt lat="43.365795" lon="11.9512439"><ele>549.75</ele><time>2026-04-24T17:51:53.043Z</time></trkpt><trkpt lat="43.3657164" lon="11.9510615"><ele>551.5</ele><time>2026-04-24T17:51:54.049Z</time></trkpt><trkpt lat="43.3656141" lon="11.9509092"><ele>553.25</ele><time>2026-04-24T17:51:55.059Z</time></trkpt><trkpt lat="43.3655109" lon="11.9507724"><ele>555.0</ele><time>2026-04-24T17:51:56.043Z</time></trkpt><trkpt lat="43.3653887" lon="11.9506838"><ele>555.0</ele><time>2026-04-24T17:51:57.04Z</time></trkpt><trkpt lat="43.365249" lon="11.9506491"><ele>555.0</ele><time>2026-04-24T17:51:58.033Z</time></trkpt><trkpt lat="43.3650704" lon="11.950659"><ele>555.0</ele><time>2026-04-24T17:51:59.055Z</time></trkpt><trkpt lat="43.3648983" lon="11.9506701"><ele>555.0</ele><time>2026-04-24T17:52:00.036Z</time></trkpt><trkpt lat="43.364738" lon="11.9506919"><ele>555.0</ele><time>2026-04-24T17:52:01.035Z</time></trkpt><trkpt lat="43.3645889" lon="11.9507087"><ele>555.0</ele><time>2026-04-24T17:52:02.043Z</time></trkpt><trkpt lat="43.3644505" lon="11.9506896"><ele>552.0</ele><time>2026-04-24T17:52:03.049Z</time></trkpt><trkpt lat="43.3643244" lon="11.9505996"><ele>549.0</ele><time>2026-04-24T17:52:04.031Z</time></trkpt><trkpt lat="43.3642114" lon="11.9505039"><ele>546.0</ele><time>2026-04-24T17:52:05.035Z</time></trkpt><trkpt lat="43.3640984" lon="11.9504144"><ele>543.0</ele><time>2026-04-24T17:52:06.044Z</time></trkpt><trkpt lat="43.3639913" lon="11.9503619"><ele>543.0</ele><time>2026-04-24T17:52:07.047Z</time></trkpt><trkpt lat="43.3638995" lon="11.9504202"><ele>543.0</ele><time>2026-04-24T17:52:08.043Z</time></trkpt><trkpt lat="43.3638326" lon="11.9505337"><ele>543.0</ele><time>2026-04-24T17:52:09.032Z</time></trkpt><trkpt lat="43.3637679" lon="11.9506714"><ele>543.0</ele><time>2026-04-24T17:52:10.045Z</time></trkpt><trkpt lat="43.3637123" lon="11.9508066"><ele>543.0</ele><time>2026-04-24T17:52:11.042Z</time></trkpt><trkpt lat="43.3636508" lon="11.9508983"><ele>542.5</ele><time>2026-04-24T17:52:12.053Z</time></trkpt><trkpt lat="43.3635415" lon="11.9508673"><ele>542.0</ele><time>2026-04-24T17:52:13.041Z</time></trkpt><trkpt lat="43.3634269" lon="11.9508123"><ele>541.5</ele><time>2026-04-24T17:52:14.052Z</time></trkpt><trkpt lat="43.3633403" lon="11.9507165"><ele>541.0</ele><time>2026-04-24T17:52:15.054Z</time></trkpt><trkpt lat="43.3632764" lon="11.9505989"><ele>541.0</ele><time>2026-04-24T17:52:16.049Z</time></trkpt><trkpt lat="43.3631912" lon="11.9504782"><ele>541.0</ele><time>2026-04-24T17:52:17.049Z</time></trkpt><trkpt lat="43.3630924" lon="11.9504038"><ele>541.0</ele><time>2026-04-24T17:52:18.052Z</time></trkpt><trkpt lat="43.3629597" lon="11.9504284"><ele>541.0</ele><time>2026-04-24T17:52:19.047Z</time></trkpt><trkpt lat="43.3628426" lon="11.9505217"><ele>542.75</ele><time>2026-04-24T17:52:20.063Z</time></trkpt><trkpt lat="43.3627625" lon="11.9506518"><ele>544.5</ele><time>2026-04-24T17:52:21.044Z</time></trkpt><trkpt lat="43.3626929" lon="11.9508153"><ele>546.25</ele><time>2026-04-24T17:52:22.042Z</time></trkpt><trkpt lat="43.3626089" lon="11.9509815"><ele>548.0</ele><time>2026-04-24T17:52:23.042Z</time></trkpt><trkpt lat="43.3625236" lon="11.9511224"><ele>543.5</ele><time>2026-04-24T17:52:24.044Z</time></trkpt><trkpt lat="43.362414" lon="11.9512213"><ele>539.0</ele><time>2026-04-24T17:52:25.037Z</time></trkpt><trkpt lat="43.3622844" lon="11.9512511"><ele>534.5</ele><time>2026-04-24T17:52:26.054Z</time></trkpt><trkpt lat="43.3621415" lon="11.9512559"><ele>530.0</ele><time>2026-04-24T17:52:27.043Z</time></trkpt><trkpt lat="43.3620225" lon="11.951277"><ele>530.0</ele><time>2026-04-24T17:52:28.043Z</time></trkpt><trkpt lat="43.361917" lon="11.9514015"><ele>530.0</ele><time>2026-04-24T17:52:29.047Z</time></trkpt><trkpt lat="43.3618594" lon="11.951546"><ele>530.0</ele><time>2026-04-24T17:52:30.043Z</time></trkpt><trkpt lat="43.3617763" lon="11.9516733"><ele>530.0</ele><time>2026-04-24T17:52:31.055Z</time></trkpt><trkpt lat="43.3616968" lon="11.9517937"><ele>519.3333333333333</ele><time>2026-04-24T17:52:32.046Z</time></trkpt><trkpt lat="43.3615755" lon="11.9518659"><ele>508.66666666666663</ele><time>2026-04-24T17:52:33.042Z</time></trkpt><trkpt lat="43.3614108" lon="11.9519166"><ele>498.0</ele><time>2026-04-24T17:52:34.059Z</time></trkpt><trkpt lat="43.3612609" lon="11.9519199"><ele>497.5</ele><time>2026-04-24T17:52:35.038Z</time></trkpt><trkpt lat="43.3611087" lon="11.9518868"><ele>497.0</ele><time>2026-04-24T17:52:36.039Z</time></trkpt><trkpt lat="43.3609752" lon="11.9518193"><ele>496.5</ele><time>2026-04-24T17:52:37.06Z</time></trkpt><trkpt lat="43.3608536" lon="11.9517325"><ele>496.0</ele><time>2026-04-24T17:52:38.071Z</time></trkpt><trkpt lat="43.3607223" lon="11.9516142"><ele>502.6666666666667</ele><time>2026-04-24T17:52:39.047Z</time></trkpt><trkpt lat="43.3605725" lon="11.9515346"><ele>509.33333333333337</ele><time>2026-04-24T17:52:40.045Z</time></trkpt><trkpt lat="43.3604143" lon="11.9515227"><ele>516.0</ele><time>2026-04-24T17:52:41.048Z</time></trkpt><trkpt lat="43.3602326" lon="11.951549"><ele>516.0</ele><time>2026-04-24T17:52:42.048Z</time></trkpt><trkpt lat="43.3600684" lon="11.9516033"><ele>516.0</ele><time>2026-04-24T17:52:43.045Z</time></trkpt><trkpt lat="43.3598996" lon="11.9516406"><ele>516.0</ele><time>2026-04-24T17:52:44.069Z</time></trkpt><trkpt lat="43.3597447" lon="11.9516436"><ele>512.6666666666666</ele><time>2026-04-24T17:52:45.045Z</time></trkpt><trkpt lat="43.3595862" lon="11.951587"><ele>509.3333333333333</ele><time>2026-04-24T17:52:46.048Z</time></trkpt><trkpt lat="43.3594405" lon="11.9514944"><ele>506.0</ele><time>2026-04-24T17:52:47.046Z</time></trkpt><trkpt lat="43.3592866" lon="11.951392"><ele>506.0</ele><time>2026-04-24T17:52:48.065Z</time></trkpt><trkpt lat="43.3591384" lon="11.9513302"><ele>506.0</ele><time>2026-04-24T17:52:49.048Z</time></trkpt><trkpt lat="43.358978" lon="11.9513264"><ele>506.0</ele><time>2026-04-24T17:52:50.053Z</time></trkpt><trkpt lat="43.3588012" lon="11.9513567"><ele>507.3333333333333</ele><time>2026-04-24T17:52:51.048Z</time></trkpt><trkpt lat="43.3586388" lon="11.951383"><ele>508.66666666666663</ele><time>2026-04-24T17:52:52.068Z</time></trkpt><trkpt lat="43.3584888" lon="11.951394"><ele>510.0</ele><time>2026-04-24T17:52:53.048Z</time></trkpt><trkpt lat="43.3583439" lon="11.951396"><ele>510.0</ele><time>2026-04-24T17:52:54.055Z</time></trkpt><trkpt lat="43.3581907" lon="11.9514049"><ele>510.0</ele><time>2026-04-24T17:52:55.042Z</time></trkpt><trkpt lat="43.3580614" lon="11.9514673"><ele>510.0</ele><time>2026-04-24T17:52:56.082Z</time></trkpt><trkpt lat="43.3579655" lon="11.9515986"><ele>510.0</ele><time>2026-04-24T17:52:57.045Z</time></trkpt><trkpt lat="43.3578887" lon="11.9517735"><ele>508.0</ele><time>2026-04-24T17:52:58.052Z</time></trkpt><trkpt lat="43.3578303" lon="11.9519793"><ele>506.0</ele><time>2026-04-24T17:52:59.047Z</time></trkpt><trkpt lat="43.3577731" lon="11.9521523"><ele>504.0</ele><time>2026-04-24T17:53:00.061Z</time></trkpt><trkpt lat="43.357718" lon="11.9523041"><ele>502.0</ele><time>2026-04-24T17:53:01.045Z</time></trkpt><trkpt lat="43.3576522" lon="11.9524409"><ele>502.0</ele><time>2026-04-24T17:53:02.05Z</time></trkpt><trkpt lat="43.3575684" lon="11.9525409"><ele>502.0</ele><time>2026-04-24T17:53:03.045Z</time></trkpt><trkpt lat="43.3574875" lon="11.9525917"><ele>502.0</ele><time>2026-04-24T17:53:04.056Z</time></trkpt><trkpt lat="43.3573768" lon="11.9525495"><ele>502.0</ele><time>2026-04-24T17:53:05.039Z</time></trkpt><trkpt lat="43.3572612" lon="11.9524467"><ele>495.6666666666667</ele><time>2026-04-24T17:53:06.046Z</time></trkpt><trkpt lat="43.3571518" lon="11.9522895"><ele>489.33333333333337</ele><time>2026-04-24T17:53:07.049Z</time></trkpt><trkpt lat="43.3570502" lon="11.9521281"><ele>483.0</ele><time>2026-04-24T17:53:08.05Z</time></trkpt><trkpt lat="43.3569369" lon="11.9519784"><ele>483.0</ele><time>2026-04-24T17:53:09.063Z</time></trkpt><trkpt lat="43.3568019" lon="11.9518662"><ele>483.0</ele><time>2026-04-24T17:53:10.046Z</time></trkpt><trkpt lat="43.3566477" lon="11.9517893"><ele>483.0</ele><time>2026-04-24T17:53:11.046Z</time></trkpt><trkpt lat="43.356486" lon="11.9517548"><ele>481.66666666666663</ele><time>2026-04-24T17:53:12.043Z</time></trkpt><trkpt lat="43.3563137" lon="11.951759"><ele>480.3333333333333</ele><time>2026-04-24T17:53:13.048Z</time></trkpt><trkpt lat="43.3561546" lon="11.9517407"><ele>479.0</ele><time>2026-04-24T17:53:14.045Z</time></trkpt><trkpt lat="43.3560147" lon="11.9516893"><ele>483.0</ele><time>2026-04-24T17:53:15.053Z</time></trkpt><trkpt lat="43.3559114" lon="11.9515887"><ele>487.0</ele><time>2026-04-24T17:53:16.048Z</time></trkpt><trkpt lat="43.3558352" lon="11.9514464"><ele>491.0</ele><time>2026-04-24T17:53:17.038Z</time></trkpt><trkpt lat="43.3557722" lon="11.9512809"><ele>495.0</ele><time>2026-04-24T17:53:18.056Z</time></trkpt><trkpt lat="43.3557229" lon="11.951103"><ele>495.0</ele><time>2026-04-24T17:53:19.058Z</time></trkpt><trkpt lat="43.3557112" lon="11.950921"><ele>495.0</ele><time>2026-04-24T17:53:20.054Z</time></trkpt><trkpt lat="43.3557218" lon="11.9507757"><ele>495.0</ele><time>2026-04-24T17:53:21.047Z</time></trkpt><trkpt lat="43.3557429" lon="11.9506176"><ele>495.0</ele><time>2026-04-24T17:53:22.046Z</time></trkpt><trkpt lat="43.3557395" lon="11.9504664"><ele>495.4</ele><time>2026-04-24T17:53:23.05Z</time></trkpt><trkpt lat="43.3557236" lon="11.9503349"><ele>495.8</ele><time>2026-04-24T17:53:24.071Z</time></trkpt><trkpt lat="43.3557272" lon="11.950189"><ele>496.20000000000005</ele><time>2026-04-24T17:53:25.046Z</time></trkpt><trkpt lat="43.3557471" lon="11.9500949"><ele>496.6</ele><time>2026-04-24T17:53:26.043Z</time></trkpt><trkpt lat="43.3558236" lon="11.9499969"><ele>497.0</ele><time>2026-04-24T17:53:27.055Z</time></trkpt><trkpt lat="43.3559445" lon="11.9499137"><ele>495.75</ele><time>2026-04-24T17:53:28.05Z</time></trkpt><trkpt lat="43.3560743" lon="11.9498134"><ele>494.5</ele><time>2026-04-24T17:53:29.053Z</time></trkpt><trkpt lat="43.356201" lon="11.9497028"><ele>493.25</ele><time>2026-04-24T17:53:30.053Z</time></trkpt><trkpt lat="43.3563225" lon="11.9495816"><ele>492.0</ele><time>2026-04-24T17:53:31.059Z</time></trkpt><trkpt lat="43.3564446" lon="11.9494744"><ele>495.25</ele><time>2026-04-24T17:53:32.053Z</time></trkpt><trkpt lat="43.3565635" lon="11.9494339"><ele>498.5</ele><time>2026-04-24T17:53:33.063Z</time></trkpt><trkpt lat="43.3567098" lon="11.9494168"><ele>501.75</ele><time>2026-04-24T17:53:34.054Z</time></trkpt><trkpt lat="43.3568691" lon="11.9494225"><ele>505.0</ele><time>2026-04-24T17:53:35.048Z</time></trkpt><trkpt lat="43.3570332" lon="11.9494172"><ele>505.0</ele><time>2026-04-24T17:53:36.045Z</time></trkpt><trkpt lat="43.3571774" lon="11.9494165"><ele>505.0</ele><time>2026-04-24T17:53:37.054Z</time></trkpt><trkpt lat="43.3573097" lon="11.9494138"><ele>505.0</ele><time>2026-04-24T17:53:38.044Z</time></trkpt><trkpt lat="43.3574327" lon="11.9493868"><ele>505.0</ele><time>2026-04-24T17:53:39.037Z</time></trkpt><trkpt lat="43.3575516" lon="11.9492885"><ele>498.5</ele><time>2026-04-24T17:53:40.046Z</time></trkpt><trkpt lat="43.3576688" lon="11.9491673"><ele>492.0</ele><time>2026-04-24T17:53:41.051Z</time></trkpt><trkpt lat="43.3577654" lon="11.9490667"><ele>485.5</ele><time>2026-04-24T17:53:42.054Z</time></trkpt><trkpt lat="43.3578537" lon="11.9490138"><ele>479.0</ele><time>2026-04-24T17:53:43.047Z</time></trkpt><trkpt lat="43.3579773" lon="11.9490515"><ele>479.5</ele><time>2026-04-24T17:53:44.051Z</time></trkpt><trkpt lat="43.3581167" lon="11.9491075"><ele>480.0</ele><time>2026-04-24T17:53:45.055Z</time></trkpt><trkpt lat="43.3582597" lon="11.9491502"><ele>480.5</ele><time>2026-04-24T17:53:46.051Z</time></trkpt><trkpt lat="43.3584088" lon="11.9491827"><ele>481.0</ele><time>2026-04-24T17:53:47.042Z</time></trkpt><trkpt lat="43.358573" lon="11.9491919"><ele>481.0</ele><time>2026-04-24T17:53:48.057Z</time></trkpt><trkpt lat="43.3587373" lon="11.9491879"><ele>481.0</ele><time>2026-04-24T17:53:49.041Z</time></trkpt><trkpt lat="43.3588786" lon="11.9491844"><ele>481.0</ele><time>2026-04-24T17:53:50.039Z</time></trkpt><trkpt lat="43.3589941" lon="11.949121"><ele>481.0</ele><time>2026-04-24T17:53:51.047Z</time></trkpt><trkpt lat="43.3590969" lon="11.9489918"><ele>482.25</ele><time>2026-04-24T17:53:52.049Z</time></trkpt><trkpt lat="43.3591808" lon="11.9488449"><ele>483.5</ele><time>2026-04-24T17:53:53.042Z</time></trkpt><trkpt lat="43.3592361" lon="11.9487038"><ele>484.75</ele><time>2026-04-24T17:53:54.059Z</time></trkpt><trkpt lat="43.3592365" lon="11.9485612"><ele>486.0</ele><time>2026-04-24T17:53:55.044Z</time></trkpt><trkpt lat="43.3591768" lon="11.9484317"><ele>483.5</ele><time>2026-04-24T17:53:56.046Z</time></trkpt><trkpt lat="43.3590792" lon="11.948315"><ele>481.0</ele><time>2026-04-24T17:53:57.051Z</time></trkpt><trkpt lat="43.3589707" lon="11.9481814"><ele>478.5</ele><time>2026-04-24T17:53:58.045Z</time></trkpt><trkpt lat="43.3588575" lon="11.9480035"><ele>476.0</ele><time>2026-04-24T17:53:59.045Z</time></trkpt><trkpt lat="43.3587681" lon="11.9478143"><ele>469.66666666666663</ele><time>2026-04-24T17:54:00.056Z</time></trkpt><trkpt lat="43.3586851" lon="11.9476097"><ele>463.33333333333337</ele><time>2026-04-24T17:54:01.045Z</time></trkpt><trkpt lat="43.3586131" lon="11.9474019"><ele>457.0</ele><time>2026-04-24T17:54:02.061Z</time></trkpt><trkpt lat="43.3585401" lon="11.9471985"><ele>456.0</ele><time>2026-04-24T17:54:03.049Z</time></trkpt><trkpt lat="43.3584512" lon="11.9470108"><ele>455.0</ele><time>2026-04-24T17:54:04.043Z</time></trkpt><trkpt lat="43.3583318" lon="11.9468231"><ele>454.0</ele><time>2026-04-24T17:54:05.041Z</time></trkpt><trkpt lat="43.3581962" lon="11.9466656"><ele>459.33333333333337</ele><time>2026-04-24T17:54:06.063Z</time></trkpt><trkpt lat="43.3580617" lon="11.9465213"><ele>464.66666666666663</ele><time>2026-04-24T17:54:07.039Z</time></trkpt><trkpt lat="43.3579361" lon="11.9463746"><ele>470.0</ele><time>2026-04-24T17:54:08.047Z</time></trkpt><trkpt lat="43.3578338" lon="11.9462294"><ele>465.0</ele><time>2026-04-24T17:54:09.043Z</time></trkpt><trkpt lat="43.3577483" lon="11.9460874"><ele>460.0</ele><time>2026-04-24T17:54:10.064Z</time></trkpt><trkpt lat="43.3577082" lon="11.9459221"><ele>455.0</ele><time>2026-04-24T17:54:11.043Z</time></trkpt><trkpt lat="43.3577034" lon="11.9457641"><ele>450.0</ele><time>2026-04-24T17:54:12.04Z</time></trkpt><trkpt lat="43.3576774" lon="11.9456358"><ele>450.0</ele><time>2026-04-24T17:54:13.043Z</time></trkpt><trkpt lat="43.3575947" lon="11.9455556"><ele>450.0</ele><time>2026-04-24T17:54:14.041Z</time></trkpt><trkpt lat="43.3574746" lon="11.9455109"><ele>450.0</ele><time>2026-04-24T17:54:15.064Z</time></trkpt><trkpt lat="43.3573339" lon="11.945446"><ele>450.0</ele><time>2026-04-24T17:54:16.041Z</time></trkpt><trkpt lat="43.3572135" lon="11.945294"><ele>443.33333333333337</ele><time>2026-04-24T17:54:17.046Z</time></trkpt><trkpt lat="43.3571017" lon="11.9451022"><ele>436.6666666666667</ele><time>2026-04-24T17:54:18.054Z</time></trkpt><trkpt lat="43.3570164" lon="11.9449008"><ele>430.0</ele><time>2026-04-24T17:54:19.056Z</time></trkpt><trkpt lat="43.3569338" lon="11.9446958"><ele>430.0</ele><time>2026-04-24T17:54:20.055Z</time></trkpt><trkpt lat="43.3568389" lon="11.9444968"><ele>430.0</ele><time>2026-04-24T17:54:21.049Z</time></trkpt><trkpt lat="43.3567047" lon="11.9443134"><ele>430.0</ele><time>2026-04-24T17:54:22.04Z</time></trkpt><trkpt lat="43.3565554" lon="11.9441551"><ele>427.6666666666667</ele><time>2026-04-24T17:54:23.068Z</time></trkpt><trkpt lat="43.3563952" lon="11.9440021"><ele>425.33333333333337</ele><time>2026-04-24T17:54:24.046Z</time></trkpt><trkpt lat="43.3562311" lon="11.9438585"><ele>423.0</ele><time>2026-04-24T17:54:25.049Z</time></trkpt><trkpt lat="43.3560645" lon="11.9437094"><ele>423.0</ele><time>2026-04-24T17:54:26.041Z</time></trkpt><trkpt lat="43.3558935" lon="11.9435703"><ele>423.0</ele><time>2026-04-24T17:54:27.059Z</time></trkpt><trkpt lat="43.3557214" lon="11.9434395"><ele>423.0</ele><time>2026-04-24T17:54:28.044Z</time></trkpt><trkpt lat="43.3555607" lon="11.9433105"><ele>422.33333333333337</ele><time>2026-04-24T17:54:29.041Z</time></trkpt><trkpt lat="43.3554095" lon="11.9431994"><ele>421.6666666666667</ele><time>2026-04-24T17:54:30.059Z</time></trkpt><trkpt lat="43.3552602" lon="11.9431058"><ele>421.0</ele><time>2026-04-24T17:54:31.054Z</time></trkpt><trkpt lat="43.3551532" lon="11.943036"><ele>421.0</ele><time>2026-04-24T17:54:32.054Z</time></trkpt><trkpt lat="43.3550743" lon="11.9429443"><ele>421.0</ele><time>2026-04-24T17:54:33.041Z</time></trkpt><trkpt lat="43.3550171" lon="11.9428422"><ele>421.0</ele><time>2026-04-24T17:54:34.06Z</time></trkpt><trkpt lat="43.3550079" lon="11.9427244"><ele>421.0</ele><time>2026-04-24T17:54:35.041Z</time></trkpt><trkpt lat="43.3550347" lon="11.9426227"><ele>421.0</ele><time>2026-04-24T17:54:36.04Z</time></trkpt><trkpt lat="43.3551152" lon="11.9425283"><ele>421.25</ele><time>2026-04-24T17:54:37.052Z</time></trkpt><trkpt lat="43.3552375" lon="11.9424635"><ele>421.5</ele><time>2026-04-24T17:54:38.043Z</time></trkpt><trkpt lat="43.3553618" lon="11.9424199"><ele>421.75</ele><time>2026-04-24T17:54:39.043Z</time></trkpt><trkpt lat="43.3555023" lon="11.9423795"><ele>422.0</ele><time>2026-04-24T17:54:40.038Z</time></trkpt><trkpt lat="43.355653" lon="11.9423183"><ele>425.3333333333333</ele><time>2026-04-24T17:54:41.051Z</time></trkpt><trkpt lat="43.3558204" lon="11.9422552"><ele>428.66666666666663</ele><time>2026-04-24T17:54:42.046Z</time></trkpt><trkpt lat="43.3560141" lon="11.9421645"><ele>432.0</ele><time>2026-04-24T17:54:43.047Z</time></trkpt><trkpt lat="43.3562003" lon="11.9420782"><ele>430.0</ele><time>2026-04-24T17:54:44.046Z</time></trkpt><trkpt lat="43.3563803" lon="11.9419829"><ele>428.0</ele><time>2026-04-24T17:54:45.046Z</time></trkpt><trkpt lat="43.3565453" lon="11.9418559"><ele>426.0</ele><time>2026-04-24T17:54:46.045Z</time></trkpt><trkpt lat="43.3566861" lon="11.9417041"><ele>426.0</ele><time>2026-04-24T17:54:47.046Z</time></trkpt><trkpt lat="43.3568244" lon="11.9415545"><ele>426.0</ele><time>2026-04-24T17:54:48.05Z</time></trkpt><trkpt lat="43.3569175" lon="11.9414568"><ele>426.0</ele><time>2026-04-24T17:54:49.048Z</time></trkpt><trkpt lat="43.3570048" lon="11.941363"><ele>426.0</ele><time>2026-04-24T17:54:50.047Z</time></trkpt><trkpt lat="43.3570737" lon="11.9412643"><ele>426.0</ele><time>2026-04-24T17:54:51.06Z</time></trkpt><trkpt lat="43.3570793" lon="11.941125"><ele>426.0</ele><time>2026-04-24T17:54:52.048Z</time></trkpt><trkpt lat="43.3570215" lon="11.9410062"><ele>426.0</ele><time>2026-04-24T17:54:53.054Z</time></trkpt><trkpt lat="43.3569472" lon="11.9409041"><ele>426.0</ele><time>2026-04-24T17:54:54.037Z</time></trkpt><trkpt lat="43.3568304" lon="11.9408184"><ele>426.0</ele><time>2026-04-24T17:54:55.048Z</time></trkpt><trkpt lat="43.3566966" lon="11.9407265"><ele>425.33333333333337</ele><time>2026-04-24T17:54:56.048Z</time></trkpt><trkpt lat="43.3565365" lon="11.9406248"><ele>424.6666666666667</ele><time>2026-04-24T17:54:57.039Z</time></trkpt><trkpt lat="43.3563896" lon="11.940508"><ele>424.0</ele><time>2026-04-24T17:54:58.051Z</time></trkpt><trkpt lat="43.3562472" lon="11.9403623"><ele>419.0</ele><time>2026-04-24T17:54:59.042Z</time></trkpt><trkpt lat="43.3561254" lon="11.9401865"><ele>414.0</ele><time>2026-04-24T17:55:00.039Z</time></trkpt><trkpt lat="43.3560143" lon="11.9399865"><ele>409.0</ele><time>2026-04-24T17:55:01.041Z</time></trkpt><trkpt lat="43.3559025" lon="11.9397813"><ele>409.0</ele><time>2026-04-24T17:55:02.056Z</time></trkpt><trkpt lat="43.3557851" lon="11.9395669"><ele>409.0</ele><time>2026-04-24T17:55:03.038Z</time></trkpt><trkpt lat="43.355678" lon="11.9393531"><ele>409.0</ele><time>2026-04-24T17:55:04.046Z</time></trkpt><trkpt lat="43.3555902" lon="11.9391453"><ele>411.75</ele><time>2026-04-24T17:55:05.035Z</time></trkpt><trkpt lat="43.355541" lon="11.938933"><ele>414.5</ele><time>2026-04-24T17:55:06.05Z</time></trkpt><trkpt lat="43.3555251" lon="11.9387637"><ele>417.25</ele><time>2026-04-24T17:55:07.043Z</time></trkpt><trkpt lat="43.3555588" lon="11.9386009"><ele>420.0</ele><time>2026-04-24T17:55:08.047Z</time></trkpt><trkpt lat="43.3556378" lon="11.9384436"><ele>419.0</ele><time>2026-04-24T17:55:09.039Z</time></trkpt><trkpt lat="43.3557111" lon="11.9382667"><ele>418.0</ele><time>2026-04-24T17:55:10.062Z</time></trkpt><trkpt lat="43.3557566" lon="11.9380775"><ele>417.0</ele><time>2026-04-24T17:55:11.042Z</time></trkpt><trkpt lat="43.3557726" lon="11.9378668"><ele>416.0</ele><time>2026-04-24T17:55:12.046Z</time></trkpt><trkpt lat="43.3557377" lon="11.9377117"><ele>416.0</ele><time>2026-04-24T17:55:13.053Z</time></trkpt><trkpt lat="43.3556604" lon="11.9375789"><ele>416.0</ele><time>2026-04-24T17:55:14.046Z</time></trkpt><trkpt lat="43.3555507" lon="11.9374994"><ele>416.0</ele><time>2026-04-24T17:55:15.06Z</time></trkpt><trkpt lat="43.3554108" lon="11.9374934"><ele>416.0</ele><time>2026-04-24T17:55:16.052Z</time></trkpt><trkpt lat="43.3552426" lon="11.9375335"><ele>407.0</ele><time>2026-04-24T17:55:17.038Z</time></trkpt><trkpt lat="43.3550808" lon="11.9376056"><ele>398.0</ele><time>2026-04-24T17:55:18.063Z</time></trkpt><trkpt lat="43.3549414" lon="11.9376994"><ele>389.0</ele><time>2026-04-24T17:55:19.042Z</time></trkpt><trkpt lat="43.3547816" lon="11.9377674"><ele>385.5</ele><time>2026-04-24T17:55:20.044Z</time></trkpt><trkpt lat="43.3546545" lon="11.9378118"><ele>382.0</ele><time>2026-04-24T17:55:21.045Z</time></trkpt><trkpt lat="43.3545428" lon="11.9378226"><ele>378.5</ele><time>2026-04-24T17:55:22.061Z</time></trkpt><trkpt lat="43.3544417" lon="11.9377735"><ele>375.0</ele><time>2026-04-24T17:55:23.047Z</time></trkpt><trkpt lat="43.3543774" lon="11.9376166"><ele>378.33333333333337</ele><time>2026-04-24T17:55:24.043Z</time></trkpt><trkpt lat="43.3543373" lon="11.9373857"><ele>381.6666666666667</ele><time>2026-04-24T17:55:25.06Z</time></trkpt><trkpt lat="43.3543161" lon="11.9371622"><ele>385.0</ele><time>2026-04-24T17:55:26.04Z</time></trkpt><trkpt lat="43.3543178" lon="11.9369531"><ele>385.0</ele><time>2026-04-24T17:55:27.043Z</time></trkpt><trkpt lat="43.3543318" lon="11.9367411"><ele>385.0</ele><time>2026-04-24T17:55:28.038Z</time></trkpt><trkpt lat="43.3543601" lon="11.9365132"><ele>385.0</ele><time>2026-04-24T17:55:29.053Z</time></trkpt><trkpt lat="43.3543879" lon="11.9363092"><ele>385.0</ele><time>2026-04-24T17:55:30.034Z</time></trkpt><trkpt lat="43.3544022" lon="11.9361018"><ele>385.0</ele><time>2026-04-24T17:55:31.046Z</time></trkpt><trkpt lat="43.3543975" lon="11.9359072"><ele>385.0</ele><time>2026-04-24T17:55:32.046Z</time></trkpt><trkpt lat="43.3543266" lon="11.9357339"><ele>385.0</ele><time>2026-04-24T17:55:33.047Z</time></trkpt><trkpt lat="43.3542748" lon="11.9355598"><ele>384.5</ele><time>2026-04-24T17:55:34.044Z</time></trkpt><trkpt lat="43.3542255" lon="11.9354048"><ele>384.0</ele><time>2026-04-24T17:55:35.06Z</time></trkpt><trkpt lat="43.3541989" lon="11.9352588"><ele>383.5</ele><time>2026-04-24T17:55:36.044Z</time></trkpt><trkpt lat="43.3542265" lon="11.9351063"><ele>383.0</ele><time>2026-04-24T17:55:37.049Z</time></trkpt><trkpt lat="43.3543153" lon="11.9349675"><ele>382.0</ele><time>2026-04-24T17:55:38.048Z</time></trkpt><trkpt lat="43.3544369" lon="11.9348502"><ele>381.0</ele><time>2026-04-24T17:55:39.048Z</time></trkpt><trkpt lat="43.3545511" lon="11.9347401"><ele>380.0</ele><time>2026-04-24T17:55:40.044Z</time></trkpt><trkpt lat="43.3546438" lon="11.9346464"><ele>379.0</ele><time>2026-04-24T17:55:41.049Z</time></trkpt><trkpt lat="43.3547115" lon="11.9345365"><ele>379.0</ele><time>2026-04-24T17:55:42.038Z</time></trkpt><trkpt lat="43.3546966" lon="11.9344086"><ele>379.0</ele><time>2026-04-24T17:55:43.063Z</time></trkpt><trkpt lat="43.3546416" lon="11.9342954"><ele>379.0</ele><time>2026-04-24T17:55:44.053Z</time></trkpt><trkpt lat="43.3545423" lon="11.9342127"><ele>379.0</ele><time>2026-04-24T17:55:45.048Z</time></trkpt><trkpt lat="43.3544035" lon="11.934173"><ele>381.0</ele><time>2026-04-24T17:55:46.059Z</time></trkpt><trkpt lat="43.354204" lon="11.9341673"><ele>383.0</ele><time>2026-04-24T17:55:47.064Z</time></trkpt><trkpt lat="43.3539727" lon="11.9341442"><ele>385.0</ele><time>2026-04-24T17:55:48.052Z</time></trkpt><trkpt lat="43.353741" lon="11.9340902"><ele>380.33333333333337</ele><time>2026-04-24T17:55:49.054Z</time></trkpt><trkpt lat="43.3535118" lon="11.9340534"><ele>375.6666666666667</ele><time>2026-04-24T17:55:50.049Z</time></trkpt><trkpt lat="43.3533108" lon="11.934013"><ele>371.0</ele><time>2026-04-24T17:55:51.048Z</time></trkpt><trkpt lat="43.3531322" lon="11.9339678"><ele>368.0</ele><time>2026-04-24T17:55:52.051Z</time></trkpt><trkpt lat="43.3529822" lon="11.9339273"><ele>365.0</ele><time>2026-04-24T17:55:53.052Z</time></trkpt><trkpt lat="43.3528641" lon="11.9338719"><ele>362.0</ele><time>2026-04-24T17:55:54.05Z</time></trkpt><trkpt lat="43.3527643" lon="11.9337846"><ele>359.0</ele><time>2026-04-24T17:55:55.039Z</time></trkpt><trkpt lat="43.352688" lon="11.9336559"><ele>359.0</ele><time>2026-04-24T17:55:56.043Z</time></trkpt><trkpt lat="43.3526441" lon="11.9334614"><ele>359.0</ele><time>2026-04-24T17:55:57.05Z</time></trkpt><trkpt lat="43.352628" lon="11.9332421"><ele>359.0</ele><time>2026-04-24T17:55:58.053Z</time></trkpt><trkpt lat="43.3526236" lon="11.933035"><ele>358.5</ele><time>2026-04-24T17:55:59.056Z</time></trkpt><trkpt lat="43.3526405" lon="11.9328496"><ele>358.0</ele><time>2026-04-24T17:56:00.045Z</time></trkpt><trkpt lat="43.3526967" lon="11.932686"><ele>357.5</ele><time>2026-04-24T17:56:01.05Z</time></trkpt><trkpt lat="43.352793" lon="11.9325404"><ele>357.0</ele><time>2026-04-24T17:56:02.045Z</time></trkpt><trkpt lat="43.3528875" lon="11.932379"><ele>357.0</ele><time>2026-04-24T17:56:03.061Z</time></trkpt><trkpt lat="43.3529201" lon="11.9321549"><ele>357.0</ele><time>2026-04-24T17:56:04.043Z</time></trkpt><trkpt lat="43.3529109" lon="11.9319149"><ele>357.0</ele><time>2026-04-24T17:56:05.046Z</time></trkpt><trkpt lat="43.3528984" lon="11.9316685"><ele>355.0</ele><time>2026-04-24T17:56:06.048Z</time></trkpt><trkpt lat="43.3529076" lon="11.9314203"><ele>353.0</ele><time>2026-04-24T17:56:07.047Z</time></trkpt><trkpt lat="43.3529255" lon="11.931165"><ele>351.0</ele><time>2026-04-24T17:56:08.046Z</time></trkpt><trkpt lat="43.3529369" lon="11.9309008"><ele>351.3333333333333</ele><time>2026-04-24T17:56:09.045Z</time></trkpt><trkpt lat="43.3529522" lon="11.930641"><ele>351.66666666666663</ele><time>2026-04-24T17:56:10.039Z</time></trkpt><trkpt lat="43.3529662" lon="11.9303965"><ele>352.0</ele><time>2026-04-24T17:56:11.047Z</time></trkpt><trkpt lat="43.3529866" lon="11.9301683"><ele>350.3333333333333</ele><time>2026-04-24T17:56:12.051Z</time></trkpt><trkpt lat="43.3530118" lon="11.9299456"><ele>348.6666666666667</ele><time>2026-04-24T17:56:13.047Z</time></trkpt><trkpt lat="43.353057" lon="11.9297283"><ele>347.0</ele><time>2026-04-24T17:56:14.046Z</time></trkpt><trkpt lat="43.3531109" lon="11.9295387"><ele>347.75</ele><time>2026-04-24T17:56:15.059Z</time></trkpt><trkpt lat="43.3531513" lon="11.9293561"><ele>348.5</ele><time>2026-04-24T17:56:16.05Z</time></trkpt><trkpt lat="43.3531529" lon="11.9291578"><ele>349.25</ele><time>2026-04-24T17:56:17.048Z</time></trkpt><trkpt lat="43.3531054" lon="11.9289672"><ele>350.0</ele><time>2026-04-24T17:56:18.06Z</time></trkpt><trkpt lat="43.353034" lon="11.9287916"><ele>350.0</ele><time>2026-04-24T17:56:19.044Z</time></trkpt><trkpt lat="43.3529486" lon="11.9286323"><ele>350.0</ele><time>2026-04-24T17:56:20.043Z</time></trkpt><trkpt lat="43.352847" lon="11.9285232"><ele>350.0</ele><time>2026-04-24T17:56:21.056Z</time></trkpt><trkpt lat="43.3527267" lon="11.9284857"><ele>350.0</ele><time>2026-04-24T17:56:22.046Z</time></trkpt><trkpt lat="43.3525786" lon="11.9285082"><ele>350.0</ele><time>2026-04-24T17:56:23.058Z</time></trkpt><trkpt lat="43.3524154" lon="11.9285449"><ele>350.0</ele><time>2026-04-24T17:56:24.05Z</time></trkpt><trkpt lat="43.3522524" lon="11.9285755"><ele>350.0</ele><time>2026-04-24T17:56:25.049Z</time></trkpt><trkpt lat="43.3520759" lon="11.9285805"><ele>346.6666666666667</ele><time>2026-04-24T17:56:26.043Z</time></trkpt><trkpt lat="43.3518894" lon="11.9285637"><ele>343.3333333333333</ele><time>2026-04-24T17:56:27.056Z</time></trkpt><trkpt lat="43.3517087" lon="11.9285408"><ele>340.0</ele><time>2026-04-24T17:56:28.047Z</time></trkpt><trkpt lat="43.3515289" lon="11.92851"><ele>338.0</ele><time>2026-04-24T17:56:29.049Z</time></trkpt><trkpt lat="43.3513559" lon="11.9284549"><ele>336.0</ele><time>2026-04-24T17:56:30.052Z</time></trkpt><trkpt lat="43.3511984" lon="11.9283849"><ele>334.0</ele><time>2026-04-24T17:56:31.042Z</time></trkpt><trkpt lat="43.3510474" lon="11.9282877"><ele>339.66666666666663</ele><time>2026-04-24T17:56:32.053Z</time></trkpt><trkpt lat="43.3509134" lon="11.9281427"><ele>345.3333333333333</ele><time>2026-04-24T17:56:33.055Z</time></trkpt><trkpt lat="43.3508148" lon="11.9279654"><ele>351.0</ele><time>2026-04-24T17:56:34.047Z</time></trkpt><trkpt lat="43.3507658" lon="11.9277676"><ele>351.0</ele><time>2026-04-24T17:56:35.059Z</time></trkpt><trkpt lat="43.3507476" lon="11.9275972"><ele>351.0</ele><time>2026-04-24T17:56:36.055Z</time></trkpt><trkpt lat="43.3507641" lon="11.9273793"><ele>351.0</ele><time>2026-04-24T17:56:37.053Z</time></trkpt><trkpt lat="43.3508063" lon="11.9271488"><ele>351.0</ele><time>2026-04-24T17:56:38.053Z</time></trkpt><trkpt lat="43.3508508" lon="11.9269001"><ele>351.0</ele><time>2026-04-24T17:56:39.056Z</time></trkpt><trkpt lat="43.3508981" lon="11.9266425"><ele>351.0</ele><time>2026-04-24T17:56:40.056Z</time></trkpt><trkpt lat="43.3509489" lon="11.9263757"><ele>349.0</ele><time>2026-04-24T17:56:41.049Z</time></trkpt><trkpt lat="43.3510201" lon="11.9261215"><ele>347.0</ele><time>2026-04-24T17:56:42.048Z</time></trkpt><trkpt lat="43.351095" lon="11.9258935"><ele>345.0</ele><time>2026-04-24T17:56:43.044Z</time></trkpt><trkpt lat="43.3511737" lon="11.9256935"><ele>344.4</ele><time>2026-04-24T17:56:44.054Z</time></trkpt><trkpt lat="43.3512271" lon="11.9255215"><ele>343.8</ele><time>2026-04-24T17:56:45.043Z</time></trkpt><trkpt lat="43.3512502" lon="11.9253739"><ele>343.20000000000005</ele><time>2026-04-24T17:56:46.053Z</time></trkpt><trkpt lat="43.3512315" lon="11.9252529"><ele>342.6</ele><time>2026-04-24T17:56:47.059Z</time></trkpt><trkpt lat="43.3511651" lon="11.9251563"><ele>342.0</ele><time>2026-04-24T17:56:48.052Z</time></trkpt><trkpt lat="43.351066" lon="11.9250994"><ele>342.0</ele><time>2026-04-24T17:56:49.053Z</time></trkpt><trkpt lat="43.3509467" lon="11.925061"><ele>342.0</ele><time>2026-04-24T17:56:50.051Z</time></trkpt><trkpt lat="43.3508109" lon="11.9250586"><ele>342.0</ele><time>2026-04-24T17:56:51.051Z</time></trkpt><trkpt lat="43.350643" lon="11.9250895"><ele>342.0</ele><time>2026-04-24T17:56:52.053Z</time></trkpt><trkpt lat="43.3504745" lon="11.9251574"><ele>339.0</ele><time>2026-04-24T17:56:53.046Z</time></trkpt><trkpt lat="43.3503197" lon="11.9252653"><ele>336.0</ele><time>2026-04-24T17:56:54.06Z</time></trkpt><trkpt lat="43.3501672" lon="11.9254121"><ele>333.0</ele><time>2026-04-24T17:56:55.052Z</time></trkpt><trkpt lat="43.3500096" lon="11.9255618"><ele>333.0</ele><time>2026-04-24T17:56:56.046Z</time></trkpt><trkpt lat="43.3498489" lon="11.925692"><ele>333.0</ele><time>2026-04-24T17:56:57.049Z</time></trkpt><trkpt lat="43.3496683" lon="11.9257969"><ele>333.0</ele><time>2026-04-24T17:56:58.051Z</time></trkpt><trkpt lat="43.3495047" lon="11.9258718"><ele>333.6666666666667</ele><time>2026-04-24T17:56:59.045Z</time></trkpt><trkpt lat="43.3493445" lon="11.9259089"><ele>334.33333333333337</ele><time>2026-04-24T17:57:00.056Z</time></trkpt><trkpt lat="43.3491934" lon="11.9259132"><ele>335.0</ele><time>2026-04-24T17:57:01.056Z</time></trkpt><trkpt lat="43.3490501" lon="11.9258719"><ele>335.0</ele><time>2026-04-24T17:57:02.049Z</time></trkpt><trkpt lat="43.3489063" lon="11.9257769"><ele>335.0</ele><time>2026-04-24T17:57:03.048Z</time></trkpt><trkpt lat="43.3487831" lon="11.9256291"><ele>335.0</ele><time>2026-04-24T17:57:04.045Z</time></trkpt><trkpt lat="43.3486919" lon="11.9254387"><ele>335.25</ele><time>2026-04-24T17:57:05.049Z</time></trkpt><trkpt lat="43.3486417" lon="11.9252626"><ele>335.5</ele><time>2026-04-24T17:57:06.046Z</time></trkpt><trkpt lat="43.3486064" lon="11.9251037"><ele>335.75</ele><time>2026-04-24T17:57:07.041Z</time></trkpt><trkpt lat="43.3485332" lon="11.9249767"><ele>336.0</ele><time>2026-04-24T17:57:08.043Z</time></trkpt><trkpt lat="43.3484145" lon="11.9249298"><ele>336.0</ele><time>2026-04-24T17:57:09.044Z</time></trkpt><trkpt lat="43.3482739" lon="11.92494"><ele>336.0</ele><time>2026-04-24T17:57:10.056Z</time></trkpt><trkpt lat="43.348106" lon="11.9249908"><ele>336.0</ele><time>2026-04-24T17:57:11.042Z</time></trkpt><trkpt lat="43.3479559" lon="11.9250517"><ele>330.6666666666667</ele><time>2026-04-24T17:57:12.045Z</time></trkpt><trkpt lat="43.3478037" lon="11.9251586"><ele>325.33333333333337</ele><time>2026-04-24T17:57:13.044Z</time></trkpt><trkpt lat="43.3476833" lon="11.9252904"><ele>320.0</ele><time>2026-04-24T17:57:14.038Z</time></trkpt><trkpt lat="43.3475837" lon="11.9254158"><ele>320.0</ele><time>2026-04-24T17:57:15.06Z</time></trkpt><trkpt lat="43.3474739" lon="11.9255018"><ele>320.0</ele><time>2026-04-24T17:57:16.045Z</time></trkpt><trkpt lat="43.3473464" lon="11.9255523"><ele>320.0</ele><time>2026-04-24T17:57:17.046Z</time></trkpt><trkpt lat="43.3471964" lon="11.925544"><ele>320.0</ele><time>2026-04-24T17:57:18.044Z</time></trkpt><trkpt lat="43.3470323" lon="11.9254865"><ele>318.0</ele><time>2026-04-24T17:57:19.049Z</time></trkpt><trkpt lat="43.3468643" lon="11.9254023"><ele>316.0</ele><time>2026-04-24T17:57:20.056Z</time></trkpt><trkpt lat="43.3466904" lon="11.9252964"><ele>314.0</ele><time>2026-04-24T17:57:21.052Z</time></trkpt><trkpt lat="43.34651" lon="11.9251734"><ele>315.0</ele><time>2026-04-24T17:57:22.05Z</time></trkpt><trkpt lat="43.3463384" lon="11.925046"><ele>316.0</ele><time>2026-04-24T17:57:23.05Z</time></trkpt><trkpt lat="43.346173" lon="11.9249163"><ele>317.0</ele><time>2026-04-24T17:57:24.042Z</time></trkpt><trkpt lat="43.3460079" lon="11.9247898"><ele>317.0</ele><time>2026-04-24T17:57:25.055Z</time></trkpt><trkpt lat="43.3458477" lon="11.9246549"><ele>317.0</ele><time>2026-04-24T17:57:26.046Z</time></trkpt><trkpt lat="43.3456896" lon="11.9245041"><ele>317.0</ele><time>2026-04-24T17:57:27.044Z</time></trkpt><trkpt lat="43.3455429" lon="11.9243389"><ele>317.33333333333337</ele><time>2026-04-24T17:57:28.04Z</time></trkpt><trkpt lat="43.3454042" lon="11.9241639"><ele>317.6666666666667</ele><time>2026-04-24T17:57:29.045Z</time></trkpt><trkpt lat="43.3452803" lon="11.9239911"><ele>318.0</ele><time>2026-04-24T17:57:30.052Z</time></trkpt><trkpt lat="43.3451687" lon="11.923837"><ele>318.0</ele><time>2026-04-24T17:57:31.052Z</time></trkpt><trkpt lat="43.3450669" lon="11.9236884"><ele>318.0</ele><time>2026-04-24T17:57:32.041Z</time></trkpt><trkpt lat="43.3449886" lon="11.9235427"><ele>318.0</ele><time>2026-04-24T17:57:33.056Z</time></trkpt><trkpt lat="43.3449202" lon="11.9234034"><ele>318.0</ele><time>2026-04-24T17:57:34.045Z</time></trkpt><trkpt lat="43.3448413" lon="11.9232704"><ele>318.5</ele><time>2026-04-24T17:57:35.039Z</time></trkpt><trkpt lat="43.34476" lon="11.9231268"><ele>319.0</ele><time>2026-04-24T17:57:36.047Z</time></trkpt><trkpt lat="43.3446846" lon="11.9229963"><ele>319.5</ele><time>2026-04-24T17:57:37.054Z</time></trkpt><trkpt lat="43.3446072" lon="11.9228502"><ele>320.0</ele><time>2026-04-24T17:57:38.05Z</time></trkpt><trkpt lat="43.3445367" lon="11.9226967"><ele>320.75</ele><time>2026-04-24T17:57:39.051Z</time></trkpt><trkpt lat="43.3444592" lon="11.9225523"><ele>321.5</ele><time>2026-04-24T17:57:40.046Z</time></trkpt><trkpt lat="43.3443829" lon="11.922398"><ele>322.25</ele><time>2026-04-24T17:57:41.05Z</time></trkpt><trkpt lat="43.3443135" lon="11.9222433"><ele>323.0</ele><time>2026-04-24T17:57:42.05Z</time></trkpt><trkpt lat="43.3442451" lon="11.9220983"><ele>323.0</ele><time>2026-04-24T17:57:43.057Z</time></trkpt><trkpt lat="43.3441875" lon="11.9219652"><ele>323.0</ele><time>2026-04-24T17:57:44.038Z</time></trkpt><trkpt lat="43.3441316" lon="11.9218434"><ele>323.0</ele><time>2026-04-24T17:57:45.044Z</time></trkpt><trkpt lat="43.3440801" lon="11.921728"><ele>323.0</ele><time>2026-04-24T17:57:46.049Z</time></trkpt><trkpt lat="43.3440293" lon="11.9216104"><ele>323.0</ele><time>2026-04-24T17:57:47.053Z</time></trkpt><trkpt lat="43.3439916" lon="11.9215052"><ele>322.5</ele><time>2026-04-24T17:57:48.041Z</time></trkpt><trkpt lat="43.3439584" lon="11.9214049"><ele>322.0</ele><time>2026-04-24T17:57:49.046Z</time></trkpt><trkpt lat="43.3439406" lon="11.9213067"><ele>321.5</ele><time>2026-04-24T17:57:50.052Z</time></trkpt><trkpt lat="43.3439469" lon="11.9212122"><ele>321.0</ele><time>2026-04-24T17:57:51.048Z</time></trkpt><trkpt lat="43.3439867" lon="11.9211145"><ele>320.5</ele><time>2026-04-24T17:57:52.042Z</time></trkpt><trkpt lat="43.3440567" lon="11.9210231"><ele>320.0</ele><time>2026-04-24T17:57:53.047Z</time></trkpt><trkpt lat="43.3441124" lon="11.9209193"><ele>318.4</ele><time>2026-04-24T17:57:54.05Z</time></trkpt><trkpt lat="43.3441621" lon="11.9208024"><ele>316.8</ele><time>2026-04-24T17:57:55.044Z</time></trkpt><trkpt lat="43.3441855" lon="11.9206664"><ele>315.2</ele><time>2026-04-24T17:57:56.045Z</time></trkpt><trkpt lat="43.3442049" lon="11.9205233"><ele>313.6</ele><time>2026-04-24T17:57:57.047Z</time></trkpt><trkpt lat="43.344227" lon="11.9203789"><ele>312.0</ele><time>2026-04-24T17:57:58.037Z</time></trkpt><trkpt lat="43.3442607" lon="11.9202537"><ele>312.0</ele><time>2026-04-24T17:57:59.044Z</time></trkpt><trkpt lat="43.3442884" lon="11.920143"><ele>312.0</ele><time>2026-04-24T17:58:00.042Z</time></trkpt><trkpt lat="43.3442846" lon="11.920031"><ele>312.0</ele><time>2026-04-24T17:58:02.043Z</time></trkpt><trkpt lat="43.3441627" lon="11.9199953"><ele>312.0</ele><time>2026-04-24T17:58:04.042Z</time></trkpt><trkpt lat="43.3441016" lon="11.9200264"><ele>312.0</ele><time>2026-04-24T17:58:05.037Z</time></trkpt><trkpt lat="43.3440611" lon="11.9201153"><ele>312.0</ele><time>2026-04-24T17:58:07.046Z</time></trkpt><trkpt lat="43.3440915" lon="11.9202166"><ele>312.0</ele><time>2026-04-24T17:58:13.031Z</time></trkpt></trkseg></trk></gpx>